<?xml version='1.0' encoding='UTF-8'?><gpx version="1.1" creator="JPX - https://github.com/jenetics/jpx" xmlns="http://www.topografix.com/GPX/1/1"><trk><trkseg><trkpt lat="40.578145" lon="9.2575867"><ele>683.0</ele><time>2026-04-06T13:25:43.996Z</time></trkpt><trkpt lat="40.578205" lon="9.2576533"><ele>683.0</ele><time>2026-04-06T13:30:06.995Z</time></trkpt><trkpt lat="40.5781" lon="9.2576717"><ele>683.0</ele><time>2026-04-06T13:31:17.995Z</time></trkpt><trkpt lat="40.578035" lon="9.2576317"><ele>683.0</ele><time>2026-04-06T13:32:37.994Z</time></trkpt><trkpt lat="40.5779583" lon="9.2575917"><ele>683.0</ele><time>2026-04-06T13:32:41.994Z</time></trkpt><trkpt lat="40.5779017" lon="9.257545"><ele>683.0</ele><time>2026-04-06T13:32:43.994Z</time></trkpt><trkpt lat="40.577825" lon="9.2574283"><ele>684.1666666666666</ele><time>2026-04-06T13:32:45.994Z</time></trkpt><trkpt lat="40.5777667" lon="9.2573517"><ele>685.3333333333333</ele><time>2026-04-06T13:32:46.994Z</time></trkpt><trkpt lat="40.5777" lon="9.25728"><ele>686.5</ele><time>2026-04-06T13:32:47.994Z</time></trkpt><trkpt lat="40.5776317" lon="9.2571967"><ele>687.6666666666666</ele><time>2026-04-06T13:32:48.994Z</time></trkpt><trkpt lat="40.57756" lon="9.2571133"><ele>688.8333333333334</ele><time>2026-04-06T13:32:49.994Z</time></trkpt><trkpt lat="40.5774883" lon="9.25704"><ele>690.0</ele><time>2026-04-06T13:32:50.994Z</time></trkpt><trkpt lat="40.5774233" lon="9.25697"><ele>690.0</ele><time>2026-04-06T13:32:51.994Z</time></trkpt><trkpt lat="40.5773467" lon="9.2569133"><ele>690.0</ele><time>2026-04-06T13:32:52.994Z</time></trkpt><trkpt lat="40.5772683" lon="9.256885"><ele>690.0</ele><time>2026-04-06T13:32:53.994Z</time></trkpt><trkpt lat="40.5771933" lon="9.2568283"><ele>690.0</ele><time>2026-04-06T13:32:54.994Z</time></trkpt><trkpt lat="40.5771167" lon="9.2567933"><ele>690.0</ele><time>2026-04-06T13:32:55.994Z</time></trkpt><trkpt lat="40.5770383" lon="9.2567717"><ele>690.0</ele><time>2026-04-06T13:32:56.994Z</time></trkpt><trkpt lat="40.576965" lon="9.2567567"><ele>690.7142857142858</ele><time>2026-04-06T13:32:57.994Z</time></trkpt><trkpt lat="40.5768983" lon="9.25673"><ele>691.4285714285714</ele><time>2026-04-06T13:32:58.994Z</time></trkpt><trkpt lat="40.5768533" lon="9.2566667"><ele>692.1428571428571</ele><time>2026-04-06T13:32:59.994Z</time></trkpt><trkpt lat="40.5768033" lon="9.2566133"><ele>692.8571428571429</ele><time>2026-04-06T13:33:00.994Z</time></trkpt><trkpt lat="40.5767417" lon="9.2565783"><ele>693.5714285714286</ele><time>2026-04-06T13:33:01.994Z</time></trkpt><trkpt lat="40.5766767" lon="9.2565517"><ele>694.2857142857143</ele><time>2026-04-06T13:33:02.994Z</time></trkpt><trkpt lat="40.5766083" lon="9.25654"><ele>695.0</ele><time>2026-04-06T13:33:03.994Z</time></trkpt><trkpt lat="40.5765183" lon="9.256545"><ele>695.0</ele><time>2026-04-06T13:33:04.994Z</time></trkpt><trkpt lat="40.57644" lon="9.2565367"><ele>695.0</ele><time>2026-04-06T13:33:05.994Z</time></trkpt><trkpt lat="40.57635" lon="9.2565117"><ele>695.0</ele><time>2026-04-06T13:33:06.994Z</time></trkpt><trkpt lat="40.5762633" lon="9.2564833"><ele>695.0</ele><time>2026-04-06T13:33:07.994Z</time></trkpt><trkpt lat="40.5761733" lon="9.256445"><ele>695.0</ele><time>2026-04-06T13:33:08.994Z</time></trkpt><trkpt lat="40.576095" lon="9.25639"><ele>695.0</ele><time>2026-04-06T13:33:09.994Z</time></trkpt><trkpt lat="40.5760183" lon="9.25633"><ele>694.3333333333333</ele><time>2026-04-06T13:33:10.994Z</time></trkpt><trkpt lat="40.5759533" lon="9.2562633"><ele>693.6666666666666</ele><time>2026-04-06T13:33:11.994Z</time></trkpt><trkpt lat="40.5758867" lon="9.256195"><ele>693.0</ele><time>2026-04-06T13:33:12.994Z</time></trkpt><trkpt lat="40.5758267" lon="9.256135"><ele>692.3333333333334</ele><time>2026-04-06T13:33:13.994Z</time></trkpt><trkpt lat="40.5757417" lon="9.2560533"><ele>691.6666666666667</ele><time>2026-04-06T13:33:15.994Z</time></trkpt><trkpt lat="40.5757867" lon="9.2559433"><ele>691.0</ele><time>2026-04-06T13:33:18.994Z</time></trkpt><trkpt lat="40.5759067" lon="9.25588"><ele>691.0</ele><time>2026-04-06T13:33:20.994Z</time></trkpt><trkpt lat="40.5760383" lon="9.25589"><ele>691.0</ele><time>2026-04-06T13:33:22.995Z</time></trkpt><trkpt lat="40.5761067" lon="9.2559117"><ele>691.0</ele><time>2026-04-06T13:33:23.994Z</time></trkpt><trkpt lat="40.5761733" lon="9.2559483"><ele>691.0</ele><time>2026-04-06T13:33:24.994Z</time></trkpt><trkpt lat="40.57623" lon="9.2559967"><ele>691.0</ele><time>2026-04-06T13:33:25.994Z</time></trkpt><trkpt lat="40.57633" lon="9.256085"><ele>690.0</ele><time>2026-04-06T13:33:27.994Z</time></trkpt><trkpt lat="40.576415" lon="9.2561283"><ele>689.0</ele><time>2026-04-06T13:33:29.994Z</time></trkpt><trkpt lat="40.5764883" lon="9.2560667"><ele>688.0</ele><time>2026-04-06T13:33:31.995Z</time></trkpt><trkpt lat="40.5765483" lon="9.2559817"><ele>687.0</ele><time>2026-04-06T13:33:33.994Z</time></trkpt><trkpt lat="40.576605" lon="9.25591"><ele>686.0</ele><time>2026-04-06T13:33:36.994Z</time></trkpt><trkpt lat="40.5766217" lon="9.2558017"><ele>685.0</ele><time>2026-04-06T13:33:38.994Z</time></trkpt><trkpt lat="40.576585" lon="9.2556617"><ele>683.7142857142857</ele><time>2026-04-06T13:33:40.994Z</time></trkpt><trkpt lat="40.5765683" lon="9.2555733"><ele>682.4285714285714</ele><time>2026-04-06T13:33:41.994Z</time></trkpt><trkpt lat="40.57655" lon="9.2554767"><ele>681.1428571428571</ele><time>2026-04-06T13:33:42.994Z</time></trkpt><trkpt lat="40.5765267" lon="9.2553783"><ele>679.8571428571429</ele><time>2026-04-06T13:33:43.994Z</time></trkpt><trkpt lat="40.5765" lon="9.2552817"><ele>678.5714285714286</ele><time>2026-04-06T13:33:44.994Z</time></trkpt><trkpt lat="40.5764667" lon="9.2552"><ele>677.2857142857143</ele><time>2026-04-06T13:33:45.994Z</time></trkpt><trkpt lat="40.576435" lon="9.25512"><ele>676.0</ele><time>2026-04-06T13:33:46.994Z</time></trkpt><trkpt lat="40.576415" lon="9.2549833"><ele>676.0</ele><time>2026-04-06T13:33:48.994Z</time></trkpt><trkpt lat="40.57648" lon="9.2549333"><ele>676.0</ele><time>2026-04-06T13:33:51.994Z</time></trkpt><trkpt lat="40.576575" lon="9.2550017"><ele>676.0</ele><time>2026-04-06T13:33:53.994Z</time></trkpt><trkpt lat="40.57663" lon="9.2550433"><ele>676.0</ele><time>2026-04-06T13:33:54.994Z</time></trkpt><trkpt lat="40.576695" lon="9.255075"><ele>676.0</ele><time>2026-04-06T13:33:55.994Z</time></trkpt><trkpt lat="40.5767617" lon="9.2551167"><ele>676.0</ele><time>2026-04-06T13:33:56.994Z</time></trkpt><trkpt lat="40.576835" lon="9.25515"><ele>676.0</ele><time>2026-04-06T13:33:57.994Z</time></trkpt><trkpt lat="40.5769033" lon="9.2551633"><ele>676.0</ele><time>2026-04-06T13:33:58.994Z</time></trkpt><trkpt lat="40.5770133" lon="9.25514"><ele>676.0</ele><time>2026-04-06T13:34:00.994Z</time></trkpt><trkpt lat="40.5770817" lon="9.2550683"><ele>676.0</ele><time>2026-04-06T13:34:02.994Z</time></trkpt><trkpt lat="40.57711" lon="9.2549433"><ele>676.0</ele><time>2026-04-06T13:34:05.994Z</time></trkpt><trkpt lat="40.57709" lon="9.2548633"><ele>676.0</ele><time>2026-04-06T13:34:06.994Z</time></trkpt><trkpt lat="40.5770733" lon="9.2547617"><ele>674.8</ele><time>2026-04-06T13:34:07.994Z</time></trkpt><trkpt lat="40.5770717" lon="9.2546433"><ele>673.5999999999999</ele><time>2026-04-06T13:34:08.994Z</time></trkpt><trkpt lat="40.5770983" lon="9.2545217"><ele>672.4</ele><time>2026-04-06T13:34:09.994Z</time></trkpt><trkpt lat="40.5771383" lon="9.2544233"><ele>671.2</ele><time>2026-04-06T13:34:10.994Z</time></trkpt><trkpt lat="40.57719" lon="9.2543417"><ele>670.0</ele><time>2026-04-06T13:34:11.994Z</time></trkpt><trkpt lat="40.5772883" lon="9.2542933"><ele>670.0</ele><time>2026-04-06T13:34:12.994Z</time></trkpt><trkpt lat="40.5773867" lon="9.25425"><ele>670.0</ele><time>2026-04-06T13:34:13.994Z</time></trkpt><trkpt lat="40.5774767" lon="9.2542133"><ele>670.0</ele><time>2026-04-06T13:34:14.994Z</time></trkpt><trkpt lat="40.577565" lon="9.254175"><ele>670.0</ele><time>2026-04-06T13:34:15.994Z</time></trkpt><trkpt lat="40.57765" lon="9.2541333"><ele>670.0</ele><time>2026-04-06T13:34:16.994Z</time></trkpt><trkpt lat="40.5777267" lon="9.2541"><ele>670.0</ele><time>2026-04-06T13:34:17.994Z</time></trkpt><trkpt lat="40.5777983" lon="9.2540317"><ele>670.0</ele><time>2026-04-06T13:34:18.994Z</time></trkpt><trkpt lat="40.5778683" lon="9.253965"><ele>670.0</ele><time>2026-04-06T13:34:19.994Z</time></trkpt><trkpt lat="40.57794" lon="9.253885"><ele>670.0</ele><time>2026-04-06T13:34:20.994Z</time></trkpt><trkpt lat="40.5780067" lon="9.2537817"><ele>670.0</ele><time>2026-04-06T13:34:21.994Z</time></trkpt><trkpt lat="40.57806" lon="9.2536917"><ele>669.0</ele><time>2026-04-06T13:34:22.994Z</time></trkpt><trkpt lat="40.5781083" lon="9.2535833"><ele>668.0</ele><time>2026-04-06T13:34:23.994Z</time></trkpt><trkpt lat="40.5781533" lon="9.2534717"><ele>667.0</ele><time>2026-04-06T13:34:24.994Z</time></trkpt><trkpt lat="40.57819" lon="9.2533533"><ele>666.0</ele><time>2026-04-06T13:34:25.994Z</time></trkpt><trkpt lat="40.57823" lon="9.2532283"><ele>665.0</ele><time>2026-04-06T13:34:26.994Z</time></trkpt><trkpt lat="40.5782733" lon="9.2531083"><ele>665.0</ele><time>2026-04-06T13:34:27.994Z</time></trkpt><trkpt lat="40.5783167" lon="9.25299"><ele>665.0</ele><time>2026-04-06T13:34:28.994Z</time></trkpt><trkpt lat="40.5783583" lon="9.25288"><ele>665.0</ele><time>2026-04-06T13:34:29.995Z</time></trkpt><trkpt lat="40.5784" lon="9.2527767"><ele>665.0</ele><time>2026-04-06T13:34:30.994Z</time></trkpt><trkpt lat="40.5784533" lon="9.2526867"><ele>665.0</ele><time>2026-04-06T13:34:31.994Z</time></trkpt><trkpt lat="40.5785033" lon="9.2525967"><ele>665.0</ele><time>2026-04-06T13:34:32.994Z</time></trkpt><trkpt lat="40.5785383" lon="9.2524983"><ele>665.0</ele><time>2026-04-06T13:34:33.994Z</time></trkpt><trkpt lat="40.5785733" lon="9.2524017"><ele>665.0</ele><time>2026-04-06T13:34:34.994Z</time></trkpt><trkpt lat="40.5786083" lon="9.2523133"><ele>665.0</ele><time>2026-04-06T13:34:35.994Z</time></trkpt><trkpt lat="40.578635" lon="9.2522283"><ele>665.0</ele><time>2026-04-06T13:34:36.994Z</time></trkpt><trkpt lat="40.57868" lon="9.2521683"><ele>665.0</ele><time>2026-04-06T13:34:37.994Z</time></trkpt><trkpt lat="40.5787" lon="9.2520767"><ele>665.0</ele><time>2026-04-06T13:34:38.994Z</time></trkpt><trkpt lat="40.5787167" lon="9.2519833"><ele>663.1666666666666</ele><time>2026-04-06T13:34:39.994Z</time></trkpt><trkpt lat="40.57873" lon="9.25189"><ele>661.3333333333333</ele><time>2026-04-06T13:34:40.994Z</time></trkpt><trkpt lat="40.5787483" lon="9.2517917"><ele>659.5</ele><time>2026-04-06T13:34:41.994Z</time></trkpt><trkpt lat="40.5787783" lon="9.2516967"><ele>657.6666666666666</ele><time>2026-04-06T13:34:42.994Z</time></trkpt><trkpt lat="40.5787867" lon="9.2515933"><ele>655.8333333333334</ele><time>2026-04-06T13:34:43.994Z</time></trkpt><trkpt lat="40.5787933" lon="9.2514867"><ele>654.0</ele><time>2026-04-06T13:34:44.994Z</time></trkpt><trkpt lat="40.5787967" lon="9.25138"><ele>653.5</ele><time>2026-04-06T13:34:45.994Z</time></trkpt><trkpt lat="40.5787983" lon="9.2512717"><ele>653.0</ele><time>2026-04-06T13:34:46.994Z</time></trkpt><trkpt lat="40.5787917" lon="9.251155"><ele>652.5</ele><time>2026-04-06T13:34:47.994Z</time></trkpt><trkpt lat="40.5787833" lon="9.251035"><ele>652.0</ele><time>2026-04-06T13:34:48.994Z</time></trkpt><trkpt lat="40.5787783" lon="9.2509183"><ele>651.5</ele><time>2026-04-06T13:34:49.994Z</time></trkpt><trkpt lat="40.578775" lon="9.2507983"><ele>651.0</ele><time>2026-04-06T13:34:50.994Z</time></trkpt><trkpt lat="40.57877" lon="9.2506833"><ele>650.3333333333334</ele><time>2026-04-06T13:34:51.994Z</time></trkpt><trkpt lat="40.578765" lon="9.2505767"><ele>649.6666666666666</ele><time>2026-04-06T13:34:52.994Z</time></trkpt><trkpt lat="40.5787633" lon="9.2504733"><ele>649.0</ele><time>2026-04-06T13:34:53.994Z</time></trkpt><trkpt lat="40.578765" lon="9.2503767"><ele>648.3333333333333</ele><time>2026-04-06T13:34:54.994Z</time></trkpt><trkpt lat="40.57877" lon="9.2502817"><ele>647.6666666666666</ele><time>2026-04-06T13:34:55.994Z</time></trkpt><trkpt lat="40.5787883" lon="9.2501983"><ele>647.0</ele><time>2026-04-06T13:34:56.994Z</time></trkpt><trkpt lat="40.5788083" lon="9.2500983"><ele>647.0</ele><time>2026-04-06T13:34:57.994Z</time></trkpt><trkpt lat="40.5788333" lon="9.2500167"><ele>647.0</ele><time>2026-04-06T13:34:58.994Z</time></trkpt><trkpt lat="40.578875" lon="9.2499433"><ele>647.0</ele><time>2026-04-06T13:34:59.994Z</time></trkpt><trkpt lat="40.5789267" lon="9.2498767"><ele>647.0</ele><time>2026-04-06T13:35:00.994Z</time></trkpt><trkpt lat="40.578985" lon="9.2498217"><ele>647.0</ele><time>2026-04-06T13:35:01.994Z</time></trkpt><trkpt lat="40.579045" lon="9.2497667"><ele>647.0</ele><time>2026-04-06T13:35:02.994Z</time></trkpt><trkpt lat="40.5791033" lon="9.249715"><ele>647.0</ele><time>2026-04-06T13:35:03.994Z</time></trkpt><trkpt lat="40.579155" lon="9.24966"><ele>647.5</ele><time>2026-04-06T13:35:04.994Z</time></trkpt><trkpt lat="40.5792117" lon="9.2496067"><ele>648.0</ele><time>2026-04-06T13:35:05.994Z</time></trkpt><trkpt lat="40.5792633" lon="9.2495533"><ele>648.5</ele><time>2026-04-06T13:35:06.994Z</time></trkpt><trkpt lat="40.5793467" lon="9.24945"><ele>649.0</ele><time>2026-04-06T13:35:08.994Z</time></trkpt><trkpt lat="40.5794417" lon="9.2494083"><ele>649.5</ele><time>2026-04-06T13:35:10.995Z</time></trkpt><trkpt lat="40.5795183" lon="9.2494633"><ele>650.0</ele><time>2026-04-06T13:35:12.994Z</time></trkpt><trkpt lat="40.5795283" lon="9.24958"><ele>650.0</ele><time>2026-04-06T13:35:14.994Z</time></trkpt><trkpt lat="40.5794683" lon="9.2496683"><ele>650.0</ele><time>2026-04-06T13:35:16.994Z</time></trkpt><trkpt lat="40.5794117" lon="9.24958"><ele>650.0</ele><time>2026-04-06T13:36:30.994Z</time></trkpt><trkpt lat="40.57939" lon="9.249485"><ele>650.0</ele><time>2026-04-06T13:36:32.995Z</time></trkpt><trkpt lat="40.5792767" lon="9.2495033"><ele>650.0</ele><time>2026-04-06T13:36:40.995Z</time></trkpt><trkpt lat="40.57921" lon="9.2495467"><ele>650.0</ele><time>2026-04-06T13:36:41.994Z</time></trkpt><trkpt lat="40.579145" lon="9.249615"><ele>650.0</ele><time>2026-04-06T13:36:42.994Z</time></trkpt><trkpt lat="40.5790883" lon="9.2496817"><ele>650.0</ele><time>2026-04-06T13:36:43.994Z</time></trkpt><trkpt lat="40.57902" lon="9.2497533"><ele>650.0</ele><time>2026-04-06T13:36:44.994Z</time></trkpt><trkpt lat="40.5789433" lon="9.2498167"><ele>650.0</ele><time>2026-04-06T13:36:45.995Z</time></trkpt><trkpt lat="40.5788733" lon="9.2499033"><ele>650.0</ele><time>2026-04-06T13:36:46.994Z</time></trkpt><trkpt lat="40.5788" lon="9.2500017"><ele>649.25</ele><time>2026-04-06T13:36:47.994Z</time></trkpt><trkpt lat="40.57874" lon="9.2501117"><ele>648.5</ele><time>2026-04-06T13:36:48.994Z</time></trkpt><trkpt lat="40.578705" lon="9.2502533"><ele>647.75</ele><time>2026-04-06T13:36:49.994Z</time></trkpt><trkpt lat="40.5786933" lon="9.2504133"><ele>647.0</ele><time>2026-04-06T13:36:50.994Z</time></trkpt><trkpt lat="40.5786917" lon="9.2505817"><ele>648.0</ele><time>2026-04-06T13:36:51.994Z</time></trkpt><trkpt lat="40.578695" lon="9.2507583"><ele>649.0</ele><time>2026-04-06T13:36:52.994Z</time></trkpt><trkpt lat="40.57871" lon="9.2509533"><ele>650.0</ele><time>2026-04-06T13:36:53.994Z</time></trkpt><trkpt lat="40.57872" lon="9.251155"><ele>651.0</ele><time>2026-04-06T13:36:54.994Z</time></trkpt><trkpt lat="40.5787333" lon="9.2513583"><ele>652.0</ele><time>2026-04-06T13:36:55.994Z</time></trkpt><trkpt lat="40.5787367" lon="9.2515633"><ele>653.0</ele><time>2026-04-06T13:36:56.994Z</time></trkpt><trkpt lat="40.5787167" lon="9.2517717"><ele>654.0</ele><time>2026-04-06T13:36:57.994Z</time></trkpt><trkpt lat="40.578675" lon="9.2519667"><ele>655.75</ele><time>2026-04-06T13:36:58.994Z</time></trkpt><trkpt lat="40.5786267" lon="9.2521717"><ele>657.5</ele><time>2026-04-06T13:36:59.994Z</time></trkpt><trkpt lat="40.57859" lon="9.2523617"><ele>659.25</ele><time>2026-04-06T13:37:00.994Z</time></trkpt><trkpt lat="40.5785383" lon="9.25251"><ele>661.0</ele><time>2026-04-06T13:37:01.994Z</time></trkpt><trkpt lat="40.578495" lon="9.2526267"><ele>661.4</ele><time>2026-04-06T13:37:02.995Z</time></trkpt><trkpt lat="40.5784883" lon="9.2527417"><ele>661.8</ele><time>2026-04-06T13:37:03.994Z</time></trkpt><trkpt lat="40.57852" lon="9.25287"><ele>662.1999999999999</ele><time>2026-04-06T13:37:04.994Z</time></trkpt><trkpt lat="40.5785667" lon="9.2530117"><ele>662.5999999999999</ele><time>2026-04-06T13:37:05.994Z</time></trkpt><trkpt lat="40.5786167" lon="9.2531617"><ele>663.0</ele><time>2026-04-06T13:37:06.994Z</time></trkpt><trkpt lat="40.5786783" lon="9.25332"><ele>659.75</ele><time>2026-04-06T13:37:07.994Z</time></trkpt><trkpt lat="40.5787267" lon="9.25347"><ele>656.5</ele><time>2026-04-06T13:37:08.994Z</time></trkpt><trkpt lat="40.5787733" lon="9.2536333"><ele>653.25</ele><time>2026-04-06T13:37:09.994Z</time></trkpt><trkpt lat="40.5788133" lon="9.2537967"><ele>650.0</ele><time>2026-04-06T13:37:10.994Z</time></trkpt><trkpt lat="40.5788617" lon="9.2539617"><ele>650.0</ele><time>2026-04-06T13:37:11.994Z</time></trkpt><trkpt lat="40.5788983" lon="9.2541317"><ele>650.0</ele><time>2026-04-06T13:37:12.994Z</time></trkpt><trkpt lat="40.5789167" lon="9.254295"><ele>650.0</ele><time>2026-04-06T13:37:13.994Z</time></trkpt><trkpt lat="40.578925" lon="9.2544517"><ele>650.0</ele><time>2026-04-06T13:37:14.994Z</time></trkpt><trkpt lat="40.5789217" lon="9.2546017"><ele>650.0</ele><time>2026-04-06T13:37:15.993Z</time></trkpt><trkpt lat="40.5789217" lon="9.2547533"><ele>650.0</ele><time>2026-04-06T13:37:16.993Z</time></trkpt><trkpt lat="40.5789017" lon="9.2549067"><ele>650.0</ele><time>2026-04-06T13:37:17.993Z</time></trkpt><trkpt lat="40.5788883" lon="9.2550617"><ele>650.0</ele><time>2026-04-06T13:37:18.994Z</time></trkpt><trkpt lat="40.57887" lon="9.2552217"><ele>649.75</ele><time>2026-04-06T13:37:19.994Z</time></trkpt><trkpt lat="40.5788567" lon="9.2553833"><ele>649.5</ele><time>2026-04-06T13:37:20.993Z</time></trkpt><trkpt lat="40.5788667" lon="9.255545"><ele>649.25</ele><time>2026-04-06T13:37:21.993Z</time></trkpt><trkpt lat="40.57891" lon="9.255695"><ele>649.0</ele><time>2026-04-06T13:37:22.993Z</time></trkpt><trkpt lat="40.5789767" lon="9.2558217"><ele>651.5</ele><time>2026-04-06T13:37:23.993Z</time></trkpt><trkpt lat="40.5790617" lon="9.255945"><ele>654.0</ele><time>2026-04-06T13:37:24.993Z</time></trkpt><trkpt lat="40.5791667" lon="9.2560467"><ele>656.5</ele><time>2026-04-06T13:37:25.993Z</time></trkpt><trkpt lat="40.5792817" lon="9.2561533"><ele>659.0</ele><time>2026-04-06T13:37:26.993Z</time></trkpt><trkpt lat="40.5793883" lon="9.2562583"><ele>659.0</ele><time>2026-04-06T13:37:27.993Z</time></trkpt><trkpt lat="40.5794917" lon="9.2563367"><ele>659.0</ele><time>2026-04-06T13:37:28.993Z</time></trkpt><trkpt lat="40.5795967" lon="9.2564"><ele>659.0</ele><time>2026-04-06T13:37:29.993Z</time></trkpt><trkpt lat="40.5796783" lon="9.25646"><ele>659.0</ele><time>2026-04-06T13:37:30.993Z</time></trkpt><trkpt lat="40.579765" lon="9.2565217"><ele>659.0</ele><time>2026-04-06T13:37:31.993Z</time></trkpt><trkpt lat="40.579855" lon="9.2565933"><ele>659.5</ele><time>2026-04-06T13:37:32.993Z</time></trkpt><trkpt lat="40.5799517" lon="9.256675"><ele>660.0</ele><time>2026-04-06T13:37:33.993Z</time></trkpt><trkpt lat="40.58174" lon="9.2566"><ele>660.0</ele><time>2026-04-06T13:37:48.993Z</time></trkpt><trkpt lat="40.58185" lon="9.2565433"><ele>660.0</ele><time>2026-04-06T13:37:49.993Z</time></trkpt><trkpt lat="40.58199" lon="9.2565583"><ele>660.0</ele><time>2026-04-06T13:37:50.993Z</time></trkpt><trkpt lat="40.5820817" lon="9.2565767"><ele>660.0</ele><time>2026-04-06T13:37:51.993Z</time></trkpt><trkpt lat="40.5821633" lon="9.2566433"><ele>660.0</ele><time>2026-04-06T13:37:52.993Z</time></trkpt><trkpt lat="40.5822117" lon="9.2567333"><ele>661.25</ele><time>2026-04-06T13:37:53.993Z</time></trkpt><trkpt lat="40.5822483" lon="9.2568067"><ele>662.5</ele><time>2026-04-06T13:37:54.993Z</time></trkpt><trkpt lat="40.5824483" lon="9.2568217"><ele>663.75</ele><time>2026-04-06T13:37:59.993Z</time></trkpt><trkpt lat="40.582545" lon="9.2567833"><ele>665.0</ele><time>2026-04-06T13:38:00.993Z</time></trkpt><trkpt lat="40.582655" lon="9.25673"><ele>665.0</ele><time>2026-04-06T13:38:01.993Z</time></trkpt><trkpt lat="40.5827683" lon="9.2566617"><ele>665.0</ele><time>2026-04-06T13:38:02.993Z</time></trkpt><trkpt lat="40.5828883" lon="9.2565867"><ele>665.0</ele><time>2026-04-06T13:38:03.993Z</time></trkpt><trkpt lat="40.5830217" lon="9.25651"><ele>665.0</ele><time>2026-04-06T13:38:04.993Z</time></trkpt><trkpt lat="40.5831617" lon="9.2564333"><ele>664.0</ele><time>2026-04-06T13:38:05.993Z</time></trkpt><trkpt lat="40.5833117" lon="9.256355"><ele>663.0</ele><time>2026-04-06T13:38:06.994Z</time></trkpt><trkpt lat="40.58347" lon="9.2562733"><ele>662.0</ele><time>2026-04-06T13:38:07.993Z</time></trkpt><trkpt lat="40.5836183" lon="9.2561783"><ele>664.0</ele><time>2026-04-06T13:38:08.993Z</time></trkpt><trkpt lat="40.583745" lon="9.2560583"><ele>666.0</ele><time>2026-04-06T13:38:09.993Z</time></trkpt><trkpt lat="40.58384" lon="9.25591"><ele>668.0</ele><time>2026-04-06T13:38:10.993Z</time></trkpt><trkpt lat="40.5838883" lon="9.255735"><ele>670.0</ele><time>2026-04-06T13:38:11.993Z</time></trkpt><trkpt lat="40.5839167" lon="9.255535"><ele>670.0</ele><time>2026-04-06T13:38:12.993Z</time></trkpt><trkpt lat="40.5839283" lon="9.2553267"><ele>670.0</ele><time>2026-04-06T13:38:13.993Z</time></trkpt><trkpt lat="40.5839517" lon="9.2551283"><ele>670.0</ele><time>2026-04-06T13:38:14.993Z</time></trkpt><trkpt lat="40.5839967" lon="9.2549267"><ele>669.0</ele><time>2026-04-06T13:38:15.993Z</time></trkpt><trkpt lat="40.584155" lon="9.254585"><ele>668.0</ele><time>2026-04-06T13:38:17.993Z</time></trkpt><trkpt lat="40.58425" lon="9.2544517"><ele>667.0</ele><time>2026-04-06T13:38:18.993Z</time></trkpt><trkpt lat="40.5843367" lon="9.2543717"><ele>667.0</ele><time>2026-04-06T13:38:19.993Z</time></trkpt><trkpt lat="40.584455" lon="9.2543317"><ele>667.0</ele><time>2026-04-06T13:38:20.993Z</time></trkpt><trkpt lat="40.5845833" lon="9.2543383"><ele>667.0</ele><time>2026-04-06T13:38:21.993Z</time></trkpt><trkpt lat="40.5847283" lon="9.25438"><ele>667.0</ele><time>2026-04-06T13:38:22.993Z</time></trkpt><trkpt lat="40.58487" lon="9.2544867"><ele>667.0</ele><time>2026-04-06T13:38:23.993Z</time></trkpt><trkpt lat="40.5850117" lon="9.25461"><ele>667.0</ele><time>2026-04-06T13:38:24.993Z</time></trkpt><trkpt lat="40.5851317" lon="9.2547617"><ele>667.0</ele><time>2026-04-06T13:38:25.993Z</time></trkpt><trkpt lat="40.5852267" lon="9.25494"><ele>667.0</ele><time>2026-04-06T13:38:26.993Z</time></trkpt><trkpt lat="40.585275" lon="9.2551433"><ele>667.0</ele><time>2026-04-06T13:38:27.993Z</time></trkpt><trkpt lat="40.5852867" lon="9.25536"><ele>667.0</ele><time>2026-04-06T13:38:28.993Z</time></trkpt><trkpt lat="40.5853" lon="9.25559"><ele>668.3333333333334</ele><time>2026-04-06T13:38:29.993Z</time></trkpt><trkpt lat="40.58534" lon="9.2558267"><ele>669.6666666666666</ele><time>2026-04-06T13:38:30.993Z</time></trkpt><trkpt lat="40.5854067" lon="9.2560767"><ele>671.0</ele><time>2026-04-06T13:38:31.993Z</time></trkpt><trkpt lat="40.5855" lon="9.2563183"><ele>666.0</ele><time>2026-04-06T13:38:32.993Z</time></trkpt><trkpt lat="40.58561" lon="9.256555"><ele>661.0</ele><time>2026-04-06T13:38:33.993Z</time></trkpt><trkpt lat="40.5857217" lon="9.25681"><ele>656.0</ele><time>2026-04-06T13:38:34.993Z</time></trkpt><trkpt lat="40.585815" lon="9.2570733"><ele>656.0</ele><time>2026-04-06T13:38:35.993Z</time></trkpt><trkpt lat="40.58589" lon="9.2573283"><ele>656.0</ele><time>2026-04-06T13:38:36.993Z</time></trkpt><trkpt lat="40.586" lon="9.2578267"><ele>656.0</ele><time>2026-04-06T13:38:38.993Z</time></trkpt><trkpt lat="40.5859983" lon="9.2580817"><ele>656.0</ele><time>2026-04-06T13:38:39.993Z</time></trkpt><trkpt lat="40.5859783" lon="9.2583517"><ele>656.0</ele><time>2026-04-06T13:38:40.993Z</time></trkpt><trkpt lat="40.5859917" lon="9.2586217"><ele>656.0</ele><time>2026-04-06T13:38:41.993Z</time></trkpt><trkpt lat="40.5860067" lon="9.258895"><ele>656.0</ele><time>2026-04-06T13:38:42.993Z</time></trkpt><trkpt lat="40.58603" lon="9.2591383"><ele>656.0</ele><time>2026-04-06T13:38:43.993Z</time></trkpt><trkpt lat="40.586075" lon="9.2593683"><ele>655.6666666666666</ele><time>2026-04-06T13:38:44.993Z</time></trkpt><trkpt lat="40.5861417" lon="9.2595833"><ele>655.3333333333334</ele><time>2026-04-06T13:38:45.993Z</time></trkpt><trkpt lat="40.58625" lon="9.2597633"><ele>655.0</ele><time>2026-04-06T13:38:46.993Z</time></trkpt><trkpt lat="40.5863667" lon="9.259945"><ele>652.0</ele><time>2026-04-06T13:38:47.993Z</time></trkpt><trkpt lat="40.58647" lon="9.2601117"><ele>649.0</ele><time>2026-04-06T13:38:48.993Z</time></trkpt><trkpt lat="40.5865583" lon="9.260265"><ele>646.0</ele><time>2026-04-06T13:38:49.993Z</time></trkpt><trkpt lat="40.5866383" lon="9.2603983"><ele>643.0</ele><time>2026-04-06T13:38:50.993Z</time></trkpt><trkpt lat="40.5867133" lon="9.2605317"><ele>643.0</ele><time>2026-04-06T13:38:51.993Z</time></trkpt><trkpt lat="40.5867767" lon="9.26068"><ele>643.0</ele><time>2026-04-06T13:38:52.993Z</time></trkpt><trkpt lat="40.5868433" lon="9.260835"><ele>643.0</ele><time>2026-04-06T13:38:53.993Z</time></trkpt><trkpt lat="40.5868933" lon="9.2609917"><ele>643.0</ele><time>2026-04-06T13:38:54.993Z</time></trkpt><trkpt lat="40.5869583" lon="9.2611333"><ele>642.5</ele><time>2026-04-06T13:38:55.993Z</time></trkpt><trkpt lat="40.5870233" lon="9.261265"><ele>642.0</ele><time>2026-04-06T13:38:56.993Z</time></trkpt><trkpt lat="40.5870917" lon="9.2613783"><ele>641.5</ele><time>2026-04-06T13:38:57.993Z</time></trkpt><trkpt lat="40.5872" lon="9.2615817"><ele>641.0</ele><time>2026-04-06T13:38:59.993Z</time></trkpt><trkpt lat="40.5872883" lon="9.2616317"><ele>641.0</ele><time>2026-04-06T13:39:01.993Z</time></trkpt><trkpt lat="40.587345" lon="9.2615267"><ele>641.0</ele><time>2026-04-06T13:39:03.993Z</time></trkpt><trkpt lat="40.5873367" lon="9.2614383"><ele>641.0</ele><time>2026-04-06T13:39:04.993Z</time></trkpt><trkpt lat="40.5873117" lon="9.2613517"><ele>641.0</ele><time>2026-04-06T13:39:05.993Z</time></trkpt><trkpt lat="40.5872667" lon="9.261265"><ele>641.0</ele><time>2026-04-06T13:39:06.993Z</time></trkpt><trkpt lat="40.5872033" lon="9.2611933"><ele>641.0</ele><time>2026-04-06T13:39:07.993Z</time></trkpt><trkpt lat="40.5871367" lon="9.2611333"><ele>641.0</ele><time>2026-04-06T13:39:08.993Z</time></trkpt><trkpt lat="40.5870767" lon="9.261095"><ele>641.0</ele><time>2026-04-06T13:39:09.993Z</time></trkpt><trkpt lat="40.586975" lon="9.260995"><ele>641.0</ele><time>2026-04-06T13:39:11.993Z</time></trkpt><trkpt lat="40.5869133" lon="9.2608867"><ele>641.0</ele><time>2026-04-06T13:39:12.993Z</time></trkpt><trkpt lat="40.586845" lon="9.2607467"><ele>641.0</ele><time>2026-04-06T13:39:13.993Z</time></trkpt><trkpt lat="40.586765" lon="9.26059"><ele>641.5</ele><time>2026-04-06T13:39:14.993Z</time></trkpt><trkpt lat="40.5866867" lon="9.2604367"><ele>642.0</ele><time>2026-04-06T13:39:15.993Z</time></trkpt><trkpt lat="40.58661" lon="9.2602833"><ele>642.5</ele><time>2026-04-06T13:39:16.994Z</time></trkpt><trkpt lat="40.58655" lon="9.2601467"><ele>643.0</ele><time>2026-04-06T13:39:17.993Z</time></trkpt><trkpt lat="40.5864933" lon="9.2600367"><ele>643.0</ele><time>2026-04-06T13:39:18.993Z</time></trkpt><trkpt lat="40.5864167" lon="9.2598817"><ele>643.0</ele><time>2026-04-06T13:39:21.993Z</time></trkpt><trkpt lat="40.5865117" lon="9.25991"><ele>643.0</ele><time>2026-04-06T13:39:24.993Z</time></trkpt><trkpt lat="40.586615" lon="9.2599733"><ele>643.0</ele><time>2026-04-06T13:39:26.993Z</time></trkpt><trkpt lat="40.586725" lon="9.2600233"><ele>643.0</ele><time>2026-04-06T13:39:28.993Z</time></trkpt><trkpt lat="40.58683" lon="9.2600467"><ele>643.0</ele><time>2026-04-06T13:39:30.993Z</time></trkpt><trkpt lat="40.5869383" lon="9.26007"><ele>643.0</ele><time>2026-04-06T13:39:32.993Z</time></trkpt><trkpt lat="40.5870533" lon="9.26006"><ele>643.0</ele><time>2026-04-06T13:39:34.993Z</time></trkpt><trkpt lat="40.5871633" lon="9.2600267"><ele>643.0</ele><time>2026-04-06T13:39:36.993Z</time></trkpt><trkpt lat="40.587265" lon="9.2599933"><ele>642.25</ele><time>2026-04-06T13:39:38.993Z</time></trkpt><trkpt lat="40.5873633" lon="9.25997"><ele>641.5</ele><time>2026-04-06T13:39:40.993Z</time></trkpt><trkpt lat="40.587565" lon="9.2599883"><ele>640.75</ele><time>2026-04-06T13:39:44.993Z</time></trkpt><trkpt lat="40.58763" lon="9.2600133"><ele>640.0</ele><time>2026-04-06T13:39:45.993Z</time></trkpt><trkpt lat="40.5877383" lon="9.260055"><ele>640.0</ele><time>2026-04-06T13:39:47.993Z</time></trkpt><trkpt lat="40.5878283" lon="9.2600717"><ele>640.0</ele><time>2026-04-06T13:39:49.993Z</time></trkpt><trkpt lat="40.5879333" lon="9.26006"><ele>640.0</ele><time>2026-04-06T13:39:51.993Z</time></trkpt><trkpt lat="40.5880483" lon="9.260065"><ele>640.0</ele><time>2026-04-06T13:39:53.993Z</time></trkpt><trkpt lat="40.588165" lon="9.2600733"><ele>640.0</ele><time>2026-04-06T13:39:55.993Z</time></trkpt><trkpt lat="40.5882783" lon="9.2601067"><ele>635.0</ele><time>2026-04-06T13:39:57.993Z</time></trkpt><trkpt lat="40.5883867" lon="9.2601483"><ele>635.0</ele><time>2026-04-06T13:39:59.993Z</time></trkpt><trkpt lat="40.58849" lon="9.2602033"><ele>635.0</ele><time>2026-04-06T13:40:01.993Z</time></trkpt></trkseg><trkseg><trkpt lat="40.5888533" lon="9.260345"><ele>638.0</ele><time>2026-04-06T14:07:04.989Z</time></trkpt><trkpt lat="40.5887433" lon="9.2602967"><ele>638.0</ele><time>2026-04-06T14:07:06.989Z</time></trkpt><trkpt lat="40.5886583" lon="9.26026"><ele>638.0</ele><time>2026-04-06T14:07:21.989Z</time></trkpt><trkpt lat="40.5885883" lon="9.2602317"><ele>638.0</ele><time>2026-04-06T14:07:22.989Z</time></trkpt><trkpt lat="40.5885167" lon="9.2602"><ele>638.0</ele><time>2026-04-06T14:07:23.989Z</time></trkpt><trkpt lat="40.5884317" lon="9.2601683"><ele>638.0</ele><time>2026-04-06T14:07:24.989Z</time></trkpt><trkpt lat="40.5883433" lon="9.2601417"><ele>637.5</ele><time>2026-04-06T14:07:25.989Z</time></trkpt><trkpt lat="40.588255" lon="9.2601167"><ele>637.0</ele><time>2026-04-06T14:07:26.989Z</time></trkpt><trkpt lat="40.58817" lon="9.2600967"><ele>636.5</ele><time>2026-04-06T14:07:27.989Z</time></trkpt><trkpt lat="40.5880933" lon="9.26008"><ele>636.0</ele><time>2026-04-06T14:07:28.989Z</time></trkpt><trkpt lat="40.58802" lon="9.2600717"><ele>635.5</ele><time>2026-04-06T14:07:29.989Z</time></trkpt><trkpt lat="40.5879533" lon="9.26006"><ele>635.0</ele><time>2026-04-06T14:07:30.989Z</time></trkpt><trkpt lat="40.5878883" lon="9.260055"><ele>635.8333333333333</ele><time>2026-04-06T14:07:31.989Z</time></trkpt><trkpt lat="40.5877633" lon="9.260015"><ele>636.6666666666666</ele><time>2026-04-06T14:07:33.99Z</time></trkpt><trkpt lat="40.5877017" lon="9.259995"><ele>637.5</ele><time>2026-04-06T14:07:34.989Z</time></trkpt><trkpt lat="40.587635" lon="9.2599667"><ele>638.3333333333334</ele><time>2026-04-06T14:07:35.989Z</time></trkpt><trkpt lat="40.5875717" lon="9.25994"><ele>639.1666666666667</ele><time>2026-04-06T14:07:36.989Z</time></trkpt><trkpt lat="40.5875017" lon="9.2599283"><ele>640.0</ele><time>2026-04-06T14:07:37.989Z</time></trkpt><trkpt lat="40.5874333" lon="9.259935"><ele>640.0</ele><time>2026-04-06T14:07:38.989Z</time></trkpt><trkpt lat="40.5873617" lon="9.2599483"><ele>640.0</ele><time>2026-04-06T14:07:39.989Z</time></trkpt><trkpt lat="40.58729" lon="9.2599683"><ele>640.0</ele><time>2026-04-06T14:07:40.989Z</time></trkpt><trkpt lat="40.587225" lon="9.26"><ele>640.0</ele><time>2026-04-06T14:07:41.99Z</time></trkpt><trkpt lat="40.5871517" lon="9.2600333"><ele>640.0</ele><time>2026-04-06T14:07:42.989Z</time></trkpt><trkpt lat="40.5870833" lon="9.26005"><ele>640.0</ele><time>2026-04-06T14:07:43.989Z</time></trkpt><trkpt lat="40.5869767" lon="9.2600733"><ele>640.4285714285714</ele><time>2026-04-06T14:07:45.989Z</time></trkpt><trkpt lat="40.5869133" lon="9.2600683"><ele>640.8571428571429</ele><time>2026-04-06T14:07:46.989Z</time></trkpt><trkpt lat="40.5868433" lon="9.2600567"><ele>641.2857142857142</ele><time>2026-04-06T14:07:47.989Z</time></trkpt><trkpt lat="40.586775" lon="9.2600417"><ele>641.7142857142858</ele><time>2026-04-06T14:07:48.99Z</time></trkpt><trkpt lat="40.5867117" lon="9.2600167"><ele>642.1428571428572</ele><time>2026-04-06T14:07:49.989Z</time></trkpt><trkpt lat="40.58665" lon="9.2599967"><ele>642.5714285714286</ele><time>2026-04-06T14:07:50.989Z</time></trkpt><trkpt lat="40.586585" lon="9.2599767"><ele>643.0</ele><time>2026-04-06T14:07:51.989Z</time></trkpt><trkpt lat="40.5865183" lon="9.25995"><ele>643.0</ele><time>2026-04-06T14:07:52.989Z</time></trkpt><trkpt lat="40.5864317" lon="9.2599"><ele>643.0</ele><time>2026-04-06T14:07:54.989Z</time></trkpt><trkpt lat="40.5864267" lon="9.26005"><ele>643.0</ele><time>2026-04-06T14:08:01.989Z</time></trkpt><trkpt lat="40.58648" lon="9.2601533"><ele>643.0</ele><time>2026-04-06T14:08:02.989Z</time></trkpt><trkpt lat="40.5865567" lon="9.260285"><ele>643.0</ele><time>2026-04-06T14:08:03.989Z</time></trkpt><trkpt lat="40.5866467" lon="9.2604433"><ele>643.0</ele><time>2026-04-06T14:08:04.989Z</time></trkpt><trkpt lat="40.5867383" lon="9.260615"><ele>643.0</ele><time>2026-04-06T14:08:05.989Z</time></trkpt><trkpt lat="40.5868317" lon="9.260795"><ele>643.0</ele><time>2026-04-06T14:08:06.989Z</time></trkpt><trkpt lat="40.58693" lon="9.2609783"><ele>642.5</ele><time>2026-04-06T14:08:07.989Z</time></trkpt><trkpt lat="40.5870183" lon="9.2611683"><ele>642.0</ele><time>2026-04-06T14:08:08.989Z</time></trkpt><trkpt lat="40.5870817" lon="9.26132"><ele>641.5</ele><time>2026-04-06T14:08:09.989Z</time></trkpt><trkpt lat="40.5871383" lon="9.26141"><ele>641.0</ele><time>2026-04-06T14:08:10.989Z</time></trkpt><trkpt lat="40.58718" lon="9.261485"><ele>641.0</ele><time>2026-04-06T14:08:11.989Z</time></trkpt><trkpt lat="40.5872283" lon="9.2615617"><ele>641.0</ele><time>2026-04-06T14:08:13.989Z</time></trkpt><trkpt lat="40.5872783" lon="9.2616833"><ele>641.0</ele><time>2026-04-06T14:08:18.989Z</time></trkpt><trkpt lat="40.5873383" lon="9.2618"><ele>641.0</ele><time>2026-04-06T14:08:19.989Z</time></trkpt><trkpt lat="40.5874067" lon="9.26194"><ele>641.0</ele><time>2026-04-06T14:08:20.99Z</time></trkpt><trkpt lat="40.5874817" lon="9.2620983"><ele>641.0</ele><time>2026-04-06T14:08:21.989Z</time></trkpt><trkpt lat="40.5875517" lon="9.2622717"><ele>641.0</ele><time>2026-04-06T14:08:22.989Z</time></trkpt><trkpt lat="40.5876467" lon="9.262445"><ele>641.0</ele><time>2026-04-06T14:08:23.989Z</time></trkpt><trkpt lat="40.5877567" lon="9.262615"><ele>641.0</ele><time>2026-04-06T14:08:24.99Z</time></trkpt><trkpt lat="40.58787" lon="9.262785"><ele>641.0</ele><time>2026-04-06T14:08:25.989Z</time></trkpt><trkpt lat="40.58798" lon="9.2629667"><ele>641.0</ele><time>2026-04-06T14:08:26.989Z</time></trkpt><trkpt lat="40.5880967" lon="9.2631483"><ele>639.6666666666666</ele><time>2026-04-06T14:08:27.989Z</time></trkpt><trkpt lat="40.5882133" lon="9.2633317"><ele>638.3333333333334</ele><time>2026-04-06T14:08:28.989Z</time></trkpt><trkpt lat="40.5883183" lon="9.263495"><ele>637.0</ele><time>2026-04-06T14:08:29.989Z</time></trkpt><trkpt lat="40.5884233" lon="9.263655"><ele>637.0</ele><time>2026-04-06T14:08:30.989Z</time></trkpt><trkpt lat="40.5885317" lon="9.263805"><ele>637.0</ele><time>2026-04-06T14:08:31.989Z</time></trkpt><trkpt lat="40.588635" lon="9.2639567"><ele>637.0</ele><time>2026-04-06T14:08:32.989Z</time></trkpt><trkpt lat="40.5887267" lon="9.2640917"><ele>637.5</ele><time>2026-04-06T14:08:33.989Z</time></trkpt><trkpt lat="40.588815" lon="9.26423"><ele>638.0</ele><time>2026-04-06T14:08:34.989Z</time></trkpt><trkpt lat="40.5888983" lon="9.2643633"><ele>638.5</ele><time>2026-04-06T14:08:35.989Z</time></trkpt><trkpt lat="40.5889767" lon="9.26448"><ele>639.0</ele><time>2026-04-06T14:08:36.989Z</time></trkpt><trkpt lat="40.5890533" lon="9.2645933"><ele>639.0</ele><time>2026-04-06T14:08:37.989Z</time></trkpt><trkpt lat="40.5891183" lon="9.2646983"><ele>639.0</ele><time>2026-04-06T14:08:38.989Z</time></trkpt><trkpt lat="40.589195" lon="9.2647967"><ele>639.0</ele><time>2026-04-06T14:08:39.989Z</time></trkpt><trkpt lat="40.5892833" lon="9.264875"><ele>639.0</ele><time>2026-04-06T14:08:40.989Z</time></trkpt><trkpt lat="40.5893683" lon="9.2649583"><ele>639.0</ele><time>2026-04-06T14:08:41.989Z</time></trkpt><trkpt lat="40.5894533" lon="9.2650333"><ele>638.4</ele><time>2026-04-06T14:08:42.989Z</time></trkpt><trkpt lat="40.5895183" lon="9.2651233"><ele>637.8</ele><time>2026-04-06T14:08:43.989Z</time></trkpt><trkpt lat="40.58959" lon="9.2652117"><ele>637.2</ele><time>2026-04-06T14:08:44.99Z</time></trkpt><trkpt lat="40.5896617" lon="9.2652967"><ele>636.6</ele><time>2026-04-06T14:08:45.989Z</time></trkpt><trkpt lat="40.5897283" lon="9.26537"><ele>636.0</ele><time>2026-04-06T14:08:46.989Z</time></trkpt><trkpt lat="40.5898083" lon="9.26544"><ele>636.0</ele><time>2026-04-06T14:08:47.989Z</time></trkpt><trkpt lat="40.589885" lon="9.2655"><ele>636.0</ele><time>2026-04-06T14:08:48.989Z</time></trkpt><trkpt lat="40.5899683" lon="9.265545"><ele>636.0</ele><time>2026-04-06T14:08:49.989Z</time></trkpt><trkpt lat="40.5900517" lon="9.265595"><ele>636.0</ele><time>2026-04-06T14:08:50.989Z</time></trkpt><trkpt lat="40.5901317" lon="9.26563"><ele>636.0</ele><time>2026-04-06T14:08:51.989Z</time></trkpt><trkpt lat="40.5902167" lon="9.26566"><ele>636.0</ele><time>2026-04-06T14:08:52.989Z</time></trkpt><trkpt lat="40.5903183" lon="9.2656883"><ele>634.25</ele><time>2026-04-06T14:08:53.989Z</time></trkpt><trkpt lat="40.590445" lon="9.2656883"><ele>632.5</ele><time>2026-04-06T14:08:54.989Z</time></trkpt><trkpt lat="40.5905883" lon="9.2656683"><ele>630.75</ele><time>2026-04-06T14:08:55.989Z</time></trkpt><trkpt lat="40.5907317" lon="9.265635"><ele>629.0</ele><time>2026-04-06T14:08:56.989Z</time></trkpt><trkpt lat="40.590875" lon="9.265585"><ele>629.0</ele><time>2026-04-06T14:08:57.989Z</time></trkpt><trkpt lat="40.591025" lon="9.2655333"><ele>629.0</ele><time>2026-04-06T14:08:58.989Z</time></trkpt><trkpt lat="40.5911767" lon="9.2654717"><ele>629.0</ele><time>2026-04-06T14:08:59.989Z</time></trkpt><trkpt lat="40.59134" lon="9.26542"><ele>625.6666666666666</ele><time>2026-04-06T14:09:00.989Z</time></trkpt><trkpt lat="40.5915067" lon="9.2654083"><ele>622.3333333333334</ele><time>2026-04-06T14:09:01.989Z</time></trkpt><trkpt lat="40.5916783" lon="9.26541"><ele>619.0</ele><time>2026-04-06T14:09:02.989Z</time></trkpt><trkpt lat="40.5918667" lon="9.2654567"><ele>617.6666666666667</ele><time>2026-04-06T14:09:03.989Z</time></trkpt><trkpt lat="40.59206" lon="9.2655033"><ele>616.3333333333334</ele><time>2026-04-06T14:09:04.989Z</time></trkpt><trkpt lat="40.5922433" lon="9.2655483"><ele>615.0</ele><time>2026-04-06T14:09:05.989Z</time></trkpt><trkpt lat="40.5924283" lon="9.2655917"><ele>615.0</ele><time>2026-04-06T14:09:06.989Z</time></trkpt><trkpt lat="40.5926217" lon="9.2656433"><ele>615.0</ele><time>2026-04-06T14:09:07.989Z</time></trkpt><trkpt lat="40.5928167" lon="9.2656917"><ele>615.0</ele><time>2026-04-06T14:09:08.989Z</time></trkpt><trkpt lat="40.593005" lon="9.26575"><ele>614.6666666666666</ele><time>2026-04-06T14:09:09.989Z</time></trkpt><trkpt lat="40.59319" lon="9.265795"><ele>614.3333333333333</ele><time>2026-04-06T14:09:10.989Z</time></trkpt><trkpt lat="40.5933783" lon="9.2658467"><ele>614.0</ele><time>2026-04-06T14:09:11.99Z</time></trkpt><trkpt lat="40.5935717" lon="9.2659"><ele>613.6666666666666</ele><time>2026-04-06T14:09:12.989Z</time></trkpt><trkpt lat="40.5937633" lon="9.265955"><ele>613.3333333333334</ele><time>2026-04-06T14:09:13.989Z</time></trkpt><trkpt lat="40.5939667" lon="9.2660083"><ele>613.0</ele><time>2026-04-06T14:09:14.989Z</time></trkpt><trkpt lat="40.59417" lon="9.266065"><ele>613.0</ele><time>2026-04-06T14:09:15.989Z</time></trkpt><trkpt lat="40.594375" lon="9.2661167"><ele>613.0</ele><time>2026-04-06T14:09:16.989Z</time></trkpt><trkpt lat="40.5945817" lon="9.2661683"><ele>613.0</ele><time>2026-04-06T14:09:17.989Z</time></trkpt><trkpt lat="40.5947817" lon="9.2662267"><ele>613.0</ele><time>2026-04-06T14:09:18.99Z</time></trkpt><trkpt lat="40.5949767" lon="9.2662883"><ele>613.0</ele><time>2026-04-06T14:09:19.989Z</time></trkpt><trkpt lat="40.595185" lon="9.2663417"><ele>613.0</ele><time>2026-04-06T14:09:20.989Z</time></trkpt><trkpt lat="40.5953933" lon="9.2664"><ele>613.6666666666667</ele><time>2026-04-06T14:09:21.989Z</time></trkpt><trkpt lat="40.5955983" lon="9.2664633"><ele>614.3333333333334</ele><time>2026-04-06T14:09:22.989Z</time></trkpt><trkpt lat="40.5958083" lon="9.26653"><ele>615.0</ele><time>2026-04-06T14:09:23.989Z</time></trkpt><trkpt lat="40.5960083" lon="9.2665867"><ele>614.0</ele><time>2026-04-06T14:09:24.989Z</time></trkpt><trkpt lat="40.5962083" lon="9.266635"><ele>613.0</ele><time>2026-04-06T14:09:25.989Z</time></trkpt><trkpt lat="40.596405" lon="9.2666833"><ele>612.0</ele><time>2026-04-06T14:09:26.989Z</time></trkpt><trkpt lat="40.5965933" lon="9.266745"><ele>612.0</ele><time>2026-04-06T14:09:27.989Z</time></trkpt><trkpt lat="40.596785" lon="9.266815"><ele>612.0</ele><time>2026-04-06T14:09:28.989Z</time></trkpt><trkpt lat="40.5969633" lon="9.2669033"><ele>612.0</ele><time>2026-04-06T14:09:29.989Z</time></trkpt><trkpt lat="40.597145" lon="9.2670117"><ele>611.6666666666666</ele><time>2026-04-06T14:09:30.989Z</time></trkpt><trkpt lat="40.5973367" lon="9.26711"><ele>611.3333333333333</ele><time>2026-04-06T14:09:31.989Z</time></trkpt><trkpt lat="40.5975233" lon="9.2671917"><ele>611.0</ele><time>2026-04-06T14:09:32.989Z</time></trkpt><trkpt lat="40.5977067" lon="9.267285"><ele>612.0</ele><time>2026-04-06T14:09:33.989Z</time></trkpt><trkpt lat="40.5978933" lon="9.2673833"><ele>613.0</ele><time>2026-04-06T14:09:34.989Z</time></trkpt><trkpt lat="40.5980883" lon="9.2674733"><ele>614.0</ele><time>2026-04-06T14:09:35.989Z</time></trkpt><trkpt lat="40.5982817" lon="9.2675583"><ele>614.0</ele><time>2026-04-06T14:09:36.989Z</time></trkpt><trkpt lat="40.5984767" lon="9.26765"><ele>614.0</ele><time>2026-04-06T14:09:37.989Z</time></trkpt><trkpt lat="40.598665" lon="9.2677567"><ele>614.0</ele><time>2026-04-06T14:09:38.989Z</time></trkpt><trkpt lat="40.5988617" lon="9.2678583"><ele>613.6666666666666</ele><time>2026-04-06T14:09:39.989Z</time></trkpt><trkpt lat="40.59906" lon="9.267955"><ele>613.3333333333334</ele><time>2026-04-06T14:09:40.989Z</time></trkpt><trkpt lat="40.59926" lon="9.268045"><ele>613.0</ele><time>2026-04-06T14:09:41.989Z</time></trkpt><trkpt lat="40.5994533" lon="9.2681333"><ele>612.3333333333334</ele><time>2026-04-06T14:09:42.989Z</time></trkpt><trkpt lat="40.5996517" lon="9.268225"><ele>611.6666666666666</ele><time>2026-04-06T14:09:43.989Z</time></trkpt><trkpt lat="40.5998483" lon="9.2683233"><ele>611.0</ele><time>2026-04-06T14:09:44.989Z</time></trkpt><trkpt lat="40.60005" lon="9.268425"><ele>611.0</ele><time>2026-04-06T14:09:45.989Z</time></trkpt><trkpt lat="40.6002417" lon="9.2685217"><ele>611.0</ele><time>2026-04-06T14:09:46.989Z</time></trkpt><trkpt lat="40.6004333" lon="9.26862"><ele>611.0</ele><time>2026-04-06T14:09:47.989Z</time></trkpt><trkpt lat="40.6006283" lon="9.268715"><ele>611.6666666666666</ele><time>2026-04-06T14:09:48.989Z</time></trkpt><trkpt lat="40.600815" lon="9.268815"><ele>612.3333333333334</ele><time>2026-04-06T14:09:49.989Z</time></trkpt><trkpt lat="40.600995" lon="9.268915"><ele>613.0</ele><time>2026-04-06T14:09:50.989Z</time></trkpt><trkpt lat="40.601185" lon="9.2690217"><ele>613.6666666666667</ele><time>2026-04-06T14:09:51.989Z</time></trkpt><trkpt lat="40.6013733" lon="9.2691317"><ele>614.3333333333334</ele><time>2026-04-06T14:09:52.99Z</time></trkpt><trkpt lat="40.60157" lon="9.2692417"><ele>615.0</ele><time>2026-04-06T14:09:53.989Z</time></trkpt><trkpt lat="40.6017633" lon="9.2693367"><ele>615.0</ele><time>2026-04-06T14:09:54.989Z</time></trkpt><trkpt lat="40.6019633" lon="9.2694417"><ele>615.0</ele><time>2026-04-06T14:09:55.989Z</time></trkpt><trkpt lat="40.6021633" lon="9.2695333"><ele>615.0</ele><time>2026-04-06T14:09:56.989Z</time></trkpt><trkpt lat="40.6023567" lon="9.2696183"><ele>615.3333333333334</ele><time>2026-04-06T14:09:57.989Z</time></trkpt><trkpt lat="40.6025583" lon="9.269685"><ele>615.6666666666667</ele><time>2026-04-06T14:09:58.989Z</time></trkpt><trkpt lat="40.6027483" lon="9.2697567"><ele>616.0</ele><time>2026-04-06T14:09:59.989Z</time></trkpt><trkpt lat="40.6029433" lon="9.2698167"><ele>616.0</ele><time>2026-04-06T14:10:00.989Z</time></trkpt><trkpt lat="40.603135" lon="9.2698767"><ele>616.0</ele><time>2026-04-06T14:10:01.989Z</time></trkpt><trkpt lat="40.60333" lon="9.2699417"><ele>616.0</ele><time>2026-04-06T14:10:02.989Z</time></trkpt><trkpt lat="40.60351" lon="9.2700083"><ele>617.3333333333334</ele><time>2026-04-06T14:10:03.989Z</time></trkpt><trkpt lat="40.6036817" lon="9.2700567"><ele>618.6666666666666</ele><time>2026-04-06T14:10:04.989Z</time></trkpt><trkpt lat="40.6038383" lon="9.2701"><ele>620.0</ele><time>2026-04-06T14:10:05.989Z</time></trkpt><trkpt lat="40.603995" lon="9.27016"><ele>620.0</ele><time>2026-04-06T14:10:06.989Z</time></trkpt><trkpt lat="40.604145" lon="9.2702133"><ele>620.0</ele><time>2026-04-06T14:10:07.989Z</time></trkpt><trkpt lat="40.604285" lon="9.270275"><ele>620.0</ele><time>2026-04-06T14:10:08.989Z</time></trkpt><trkpt lat="40.6044183" lon="9.27033"><ele>620.0</ele><time>2026-04-06T14:10:09.99Z</time></trkpt><trkpt lat="40.6045417" lon="9.2703933"><ele>620.2</ele><time>2026-04-06T14:10:10.989Z</time></trkpt><trkpt lat="40.6046383" lon="9.2704783"><ele>620.4</ele><time>2026-04-06T14:10:11.989Z</time></trkpt><trkpt lat="40.6047017" lon="9.2706"><ele>620.6</ele><time>2026-04-06T14:10:12.989Z</time></trkpt><trkpt lat="40.6047333" lon="9.2707217"><ele>620.8</ele><time>2026-04-06T14:10:13.989Z</time></trkpt><trkpt lat="40.6047283" lon="9.27084"><ele>621.0</ele><time>2026-04-06T14:10:14.989Z</time></trkpt><trkpt lat="40.6046917" lon="9.270935"><ele>620.5</ele><time>2026-04-06T14:10:15.989Z</time></trkpt><trkpt lat="40.604625" lon="9.2710317"><ele>620.0</ele><time>2026-04-06T14:10:16.989Z</time></trkpt><trkpt lat="40.604505" lon="9.2710733"><ele>619.5</ele><time>2026-04-06T14:10:17.989Z</time></trkpt><trkpt lat="40.6043833" lon="9.2710783"><ele>619.0</ele><time>2026-04-06T14:10:18.989Z</time></trkpt><trkpt lat="40.6042733" lon="9.2710367"><ele>618.75</ele><time>2026-04-06T14:10:19.989Z</time></trkpt><trkpt lat="40.6041717" lon="9.2709617"><ele>618.5</ele><time>2026-04-06T14:10:20.989Z</time></trkpt><trkpt lat="40.6040717" lon="9.2708517"><ele>618.25</ele><time>2026-04-06T14:10:21.989Z</time></trkpt><trkpt lat="40.6039683" lon="9.27073"><ele>618.0</ele><time>2026-04-06T14:10:22.989Z</time></trkpt><trkpt lat="40.6038517" lon="9.2705833"><ele>618.6666666666666</ele><time>2026-04-06T14:10:23.989Z</time></trkpt><trkpt lat="40.60373" lon="9.2704233"><ele>619.3333333333333</ele><time>2026-04-06T14:10:24.989Z</time></trkpt><trkpt lat="40.6036117" lon="9.270255"><ele>620.0</ele><time>2026-04-06T14:10:25.989Z</time></trkpt><trkpt lat="40.6034817" lon="9.2700717"><ele>618.6666666666666</ele><time>2026-04-06T14:10:26.989Z</time></trkpt><trkpt lat="40.603345" lon="9.2698817"><ele>617.3333333333334</ele><time>2026-04-06T14:10:27.989Z</time></trkpt><trkpt lat="40.603195" lon="9.269685"><ele>616.0</ele><time>2026-04-06T14:10:28.989Z</time></trkpt><trkpt lat="40.603045" lon="9.2694883"><ele>615.6666666666667</ele><time>2026-04-06T14:10:29.99Z</time></trkpt><trkpt lat="40.602895" lon="9.26929"><ele>615.3333333333334</ele><time>2026-04-06T14:10:30.989Z</time></trkpt><trkpt lat="40.6027367" lon="9.2690883"><ele>615.0</ele><time>2026-04-06T14:10:31.989Z</time></trkpt><trkpt lat="40.602565" lon="9.2688683"><ele>614.5</ele><time>2026-04-06T14:10:32.99Z</time></trkpt><trkpt lat="40.6023883" lon="9.26863"><ele>614.0</ele><time>2026-04-06T14:10:33.989Z</time></trkpt><trkpt lat="40.60221" lon="9.2683933"><ele>614.0</ele><time>2026-04-06T14:10:34.989Z</time></trkpt><trkpt lat="40.60203" lon="9.268165"><ele>614.0</ele><time>2026-04-06T14:10:35.989Z</time></trkpt><trkpt lat="40.601845" lon="9.26791"><ele>614.0</ele><time>2026-04-06T14:10:36.989Z</time></trkpt><trkpt lat="40.6016567" lon="9.26766"><ele>614.0</ele><time>2026-04-06T14:10:37.989Z</time></trkpt><trkpt lat="40.6014683" lon="9.2674117"><ele>613.5</ele><time>2026-04-06T14:10:38.989Z</time></trkpt><trkpt lat="40.6012683" lon="9.2671467"><ele>613.0</ele><time>2026-04-06T14:10:39.989Z</time></trkpt><trkpt lat="40.60107" lon="9.2668867"><ele>612.0</ele><time>2026-04-06T14:10:40.989Z</time></trkpt><trkpt lat="40.6008667" lon="9.266615"><ele>611.0</ele><time>2026-04-06T14:10:41.989Z</time></trkpt><trkpt lat="40.6006583" lon="9.2663417"><ele>610.5</ele><time>2026-04-06T14:10:42.988Z</time></trkpt><trkpt lat="40.6004533" lon="9.266065"><ele>610.0</ele><time>2026-04-06T14:10:43.988Z</time></trkpt><trkpt lat="40.6002467" lon="9.2657867"><ele>610.5</ele><time>2026-04-06T14:10:44.988Z</time></trkpt><trkpt lat="40.60005" lon="9.2655017"><ele>611.0</ele><time>2026-04-06T14:10:45.988Z</time></trkpt><trkpt lat="40.5998317" lon="9.2652167"><ele>611.0</ele><time>2026-04-06T14:10:46.988Z</time></trkpt><trkpt lat="40.59961" lon="9.2649267"><ele>611.0</ele><time>2026-04-06T14:10:47.988Z</time></trkpt><trkpt lat="40.5993933" lon="9.2646383"><ele>612.0</ele><time>2026-04-06T14:10:48.989Z</time></trkpt><trkpt lat="40.599175" lon="9.264355"><ele>613.0</ele><time>2026-04-06T14:10:49.988Z</time></trkpt><trkpt lat="40.5989567" lon="9.2640633"><ele>613.0</ele><time>2026-04-06T14:10:50.988Z</time></trkpt><trkpt lat="40.5987383" lon="9.2637733"><ele>613.0</ele><time>2026-04-06T14:10:51.988Z</time></trkpt><trkpt lat="40.5985183" lon="9.263485"><ele>613.0</ele><time>2026-04-06T14:10:52.988Z</time></trkpt><trkpt lat="40.598305" lon="9.2631883"><ele>613.0</ele><time>2026-04-06T14:10:53.988Z</time></trkpt><trkpt lat="40.598095" lon="9.2629067"><ele>612.5</ele><time>2026-04-06T14:10:54.988Z</time></trkpt><trkpt lat="40.59787" lon="9.2626267"><ele>612.0</ele><time>2026-04-06T14:10:55.988Z</time></trkpt><trkpt lat="40.597645" lon="9.2623383"><ele>611.5</ele><time>2026-04-06T14:10:56.988Z</time></trkpt><trkpt lat="40.597435" lon="9.2620317"><ele>611.0</ele><time>2026-04-06T14:10:57.988Z</time></trkpt><trkpt lat="40.5972283" lon="9.2617333"><ele>610.5</ele><time>2026-04-06T14:10:58.989Z</time></trkpt><trkpt lat="40.5970033" lon="9.2614383"><ele>610.0</ele><time>2026-04-06T14:10:59.988Z</time></trkpt><trkpt lat="40.59679" lon="9.2611583"><ele>610.0</ele><time>2026-04-06T14:11:00.988Z</time></trkpt><trkpt lat="40.5965683" lon="9.260865"><ele>610.0</ele><time>2026-04-06T14:11:01.988Z</time></trkpt><trkpt lat="40.5963517" lon="9.2605683"><ele>610.0</ele><time>2026-04-06T14:11:02.988Z</time></trkpt><trkpt lat="40.5961317" lon="9.2602783"><ele>610.0</ele><time>2026-04-06T14:11:03.988Z</time></trkpt><trkpt lat="40.5959133" lon="9.26"><ele>610.0</ele><time>2026-04-06T14:11:04.988Z</time></trkpt><trkpt lat="40.595705" lon="9.2597017"><ele>610.0</ele><time>2026-04-06T14:11:05.988Z</time></trkpt><trkpt lat="40.59549" lon="9.2594067"><ele>610.0</ele><time>2026-04-06T14:11:06.988Z</time></trkpt><trkpt lat="40.5952683" lon="9.259125"><ele>610.0</ele><time>2026-04-06T14:11:07.988Z</time></trkpt><trkpt lat="40.5950467" lon="9.25884"><ele>610.0</ele><time>2026-04-06T14:11:08.988Z</time></trkpt><trkpt lat="40.594825" lon="9.2585433"><ele>610.0</ele><time>2026-04-06T14:11:09.988Z</time></trkpt><trkpt lat="40.5946033" lon="9.2582517"><ele>611.0</ele><time>2026-04-06T14:11:10.988Z</time></trkpt><trkpt lat="40.5943867" lon="9.2579617"><ele>612.0</ele><time>2026-04-06T14:11:11.988Z</time></trkpt><trkpt lat="40.59417" lon="9.257665"><ele>612.0</ele><time>2026-04-06T14:11:12.988Z</time></trkpt><trkpt lat="40.5939567" lon="9.2573767"><ele>612.0</ele><time>2026-04-06T14:11:13.988Z</time></trkpt><trkpt lat="40.5937467" lon="9.2570867"><ele>613.5</ele><time>2026-04-06T14:11:14.988Z</time></trkpt><trkpt lat="40.59353" lon="9.2568"><ele>615.0</ele><time>2026-04-06T14:11:15.988Z</time></trkpt><trkpt lat="40.5933083" lon="9.25651"><ele>614.5</ele><time>2026-04-06T14:11:16.988Z</time></trkpt><trkpt lat="40.59309" lon="9.2562267"><ele>614.0</ele><time>2026-04-06T14:11:17.988Z</time></trkpt><trkpt lat="40.5928733" lon="9.2559533"><ele>614.0</ele><time>2026-04-06T14:11:18.988Z</time></trkpt><trkpt lat="40.5926667" lon="9.2556717"><ele>614.0</ele><time>2026-04-06T14:11:19.989Z</time></trkpt><trkpt lat="40.5924583" lon="9.25539"><ele>613.5</ele><time>2026-04-06T14:11:20.989Z</time></trkpt><trkpt lat="40.5922483" lon="9.2551117"><ele>613.0</ele><time>2026-04-06T14:11:21.988Z</time></trkpt><trkpt lat="40.5920417" lon="9.2548283"><ele>612.5</ele><time>2026-04-06T14:11:22.988Z</time></trkpt><trkpt lat="40.5918483" lon="9.2545433"><ele>612.0</ele><time>2026-04-06T14:11:23.988Z</time></trkpt><trkpt lat="40.591645" lon="9.254265"><ele>612.0</ele><time>2026-04-06T14:11:24.988Z</time></trkpt><trkpt lat="40.5914367" lon="9.253995"><ele>612.0</ele><time>2026-04-06T14:11:25.988Z</time></trkpt><trkpt lat="40.5912383" lon="9.253705"><ele>611.0</ele><time>2026-04-06T14:11:26.989Z</time></trkpt><trkpt lat="40.5910533" lon="9.2534183"><ele>610.0</ele><time>2026-04-06T14:11:27.988Z</time></trkpt><trkpt lat="40.5908733" lon="9.2531333"><ele>609.5</ele><time>2026-04-06T14:11:28.989Z</time></trkpt><trkpt lat="40.5907083" lon="9.25284"><ele>609.0</ele><time>2026-04-06T14:11:29.988Z</time></trkpt><trkpt lat="40.590545" lon="9.25253"><ele>609.5</ele><time>2026-04-06T14:11:30.988Z</time></trkpt><trkpt lat="40.5903833" lon="9.2522183"><ele>610.0</ele><time>2026-04-06T14:11:31.988Z</time></trkpt><trkpt lat="40.5902383" lon="9.251895"><ele>610.0</ele><time>2026-04-06T14:11:32.988Z</time></trkpt><trkpt lat="40.5901" lon="9.2515733"><ele>610.0</ele><time>2026-04-06T14:11:33.988Z</time></trkpt><trkpt lat="40.58996" lon="9.2512233"><ele>610.0</ele><time>2026-04-06T14:11:34.988Z</time></trkpt><trkpt lat="40.5898333" lon="9.250885"><ele>610.0</ele><time>2026-04-06T14:11:35.988Z</time></trkpt><trkpt lat="40.58971" lon="9.250535"><ele>610.0</ele><time>2026-04-06T14:11:36.988Z</time></trkpt><trkpt lat="40.5895967" lon="9.25018"><ele>610.0</ele><time>2026-04-06T14:11:37.988Z</time></trkpt><trkpt lat="40.5894967" lon="9.2498233"><ele>611.0</ele><time>2026-04-06T14:11:38.988Z</time></trkpt><trkpt lat="40.5894033" lon="9.2494567"><ele>612.0</ele><time>2026-04-06T14:11:39.988Z</time></trkpt><trkpt lat="40.5893133" lon="9.2490833"><ele>610.0</ele><time>2026-04-06T14:11:40.988Z</time></trkpt><trkpt lat="40.5892283" lon="9.2487167"><ele>608.0</ele><time>2026-04-06T14:11:41.988Z</time></trkpt><trkpt lat="40.5891567" lon="9.2483467"><ele>608.0</ele><time>2026-04-06T14:11:42.988Z</time></trkpt><trkpt lat="40.58908" lon="9.2479767"><ele>608.0</ele><time>2026-04-06T14:11:43.988Z</time></trkpt><trkpt lat="40.589005" lon="9.2476133"><ele>608.0</ele><time>2026-04-06T14:11:44.988Z</time></trkpt><trkpt lat="40.5889267" lon="9.247255"><ele>608.0</ele><time>2026-04-06T14:11:45.988Z</time></trkpt><trkpt lat="40.58885" lon="9.2468867"><ele>608.0</ele><time>2026-04-06T14:11:46.989Z</time></trkpt><trkpt lat="40.5887767" lon="9.2465133"><ele>608.0</ele><time>2026-04-06T14:11:47.988Z</time></trkpt><trkpt lat="40.5886967" lon="9.2461517"><ele>609.0</ele><time>2026-04-06T14:11:48.988Z</time></trkpt><trkpt lat="40.5886167" lon="9.24578"><ele>610.0</ele><time>2026-04-06T14:11:49.988Z</time></trkpt><trkpt lat="40.588535" lon="9.2454133"><ele>610.0</ele><time>2026-04-06T14:11:50.988Z</time></trkpt><trkpt lat="40.58846" lon="9.2450567"><ele>610.0</ele><time>2026-04-06T14:11:51.988Z</time></trkpt><trkpt lat="40.588395" lon="9.2447033"><ele>609.5</ele><time>2026-04-06T14:11:52.988Z</time></trkpt><trkpt lat="40.58833" lon="9.2443533"><ele>609.0</ele><time>2026-04-06T14:11:53.988Z</time></trkpt><trkpt lat="40.5882667" lon="9.244015"><ele>608.5</ele><time>2026-04-06T14:11:54.988Z</time></trkpt><trkpt lat="40.5881967" lon="9.2436767"><ele>608.0</ele><time>2026-04-06T14:11:55.988Z</time></trkpt><trkpt lat="40.5881267" lon="9.243335"><ele>607.5</ele><time>2026-04-06T14:11:56.988Z</time></trkpt><trkpt lat="40.5880583" lon="9.2429967"><ele>607.0</ele><time>2026-04-06T14:11:57.988Z</time></trkpt><trkpt lat="40.5879883" lon="9.2426733"><ele>607.0</ele><time>2026-04-06T14:11:58.988Z</time></trkpt><trkpt lat="40.5879217" lon="9.24235"><ele>607.0</ele><time>2026-04-06T14:11:59.988Z</time></trkpt><trkpt lat="40.5878583" lon="9.24204"><ele>607.0</ele><time>2026-04-06T14:12:00.988Z</time></trkpt><trkpt lat="40.5877967" lon="9.2417617"><ele>607.0</ele><time>2026-04-06T14:12:01.988Z</time></trkpt><trkpt lat="40.5877333" lon="9.2414783"><ele>607.0</ele><time>2026-04-06T14:12:02.988Z</time></trkpt><trkpt lat="40.5876817" lon="9.241205"><ele>607.0</ele><time>2026-04-06T14:12:03.988Z</time></trkpt><trkpt lat="40.5876317" lon="9.2409133"><ele>607.0</ele><time>2026-04-06T14:12:04.988Z</time></trkpt><trkpt lat="40.58757" lon="9.2406183"><ele>606.5</ele><time>2026-04-06T14:12:05.988Z</time></trkpt><trkpt lat="40.5875083" lon="9.240325"><ele>606.0</ele><time>2026-04-06T14:12:06.988Z</time></trkpt><trkpt lat="40.5874417" lon="9.2400333"><ele>606.5</ele><time>2026-04-06T14:12:07.988Z</time></trkpt><trkpt lat="40.5873733" lon="9.2397367"><ele>607.0</ele><time>2026-04-06T14:12:08.988Z</time></trkpt><trkpt lat="40.5873117" lon="9.2394533"><ele>607.0</ele><time>2026-04-06T14:12:09.988Z</time></trkpt><trkpt lat="40.587255" lon="9.2391817"><ele>607.0</ele><time>2026-04-06T14:12:10.989Z</time></trkpt><trkpt lat="40.5872033" lon="9.2389183"><ele>607.0</ele><time>2026-04-06T14:12:11.988Z</time></trkpt><trkpt lat="40.58715" lon="9.2386883"><ele>607.3333333333334</ele><time>2026-04-06T14:12:12.988Z</time></trkpt><trkpt lat="40.5871133" lon="9.238465"><ele>607.6666666666666</ele><time>2026-04-06T14:12:13.988Z</time></trkpt><trkpt lat="40.5870767" lon="9.238275"><ele>608.0</ele><time>2026-04-06T14:12:14.988Z</time></trkpt><trkpt lat="40.587045" lon="9.2381117"><ele>608.4</ele><time>2026-04-06T14:12:15.988Z</time></trkpt><trkpt lat="40.5870217" lon="9.23796"><ele>608.8</ele><time>2026-04-06T14:12:16.988Z</time></trkpt><trkpt lat="40.5870117" lon="9.237835"><ele>609.2</ele><time>2026-04-06T14:12:17.988Z</time></trkpt><trkpt lat="40.5869983" lon="9.2377283"><ele>609.6</ele><time>2026-04-06T14:12:18.988Z</time></trkpt><trkpt lat="40.5869767" lon="9.2375833"><ele>610.0</ele><time>2026-04-06T14:12:20.988Z</time></trkpt><trkpt lat="40.586965" lon="9.23749"><ele>610.2</ele><time>2026-04-06T14:12:22.988Z</time></trkpt><trkpt lat="40.5869467" lon="9.2373917"><ele>610.4</ele><time>2026-04-06T14:12:36.988Z</time></trkpt><trkpt lat="40.5869183" lon="9.2372983"><ele>610.6</ele><time>2026-04-06T14:12:37.988Z</time></trkpt><trkpt lat="40.5868783" lon="9.23717"><ele>610.8</ele><time>2026-04-06T14:12:38.988Z</time></trkpt><trkpt lat="40.58684" lon="9.2370133"><ele>611.0</ele><time>2026-04-06T14:12:39.988Z</time></trkpt><trkpt lat="40.5867983" lon="9.2368367"><ele>611.0</ele><time>2026-04-06T14:12:40.988Z</time></trkpt><trkpt lat="40.5867533" lon="9.236645"><ele>611.0</ele><time>2026-04-06T14:12:41.988Z</time></trkpt><trkpt lat="40.5867133" lon="9.23646"><ele>611.0</ele><time>2026-04-06T14:12:42.988Z</time></trkpt><trkpt lat="40.5866733" lon="9.2362567"><ele>610.3333333333333</ele><time>2026-04-06T14:12:43.988Z</time></trkpt><trkpt lat="40.5866183" lon="9.2360517"><ele>609.6666666666666</ele><time>2026-04-06T14:12:44.988Z</time></trkpt><trkpt lat="40.58657" lon="9.2358483"><ele>609.0</ele><time>2026-04-06T14:12:45.988Z</time></trkpt><trkpt lat="40.586515" lon="9.2356333"><ele>609.0</ele><time>2026-04-06T14:12:46.988Z</time></trkpt><trkpt lat="40.5864617" lon="9.23541"><ele>609.0</ele><time>2026-04-06T14:12:47.988Z</time></trkpt><trkpt lat="40.5864183" lon="9.2351883"><ele>609.0</ele><time>2026-04-06T14:12:48.988Z</time></trkpt><trkpt lat="40.5863567" lon="9.2349633"><ele>608.6666666666666</ele><time>2026-04-06T14:12:49.988Z</time></trkpt><trkpt lat="40.586305" lon="9.234715"><ele>608.3333333333333</ele><time>2026-04-06T14:12:50.988Z</time></trkpt><trkpt lat="40.5862317" lon="9.2344533"><ele>608.0</ele><time>2026-04-06T14:12:51.988Z</time></trkpt><trkpt lat="40.5861567" lon="9.2341967"><ele>608.3333333333333</ele><time>2026-04-06T14:12:52.988Z</time></trkpt><trkpt lat="40.58608" lon="9.2339383"><ele>608.6666666666666</ele><time>2026-04-06T14:12:53.988Z</time></trkpt><trkpt lat="40.5860017" lon="9.233675"><ele>609.0</ele><time>2026-04-06T14:12:54.988Z</time></trkpt><trkpt lat="40.585915" lon="9.2334067"><ele>608.5</ele><time>2026-04-06T14:12:55.988Z</time></trkpt><trkpt lat="40.5858167" lon="9.2331233"><ele>608.0</ele><time>2026-04-06T14:12:56.988Z</time></trkpt><trkpt lat="40.5857267" lon="9.2328283"><ele>608.0</ele><time>2026-04-06T14:12:57.989Z</time></trkpt><trkpt lat="40.58563" lon="9.23254"><ele>608.0</ele><time>2026-04-06T14:12:58.988Z</time></trkpt><trkpt lat="40.5855283" lon="9.23225"><ele>609.0</ele><time>2026-04-06T14:12:59.988Z</time></trkpt><trkpt lat="40.5854167" lon="9.2319717"><ele>610.0</ele><time>2026-04-06T14:13:00.988Z</time></trkpt><trkpt lat="40.5852983" lon="9.2316817"><ele>610.5</ele><time>2026-04-06T14:13:01.988Z</time></trkpt><trkpt lat="40.5851867" lon="9.2313717"><ele>611.0</ele><time>2026-04-06T14:13:02.988Z</time></trkpt><trkpt lat="40.5850683" lon="9.2310817"><ele>611.0</ele><time>2026-04-06T14:13:03.988Z</time></trkpt><trkpt lat="40.5849533" lon="9.230785"><ele>611.0</ele><time>2026-04-06T14:13:04.988Z</time></trkpt><trkpt lat="40.5848433" lon="9.2304933"><ele>611.5</ele><time>2026-04-06T14:13:05.988Z</time></trkpt><trkpt lat="40.58473" lon="9.230195"><ele>612.0</ele><time>2026-04-06T14:13:06.988Z</time></trkpt><trkpt lat="40.5846033" lon="9.2298933"><ele>612.5</ele><time>2026-04-06T14:13:07.988Z</time></trkpt><trkpt lat="40.58449" lon="9.2296"><ele>613.0</ele><time>2026-04-06T14:13:08.988Z</time></trkpt><trkpt lat="40.5843783" lon="9.2293183"><ele>613.0</ele><time>2026-04-06T14:13:09.988Z</time></trkpt><trkpt lat="40.584265" lon="9.2290367"><ele>613.0</ele><time>2026-04-06T14:13:10.988Z</time></trkpt><trkpt lat="40.584145" lon="9.2287433"><ele>613.0</ele><time>2026-04-06T14:13:11.988Z</time></trkpt><trkpt lat="40.5840267" lon="9.22845"><ele>613.0</ele><time>2026-04-06T14:13:12.988Z</time></trkpt><trkpt lat="40.5839083" lon="9.2281483"><ele>613.5</ele><time>2026-04-06T14:13:13.988Z</time></trkpt><trkpt lat="40.5837883" lon="9.227865"><ele>614.0</ele><time>2026-04-06T14:13:14.988Z</time></trkpt><trkpt lat="40.5836833" lon="9.2275667"><ele>615.0</ele><time>2026-04-06T14:13:15.988Z</time></trkpt><trkpt lat="40.5835717" lon="9.2272567"><ele>616.0</ele><time>2026-04-06T14:13:16.988Z</time></trkpt><trkpt lat="40.5834533" lon="9.2269583"><ele>616.0</ele><time>2026-04-06T14:13:17.989Z</time></trkpt><trkpt lat="40.5833317" lon="9.2266717"><ele>616.0</ele><time>2026-04-06T14:13:18.988Z</time></trkpt><trkpt lat="40.5832083" lon="9.2263933"><ele>617.5</ele><time>2026-04-06T14:13:19.988Z</time></trkpt><trkpt lat="40.5830983" lon="9.22611"><ele>619.0</ele><time>2026-04-06T14:13:20.988Z</time></trkpt><trkpt lat="40.5829867" lon="9.2258283"><ele>620.0</ele><time>2026-04-06T14:13:21.988Z</time></trkpt><trkpt lat="40.58288" lon="9.22555"><ele>621.0</ele><time>2026-04-06T14:13:22.988Z</time></trkpt><trkpt lat="40.5827733" lon="9.22526"><ele>622.5</ele><time>2026-04-06T14:13:23.988Z</time></trkpt><trkpt lat="40.582665" lon="9.2249733"><ele>624.0</ele><time>2026-04-06T14:13:24.988Z</time></trkpt><trkpt lat="40.5825533" lon="9.2246967"><ele>624.0</ele><time>2026-04-06T14:13:25.988Z</time></trkpt><trkpt lat="40.5824433" lon="9.22442"><ele>624.0</ele><time>2026-04-06T14:13:26.988Z</time></trkpt><trkpt lat="40.582335" lon="9.2241333"><ele>624.0</ele><time>2026-04-06T14:13:27.988Z</time></trkpt><trkpt lat="40.5822217" lon="9.2238467"><ele>624.0</ele><time>2026-04-06T14:13:28.988Z</time></trkpt><trkpt lat="40.5821117" lon="9.2235617"><ele>626.0</ele><time>2026-04-06T14:13:29.988Z</time></trkpt><trkpt lat="40.5819917" lon="9.2232867"><ele>628.0</ele><time>2026-04-06T14:13:30.988Z</time></trkpt><trkpt lat="40.5818883" lon="9.2230083"><ele>628.0</ele><time>2026-04-06T14:13:31.988Z</time></trkpt><trkpt lat="40.58178" lon="9.2227433"><ele>628.0</ele><time>2026-04-06T14:13:32.988Z</time></trkpt><trkpt lat="40.581685" lon="9.2224767"><ele>628.6666666666667</ele><time>2026-04-06T14:13:33.988Z</time></trkpt><trkpt lat="40.5815833" lon="9.2222283"><ele>629.3333333333334</ele><time>2026-04-06T14:13:34.988Z</time></trkpt><trkpt lat="40.5814883" lon="9.222"><ele>630.0</ele><time>2026-04-06T14:13:35.988Z</time></trkpt><trkpt lat="40.5814067" lon="9.2217767"><ele>630.0</ele><time>2026-04-06T14:13:36.988Z</time></trkpt><trkpt lat="40.5813267" lon="9.2215733"><ele>630.0</ele><time>2026-04-06T14:13:37.988Z</time></trkpt><trkpt lat="40.5812483" lon="9.221385"><ele>630.0</ele><time>2026-04-06T14:13:38.988Z</time></trkpt><trkpt lat="40.5811767" lon="9.2211983"><ele>631.0</ele><time>2026-04-06T14:13:39.988Z</time></trkpt><trkpt lat="40.5811067" lon="9.221005"><ele>632.0</ele><time>2026-04-06T14:13:40.988Z</time></trkpt><trkpt lat="40.5810483" lon="9.22084"><ele>633.0</ele><time>2026-04-06T14:13:41.989Z</time></trkpt><trkpt lat="40.581015" lon="9.220675"><ele>634.0</ele><time>2026-04-06T14:13:42.988Z</time></trkpt><trkpt lat="40.5810217" lon="9.2205333"><ele>635.0</ele><time>2026-04-06T14:13:43.988Z</time></trkpt><trkpt lat="40.5810683" lon="9.2204167"><ele>636.0</ele><time>2026-04-06T14:13:44.988Z</time></trkpt><trkpt lat="40.581125" lon="9.2202883"><ele>637.0</ele><time>2026-04-06T14:13:45.988Z</time></trkpt><trkpt lat="40.5812" lon="9.2201617"><ele>638.0</ele><time>2026-04-06T14:13:46.988Z</time></trkpt><trkpt lat="40.5812733" lon="9.220035"><ele>638.0</ele><time>2026-04-06T14:13:47.988Z</time></trkpt><trkpt lat="40.58133" lon="9.21989"><ele>638.0</ele><time>2026-04-06T14:13:48.988Z</time></trkpt><trkpt lat="40.5813717" lon="9.2197183"><ele>638.0</ele><time>2026-04-06T14:13:49.988Z</time></trkpt><trkpt lat="40.58137" lon="9.2195367"><ele>638.0</ele><time>2026-04-06T14:13:50.988Z</time></trkpt><trkpt lat="40.5813333" lon="9.2193417"><ele>637.6666666666666</ele><time>2026-04-06T14:13:51.988Z</time></trkpt><trkpt lat="40.5812733" lon="9.2191433"><ele>637.3333333333334</ele><time>2026-04-06T14:13:52.988Z</time></trkpt><trkpt lat="40.58122" lon="9.21895"><ele>637.0</ele><time>2026-04-06T14:13:53.988Z</time></trkpt><trkpt lat="40.5811683" lon="9.2187617"><ele>640.3333333333334</ele><time>2026-04-06T14:13:54.989Z</time></trkpt><trkpt lat="40.5811167" lon="9.21857"><ele>643.6666666666666</ele><time>2026-04-06T14:13:55.988Z</time></trkpt><trkpt lat="40.5810567" lon="9.2183933"><ele>647.0</ele><time>2026-04-06T14:13:56.988Z</time></trkpt><trkpt lat="40.5809917" lon="9.2181933"><ele>648.0</ele><time>2026-04-06T14:13:57.988Z</time></trkpt><trkpt lat="40.580935" lon="9.2179833"><ele>649.0</ele><time>2026-04-06T14:13:58.989Z</time></trkpt><trkpt lat="40.580865" lon="9.2177717"><ele>650.0</ele><time>2026-04-06T14:13:59.988Z</time></trkpt><trkpt lat="40.58079" lon="9.217555"><ele>650.0</ele><time>2026-04-06T14:14:00.988Z</time></trkpt><trkpt lat="40.58072" lon="9.2173233"><ele>650.0</ele><time>2026-04-06T14:14:01.989Z</time></trkpt><trkpt lat="40.5806433" lon="9.2170817"><ele>650.0</ele><time>2026-04-06T14:14:02.988Z</time></trkpt><trkpt lat="40.580565" lon="9.21683"><ele>650.0</ele><time>2026-04-06T14:14:03.988Z</time></trkpt><trkpt lat="40.5804783" lon="9.216565"><ele>650.0</ele><time>2026-04-06T14:14:04.988Z</time></trkpt><trkpt lat="40.5803983" lon="9.2163067"><ele>650.0</ele><time>2026-04-06T14:14:05.988Z</time></trkpt><trkpt lat="40.5803233" lon="9.21605"><ele>651.3333333333333</ele><time>2026-04-06T14:14:06.988Z</time></trkpt><trkpt lat="40.5802483" lon="9.2158067"><ele>652.6666666666666</ele><time>2026-04-06T14:14:07.988Z</time></trkpt><trkpt lat="40.5801767" lon="9.2155583"><ele>654.0</ele><time>2026-04-06T14:14:08.988Z</time></trkpt><trkpt lat="40.5801133" lon="9.2152983"><ele>654.0</ele><time>2026-04-06T14:14:09.988Z</time></trkpt><trkpt lat="40.58006" lon="9.2150317"><ele>654.0</ele><time>2026-04-06T14:14:10.988Z</time></trkpt><trkpt lat="40.5800167" lon="9.2147733"><ele>654.0</ele><time>2026-04-06T14:14:11.988Z</time></trkpt><trkpt lat="40.5799917" lon="9.2145333"><ele>654.3333333333334</ele><time>2026-04-06T14:14:12.988Z</time></trkpt><trkpt lat="40.5799667" lon="9.2143083"><ele>654.6666666666667</ele><time>2026-04-06T14:14:13.988Z</time></trkpt><trkpt lat="40.5799083" lon="9.2141217"><ele>655.0</ele><time>2026-04-06T14:14:14.988Z</time></trkpt><trkpt lat="40.5798133" lon="9.213935"><ele>656.3333333333334</ele><time>2026-04-06T14:14:15.988Z</time></trkpt><trkpt lat="40.5796783" lon="9.213765"><ele>657.6666666666666</ele><time>2026-04-06T14:14:16.988Z</time></trkpt><trkpt lat="40.5795117" lon="9.21359"><ele>659.0</ele><time>2026-04-06T14:14:17.988Z</time></trkpt><trkpt lat="40.57936" lon="9.213405"><ele>656.0</ele><time>2026-04-06T14:14:18.988Z</time></trkpt><trkpt lat="40.5792217" lon="9.2131967"><ele>653.0</ele><time>2026-04-06T14:14:19.988Z</time></trkpt><trkpt lat="40.57908" lon="9.21297"><ele>650.0</ele><time>2026-04-06T14:14:20.988Z</time></trkpt><trkpt lat="40.57893" lon="9.212715"><ele>649.5</ele><time>2026-04-06T14:14:21.988Z</time></trkpt><trkpt lat="40.5788" lon="9.212475"><ele>649.0</ele><time>2026-04-06T14:14:22.988Z</time></trkpt><trkpt lat="40.578655" lon="9.2122317"><ele>645.0</ele><time>2026-04-06T14:14:23.988Z</time></trkpt><trkpt lat="40.5785167" lon="9.21198"><ele>641.0</ele><time>2026-04-06T14:14:24.988Z</time></trkpt><trkpt lat="40.578365" lon="9.21172"><ele>641.5</ele><time>2026-04-06T14:14:25.988Z</time></trkpt><trkpt lat="40.57822" lon="9.2114567"><ele>642.0</ele><time>2026-04-06T14:14:26.988Z</time></trkpt><trkpt lat="40.578075" lon="9.2112117"><ele>642.0</ele><time>2026-04-06T14:14:27.988Z</time></trkpt><trkpt lat="40.5779433" lon="9.2109567"><ele>642.0</ele><time>2026-04-06T14:14:28.989Z</time></trkpt><trkpt lat="40.57781" lon="9.2107017"><ele>639.3333333333334</ele><time>2026-04-06T14:14:29.988Z</time></trkpt><trkpt lat="40.5776867" lon="9.2104583"><ele>636.6666666666667</ele><time>2026-04-06T14:14:30.988Z</time></trkpt><trkpt lat="40.5775717" lon="9.2102233"><ele>634.0</ele><time>2026-04-06T14:14:31.988Z</time></trkpt><trkpt lat="40.5774617" lon="9.2099817"><ele>634.3333333333334</ele><time>2026-04-06T14:14:32.988Z</time></trkpt><trkpt lat="40.57734" lon="9.2097433"><ele>634.6666666666666</ele><time>2026-04-06T14:14:33.988Z</time></trkpt><trkpt lat="40.5772717" lon="9.2095183"><ele>635.0</ele><time>2026-04-06T14:14:34.988Z</time></trkpt><trkpt lat="40.5772533" lon="9.2092817"><ele>635.0</ele><time>2026-04-06T14:14:35.988Z</time></trkpt><trkpt lat="40.5772533" lon="9.20904"><ele>635.0</ele><time>2026-04-06T14:14:36.988Z</time></trkpt><trkpt lat="40.5772333" lon="9.2087833"><ele>635.0</ele><time>2026-04-06T14:14:37.988Z</time></trkpt><trkpt lat="40.5771683" lon="9.2085317"><ele>634.6666666666666</ele><time>2026-04-06T14:14:38.988Z</time></trkpt><trkpt lat="40.57709" lon="9.20828"><ele>634.3333333333334</ele><time>2026-04-06T14:14:39.988Z</time></trkpt><trkpt lat="40.5770317" lon="9.20803"><ele>634.0</ele><time>2026-04-06T14:14:40.988Z</time></trkpt><trkpt lat="40.577005" lon="9.20777"><ele>633.3333333333334</ele><time>2026-04-06T14:14:41.988Z</time></trkpt><trkpt lat="40.57701" lon="9.2074983"><ele>632.6666666666666</ele><time>2026-04-06T14:14:42.988Z</time></trkpt><trkpt lat="40.5770267" lon="9.20722"><ele>632.0</ele><time>2026-04-06T14:14:43.988Z</time></trkpt><trkpt lat="40.5770383" lon="9.2069467"><ele>632.0</ele><time>2026-04-06T14:14:44.988Z</time></trkpt><trkpt lat="40.57702" lon="9.206685"><ele>632.0</ele><time>2026-04-06T14:14:45.988Z</time></trkpt><trkpt lat="40.57697" lon="9.206395"><ele>632.0</ele><time>2026-04-06T14:14:46.988Z</time></trkpt><trkpt lat="40.5769033" lon="9.206105"><ele>623.5</ele><time>2026-04-06T14:14:47.988Z</time></trkpt><trkpt lat="40.5768433" lon="9.205825"><ele>615.0</ele><time>2026-04-06T14:14:48.988Z</time></trkpt><trkpt lat="40.576755" lon="9.2055433"><ele>614.6666666666666</ele><time>2026-04-06T14:14:49.988Z</time></trkpt><trkpt lat="40.5766533" lon="9.2052767"><ele>614.3333333333333</ele><time>2026-04-06T14:14:50.988Z</time></trkpt><trkpt lat="40.5765583" lon="9.2050167"><ele>614.0</ele><time>2026-04-06T14:14:51.988Z</time></trkpt><trkpt lat="40.57646" lon="9.204735"><ele>612.5</ele><time>2026-04-06T14:14:52.988Z</time></trkpt><trkpt lat="40.5763667" lon="9.20445"><ele>611.0</ele><time>2026-04-06T14:14:53.988Z</time></trkpt><trkpt lat="40.57628" lon="9.2041817"><ele>610.6666666666666</ele><time>2026-04-06T14:14:54.988Z</time></trkpt><trkpt lat="40.5761967" lon="9.2039083"><ele>610.3333333333334</ele><time>2026-04-06T14:14:55.988Z</time></trkpt><trkpt lat="40.5761217" lon="9.2036467"><ele>610.0</ele><time>2026-04-06T14:14:56.988Z</time></trkpt><trkpt lat="40.576065" lon="9.2034133"><ele>610.0</ele><time>2026-04-06T14:14:57.988Z</time></trkpt><trkpt lat="40.5759867" lon="9.2032167"><ele>610.0</ele><time>2026-04-06T14:14:58.988Z</time></trkpt><trkpt lat="40.575885" lon="9.2030433"><ele>610.0</ele><time>2026-04-06T14:14:59.988Z</time></trkpt><trkpt lat="40.575755" lon="9.20289"><ele>612.0</ele><time>2026-04-06T14:15:00.988Z</time></trkpt><trkpt lat="40.5755917" lon="9.2027833"><ele>614.0</ele><time>2026-04-06T14:15:01.988Z</time></trkpt><trkpt lat="40.5754083" lon="9.2026967"><ele>616.0</ele><time>2026-04-06T14:15:02.988Z</time></trkpt><trkpt lat="40.5752083" lon="9.20264"><ele>616.3333333333334</ele><time>2026-04-06T14:15:03.989Z</time></trkpt><trkpt lat="40.575005" lon="9.2025517"><ele>616.6666666666666</ele><time>2026-04-06T14:15:04.988Z</time></trkpt><trkpt lat="40.574805" lon="9.20245"><ele>617.0</ele><time>2026-04-06T14:15:05.988Z</time></trkpt><trkpt lat="40.5746083" lon="9.2023367"><ele>618.3333333333333</ele><time>2026-04-06T14:15:06.988Z</time></trkpt><trkpt lat="40.5744167" lon="9.2021983"><ele>619.6666666666666</ele><time>2026-04-06T14:15:07.988Z</time></trkpt><trkpt lat="40.57424" lon="9.2020133"><ele>621.0</ele><time>2026-04-06T14:15:08.988Z</time></trkpt><trkpt lat="40.5740683" lon="9.2018183"><ele>621.0</ele><time>2026-04-06T14:15:09.988Z</time></trkpt><trkpt lat="40.5739167" lon="9.201595"><ele>621.0</ele><time>2026-04-06T14:15:10.988Z</time></trkpt><trkpt lat="40.5737783" lon="9.2013583"><ele>621.0</ele><time>2026-04-06T14:15:11.988Z</time></trkpt><trkpt lat="40.5736467" lon="9.2011017"><ele>621.0</ele><time>2026-04-06T14:15:12.988Z</time></trkpt><trkpt lat="40.573535" lon="9.2008317"><ele>622.5</ele><time>2026-04-06T14:15:13.988Z</time></trkpt><trkpt lat="40.5734133" lon="9.2005417"><ele>624.0</ele><time>2026-04-06T14:15:14.988Z</time></trkpt><trkpt lat="40.5732933" lon="9.200245"><ele>624.0</ele><time>2026-04-06T14:15:15.988Z</time></trkpt><trkpt lat="40.57319" lon="9.19995"><ele>624.0</ele><time>2026-04-06T14:15:16.988Z</time></trkpt><trkpt lat="40.573075" lon="9.1996567"><ele>626.5</ele><time>2026-04-06T14:15:17.988Z</time></trkpt><trkpt lat="40.5729583" lon="9.1993733"><ele>629.0</ele><time>2026-04-06T14:15:18.988Z</time></trkpt><trkpt lat="40.572845" lon="9.19909"><ele>630.0</ele><time>2026-04-06T14:15:19.988Z</time></trkpt><trkpt lat="40.5727217" lon="9.1988067"><ele>631.0</ele><time>2026-04-06T14:15:20.988Z</time></trkpt><trkpt lat="40.5726" lon="9.19853"><ele>631.0</ele><time>2026-04-06T14:15:21.988Z</time></trkpt><trkpt lat="40.57249" lon="9.1982467"><ele>631.0</ele><time>2026-04-06T14:15:22.988Z</time></trkpt><trkpt lat="40.57237" lon="9.197955"><ele>633.5</ele><time>2026-04-06T14:15:23.988Z</time></trkpt><trkpt lat="40.5722467" lon="9.1976683"><ele>636.0</ele><time>2026-04-06T14:15:24.988Z</time></trkpt><trkpt lat="40.57213" lon="9.1973867"><ele>638.0</ele><time>2026-04-06T14:15:25.988Z</time></trkpt><trkpt lat="40.57202" lon="9.19711"><ele>640.0</ele><time>2026-04-06T14:15:26.988Z</time></trkpt><trkpt lat="40.57192" lon="9.1968283"><ele>640.0</ele><time>2026-04-06T14:15:27.988Z</time></trkpt><trkpt lat="40.5718067" lon="9.1965483"><ele>640.0</ele><time>2026-04-06T14:15:28.988Z</time></trkpt><trkpt lat="40.571675" lon="9.1962633"><ele>642.0</ele><time>2026-04-06T14:15:29.988Z</time></trkpt><trkpt lat="40.5715383" lon="9.1959867"><ele>644.0</ele><time>2026-04-06T14:15:30.988Z</time></trkpt><trkpt lat="40.571395" lon="9.1957167"><ele>645.5</ele><time>2026-04-06T14:15:31.988Z</time></trkpt><trkpt lat="40.57123" lon="9.1954633"><ele>647.0</ele><time>2026-04-06T14:15:32.988Z</time></trkpt><trkpt lat="40.5710717" lon="9.1952217"><ele>647.0</ele><time>2026-04-06T14:15:33.988Z</time></trkpt><trkpt lat="40.5708933" lon="9.1950067"><ele>647.0</ele><time>2026-04-06T14:15:34.988Z</time></trkpt><trkpt lat="40.570695" lon="9.1948133"><ele>650.0</ele><time>2026-04-06T14:15:35.988Z</time></trkpt><trkpt lat="40.5704883" lon="9.194635"><ele>653.0</ele><time>2026-04-06T14:15:36.988Z</time></trkpt><trkpt lat="40.5702767" lon="9.19447"><ele>653.0</ele><time>2026-04-06T14:15:37.988Z</time></trkpt><trkpt lat="40.5700533" lon="9.194315"><ele>653.0</ele><time>2026-04-06T14:15:38.988Z</time></trkpt><trkpt lat="40.5698283" lon="9.1941533"><ele>655.5</ele><time>2026-04-06T14:15:39.988Z</time></trkpt><trkpt lat="40.569605" lon="9.1939867"><ele>658.0</ele><time>2026-04-06T14:15:40.988Z</time></trkpt><trkpt lat="40.569385" lon="9.1938133"><ele>658.0</ele><time>2026-04-06T14:15:41.989Z</time></trkpt><trkpt lat="40.569165" lon="9.1936283"><ele>658.0</ele><time>2026-04-06T14:15:42.988Z</time></trkpt><trkpt lat="40.568955" lon="9.1934317"><ele>658.0</ele><time>2026-04-06T14:15:43.988Z</time></trkpt><trkpt lat="40.5687517" lon="9.19322"><ele>658.0</ele><time>2026-04-06T14:15:44.988Z</time></trkpt><trkpt lat="40.5685667" lon="9.1929783"><ele>659.0</ele><time>2026-04-06T14:15:45.988Z</time></trkpt><trkpt lat="40.568405" lon="9.1927617"><ele>660.0</ele><time>2026-04-06T14:15:46.988Z</time></trkpt><trkpt lat="40.5682383" lon="9.192515"><ele>664.0</ele><time>2026-04-06T14:15:47.988Z</time></trkpt><trkpt lat="40.56809" lon="9.19224"><ele>668.0</ele><time>2026-04-06T14:15:48.988Z</time></trkpt><trkpt lat="40.5679567" lon="9.19195"><ele>660.0</ele><time>2026-04-06T14:15:49.989Z</time></trkpt><trkpt lat="40.5678183" lon="9.191645"><ele>652.0</ele><time>2026-04-06T14:15:50.988Z</time></trkpt><trkpt lat="40.5676883" lon="9.1913267"><ele>651.5</ele><time>2026-04-06T14:15:51.988Z</time></trkpt><trkpt lat="40.5675667" lon="9.1909983"><ele>651.0</ele><time>2026-04-06T14:15:52.988Z</time></trkpt><trkpt lat="40.56745" lon="9.19067"><ele>651.0</ele><time>2026-04-06T14:15:53.988Z</time></trkpt><trkpt lat="40.5673333" lon="9.1903533"><ele>651.0</ele><time>2026-04-06T14:15:54.988Z</time></trkpt><trkpt lat="40.5672117" lon="9.1900483"><ele>649.5</ele><time>2026-04-06T14:15:55.988Z</time></trkpt><trkpt lat="40.5670933" lon="9.1897333"><ele>648.0</ele><time>2026-04-06T14:15:56.988Z</time></trkpt><trkpt lat="40.5669817" lon="9.1894183"><ele>641.0</ele><time>2026-04-06T14:15:57.988Z</time></trkpt><trkpt lat="40.566875" lon="9.1891117"><ele>634.0</ele><time>2026-04-06T14:15:58.988Z</time></trkpt><trkpt lat="40.5667717" lon="9.1887833"><ele>633.0</ele><time>2026-04-06T14:15:59.988Z</time></trkpt><trkpt lat="40.5666867" lon="9.1884533"><ele>632.0</ele><time>2026-04-06T14:16:00.988Z</time></trkpt><trkpt lat="40.566625" lon="9.1881233"><ele>632.0</ele><time>2026-04-06T14:16:01.988Z</time></trkpt><trkpt lat="40.5665833" lon="9.1877817"><ele>632.0</ele><time>2026-04-06T14:16:02.987Z</time></trkpt><trkpt lat="40.56656" lon="9.187435"><ele>631.0</ele><time>2026-04-06T14:16:03.987Z</time></trkpt><trkpt lat="40.56657" lon="9.1870817"><ele>630.0</ele><time>2026-04-06T14:16:04.987Z</time></trkpt><trkpt lat="40.56661" lon="9.18673"><ele>629.0</ele><time>2026-04-06T14:16:05.987Z</time></trkpt><trkpt lat="40.5666583" lon="9.1863783"><ele>628.0</ele><time>2026-04-06T14:16:06.987Z</time></trkpt><trkpt lat="40.5666967" lon="9.1860333"><ele>628.0</ele><time>2026-04-06T14:16:07.987Z</time></trkpt><trkpt lat="40.5667617" lon="9.1856817"><ele>628.0</ele><time>2026-04-06T14:16:08.987Z</time></trkpt><trkpt lat="40.5668267" lon="9.1853283"><ele>626.5</ele><time>2026-04-06T14:16:09.987Z</time></trkpt><trkpt lat="40.5668817" lon="9.1849883"><ele>625.0</ele><time>2026-04-06T14:16:10.987Z</time></trkpt><trkpt lat="40.5669417" lon="9.18465"><ele>622.5</ele><time>2026-04-06T14:16:11.987Z</time></trkpt><trkpt lat="40.567005" lon="9.184315"><ele>620.0</ele><time>2026-04-06T14:16:12.987Z</time></trkpt><trkpt lat="40.5670567" lon="9.1839867"><ele>613.5</ele><time>2026-04-06T14:16:13.987Z</time></trkpt><trkpt lat="40.5671133" lon="9.183655"><ele>607.0</ele><time>2026-04-06T14:16:14.987Z</time></trkpt><trkpt lat="40.5671733" lon="9.1833183"><ele>607.5</ele><time>2026-04-06T14:16:15.987Z</time></trkpt><trkpt lat="40.5672267" lon="9.18299"><ele>608.0</ele><time>2026-04-06T14:16:16.987Z</time></trkpt><trkpt lat="40.5672783" lon="9.1826617"><ele>609.0</ele><time>2026-04-06T14:16:17.987Z</time></trkpt><trkpt lat="40.5673367" lon="9.1823267"><ele>610.0</ele><time>2026-04-06T14:16:18.987Z</time></trkpt><trkpt lat="40.567395" lon="9.181995"><ele>610.0</ele><time>2026-04-06T14:16:19.988Z</time></trkpt><trkpt lat="40.5674567" lon="9.1816533"><ele>610.0</ele><time>2026-04-06T14:16:20.987Z</time></trkpt><trkpt lat="40.5675083" lon="9.181325"><ele>615.5</ele><time>2026-04-06T14:16:21.987Z</time></trkpt><trkpt lat="40.5675517" lon="9.1809983"><ele>621.0</ele><time>2026-04-06T14:16:22.987Z</time></trkpt><trkpt lat="40.567595" lon="9.1806717"><ele>625.0</ele><time>2026-04-06T14:16:23.987Z</time></trkpt><trkpt lat="40.5676283" lon="9.1803483"><ele>629.0</ele><time>2026-04-06T14:16:24.987Z</time></trkpt><trkpt lat="40.56764" lon="9.1800133"><ele>633.0</ele><time>2026-04-06T14:16:25.987Z</time></trkpt><trkpt lat="40.567645" lon="9.1796783"><ele>637.0</ele><time>2026-04-06T14:16:26.987Z</time></trkpt><trkpt lat="40.5676517" lon="9.1793467"><ele>639.0</ele><time>2026-04-06T14:16:27.987Z</time></trkpt><trkpt lat="40.5676517" lon="9.1790117"><ele>641.0</ele><time>2026-04-06T14:16:28.987Z</time></trkpt><trkpt lat="40.5676483" lon="9.1786733"><ele>641.0</ele><time>2026-04-06T14:16:29.987Z</time></trkpt><trkpt lat="40.5676367" lon="9.178335"><ele>641.0</ele><time>2026-04-06T14:16:30.987Z</time></trkpt><trkpt lat="40.5676183" lon="9.177995"><ele>642.5</ele><time>2026-04-06T14:16:31.987Z</time></trkpt><trkpt lat="40.56758" lon="9.1776533"><ele>644.0</ele><time>2026-04-06T14:16:32.987Z</time></trkpt><trkpt lat="40.5675433" lon="9.177305"><ele>644.0</ele><time>2026-04-06T14:16:33.987Z</time></trkpt><trkpt lat="40.5674933" lon="9.1769683"><ele>644.0</ele><time>2026-04-06T14:16:34.987Z</time></trkpt><trkpt lat="40.567425" lon="9.1766367"><ele>642.0</ele><time>2026-04-06T14:16:35.987Z</time></trkpt><trkpt lat="40.567335" lon="9.1763067"><ele>640.0</ele><time>2026-04-06T14:16:36.987Z</time></trkpt><trkpt lat="40.5672267" lon="9.1759817"><ele>639.0</ele><time>2026-04-06T14:16:37.987Z</time></trkpt><trkpt lat="40.5671167" lon="9.175655"><ele>638.0</ele><time>2026-04-06T14:16:38.987Z</time></trkpt><trkpt lat="40.5670067" lon="9.1753317"><ele>640.0</ele><time>2026-04-06T14:16:39.987Z</time></trkpt><trkpt lat="40.5668983" lon="9.175005"><ele>642.0</ele><time>2026-04-06T14:16:40.987Z</time></trkpt><trkpt lat="40.5667983" lon="9.1746783"><ele>642.0</ele><time>2026-04-06T14:16:41.987Z</time></trkpt><trkpt lat="40.5667167" lon="9.1743417"><ele>642.0</ele><time>2026-04-06T14:16:42.987Z</time></trkpt><trkpt lat="40.566655" lon="9.173995"><ele>642.5</ele><time>2026-04-06T14:16:43.987Z</time></trkpt><trkpt lat="40.566615" lon="9.17367"><ele>643.0</ele><time>2026-04-06T14:16:44.987Z</time></trkpt><trkpt lat="40.5665933" lon="9.1733317"><ele>640.0</ele><time>2026-04-06T14:16:45.987Z</time></trkpt><trkpt lat="40.5665933" lon="9.1730033"><ele>637.0</ele><time>2026-04-06T14:16:46.987Z</time></trkpt><trkpt lat="40.5666183" lon="9.1726683"><ele>634.5</ele><time>2026-04-06T14:16:47.987Z</time></trkpt><trkpt lat="40.5666617" lon="9.1723217"><ele>632.0</ele><time>2026-04-06T14:16:48.987Z</time></trkpt><trkpt lat="40.5667033" lon="9.171985"><ele>632.0</ele><time>2026-04-06T14:16:49.987Z</time></trkpt><trkpt lat="40.5667633" lon="9.17164"><ele>632.0</ele><time>2026-04-06T14:16:50.987Z</time></trkpt><trkpt lat="40.5668317" lon="9.171285"><ele>630.5</ele><time>2026-04-06T14:16:51.987Z</time></trkpt><trkpt lat="40.5668917" lon="9.170935"><ele>629.0</ele><time>2026-04-06T14:16:52.987Z</time></trkpt><trkpt lat="40.5669567" lon="9.1705817"><ele>629.0</ele><time>2026-04-06T14:16:53.987Z</time></trkpt><trkpt lat="40.567025" lon="9.1702267"><ele>629.0</ele><time>2026-04-06T14:16:54.987Z</time></trkpt><trkpt lat="40.5670767" lon="9.169875"><ele>622.5</ele><time>2026-04-06T14:16:55.988Z</time></trkpt><trkpt lat="40.567125" lon="9.1695233"><ele>616.0</ele><time>2026-04-06T14:16:56.987Z</time></trkpt><trkpt lat="40.5671767" lon="9.1691733"><ele>614.0</ele><time>2026-04-06T14:16:57.987Z</time></trkpt><trkpt lat="40.5672467" lon="9.16883"><ele>612.0</ele><time>2026-04-06T14:16:58.987Z</time></trkpt><trkpt lat="40.5672983" lon="9.1684817"><ele>610.5</ele><time>2026-04-06T14:16:59.987Z</time></trkpt><trkpt lat="40.5673367" lon="9.1681283"><ele>609.0</ele><time>2026-04-06T14:17:00.987Z</time></trkpt><trkpt lat="40.5673617" lon="9.1677683"><ele>609.0</ele><time>2026-04-06T14:17:01.987Z</time></trkpt><trkpt lat="40.56737" lon="9.1674083"><ele>609.0</ele><time>2026-04-06T14:17:02.987Z</time></trkpt><trkpt lat="40.56734" lon="9.1670533"><ele>610.5</ele><time>2026-04-06T14:17:03.987Z</time></trkpt><trkpt lat="40.5673" lon="9.166715"><ele>612.0</ele><time>2026-04-06T14:17:04.987Z</time></trkpt><trkpt lat="40.5672433" lon="9.1663733"><ele>612.5</ele><time>2026-04-06T14:17:05.987Z</time></trkpt><trkpt lat="40.567165" lon="9.1660417"><ele>613.0</ele><time>2026-04-06T14:17:06.987Z</time></trkpt><trkpt lat="40.5670583" lon="9.1657283"><ele>617.0</ele><time>2026-04-06T14:17:07.987Z</time></trkpt><trkpt lat="40.5669267" lon="9.1654183"><ele>621.0</ele><time>2026-04-06T14:17:08.987Z</time></trkpt><trkpt lat="40.5667883" lon="9.1651167"><ele>618.0</ele><time>2026-04-06T14:17:09.987Z</time></trkpt><trkpt lat="40.566645" lon="9.1648183"><ele>615.0</ele><time>2026-04-06T14:17:10.987Z</time></trkpt><trkpt lat="40.5664867" lon="9.1645333"><ele>615.0</ele><time>2026-04-06T14:17:11.987Z</time></trkpt><trkpt lat="40.5663317" lon="9.1642517"><ele>615.0</ele><time>2026-04-06T14:17:12.987Z</time></trkpt><trkpt lat="40.56618" lon="9.1639783"><ele>622.0</ele><time>2026-04-06T14:17:13.987Z</time></trkpt><trkpt lat="40.5660383" lon="9.163715"><ele>629.0</ele><time>2026-04-06T14:17:14.987Z</time></trkpt><trkpt lat="40.565905" lon="9.16343"><ele>625.5</ele><time>2026-04-06T14:17:15.987Z</time></trkpt><trkpt lat="40.56578" lon="9.163135"><ele>622.0</ele><time>2026-04-06T14:17:16.987Z</time></trkpt><trkpt lat="40.5656767" lon="9.1628167"><ele>622.0</ele><time>2026-04-06T14:17:17.987Z</time></trkpt><trkpt lat="40.5655983" lon="9.1625017"><ele>622.0</ele><time>2026-04-06T14:17:18.987Z</time></trkpt><trkpt lat="40.5655367" lon="9.1621667"><ele>619.0</ele><time>2026-04-06T14:17:19.987Z</time></trkpt><trkpt lat="40.5655033" lon="9.1618283"><ele>616.0</ele><time>2026-04-06T14:17:20.987Z</time></trkpt><trkpt lat="40.56549" lon="9.1614967"><ele>615.5</ele><time>2026-04-06T14:17:21.987Z</time></trkpt><trkpt lat="40.5654767" lon="9.1611483"><ele>615.0</ele><time>2026-04-06T14:17:22.987Z</time></trkpt><trkpt lat="40.5654783" lon="9.1608033"><ele>618.5</ele><time>2026-04-06T14:17:23.987Z</time></trkpt><trkpt lat="40.5654833" lon="9.1604633"><ele>622.0</ele><time>2026-04-06T14:17:24.987Z</time></trkpt><trkpt lat="40.5654783" lon="9.16013"><ele>627.0</ele><time>2026-04-06T14:17:25.987Z</time></trkpt><trkpt lat="40.5654667" lon="9.1598033"><ele>632.0</ele><time>2026-04-06T14:17:26.987Z</time></trkpt><trkpt lat="40.56544" lon="9.15948"><ele>632.0</ele><time>2026-04-06T14:17:27.987Z</time></trkpt><trkpt lat="40.5653867" lon="9.15918"><ele>632.0</ele><time>2026-04-06T14:17:28.987Z</time></trkpt><trkpt lat="40.5652967" lon="9.1588883"><ele>631.5</ele><time>2026-04-06T14:17:29.987Z</time></trkpt><trkpt lat="40.5651533" lon="9.15861"><ele>631.0</ele><time>2026-04-06T14:17:30.987Z</time></trkpt><trkpt lat="40.5649983" lon="9.158355"><ele>625.5</ele><time>2026-04-06T14:17:31.987Z</time></trkpt><trkpt lat="40.5648217" lon="9.15812"><ele>620.0</ele><time>2026-04-06T14:17:32.987Z</time></trkpt><trkpt lat="40.5646217" lon="9.1579117"><ele>621.0</ele><time>2026-04-06T14:17:33.987Z</time></trkpt><trkpt lat="40.564405" lon="9.1577267"><ele>622.0</ele><time>2026-04-06T14:17:34.987Z</time></trkpt><trkpt lat="40.5641767" lon="9.15757"><ele>622.0</ele><time>2026-04-06T14:17:35.987Z</time></trkpt><trkpt lat="40.56394" lon="9.1574183"><ele>622.0</ele><time>2026-04-06T14:17:36.987Z</time></trkpt><trkpt lat="40.56371" lon="9.1572667"><ele>620.5</ele><time>2026-04-06T14:17:37.987Z</time></trkpt><trkpt lat="40.5634917" lon="9.1571217"><ele>619.0</ele><time>2026-04-06T14:17:38.987Z</time></trkpt><trkpt lat="40.563285" lon="9.1569533"><ele>619.0</ele><time>2026-04-06T14:17:39.987Z</time></trkpt><trkpt lat="40.5631" lon="9.156775"><ele>619.0</ele><time>2026-04-06T14:17:40.987Z</time></trkpt><trkpt lat="40.562955" lon="9.1565917"><ele>619.0</ele><time>2026-04-06T14:17:41.987Z</time></trkpt><trkpt lat="40.5628033" lon="9.15638"><ele>616.0</ele><time>2026-04-06T14:17:42.987Z</time></trkpt><trkpt lat="40.5626783" lon="9.156135"><ele>613.0</ele><time>2026-04-06T14:17:43.987Z</time></trkpt><trkpt lat="40.56257" lon="9.1558717"><ele>612.5</ele><time>2026-04-06T14:17:44.987Z</time></trkpt><trkpt lat="40.5624867" lon="9.1555817"><ele>612.0</ele><time>2026-04-06T14:17:45.987Z</time></trkpt><trkpt lat="40.5624333" lon="9.1552817"><ele>612.0</ele><time>2026-04-06T14:17:46.987Z</time></trkpt><trkpt lat="40.56241" lon="9.154965"><ele>612.0</ele><time>2026-04-06T14:17:47.987Z</time></trkpt><trkpt lat="40.56242" lon="9.1546433"><ele>610.0</ele><time>2026-04-06T14:17:48.987Z</time></trkpt><trkpt lat="40.562445" lon="9.1543167"><ele>608.0</ele><time>2026-04-06T14:17:49.988Z</time></trkpt><trkpt lat="40.562515" lon="9.153985"><ele>605.5</ele><time>2026-04-06T14:17:50.987Z</time></trkpt><trkpt lat="40.5625917" lon="9.1536633"><ele>603.0</ele><time>2026-04-06T14:17:51.987Z</time></trkpt><trkpt lat="40.56268" lon="9.1533517"><ele>602.5</ele><time>2026-04-06T14:17:52.987Z</time></trkpt><trkpt lat="40.56278" lon="9.15305"><ele>602.0</ele><time>2026-04-06T14:17:53.987Z</time></trkpt><trkpt lat="40.5628767" lon="9.1527533"><ele>602.0</ele><time>2026-04-06T14:17:54.987Z</time></trkpt><trkpt lat="40.5629783" lon="9.1524683"><ele>602.0</ele><time>2026-04-06T14:17:55.987Z</time></trkpt><trkpt lat="40.56308" lon="9.1521917"><ele>605.0</ele><time>2026-04-06T14:17:56.987Z</time></trkpt><trkpt lat="40.5631433" lon="9.1519267"><ele>608.0</ele><time>2026-04-06T14:17:57.987Z</time></trkpt><trkpt lat="40.5632117" lon="9.1516867"><ele>611.0</ele><time>2026-04-06T14:17:58.987Z</time></trkpt><trkpt lat="40.56328" lon="9.1514467"><ele>613.3333333333333</ele><time>2026-04-06T14:17:59.987Z</time></trkpt><trkpt lat="40.5633317" lon="9.1512467"><ele>615.6666666666666</ele><time>2026-04-06T14:18:00.987Z</time></trkpt><trkpt lat="40.56338" lon="9.1510633"><ele>618.0</ele><time>2026-04-06T14:18:01.987Z</time></trkpt><trkpt lat="40.56345" lon="9.1508817"><ele>618.0</ele><time>2026-04-06T14:18:02.987Z</time></trkpt><trkpt lat="40.5635233" lon="9.150715"><ele>618.0</ele><time>2026-04-06T14:18:03.987Z</time></trkpt><trkpt lat="40.5635783" lon="9.1505767"><ele>618.0</ele><time>2026-04-06T14:18:04.987Z</time></trkpt><trkpt lat="40.563645" lon="9.1504483"><ele>618.0</ele><time>2026-04-06T14:18:05.987Z</time></trkpt><trkpt lat="40.56373" lon="9.150355"><ele>619.3333333333334</ele><time>2026-04-06T14:18:06.987Z</time></trkpt><trkpt lat="40.563815" lon="9.1503017"><ele>620.6666666666666</ele><time>2026-04-06T14:18:07.987Z</time></trkpt><trkpt lat="40.5639083" lon="9.1502983"><ele>622.0</ele><time>2026-04-06T14:18:08.987Z</time></trkpt><trkpt lat="40.5639883" lon="9.15034"><ele>623.3333333333333</ele><time>2026-04-06T14:18:09.987Z</time></trkpt><trkpt lat="40.5640583" lon="9.1503867"><ele>624.6666666666666</ele><time>2026-04-06T14:18:10.987Z</time></trkpt><trkpt lat="40.56413" lon="9.1504333"><ele>626.0</ele><time>2026-04-06T14:18:11.987Z</time></trkpt><trkpt lat="40.5642033" lon="9.1504567"><ele>626.0</ele><time>2026-04-06T14:18:12.987Z</time></trkpt><trkpt lat="40.5642833" lon="9.1504667"><ele>626.0</ele><time>2026-04-06T14:18:13.987Z</time></trkpt><trkpt lat="40.5643833" lon="9.1504617"><ele>626.0</ele><time>2026-04-06T14:18:14.987Z</time></trkpt><trkpt lat="40.5644967" lon="9.1504233"><ele>626.0</ele><time>2026-04-06T14:18:15.987Z</time></trkpt><trkpt lat="40.5646167" lon="9.15035"><ele>626.0</ele><time>2026-04-06T14:18:16.987Z</time></trkpt><trkpt lat="40.564735" lon="9.150245"><ele>623.75</ele><time>2026-04-06T14:18:17.987Z</time></trkpt><trkpt lat="40.564825" lon="9.1501117"><ele>621.5</ele><time>2026-04-06T14:18:18.987Z</time></trkpt><trkpt lat="40.564895" lon="9.1499517"><ele>619.25</ele><time>2026-04-06T14:18:19.987Z</time></trkpt><trkpt lat="40.5649467" lon="9.1497833"><ele>617.0</ele><time>2026-04-06T14:18:20.987Z</time></trkpt><trkpt lat="40.5649983" lon="9.1495933"><ele>617.0</ele><time>2026-04-06T14:18:21.987Z</time></trkpt><trkpt lat="40.56505" lon="9.1494"><ele>617.0</ele><time>2026-04-06T14:18:22.987Z</time></trkpt><trkpt lat="40.5651367" lon="9.1492333"><ele>617.0</ele><time>2026-04-06T14:18:23.987Z</time></trkpt><trkpt lat="40.5652517" lon="9.1490783"><ele>613.3333333333333</ele><time>2026-04-06T14:18:24.987Z</time></trkpt><trkpt lat="40.565405" lon="9.148965"><ele>609.6666666666666</ele><time>2026-04-06T14:18:25.987Z</time></trkpt><trkpt lat="40.5655533" lon="9.1488533"><ele>606.0</ele><time>2026-04-06T14:18:26.988Z</time></trkpt><trkpt lat="40.5656717" lon="9.1487267"><ele>606.0</ele><time>2026-04-06T14:18:27.987Z</time></trkpt><trkpt lat="40.5657683" lon="9.14856"><ele>606.0</ele><time>2026-04-06T14:18:28.987Z</time></trkpt><trkpt lat="40.5658417" lon="9.1483483"><ele>606.0</ele><time>2026-04-06T14:18:29.987Z</time></trkpt><trkpt lat="40.5659017" lon="9.1481333"><ele>608.0</ele><time>2026-04-06T14:18:30.987Z</time></trkpt><trkpt lat="40.5659717" lon="9.1479217"><ele>610.0</ele><time>2026-04-06T14:18:31.987Z</time></trkpt><trkpt lat="40.566035" lon="9.1477017"><ele>612.0</ele><time>2026-04-06T14:18:32.987Z</time></trkpt><trkpt lat="40.56609" lon="9.1474667"><ele>612.3333333333334</ele><time>2026-04-06T14:18:33.987Z</time></trkpt><trkpt lat="40.5661333" lon="9.1472233"><ele>612.6666666666667</ele><time>2026-04-06T14:18:34.987Z</time></trkpt><trkpt lat="40.5661533" lon="9.1469867"><ele>613.0</ele><time>2026-04-06T14:18:35.987Z</time></trkpt><trkpt lat="40.5661717" lon="9.1467583"><ele>613.0</ele><time>2026-04-06T14:18:36.987Z</time></trkpt><trkpt lat="40.56619" lon="9.1465567"><ele>613.0</ele><time>2026-04-06T14:18:37.987Z</time></trkpt><trkpt lat="40.5662233" lon="9.146355"><ele>613.0</ele><time>2026-04-06T14:18:38.987Z</time></trkpt><trkpt lat="40.5662783" lon="9.146165"><ele>609.3333333333334</ele><time>2026-04-06T14:18:39.987Z</time></trkpt><trkpt lat="40.566375" lon="9.1459917"><ele>605.6666666666666</ele><time>2026-04-06T14:18:40.987Z</time></trkpt><trkpt lat="40.5664883" lon="9.1458133"><ele>602.0</ele><time>2026-04-06T14:18:41.987Z</time></trkpt><trkpt lat="40.56659" lon="9.1456283"><ele>602.0</ele><time>2026-04-06T14:18:42.987Z</time></trkpt><trkpt lat="40.5666583" lon="9.14542"><ele>602.0</ele><time>2026-04-06T14:18:43.987Z</time></trkpt><trkpt lat="40.566725" lon="9.1452117"><ele>602.0</ele><time>2026-04-06T14:18:44.987Z</time></trkpt><trkpt lat="40.566805" lon="9.1450233"><ele>603.6666666666666</ele><time>2026-04-06T14:18:45.987Z</time></trkpt><trkpt lat="40.56694" lon="9.14485"><ele>605.3333333333334</ele><time>2026-04-06T14:18:46.988Z</time></trkpt><trkpt lat="40.56711" lon="9.1446983"><ele>607.0</ele><time>2026-04-06T14:18:47.987Z</time></trkpt><trkpt lat="40.5672983" lon="9.1445417"><ele>601.5</ele><time>2026-04-06T14:18:48.987Z</time></trkpt><trkpt lat="40.5674867" lon="9.1443717"><ele>596.0</ele><time>2026-04-06T14:18:49.988Z</time></trkpt><trkpt lat="40.5676733" lon="9.1442117"><ele>598.0</ele><time>2026-04-06T14:18:50.987Z</time></trkpt><trkpt lat="40.5678367" lon="9.14402"><ele>600.0</ele><time>2026-04-06T14:18:51.987Z</time></trkpt><trkpt lat="40.5679883" lon="9.1438117"><ele>602.0</ele><time>2026-04-06T14:18:52.987Z</time></trkpt><trkpt lat="40.568135" lon="9.1435883"><ele>598.5</ele><time>2026-04-06T14:18:53.987Z</time></trkpt><trkpt lat="40.5682767" lon="9.1433567"><ele>595.0</ele><time>2026-04-06T14:18:54.987Z</time></trkpt><trkpt lat="40.5684333" lon="9.14312"><ele>595.0</ele><time>2026-04-06T14:18:55.988Z</time></trkpt><trkpt lat="40.5685867" lon="9.142885"><ele>595.0</ele><time>2026-04-06T14:18:56.987Z</time></trkpt><trkpt lat="40.5687433" lon="9.14266"><ele>591.6666666666667</ele><time>2026-04-06T14:18:57.987Z</time></trkpt><trkpt lat="40.5688783" lon="9.142425"><ele>588.3333333333334</ele><time>2026-04-06T14:18:58.987Z</time></trkpt><trkpt lat="40.5689967" lon="9.14218"><ele>585.0</ele><time>2026-04-06T14:18:59.987Z</time></trkpt><trkpt lat="40.5691117" lon="9.1419167"><ele>585.0</ele><time>2026-04-06T14:19:00.987Z</time></trkpt><trkpt lat="40.569215" lon="9.141645"><ele>585.0</ele><time>2026-04-06T14:19:01.987Z</time></trkpt><trkpt lat="40.5693133" lon="9.1413733"><ele>585.0</ele><time>2026-04-06T14:19:02.987Z</time></trkpt><trkpt lat="40.5694083" lon="9.1411083"><ele>585.0</ele><time>2026-04-06T14:19:03.987Z</time></trkpt><trkpt lat="40.5694933" lon="9.1408367"><ele>585.0</ele><time>2026-04-06T14:19:04.987Z</time></trkpt><trkpt lat="40.5695683" lon="9.14059"><ele>582.6666666666666</ele><time>2026-04-06T14:19:05.987Z</time></trkpt><trkpt lat="40.56963" lon="9.140335"><ele>580.3333333333333</ele><time>2026-04-06T14:19:06.987Z</time></trkpt><trkpt lat="40.5697067" lon="9.1400983"><ele>578.0</ele><time>2026-04-06T14:19:07.987Z</time></trkpt><trkpt lat="40.5697767" lon="9.139865"><ele>578.0</ele><time>2026-04-06T14:19:08.987Z</time></trkpt><trkpt lat="40.5698383" lon="9.1396317"><ele>578.0</ele><time>2026-04-06T14:19:09.987Z</time></trkpt><trkpt lat="40.5698967" lon="9.1394083"><ele>578.0</ele><time>2026-04-06T14:19:10.987Z</time></trkpt><trkpt lat="40.5699583" lon="9.139195"><ele>577.6666666666666</ele><time>2026-04-06T14:19:11.987Z</time></trkpt><trkpt lat="40.5700117" lon="9.138975"><ele>577.3333333333334</ele><time>2026-04-06T14:19:12.987Z</time></trkpt><trkpt lat="40.5700633" lon="9.1387717"><ele>577.0</ele><time>2026-04-06T14:19:13.987Z</time></trkpt><trkpt lat="40.57012" lon="9.1385617"><ele>577.0</ele><time>2026-04-06T14:19:14.987Z</time></trkpt><trkpt lat="40.5701733" lon="9.1383583"><ele>577.0</ele><time>2026-04-06T14:19:15.987Z</time></trkpt><trkpt lat="40.5702283" lon="9.1381517"><ele>577.0</ele><time>2026-04-06T14:19:16.987Z</time></trkpt><trkpt lat="40.5702783" lon="9.137955"><ele>576.0</ele><time>2026-04-06T14:19:17.987Z</time></trkpt><trkpt lat="40.570325" lon="9.137755"><ele>575.0</ele><time>2026-04-06T14:19:18.987Z</time></trkpt><trkpt lat="40.5703683" lon="9.1375667"><ele>574.0</ele><time>2026-04-06T14:19:19.987Z</time></trkpt><trkpt lat="40.570415" lon="9.137375"><ele>571.25</ele><time>2026-04-06T14:19:20.987Z</time></trkpt><trkpt lat="40.5704617" lon="9.1371883"><ele>568.5</ele><time>2026-04-06T14:19:21.988Z</time></trkpt><trkpt lat="40.5705083" lon="9.1370183"><ele>565.75</ele><time>2026-04-06T14:19:22.987Z</time></trkpt><trkpt lat="40.570565" lon="9.1368467"><ele>563.0</ele><time>2026-04-06T14:19:23.987Z</time></trkpt><trkpt lat="40.5706133" lon="9.13667"><ele>563.25</ele><time>2026-04-06T14:19:24.987Z</time></trkpt><trkpt lat="40.57066" lon="9.1365017"><ele>563.5</ele><time>2026-04-06T14:19:25.987Z</time></trkpt><trkpt lat="40.5707067" lon="9.1363433"><ele>563.75</ele><time>2026-04-06T14:19:26.987Z</time></trkpt><trkpt lat="40.5707533" lon="9.1361917"><ele>564.0</ele><time>2026-04-06T14:19:27.987Z</time></trkpt><trkpt lat="40.5708017" lon="9.136035"><ele>564.0</ele><time>2026-04-06T14:19:28.988Z</time></trkpt><trkpt lat="40.570845" lon="9.1359033"><ele>564.0</ele><time>2026-04-06T14:19:29.987Z</time></trkpt><trkpt lat="40.5708833" lon="9.13577"><ele>564.0</ele><time>2026-04-06T14:19:30.987Z</time></trkpt><trkpt lat="40.5709217" lon="9.1356583"><ele>564.0</ele><time>2026-04-06T14:19:31.987Z</time></trkpt><trkpt lat="40.5709583" lon="9.13555"><ele>564.0</ele><time>2026-04-06T14:19:32.987Z</time></trkpt><trkpt lat="40.5709767" lon="9.1354467"><ele>564.8333333333334</ele><time>2026-04-06T14:19:33.987Z</time></trkpt><trkpt lat="40.570975" lon="9.1353567"><ele>565.6666666666666</ele><time>2026-04-06T14:19:34.987Z</time></trkpt><trkpt lat="40.5709583" lon="9.1352217"><ele>566.5</ele><time>2026-04-06T14:19:36.987Z</time></trkpt><trkpt lat="40.570925" lon="9.1351183"><ele>567.3333333333333</ele><time>2026-04-06T14:19:38.988Z</time></trkpt><trkpt lat="40.5708967" lon="9.1350183"><ele>568.1666666666666</ele><time>2026-04-06T14:19:41.987Z</time></trkpt><trkpt lat="40.57087" lon="9.1349317"><ele>569.0</ele><time>2026-04-06T14:19:44.987Z</time></trkpt><trkpt lat="40.5708433" lon="9.1348467"><ele>569.6</ele><time>2026-04-06T14:19:46.987Z</time></trkpt><trkpt lat="40.5708183" lon="9.1347583"><ele>570.2</ele><time>2026-04-06T14:19:47.987Z</time></trkpt><trkpt lat="40.57079" lon="9.13464"><ele>570.8000000000001</ele><time>2026-04-06T14:19:48.987Z</time></trkpt><trkpt lat="40.5707517" lon="9.134495"><ele>571.4</ele><time>2026-04-06T14:19:49.987Z</time></trkpt><trkpt lat="40.5707167" lon="9.1343333"><ele>572.0</ele><time>2026-04-06T14:19:50.987Z</time></trkpt><trkpt lat="40.5706733" lon="9.13416"><ele>573.0</ele><time>2026-04-06T14:19:51.987Z</time></trkpt><trkpt lat="40.5706233" lon="9.13396"><ele>574.0</ele><time>2026-04-06T14:19:52.987Z</time></trkpt><trkpt lat="40.5705767" lon="9.1337383"><ele>575.0</ele><time>2026-04-06T14:19:53.987Z</time></trkpt><trkpt lat="40.5705183" lon="9.133495"><ele>575.0</ele><time>2026-04-06T14:19:54.987Z</time></trkpt><trkpt lat="40.5704683" lon="9.1332533"><ele>575.0</ele><time>2026-04-06T14:19:55.987Z</time></trkpt><trkpt lat="40.5704017" lon="9.1329867"><ele>575.0</ele><time>2026-04-06T14:19:56.987Z</time></trkpt><trkpt lat="40.570335" lon="9.1327033"><ele>573.0</ele><time>2026-04-06T14:19:57.987Z</time></trkpt><trkpt lat="40.570285" lon="9.132405"><ele>571.0</ele><time>2026-04-06T14:19:58.987Z</time></trkpt><trkpt lat="40.570255" lon="9.1321217"><ele>569.0</ele><time>2026-04-06T14:19:59.988Z</time></trkpt><trkpt lat="40.57024" lon="9.13182"><ele>570.0</ele><time>2026-04-06T14:20:00.987Z</time></trkpt><trkpt lat="40.5702217" lon="9.1315083"><ele>571.0</ele><time>2026-04-06T14:20:01.987Z</time></trkpt><trkpt lat="40.5702067" lon="9.1311867"><ele>571.0</ele><time>2026-04-06T14:20:02.987Z</time></trkpt><trkpt lat="40.57018" lon="9.13087"><ele>571.0</ele><time>2026-04-06T14:20:03.987Z</time></trkpt><trkpt lat="40.57016" lon="9.1305617"><ele>571.0</ele><time>2026-04-06T14:20:04.987Z</time></trkpt><trkpt lat="40.570135" lon="9.1302517"><ele>571.0</ele><time>2026-04-06T14:20:05.987Z</time></trkpt><trkpt lat="40.5701133" lon="9.1299333"><ele>571.5</ele><time>2026-04-06T14:20:06.987Z</time></trkpt><trkpt lat="40.5700967" lon="9.1295867"><ele>572.0</ele><time>2026-04-06T14:20:07.987Z</time></trkpt><trkpt lat="40.5700767" lon="9.1292467"><ele>571.5</ele><time>2026-04-06T14:20:08.987Z</time></trkpt><trkpt lat="40.5700567" lon="9.1289083"><ele>571.0</ele><time>2026-04-06T14:20:09.987Z</time></trkpt><trkpt lat="40.5700183" lon="9.128575"><ele>571.0</ele><time>2026-04-06T14:20:10.987Z</time></trkpt><trkpt lat="40.569985" lon="9.1282383"><ele>571.0</ele><time>2026-04-06T14:20:11.987Z</time></trkpt><trkpt lat="40.5699483" lon="9.1278983"><ele>572.5</ele><time>2026-04-06T14:20:12.987Z</time></trkpt><trkpt lat="40.56992" lon="9.12756"><ele>574.0</ele><time>2026-04-06T14:20:13.987Z</time></trkpt><trkpt lat="40.5698883" lon="9.12724"><ele>575.0</ele><time>2026-04-06T14:20:14.987Z</time></trkpt><trkpt lat="40.5698633" lon="9.126915"><ele>576.0</ele><time>2026-04-06T14:20:15.987Z</time></trkpt><trkpt lat="40.5698433" lon="9.126595"><ele>577.5</ele><time>2026-04-06T14:20:16.987Z</time></trkpt><trkpt lat="40.569815" lon="9.1262783"><ele>579.0</ele><time>2026-04-06T14:20:17.987Z</time></trkpt><trkpt lat="40.5697817" lon="9.1259517"><ele>581.5</ele><time>2026-04-06T14:20:18.988Z</time></trkpt><trkpt lat="40.56976" lon="9.125635"><ele>584.0</ele><time>2026-04-06T14:20:19.987Z</time></trkpt><trkpt lat="40.5697483" lon="9.1253267"><ele>584.0</ele><time>2026-04-06T14:20:20.987Z</time></trkpt><trkpt lat="40.5697233" lon="9.1250017"><ele>584.0</ele><time>2026-04-06T14:20:21.987Z</time></trkpt><trkpt lat="40.5696983" lon="9.1246617"><ele>586.0</ele><time>2026-04-06T14:20:22.987Z</time></trkpt><trkpt lat="40.569685" lon="9.124315"><ele>588.0</ele><time>2026-04-06T14:20:23.987Z</time></trkpt><trkpt lat="40.5696867" lon="9.1239767"><ele>588.0</ele><time>2026-04-06T14:20:24.987Z</time></trkpt><trkpt lat="40.569685" lon="9.1236217"><ele>588.0</ele><time>2026-04-06T14:20:25.987Z</time></trkpt><trkpt lat="40.56968" lon="9.123255"><ele>587.0</ele><time>2026-04-06T14:20:26.987Z</time></trkpt><trkpt lat="40.5696933" lon="9.1229"><ele>586.0</ele><time>2026-04-06T14:20:27.987Z</time></trkpt><trkpt lat="40.5696833" lon="9.1225483"><ele>589.5</ele><time>2026-04-06T14:20:28.987Z</time></trkpt><trkpt lat="40.5696817" lon="9.1222"><ele>593.0</ele><time>2026-04-06T14:20:29.987Z</time></trkpt><trkpt lat="40.5696833" lon="9.121855"><ele>595.0</ele><time>2026-04-06T14:20:30.987Z</time></trkpt><trkpt lat="40.5696833" lon="9.12151"><ele>597.0</ele><time>2026-04-06T14:20:31.987Z</time></trkpt><trkpt lat="40.56967" lon="9.1211833"><ele>597.0</ele><time>2026-04-06T14:20:32.988Z</time></trkpt><trkpt lat="40.5696683" lon="9.1208417"><ele>597.0</ele><time>2026-04-06T14:20:33.987Z</time></trkpt><trkpt lat="40.5696667" lon="9.1205017"><ele>599.0</ele><time>2026-04-06T14:20:34.987Z</time></trkpt><trkpt lat="40.5696683" lon="9.12016"><ele>601.0</ele><time>2026-04-06T14:20:35.987Z</time></trkpt><trkpt lat="40.569665" lon="9.119825"><ele>602.5</ele><time>2026-04-06T14:20:36.987Z</time></trkpt><trkpt lat="40.569655" lon="9.1194983"><ele>604.0</ele><time>2026-04-06T14:20:37.987Z</time></trkpt><trkpt lat="40.569615" lon="9.11917"><ele>604.5</ele><time>2026-04-06T14:20:38.987Z</time></trkpt><trkpt lat="40.5695583" lon="9.1188417"><ele>605.0</ele><time>2026-04-06T14:20:39.987Z</time></trkpt><trkpt lat="40.5694967" lon="9.118515"><ele>601.5</ele><time>2026-04-06T14:20:40.987Z</time></trkpt><trkpt lat="40.569425" lon="9.1181817"><ele>598.0</ele><time>2026-04-06T14:20:41.987Z</time></trkpt><trkpt lat="40.56936" lon="9.1178467"><ele>598.0</ele><time>2026-04-06T14:20:42.987Z</time></trkpt><trkpt lat="40.5693067" lon="9.1175117"><ele>598.0</ele><time>2026-04-06T14:20:43.987Z</time></trkpt><trkpt lat="40.5692333" lon="9.1171867"><ele>599.5</ele><time>2026-04-06T14:20:44.987Z</time></trkpt><trkpt lat="40.5691617" lon="9.116855"><ele>601.0</ele><time>2026-04-06T14:20:45.987Z</time></trkpt><trkpt lat="40.5691017" lon="9.1165217"><ele>602.0</ele><time>2026-04-06T14:20:46.987Z</time></trkpt><trkpt lat="40.56904" lon="9.1161833"><ele>603.0</ele><time>2026-04-06T14:20:47.987Z</time></trkpt><trkpt lat="40.5689683" lon="9.1158533"><ele>603.0</ele><time>2026-04-06T14:20:48.987Z</time></trkpt><trkpt lat="40.5688983" lon="9.1155317"><ele>603.0</ele><time>2026-04-06T14:20:49.987Z</time></trkpt><trkpt lat="40.56883" lon="9.115215"><ele>603.0</ele><time>2026-04-06T14:20:50.987Z</time></trkpt><trkpt lat="40.5687733" lon="9.1149067"><ele>603.0</ele><time>2026-04-06T14:20:51.987Z</time></trkpt><trkpt lat="40.568735" lon="9.1146017"><ele>604.5</ele><time>2026-04-06T14:20:52.987Z</time></trkpt><trkpt lat="40.5687033" lon="9.1142967"><ele>606.0</ele><time>2026-04-06T14:20:53.987Z</time></trkpt><trkpt lat="40.5686967" lon="9.1139783"><ele>607.5</ele><time>2026-04-06T14:20:54.987Z</time></trkpt><trkpt lat="40.5686933" lon="9.1136467"><ele>609.0</ele><time>2026-04-06T14:20:55.987Z</time></trkpt><trkpt lat="40.5686933" lon="9.1133117"><ele>610.0</ele><time>2026-04-06T14:20:56.988Z</time></trkpt><trkpt lat="40.5686983" lon="9.1129683"><ele>611.0</ele><time>2026-04-06T14:20:57.987Z</time></trkpt><trkpt lat="40.5687133" lon="9.1126217"><ele>613.5</ele><time>2026-04-06T14:20:58.987Z</time></trkpt><trkpt lat="40.5687167" lon="9.1122667"><ele>616.0</ele><time>2026-04-06T14:20:59.987Z</time></trkpt><trkpt lat="40.568725" lon="9.1119133"><ele>619.0</ele><time>2026-04-06T14:21:00.987Z</time></trkpt><trkpt lat="40.5687183" lon="9.11157"><ele>622.0</ele><time>2026-04-06T14:21:01.987Z</time></trkpt><trkpt lat="40.568715" lon="9.1112317"><ele>622.0</ele><time>2026-04-06T14:21:02.987Z</time></trkpt><trkpt lat="40.5687083" lon="9.1109017"><ele>622.0</ele><time>2026-04-06T14:21:03.987Z</time></trkpt><trkpt lat="40.5687133" lon="9.1105783"><ele>624.0</ele><time>2026-04-06T14:21:04.987Z</time></trkpt><trkpt lat="40.56872" lon="9.1102517"><ele>626.0</ele><time>2026-04-06T14:21:05.987Z</time></trkpt><trkpt lat="40.568725" lon="9.1099517"><ele>627.0</ele><time>2026-04-06T14:21:06.987Z</time></trkpt><trkpt lat="40.5687383" lon="9.1096317"><ele>628.0</ele><time>2026-04-06T14:21:07.987Z</time></trkpt><trkpt lat="40.568735" lon="9.1093067"><ele>626.0</ele><time>2026-04-06T14:21:08.987Z</time></trkpt><trkpt lat="40.5687267" lon="9.108975"><ele>624.0</ele><time>2026-04-06T14:21:09.987Z</time></trkpt><trkpt lat="40.568695" lon="9.1086467"><ele>618.5</ele><time>2026-04-06T14:21:10.987Z</time></trkpt><trkpt lat="40.5686517" lon="9.108315"><ele>613.0</ele><time>2026-04-06T14:21:11.987Z</time></trkpt><trkpt lat="40.5686067" lon="9.10798"><ele>613.0</ele><time>2026-04-06T14:21:12.987Z</time></trkpt><trkpt lat="40.5685633" lon="9.1076517"><ele>613.0</ele><time>2026-04-06T14:21:13.987Z</time></trkpt><trkpt lat="40.5685133" lon="9.1073217"><ele>616.5</ele><time>2026-04-06T14:21:14.987Z</time></trkpt><trkpt lat="40.5684583" lon="9.1070067"><ele>620.0</ele><time>2026-04-06T14:21:15.987Z</time></trkpt><trkpt lat="40.56839" lon="9.1067067"><ele>624.0</ele><time>2026-04-06T14:21:16.987Z</time></trkpt><trkpt lat="40.568285" lon="9.1064217"><ele>628.0</ele><time>2026-04-06T14:21:17.987Z</time></trkpt><trkpt lat="40.568155" lon="9.1061383"><ele>628.0</ele><time>2026-04-06T14:21:18.987Z</time></trkpt><trkpt lat="40.5680217" lon="9.1058333"><ele>628.0</ele><time>2026-04-06T14:21:19.987Z</time></trkpt><trkpt lat="40.567885" lon="9.1055283"><ele>625.0</ele><time>2026-04-06T14:21:20.987Z</time></trkpt><trkpt lat="40.5677567" lon="9.10524"><ele>622.0</ele><time>2026-04-06T14:21:21.987Z</time></trkpt><trkpt lat="40.5676317" lon="9.10496"><ele>622.5</ele><time>2026-04-06T14:21:22.987Z</time></trkpt><trkpt lat="40.5674967" lon="9.1046717"><ele>623.0</ele><time>2026-04-06T14:21:23.987Z</time></trkpt><trkpt lat="40.5673867" lon="9.104385"><ele>623.0</ele><time>2026-04-06T14:21:24.987Z</time></trkpt><trkpt lat="40.5672867" lon="9.1040933"><ele>623.0</ele><time>2026-04-06T14:21:25.987Z</time></trkpt><trkpt lat="40.5672217" lon="9.1037883"><ele>628.0</ele><time>2026-04-06T14:21:26.987Z</time></trkpt><trkpt lat="40.5671383" lon="9.10347"><ele>633.0</ele><time>2026-04-06T14:21:27.987Z</time></trkpt><trkpt lat="40.5670733" lon="9.1031333"><ele>630.5</ele><time>2026-04-06T14:21:28.987Z</time></trkpt><trkpt lat="40.5670133" lon="9.1027967"><ele>628.0</ele><time>2026-04-06T14:21:29.987Z</time></trkpt><trkpt lat="40.5669467" lon="9.1024533"><ele>627.5</ele><time>2026-04-06T14:21:30.987Z</time></trkpt><trkpt lat="40.5668867" lon="9.1021133"><ele>627.0</ele><time>2026-04-06T14:21:31.987Z</time></trkpt><trkpt lat="40.566835" lon="9.1017767"><ele>629.5</ele><time>2026-04-06T14:21:32.987Z</time></trkpt><trkpt lat="40.56677" lon="9.1014267"><ele>632.0</ele><time>2026-04-06T14:21:33.987Z</time></trkpt><trkpt lat="40.5667117" lon="9.1010917"><ele>632.0</ele><time>2026-04-06T14:21:34.987Z</time></trkpt><trkpt lat="40.5666583" lon="9.100755"><ele>632.0</ele><time>2026-04-06T14:21:35.987Z</time></trkpt><trkpt lat="40.566595" lon="9.100425"><ele>633.0</ele><time>2026-04-06T14:21:36.987Z</time></trkpt><trkpt lat="40.5665317" lon="9.10009"><ele>634.0</ele><time>2026-04-06T14:21:37.987Z</time></trkpt><trkpt lat="40.5664783" lon="9.0997567"><ele>634.5</ele><time>2026-04-06T14:21:38.987Z</time></trkpt><trkpt lat="40.5664367" lon="9.0994433"><ele>635.0</ele><time>2026-04-06T14:21:39.987Z</time></trkpt><trkpt lat="40.5663867" lon="9.0991117"><ele>638.0</ele><time>2026-04-06T14:21:40.987Z</time></trkpt><trkpt lat="40.56634" lon="9.0987883"><ele>641.0</ele><time>2026-04-06T14:21:41.987Z</time></trkpt><trkpt lat="40.5663" lon="9.0984467"><ele>641.0</ele><time>2026-04-06T14:21:42.987Z</time></trkpt><trkpt lat="40.5662733" lon="9.0980967"><ele>641.0</ele><time>2026-04-06T14:21:43.987Z</time></trkpt><trkpt lat="40.56625" lon="9.0977467"><ele>642.0</ele><time>2026-04-06T14:21:44.987Z</time></trkpt><trkpt lat="40.5662283" lon="9.097385"><ele>643.0</ele><time>2026-04-06T14:21:45.987Z</time></trkpt><trkpt lat="40.5662017" lon="9.0970167"><ele>642.0</ele><time>2026-04-06T14:21:46.987Z</time></trkpt><trkpt lat="40.56618" lon="9.0966633"><ele>641.0</ele><time>2026-04-06T14:21:47.987Z</time></trkpt><trkpt lat="40.56616" lon="9.09632"><ele>641.0</ele><time>2026-04-06T14:21:48.987Z</time></trkpt><trkpt lat="40.5661517" lon="9.096015"><ele>641.0</ele><time>2026-04-06T14:21:49.987Z</time></trkpt><trkpt lat="40.56614" lon="9.095695"><ele>640.5</ele><time>2026-04-06T14:21:50.987Z</time></trkpt><trkpt lat="40.5661067" lon="9.0953833"><ele>640.0</ele><time>2026-04-06T14:21:51.987Z</time></trkpt><trkpt lat="40.56603" lon="9.0950733"><ele>641.5</ele><time>2026-04-06T14:21:52.987Z</time></trkpt><trkpt lat="40.5659217" lon="9.0947717"><ele>643.0</ele><time>2026-04-06T14:21:53.987Z</time></trkpt><trkpt lat="40.5658033" lon="9.0944683"><ele>643.0</ele><time>2026-04-06T14:21:54.987Z</time></trkpt><trkpt lat="40.5656967" lon="9.094145"><ele>643.0</ele><time>2026-04-06T14:21:55.987Z</time></trkpt><trkpt lat="40.5655983" lon="9.0938217"><ele>645.5</ele><time>2026-04-06T14:21:56.987Z</time></trkpt><trkpt lat="40.5655117" lon="9.093495"><ele>648.0</ele><time>2026-04-06T14:21:57.987Z</time></trkpt><trkpt lat="40.5654433" lon="9.0931733"><ele>647.5</ele><time>2026-04-06T14:21:58.987Z</time></trkpt><trkpt lat="40.5653833" lon="9.0928517"><ele>647.0</ele><time>2026-04-06T14:21:59.987Z</time></trkpt><trkpt lat="40.5653333" lon="9.0925083"><ele>649.0</ele><time>2026-04-06T14:22:00.987Z</time></trkpt><trkpt lat="40.565295" lon="9.092175"><ele>651.0</ele><time>2026-04-06T14:22:01.987Z</time></trkpt><trkpt lat="40.56525" lon="9.09186"><ele>651.3333333333334</ele><time>2026-04-06T14:22:02.987Z</time></trkpt><trkpt lat="40.5652117" lon="9.0915533"><ele>651.6666666666667</ele><time>2026-04-06T14:22:03.987Z</time></trkpt><trkpt lat="40.565175" lon="9.0912783"><ele>652.0</ele><time>2026-04-06T14:22:04.987Z</time></trkpt><trkpt lat="40.5651183" lon="9.0910117"><ele>652.0</ele><time>2026-04-06T14:22:05.987Z</time></trkpt><trkpt lat="40.5650167" lon="9.0907633"><ele>652.0</ele><time>2026-04-06T14:22:06.988Z</time></trkpt><trkpt lat="40.5649017" lon="9.0905267"><ele>652.0</ele><time>2026-04-06T14:22:07.987Z</time></trkpt><trkpt lat="40.56476" lon="9.0902967"><ele>654.0</ele><time>2026-04-06T14:22:08.988Z</time></trkpt><trkpt lat="40.5646033" lon="9.0900467"><ele>656.0</ele><time>2026-04-06T14:22:09.987Z</time></trkpt><trkpt lat="40.56445" lon="9.08979"><ele>657.5</ele><time>2026-04-06T14:22:10.987Z</time></trkpt><trkpt lat="40.5642983" lon="9.0895517"><ele>659.0</ele><time>2026-04-06T14:22:11.987Z</time></trkpt><trkpt lat="40.5641583" lon="9.08932"><ele>659.0</ele><time>2026-04-06T14:22:12.987Z</time></trkpt><trkpt lat="40.5640317" lon="9.0890967"><ele>659.0</ele><time>2026-04-06T14:22:13.987Z</time></trkpt><trkpt lat="40.5639083" lon="9.088865"><ele>659.0</ele><time>2026-04-06T14:22:14.987Z</time></trkpt><trkpt lat="40.5637867" lon="9.08862"><ele>658.5</ele><time>2026-04-06T14:22:15.987Z</time></trkpt><trkpt lat="40.5636683" lon="9.0883617"><ele>658.0</ele><time>2026-04-06T14:22:16.987Z</time></trkpt><trkpt lat="40.5635583" lon="9.088095"><ele>659.5</ele><time>2026-04-06T14:22:17.987Z</time></trkpt><trkpt lat="40.563445" lon="9.0878417"><ele>661.0</ele><time>2026-04-06T14:22:18.987Z</time></trkpt><trkpt lat="40.5633317" lon="9.0875817"><ele>663.5</ele><time>2026-04-06T14:22:19.987Z</time></trkpt><trkpt lat="40.5632117" lon="9.0873"><ele>666.0</ele><time>2026-04-06T14:22:20.987Z</time></trkpt><trkpt lat="40.5631017" lon="9.0870317"><ele>666.0</ele><time>2026-04-06T14:22:21.987Z</time></trkpt><trkpt lat="40.5629867" lon="9.0867617"><ele>666.0</ele><time>2026-04-06T14:22:22.987Z</time></trkpt><trkpt lat="40.5628633" lon="9.0864767"><ele>665.5</ele><time>2026-04-06T14:22:23.987Z</time></trkpt><trkpt lat="40.5627367" lon="9.0861983"><ele>665.0</ele><time>2026-04-06T14:22:24.987Z</time></trkpt><trkpt lat="40.562615" lon="9.0859267"><ele>668.5</ele><time>2026-04-06T14:22:25.987Z</time></trkpt><trkpt lat="40.5625083" lon="9.0856617"><ele>672.0</ele><time>2026-04-06T14:22:26.987Z</time></trkpt><trkpt lat="40.5624" lon="9.085405"><ele>672.0</ele><time>2026-04-06T14:22:27.987Z</time></trkpt><trkpt lat="40.56229" lon="9.0851583"><ele>672.0</ele><time>2026-04-06T14:22:28.987Z</time></trkpt><trkpt lat="40.5621833" lon="9.0849267"><ele>672.0</ele><time>2026-04-06T14:22:29.987Z</time></trkpt><trkpt lat="40.562095" lon="9.0846967"><ele>672.3333333333334</ele><time>2026-04-06T14:22:30.987Z</time></trkpt><trkpt lat="40.5620317" lon="9.0844633"><ele>672.6666666666667</ele><time>2026-04-06T14:22:31.987Z</time></trkpt><trkpt lat="40.5619617" lon="9.084235"><ele>673.0</ele><time>2026-04-06T14:22:32.987Z</time></trkpt><trkpt lat="40.5619133" lon="9.084005"><ele>673.0</ele><time>2026-04-06T14:22:33.987Z</time></trkpt><trkpt lat="40.561865" lon="9.0837867"><ele>673.0</ele><time>2026-04-06T14:22:34.987Z</time></trkpt><trkpt lat="40.5618233" lon="9.0835617"><ele>673.0</ele><time>2026-04-06T14:22:35.987Z</time></trkpt><trkpt lat="40.5618117" lon="9.0833267"><ele>674.0</ele><time>2026-04-06T14:22:36.987Z</time></trkpt><trkpt lat="40.5618083" lon="9.08309"><ele>675.0</ele><time>2026-04-06T14:22:37.987Z</time></trkpt><trkpt lat="40.5618083" lon="9.082855"><ele>676.0</ele><time>2026-04-06T14:22:38.987Z</time></trkpt><trkpt lat="40.5618133" lon="9.0826383"><ele>676.0</ele><time>2026-04-06T14:22:39.987Z</time></trkpt><trkpt lat="40.5618167" lon="9.0824367"><ele>676.0</ele><time>2026-04-06T14:22:40.987Z</time></trkpt><trkpt lat="40.561815" lon="9.0822433"><ele>676.0</ele><time>2026-04-06T14:22:41.987Z</time></trkpt><trkpt lat="40.5618367" lon="9.082075"><ele>676.0</ele><time>2026-04-06T14:22:42.987Z</time></trkpt><trkpt lat="40.5618467" lon="9.0819317"><ele>676.1666666666667</ele><time>2026-04-06T14:22:43.987Z</time></trkpt><trkpt lat="40.561885" lon="9.0818317"><ele>676.3333333333334</ele><time>2026-04-06T14:22:44.987Z</time></trkpt><trkpt lat="40.561935" lon="9.0817667"><ele>676.5</ele><time>2026-04-06T14:22:45.987Z</time></trkpt><trkpt lat="40.562" lon="9.081755"><ele>676.6666666666666</ele><time>2026-04-06T14:22:47.987Z</time></trkpt><trkpt lat="40.5620467" lon="9.08163"><ele>676.8333333333333</ele><time>2026-04-06T14:22:50.988Z</time></trkpt><trkpt lat="40.5620367" lon="9.0815033"><ele>677.0</ele><time>2026-04-06T14:22:51.987Z</time></trkpt><trkpt lat="40.5620117" lon="9.0813583"><ele>677.0</ele><time>2026-04-06T14:22:52.987Z</time></trkpt><trkpt lat="40.5619867" lon="9.081195"><ele>677.0</ele><time>2026-04-06T14:22:53.987Z</time></trkpt><trkpt lat="40.5619617" lon="9.0810067"><ele>677.0</ele><time>2026-04-06T14:22:54.987Z</time></trkpt><trkpt lat="40.5619383" lon="9.0808067"><ele>677.0</ele><time>2026-04-06T14:22:55.987Z</time></trkpt><trkpt lat="40.5619233" lon="9.0806167"><ele>677.0</ele><time>2026-04-06T14:22:56.987Z</time></trkpt><trkpt lat="40.5619283" lon="9.08043"><ele>677.0</ele><time>2026-04-06T14:22:57.987Z</time></trkpt><trkpt lat="40.5619567" lon="9.0802417"><ele>677.0</ele><time>2026-04-06T14:22:58.987Z</time></trkpt><trkpt lat="40.5619983" lon="9.0800383"><ele>677.0</ele><time>2026-04-06T14:22:59.987Z</time></trkpt><trkpt lat="40.5620717" lon="9.0798133"><ele>676.0</ele><time>2026-04-06T14:23:00.987Z</time></trkpt><trkpt lat="40.5621533" lon="9.0795683"><ele>675.0</ele><time>2026-04-06T14:23:01.987Z</time></trkpt><trkpt lat="40.56221" lon="9.0793217"><ele>674.0</ele><time>2026-04-06T14:23:02.987Z</time></trkpt><trkpt lat="40.5622667" lon="9.07906"><ele>672.3333333333333</ele><time>2026-04-06T14:23:03.987Z</time></trkpt><trkpt lat="40.5623417" lon="9.078785"><ele>670.6666666666666</ele><time>2026-04-06T14:23:04.987Z</time></trkpt><trkpt lat="40.5624083" lon="9.0785017"><ele>669.0</ele><time>2026-04-06T14:23:05.987Z</time></trkpt><trkpt lat="40.5624517" lon="9.0782233"><ele>668.3333333333334</ele><time>2026-04-06T14:23:06.987Z</time></trkpt><trkpt lat="40.56249" lon="9.0779467"><ele>667.6666666666667</ele><time>2026-04-06T14:23:07.987Z</time></trkpt><trkpt lat="40.56253" lon="9.0776717"><ele>667.0</ele><time>2026-04-06T14:23:08.987Z</time></trkpt><trkpt lat="40.562585" lon="9.077405"><ele>666.3333333333334</ele><time>2026-04-06T14:23:09.987Z</time></trkpt><trkpt lat="40.5626217" lon="9.0771333"><ele>665.6666666666666</ele><time>2026-04-06T14:23:10.987Z</time></trkpt><trkpt lat="40.5626483" lon="9.0768667"><ele>665.0</ele><time>2026-04-06T14:23:11.987Z</time></trkpt><trkpt lat="40.56266" lon="9.076605"><ele>664.0</ele><time>2026-04-06T14:23:12.987Z</time></trkpt><trkpt lat="40.5626283" lon="9.0763433"><ele>663.0</ele><time>2026-04-06T14:23:13.987Z</time></trkpt><trkpt lat="40.56258" lon="9.07609"><ele>662.0</ele><time>2026-04-06T14:23:14.987Z</time></trkpt><trkpt lat="40.5624717" lon="9.075815"><ele>663.0</ele><time>2026-04-06T14:23:15.987Z</time></trkpt><trkpt lat="40.562325" lon="9.0755367"><ele>664.0</ele><time>2026-04-06T14:23:16.987Z</time></trkpt><trkpt lat="40.5621733" lon="9.07526"><ele>658.5</ele><time>2026-04-06T14:23:17.987Z</time></trkpt><trkpt lat="40.56203" lon="9.0749867"><ele>653.0</ele><time>2026-04-06T14:23:18.987Z</time></trkpt><trkpt lat="40.5618867" lon="9.074705"><ele>652.5</ele><time>2026-04-06T14:23:19.987Z</time></trkpt><trkpt lat="40.5617517" lon="9.0744133"><ele>652.0</ele><time>2026-04-06T14:23:20.987Z</time></trkpt><trkpt lat="40.5616333" lon="9.074115"><ele>651.0</ele><time>2026-04-06T14:23:21.987Z</time></trkpt><trkpt lat="40.56153" lon="9.073805"><ele>650.0</ele><time>2026-04-06T14:23:22.987Z</time></trkpt><trkpt lat="40.5614367" lon="9.0735083"><ele>652.0</ele><time>2026-04-06T14:23:23.987Z</time></trkpt><trkpt lat="40.5613483" lon="9.0732167"><ele>654.0</ele><time>2026-04-06T14:23:24.987Z</time></trkpt><trkpt lat="40.561265" lon="9.072935"><ele>651.3333333333334</ele><time>2026-04-06T14:23:25.987Z</time></trkpt><trkpt lat="40.5611883" lon="9.0726683"><ele>648.6666666666667</ele><time>2026-04-06T14:23:26.987Z</time></trkpt><trkpt lat="40.561095" lon="9.0724283"><ele>646.0</ele><time>2026-04-06T14:23:27.987Z</time></trkpt><trkpt lat="40.56095" lon="9.07223"><ele>646.0</ele><time>2026-04-06T14:23:28.987Z</time></trkpt><trkpt lat="40.5607733" lon="9.072035"><ele>646.0</ele><time>2026-04-06T14:23:29.987Z</time></trkpt><trkpt lat="40.5605783" lon="9.0718433"><ele>646.0</ele><time>2026-04-06T14:23:30.987Z</time></trkpt><trkpt lat="40.56038" lon="9.0716483"><ele>646.0</ele><time>2026-04-06T14:23:31.986Z</time></trkpt><trkpt lat="40.5601833" lon="9.0714483"><ele>645.0</ele><time>2026-04-06T14:23:32.986Z</time></trkpt><trkpt lat="40.5599983" lon="9.0712467"><ele>644.0</ele><time>2026-04-06T14:23:33.986Z</time></trkpt><trkpt lat="40.559815" lon="9.0710617"><ele>644.0</ele><time>2026-04-06T14:23:34.986Z</time></trkpt><trkpt lat="40.55964" lon="9.0708767"><ele>644.0</ele><time>2026-04-06T14:23:35.986Z</time></trkpt><trkpt lat="40.55949" lon="9.0706717"><ele>644.0</ele><time>2026-04-06T14:23:36.986Z</time></trkpt><trkpt lat="40.5593517" lon="9.0704433"><ele>640.6666666666666</ele><time>2026-04-06T14:23:37.986Z</time></trkpt><trkpt lat="40.55924" lon="9.0702117"><ele>637.3333333333334</ele><time>2026-04-06T14:23:38.986Z</time></trkpt><trkpt lat="40.5591567" lon="9.0699483"><ele>634.0</ele><time>2026-04-06T14:23:39.986Z</time></trkpt><trkpt lat="40.5590817" lon="9.0696633"><ele>634.0</ele><time>2026-04-06T14:23:40.986Z</time></trkpt><trkpt lat="40.55902" lon="9.0693733"><ele>634.0</ele><time>2026-04-06T14:23:41.986Z</time></trkpt><trkpt lat="40.5589683" lon="9.0690883"><ele>632.6666666666667</ele><time>2026-04-06T14:23:42.986Z</time></trkpt><trkpt lat="40.55892" lon="9.0688167"><ele>631.3333333333334</ele><time>2026-04-06T14:23:43.986Z</time></trkpt><trkpt lat="40.558875" lon="9.0685517"><ele>630.0</ele><time>2026-04-06T14:23:44.986Z</time></trkpt><trkpt lat="40.558835" lon="9.068285"><ele>626.6666666666666</ele><time>2026-04-06T14:23:45.986Z</time></trkpt><trkpt lat="40.5587967" lon="9.0680267"><ele>623.3333333333333</ele><time>2026-04-06T14:23:46.986Z</time></trkpt><trkpt lat="40.55877" lon="9.0677833"><ele>620.0</ele><time>2026-04-06T14:23:47.986Z</time></trkpt><trkpt lat="40.55875" lon="9.067565"><ele>617.0</ele><time>2026-04-06T14:23:48.986Z</time></trkpt><trkpt lat="40.5587467" lon="9.067355"><ele>614.0</ele><time>2026-04-06T14:23:49.986Z</time></trkpt><trkpt lat="40.558785" lon="9.0671633"><ele>611.0</ele><time>2026-04-06T14:23:50.986Z</time></trkpt><trkpt lat="40.5588717" lon="9.0669917"><ele>611.0</ele><time>2026-04-06T14:23:51.986Z</time></trkpt><trkpt lat="40.5590217" lon="9.066885"><ele>611.0</ele><time>2026-04-06T14:23:52.986Z</time></trkpt><trkpt lat="40.55919" lon="9.0668067"><ele>611.0</ele><time>2026-04-06T14:23:53.986Z</time></trkpt><trkpt lat="40.5593633" lon="9.0667917"><ele>607.3333333333333</ele><time>2026-04-06T14:23:54.987Z</time></trkpt><trkpt lat="40.5595383" lon="9.0668483"><ele>603.6666666666666</ele><time>2026-04-06T14:23:55.986Z</time></trkpt><trkpt lat="40.5597283" lon="9.06693"><ele>600.0</ele><time>2026-04-06T14:23:56.986Z</time></trkpt><trkpt lat="40.559925" lon="9.0670033"><ele>600.0</ele><time>2026-04-06T14:23:57.986Z</time></trkpt><trkpt lat="40.5601133" lon="9.0670817"><ele>600.0</ele><time>2026-04-06T14:23:58.986Z</time></trkpt><trkpt lat="40.5602933" lon="9.067165"><ele>600.0</ele><time>2026-04-06T14:23:59.986Z</time></trkpt><trkpt lat="40.560455" lon="9.067225"><ele>599.0</ele><time>2026-04-06T14:24:00.986Z</time></trkpt><trkpt lat="40.5606117" lon="9.0672133"><ele>598.0</ele><time>2026-04-06T14:24:01.986Z</time></trkpt><trkpt lat="40.5607683" lon="9.0671183"><ele>597.0</ele><time>2026-04-06T14:24:02.986Z</time></trkpt><trkpt lat="40.5609033" lon="9.0669567"><ele>597.0</ele><time>2026-04-06T14:24:03.986Z</time></trkpt><trkpt lat="40.5610217" lon="9.0667533"><ele>597.0</ele><time>2026-04-06T14:24:04.986Z</time></trkpt><trkpt lat="40.5611217" lon="9.0665367"><ele>597.0</ele><time>2026-04-06T14:24:05.986Z</time></trkpt><trkpt lat="40.56122" lon="9.0663283"><ele>594.6666666666666</ele><time>2026-04-06T14:24:06.986Z</time></trkpt><trkpt lat="40.5613417" lon="9.066165"><ele>592.3333333333333</ele><time>2026-04-06T14:24:07.986Z</time></trkpt><trkpt lat="40.5614783" lon="9.06605"><ele>590.0</ele><time>2026-04-06T14:24:08.986Z</time></trkpt><trkpt lat="40.561625" lon="9.0660083"><ele>590.0</ele><time>2026-04-06T14:24:09.986Z</time></trkpt><trkpt lat="40.5617833" lon="9.0660433"><ele>590.0</ele><time>2026-04-06T14:24:10.986Z</time></trkpt><trkpt lat="40.5619567" lon="9.066115"><ele>590.0</ele><time>2026-04-06T14:24:11.986Z</time></trkpt><trkpt lat="40.5621417" lon="9.06618"><ele>586.6666666666666</ele><time>2026-04-06T14:24:12.986Z</time></trkpt><trkpt lat="40.5623317" lon="9.0662383"><ele>583.3333333333334</ele><time>2026-04-06T14:24:13.986Z</time></trkpt><trkpt lat="40.5625317" lon="9.0662717"><ele>580.0</ele><time>2026-04-06T14:24:14.987Z</time></trkpt><trkpt lat="40.5627283" lon="9.0662283"><ele>579.3333333333334</ele><time>2026-04-06T14:24:15.986Z</time></trkpt><trkpt lat="40.5629183" lon="9.066135"><ele>578.6666666666666</ele><time>2026-04-06T14:24:16.986Z</time></trkpt><trkpt lat="40.5631067" lon="9.066005"><ele>578.0</ele><time>2026-04-06T14:24:17.986Z</time></trkpt><trkpt lat="40.5632917" lon="9.0658633"><ele>576.6666666666666</ele><time>2026-04-06T14:24:18.986Z</time></trkpt><trkpt lat="40.5634767" lon="9.065775"><ele>575.3333333333334</ele><time>2026-04-06T14:24:19.986Z</time></trkpt><trkpt lat="40.563665" lon="9.0657483"><ele>574.0</ele><time>2026-04-06T14:24:20.986Z</time></trkpt><trkpt lat="40.5638367" lon="9.065795"><ele>574.0</ele><time>2026-04-06T14:24:21.986Z</time></trkpt><trkpt lat="40.5640067" lon="9.0658367"><ele>574.0</ele><time>2026-04-06T14:24:22.986Z</time></trkpt><trkpt lat="40.564175" lon="9.06588"><ele>574.0</ele><time>2026-04-06T14:24:23.986Z</time></trkpt><trkpt lat="40.5643433" lon="9.0658967"><ele>574.0</ele><time>2026-04-06T14:24:24.986Z</time></trkpt><trkpt lat="40.5644983" lon="9.06589"><ele>574.0</ele><time>2026-04-06T14:24:25.986Z</time></trkpt><trkpt lat="40.5646467" lon="9.0658483"><ele>574.0</ele><time>2026-04-06T14:24:26.986Z</time></trkpt><trkpt lat="40.5648017" lon="9.0658083"><ele>573.25</ele><time>2026-04-06T14:24:27.986Z</time></trkpt><trkpt lat="40.564945" lon="9.06574"><ele>572.5</ele><time>2026-04-06T14:24:28.986Z</time></trkpt><trkpt lat="40.5650417" lon="9.06563"><ele>571.75</ele><time>2026-04-06T14:24:29.986Z</time></trkpt><trkpt lat="40.5650967" lon="9.0654833"><ele>571.0</ele><time>2026-04-06T14:24:30.986Z</time></trkpt><trkpt lat="40.5650983" lon="9.06531"><ele>571.0</ele><time>2026-04-06T14:24:31.986Z</time></trkpt><trkpt lat="40.565045" lon="9.0651583"><ele>571.0</ele><time>2026-04-06T14:24:32.986Z</time></trkpt><trkpt lat="40.5649083" lon="9.0650333"><ele>571.0</ele><time>2026-04-06T14:24:33.986Z</time></trkpt><trkpt lat="40.5647583" lon="9.064925"><ele>573.3333333333334</ele><time>2026-04-06T14:24:34.986Z</time></trkpt><trkpt lat="40.5646167" lon="9.0648017"><ele>575.6666666666666</ele><time>2026-04-06T14:24:35.987Z</time></trkpt><trkpt lat="40.5644817" lon="9.0646217"><ele>578.0</ele><time>2026-04-06T14:24:36.986Z</time></trkpt><trkpt lat="40.5643667" lon="9.0644167"><ele>573.3333333333333</ele><time>2026-04-06T14:24:37.986Z</time></trkpt><trkpt lat="40.5642517" lon="9.0642017"><ele>568.6666666666666</ele><time>2026-04-06T14:24:38.986Z</time></trkpt><trkpt lat="40.5641367" lon="9.0639767"><ele>564.0</ele><time>2026-04-06T14:24:39.987Z</time></trkpt><trkpt lat="40.564035" lon="9.0637567"><ele>564.0</ele><time>2026-04-06T14:24:40.986Z</time></trkpt><trkpt lat="40.563935" lon="9.0635467"><ele>564.0</ele><time>2026-04-06T14:24:41.986Z</time></trkpt><trkpt lat="40.56387" lon="9.0633417"><ele>564.0</ele><time>2026-04-06T14:24:42.986Z</time></trkpt><trkpt lat="40.5638433" lon="9.0631167"><ele>561.0</ele><time>2026-04-06T14:24:43.986Z</time></trkpt><trkpt lat="40.5638683" lon="9.0628583"><ele>558.0</ele><time>2026-04-06T14:24:44.986Z</time></trkpt><trkpt lat="40.5639167" lon="9.062595"><ele>555.0</ele><time>2026-04-06T14:24:45.986Z</time></trkpt><trkpt lat="40.56399" lon="9.0623533"><ele>552.6666666666666</ele><time>2026-04-06T14:24:46.986Z</time></trkpt><trkpt lat="40.5640733" lon="9.06215"><ele>550.3333333333333</ele><time>2026-04-06T14:24:47.986Z</time></trkpt><trkpt lat="40.5641667" lon="9.0619717"><ele>548.0</ele><time>2026-04-06T14:24:48.986Z</time></trkpt><trkpt lat="40.564225" lon="9.061805"><ele>548.0</ele><time>2026-04-06T14:24:49.986Z</time></trkpt><trkpt lat="40.5642367" lon="9.0616167"><ele>548.0</ele><time>2026-04-06T14:24:50.986Z</time></trkpt><trkpt lat="40.564205" lon="9.061415"><ele>548.0</ele><time>2026-04-06T14:24:51.986Z</time></trkpt><trkpt lat="40.5641317" lon="9.0611767"><ele>547.3333333333333</ele><time>2026-04-06T14:24:52.986Z</time></trkpt><trkpt lat="40.5640433" lon="9.0609167"><ele>546.6666666666666</ele><time>2026-04-06T14:24:53.986Z</time></trkpt><trkpt lat="40.5639717" lon="9.060645"><ele>546.0</ele><time>2026-04-06T14:24:54.986Z</time></trkpt><trkpt lat="40.563915" lon="9.0603733"><ele>545.3333333333334</ele><time>2026-04-06T14:24:55.986Z</time></trkpt><trkpt lat="40.5638817" lon="9.0601017"><ele>544.6666666666667</ele><time>2026-04-06T14:24:56.986Z</time></trkpt><trkpt lat="40.5638467" lon="9.059825"><ele>544.0</ele><time>2026-04-06T14:24:57.986Z</time></trkpt><trkpt lat="40.56383" lon="9.0595583"><ele>543.6666666666667</ele><time>2026-04-06T14:24:58.986Z</time></trkpt><trkpt lat="40.5637967" lon="9.0593067"><ele>543.3333333333334</ele><time>2026-04-06T14:24:59.986Z</time></trkpt><trkpt lat="40.5637783" lon="9.0590583"><ele>543.0</ele><time>2026-04-06T14:25:00.986Z</time></trkpt><trkpt lat="40.5637867" lon="9.05881"><ele>543.0</ele><time>2026-04-06T14:25:01.986Z</time></trkpt><trkpt lat="40.5638233" lon="9.058565"><ele>543.0</ele><time>2026-04-06T14:25:02.986Z</time></trkpt><trkpt lat="40.5638717" lon="9.0583117"><ele>543.0</ele><time>2026-04-06T14:25:03.986Z</time></trkpt><trkpt lat="40.5639233" lon="9.0580717"><ele>543.3333333333334</ele><time>2026-04-06T14:25:04.986Z</time></trkpt><trkpt lat="40.5639817" lon="9.057845"><ele>543.6666666666667</ele><time>2026-04-06T14:25:05.986Z</time></trkpt><trkpt lat="40.5640933" lon="9.057675"><ele>544.0</ele><time>2026-04-06T14:25:06.986Z</time></trkpt><trkpt lat="40.5642317" lon="9.05751"><ele>543.0</ele><time>2026-04-06T14:25:07.986Z</time></trkpt><trkpt lat="40.56433" lon="9.0573583"><ele>542.0</ele><time>2026-04-06T14:25:08.986Z</time></trkpt><trkpt lat="40.564395" lon="9.0571767"><ele>541.0</ele><time>2026-04-06T14:25:09.986Z</time></trkpt><trkpt lat="40.564435" lon="9.0569717"><ele>541.0</ele><time>2026-04-06T14:25:10.986Z</time></trkpt><trkpt lat="40.5643617" lon="9.05674"><ele>541.0</ele><time>2026-04-06T14:25:11.986Z</time></trkpt><trkpt lat="40.5642833" lon="9.056505"><ele>541.0</ele><time>2026-04-06T14:25:12.986Z</time></trkpt><trkpt lat="40.564195" lon="9.0562717"><ele>537.0</ele><time>2026-04-06T14:25:13.986Z</time></trkpt><trkpt lat="40.5641583" lon="9.0560367"><ele>533.0</ele><time>2026-04-06T14:25:14.986Z</time></trkpt><trkpt lat="40.564135" lon="9.05582"><ele>529.0</ele><time>2026-04-06T14:25:15.986Z</time></trkpt><trkpt lat="40.5641567" lon="9.0556167"><ele>529.0</ele><time>2026-04-06T14:25:16.986Z</time></trkpt><trkpt lat="40.56422" lon="9.0554017"><ele>529.0</ele><time>2026-04-06T14:25:17.986Z</time></trkpt><trkpt lat="40.5643067" lon="9.055175"><ele>529.0</ele><time>2026-04-06T14:25:18.986Z</time></trkpt><trkpt lat="40.5644083" lon="9.0549517"><ele>528.0</ele><time>2026-04-06T14:25:19.986Z</time></trkpt><trkpt lat="40.5645333" lon="9.054715"><ele>527.0</ele><time>2026-04-06T14:25:20.986Z</time></trkpt><trkpt lat="40.5646733" lon="9.054495"><ele>526.0</ele><time>2026-04-06T14:25:21.986Z</time></trkpt><trkpt lat="40.56484" lon="9.0542817"><ele>537.0</ele><time>2026-04-06T14:25:22.986Z</time></trkpt><trkpt lat="40.56503" lon="9.054085"><ele>548.0</ele><time>2026-04-06T14:25:23.987Z</time></trkpt><trkpt lat="40.5652283" lon="9.053905"><ele>538.0</ele><time>2026-04-06T14:25:24.986Z</time></trkpt><trkpt lat="40.5654417" lon="9.05375"><ele>528.0</ele><time>2026-04-06T14:25:25.986Z</time></trkpt><trkpt lat="40.56567" lon="9.05362"><ele>528.0</ele><time>2026-04-06T14:25:26.986Z</time></trkpt><trkpt lat="40.565905" lon="9.05351"><ele>528.0</ele><time>2026-04-06T14:25:27.986Z</time></trkpt><trkpt lat="40.566135" lon="9.0534267"><ele>531.0</ele><time>2026-04-06T14:25:28.986Z</time></trkpt><trkpt lat="40.5663767" lon="9.05334"><ele>534.0</ele><time>2026-04-06T14:25:29.986Z</time></trkpt><trkpt lat="40.56662" lon="9.0532483"><ele>534.0</ele><time>2026-04-06T14:25:30.986Z</time></trkpt><trkpt lat="40.566855" lon="9.053165"><ele>534.0</ele><time>2026-04-06T14:25:31.986Z</time></trkpt><trkpt lat="40.5670883" lon="9.0530867"><ele>522.5</ele><time>2026-04-06T14:25:32.986Z</time></trkpt><trkpt lat="40.5673183" lon="9.0530067"><ele>511.0</ele><time>2026-04-06T14:25:33.986Z</time></trkpt><trkpt lat="40.56755" lon="9.0529133"><ele>511.0</ele><time>2026-04-06T14:25:34.986Z</time></trkpt><trkpt lat="40.567775" lon="9.0528167"><ele>511.0</ele><time>2026-04-06T14:25:35.986Z</time></trkpt><trkpt lat="40.5680067" lon="9.0527183"><ele>508.0</ele><time>2026-04-06T14:25:36.986Z</time></trkpt><trkpt lat="40.5682183" lon="9.052605"><ele>505.0</ele><time>2026-04-06T14:25:37.986Z</time></trkpt><trkpt lat="40.5684217" lon="9.0524783"><ele>504.33333333333337</ele><time>2026-04-06T14:25:38.986Z</time></trkpt><trkpt lat="40.5686133" lon="9.0523667"><ele>503.66666666666663</ele><time>2026-04-06T14:25:39.986Z</time></trkpt><trkpt lat="40.5688133" lon="9.0522417"><ele>503.0</ele><time>2026-04-06T14:25:40.986Z</time></trkpt><trkpt lat="40.569005" lon="9.0521217"><ele>502.0</ele><time>2026-04-06T14:25:41.986Z</time></trkpt><trkpt lat="40.569205" lon="9.0519917"><ele>501.0</ele><time>2026-04-06T14:25:42.986Z</time></trkpt><trkpt lat="40.56941" lon="9.0518667"><ele>500.0</ele><time>2026-04-06T14:25:43.986Z</time></trkpt><trkpt lat="40.56962" lon="9.051755"><ele>485.5</ele><time>2026-04-06T14:25:44.986Z</time></trkpt><trkpt lat="40.5698483" lon="9.0516433"><ele>471.0</ele><time>2026-04-06T14:25:45.986Z</time></trkpt><trkpt lat="40.57009" lon="9.0515433"><ele>471.0</ele><time>2026-04-06T14:25:46.986Z</time></trkpt><trkpt lat="40.5703217" lon="9.0514717"><ele>471.0</ele><time>2026-04-06T14:25:47.986Z</time></trkpt><trkpt lat="40.5705683" lon="9.0513967"><ele>469.5</ele><time>2026-04-06T14:25:48.987Z</time></trkpt><trkpt lat="40.5708233" lon="9.0513433"><ele>468.0</ele><time>2026-04-06T14:25:49.986Z</time></trkpt><trkpt lat="40.571095" lon="9.0513083"><ele>473.5</ele><time>2026-04-06T14:25:50.986Z</time></trkpt><trkpt lat="40.5713683" lon="9.051285"><ele>479.0</ele><time>2026-04-06T14:25:51.986Z</time></trkpt><trkpt lat="40.57165" lon="9.0512583"><ele>479.0</ele><time>2026-04-06T14:25:52.986Z</time></trkpt><trkpt lat="40.5719367" lon="9.051235"><ele>479.0</ele><time>2026-04-06T14:25:53.986Z</time></trkpt><trkpt lat="40.572215" lon="9.0512083"><ele>481.5</ele><time>2026-04-06T14:25:54.986Z</time></trkpt><trkpt lat="40.5725067" lon="9.0511883"><ele>484.0</ele><time>2026-04-06T14:25:55.986Z</time></trkpt><trkpt lat="40.5727933" lon="9.0511533"><ele>481.5</ele><time>2026-04-06T14:25:56.986Z</time></trkpt><trkpt lat="40.5730817" lon="9.051125"><ele>479.0</ele><time>2026-04-06T14:25:57.986Z</time></trkpt><trkpt lat="40.57337" lon="9.0510983"><ele>479.0</ele><time>2026-04-06T14:25:58.986Z</time></trkpt><trkpt lat="40.57365" lon="9.0510733"><ele>479.0</ele><time>2026-04-06T14:25:59.986Z</time></trkpt><trkpt lat="40.573935" lon="9.0510567"><ele>482.0</ele><time>2026-04-06T14:26:00.986Z</time></trkpt><trkpt lat="40.57422" lon="9.0510417"><ele>485.0</ele><time>2026-04-06T14:26:01.986Z</time></trkpt><trkpt lat="40.574495" lon="9.051045"><ele>483.0</ele><time>2026-04-06T14:26:02.986Z</time></trkpt><trkpt lat="40.5747867" lon="9.0510617"><ele>481.0</ele><time>2026-04-06T14:26:03.986Z</time></trkpt><trkpt lat="40.5750833" lon="9.0510967"><ele>481.0</ele><time>2026-04-06T14:26:04.986Z</time></trkpt><trkpt lat="40.575345" lon="9.0511483"><ele>481.0</ele><time>2026-04-06T14:26:05.986Z</time></trkpt><trkpt lat="40.57562" lon="9.051195"><ele>484.0</ele><time>2026-04-06T14:26:06.986Z</time></trkpt><trkpt lat="40.5759033" lon="9.051235"><ele>487.0</ele><time>2026-04-06T14:26:07.986Z</time></trkpt><trkpt lat="40.5761917" lon="9.0512817"><ele>487.5</ele><time>2026-04-06T14:26:08.986Z</time></trkpt><trkpt lat="40.5764817" lon="9.051335"><ele>488.0</ele><time>2026-04-06T14:26:09.986Z</time></trkpt><trkpt lat="40.5767633" lon="9.0513883"><ele>492.5</ele><time>2026-04-06T14:26:10.986Z</time></trkpt><trkpt lat="40.57705" lon="9.0514333"><ele>497.0</ele><time>2026-04-06T14:26:11.986Z</time></trkpt><trkpt lat="40.5773333" lon="9.05148"><ele>497.0</ele><time>2026-04-06T14:26:12.986Z</time></trkpt><trkpt lat="40.5776017" lon="9.0515283"><ele>497.0</ele><time>2026-04-06T14:26:13.986Z</time></trkpt><trkpt lat="40.57787" lon="9.051585"><ele>490.0</ele><time>2026-04-06T14:26:14.986Z</time></trkpt><trkpt lat="40.5781383" lon="9.051635"><ele>483.0</ele><time>2026-04-06T14:26:15.986Z</time></trkpt><trkpt lat="40.5783933" lon="9.0516833"><ele>483.0</ele><time>2026-04-06T14:26:16.986Z</time></trkpt><trkpt lat="40.5786267" lon="9.051705"><ele>483.0</ele><time>2026-04-06T14:26:17.986Z</time></trkpt><trkpt lat="40.5788767" lon="9.051705"><ele>484.0</ele><time>2026-04-06T14:26:18.986Z</time></trkpt><trkpt lat="40.5791167" lon="9.05168"><ele>485.0</ele><time>2026-04-06T14:26:19.986Z</time></trkpt><trkpt lat="40.579365" lon="9.0516267"><ele>491.0</ele><time>2026-04-06T14:26:20.986Z</time></trkpt><trkpt lat="40.57961" lon="9.0515467"><ele>497.0</ele><time>2026-04-06T14:26:21.986Z</time></trkpt><trkpt lat="40.579825" lon="9.0514267"><ele>497.0</ele><time>2026-04-06T14:26:22.986Z</time></trkpt><trkpt lat="40.5800367" lon="9.05128"><ele>497.0</ele><time>2026-04-06T14:26:23.986Z</time></trkpt><trkpt lat="40.5802567" lon="9.05114"><ele>490.0</ele><time>2026-04-06T14:26:24.987Z</time></trkpt><trkpt lat="40.5804767" lon="9.0509833"><ele>483.0</ele><time>2026-04-06T14:26:25.986Z</time></trkpt><trkpt lat="40.5807017" lon="9.0508217"><ele>496.0</ele><time>2026-04-06T14:26:26.986Z</time></trkpt><trkpt lat="40.5809417" lon="9.050675"><ele>509.0</ele><time>2026-04-06T14:26:27.986Z</time></trkpt><trkpt lat="40.5811633" lon="9.0505067"><ele>502.5</ele><time>2026-04-06T14:26:28.986Z</time></trkpt><trkpt lat="40.58137" lon="9.05033"><ele>496.0</ele><time>2026-04-06T14:26:29.986Z</time></trkpt><trkpt lat="40.5815567" lon="9.050135"><ele>502.5</ele><time>2026-04-06T14:26:30.986Z</time></trkpt><trkpt lat="40.5817183" lon="9.049915"><ele>509.0</ele><time>2026-04-06T14:26:31.986Z</time></trkpt><trkpt lat="40.5818483" lon="9.0496767"><ele>509.0</ele><time>2026-04-06T14:26:32.986Z</time></trkpt><trkpt lat="40.5819467" lon="9.049405"><ele>509.0</ele><time>2026-04-06T14:26:33.986Z</time></trkpt><trkpt lat="40.582015" lon="9.0491117"><ele>499.0</ele><time>2026-04-06T14:26:34.986Z</time></trkpt><trkpt lat="40.582055" lon="9.0488033"><ele>489.0</ele><time>2026-04-06T14:26:35.986Z</time></trkpt><trkpt lat="40.582075" lon="9.04849"><ele>487.0</ele><time>2026-04-06T14:26:36.986Z</time></trkpt><trkpt lat="40.5821033" lon="9.0481617"><ele>485.0</ele><time>2026-04-06T14:26:37.986Z</time></trkpt><trkpt lat="40.58211" lon="9.047845"><ele>485.0</ele><time>2026-04-06T14:26:38.986Z</time></trkpt><trkpt lat="40.582105" lon="9.0475283"><ele>485.0</ele><time>2026-04-06T14:26:39.986Z</time></trkpt><trkpt lat="40.5821" lon="9.0472117"><ele>485.5</ele><time>2026-04-06T14:26:40.986Z</time></trkpt><trkpt lat="40.5820983" lon="9.0469017"><ele>486.0</ele><time>2026-04-06T14:26:41.986Z</time></trkpt><trkpt lat="40.582105" lon="9.0466033"><ele>486.0</ele><time>2026-04-06T14:26:42.986Z</time></trkpt><trkpt lat="40.5821183" lon="9.0463283"><ele>486.0</ele><time>2026-04-06T14:26:43.986Z</time></trkpt><trkpt lat="40.5821183" lon="9.0460583"><ele>486.0</ele><time>2026-04-06T14:26:44.986Z</time></trkpt><trkpt lat="40.5821183" lon="9.04579"><ele>489.33333333333337</ele><time>2026-04-06T14:26:45.986Z</time></trkpt><trkpt lat="40.5821167" lon="9.0455367"><ele>492.6666666666667</ele><time>2026-04-06T14:26:46.986Z</time></trkpt><trkpt lat="40.58211" lon="9.0452883"><ele>496.0</ele><time>2026-04-06T14:26:47.986Z</time></trkpt><trkpt lat="40.5821083" lon="9.0450483"><ele>497.0</ele><time>2026-04-06T14:26:48.986Z</time></trkpt><trkpt lat="40.5821267" lon="9.04484"><ele>498.0</ele><time>2026-04-06T14:26:49.986Z</time></trkpt><trkpt lat="40.5821633" lon="9.044645"><ele>499.0</ele><time>2026-04-06T14:26:50.986Z</time></trkpt><trkpt lat="40.582205" lon="9.044465"><ele>499.0</ele><time>2026-04-06T14:26:51.986Z</time></trkpt><trkpt lat="40.582255" lon="9.0443067"><ele>499.0</ele><time>2026-04-06T14:26:52.986Z</time></trkpt><trkpt lat="40.582315" lon="9.0441683"><ele>499.0</ele><time>2026-04-06T14:26:53.986Z</time></trkpt><trkpt lat="40.5823733" lon="9.0440583"><ele>499.0</ele><time>2026-04-06T14:26:54.986Z</time></trkpt><trkpt lat="40.5824233" lon="9.0439967"><ele>499.0</ele><time>2026-04-06T14:26:55.986Z</time></trkpt><trkpt lat="40.5825233" lon="9.0439667"><ele>499.0</ele><time>2026-04-06T14:26:57.986Z</time></trkpt><trkpt lat="40.5826133" lon="9.044025"><ele>499.0</ele><time>2026-04-06T14:26:59.986Z</time></trkpt><trkpt lat="40.582685" lon="9.0441083"><ele>499.0</ele><time>2026-04-06T14:27:01.986Z</time></trkpt><trkpt lat="40.5827183" lon="9.0442117"><ele>499.0</ele><time>2026-04-06T14:27:03.987Z</time></trkpt><trkpt lat="40.582765" lon="9.0443333"><ele>499.0</ele><time>2026-04-06T14:27:05.986Z</time></trkpt><trkpt lat="40.5828" lon="9.0444533"><ele>499.0</ele><time>2026-04-06T14:27:07.986Z</time></trkpt><trkpt lat="40.58284" lon="9.0445683"><ele>499.0</ele><time>2026-04-06T14:27:09.986Z</time></trkpt><trkpt lat="40.5828967" lon="9.0446983"><ele>499.0</ele><time>2026-04-06T14:27:11.986Z</time></trkpt><trkpt lat="40.5829683" lon="9.04483"><ele>499.0</ele><time>2026-04-06T14:27:13.986Z</time></trkpt><trkpt lat="40.583025" lon="9.0449733"><ele>498.2</ele><time>2026-04-06T14:27:15.986Z</time></trkpt><trkpt lat="40.58306" lon="9.045045"><ele>497.4</ele><time>2026-04-06T14:27:16.986Z</time></trkpt><trkpt lat="40.58309" lon="9.0451183"><ele>496.6</ele><time>2026-04-06T14:27:17.986Z</time></trkpt><trkpt lat="40.58315" lon="9.0452667"><ele>495.8</ele><time>2026-04-06T14:27:19.986Z</time></trkpt><trkpt lat="40.5832317" lon="9.045435"><ele>495.0</ele><time>2026-04-06T14:27:21.986Z</time></trkpt><trkpt lat="40.5832717" lon="9.04552"><ele>495.0</ele><time>2026-04-06T14:27:22.986Z</time></trkpt><trkpt lat="40.5833183" lon="9.0456017"><ele>495.0</ele><time>2026-04-06T14:27:23.986Z</time></trkpt><trkpt lat="40.5833667" lon="9.04568"><ele>495.0</ele><time>2026-04-06T14:27:24.986Z</time></trkpt><trkpt lat="40.5834183" lon="9.04576"><ele>495.0</ele><time>2026-04-06T14:27:25.986Z</time></trkpt><trkpt lat="40.583465" lon="9.0458417"><ele>495.0</ele><time>2026-04-06T14:27:26.986Z</time></trkpt><trkpt lat="40.583515" lon="9.0459267"><ele>495.0</ele><time>2026-04-06T14:27:27.986Z</time></trkpt><trkpt lat="40.5836183" lon="9.046095"><ele>494.25</ele><time>2026-04-06T14:27:29.986Z</time></trkpt><trkpt lat="40.5836717" lon="9.0461817"><ele>493.5</ele><time>2026-04-06T14:27:30.986Z</time></trkpt><trkpt lat="40.5837917" lon="9.0463617"><ele>492.75</ele><time>2026-04-06T14:27:32.986Z</time></trkpt><trkpt lat="40.5838383" lon="9.0464517"><ele>492.0</ele><time>2026-04-06T14:27:33.986Z</time></trkpt><trkpt lat="40.5839033" lon="9.0466233"><ele>491.0</ele><time>2026-04-06T14:27:35.986Z</time></trkpt><trkpt lat="40.5839717" lon="9.046765"><ele>490.00000000000006</ele><time>2026-04-06T14:27:37.986Z</time></trkpt><trkpt lat="40.5840267" lon="9.04686"><ele>489.00000000000006</ele><time>2026-04-06T14:27:39.986Z</time></trkpt><trkpt lat="40.5840167" lon="9.046775"><ele>488.0</ele><time>2026-04-06T14:30:13.986Z</time></trkpt><trkpt lat="40.5839533" lon="9.046655"><ele>487.0</ele><time>2026-04-06T14:30:15.986Z</time></trkpt><trkpt lat="40.58391" lon="9.0465617"><ele>487.0</ele><time>2026-04-06T14:30:16.986Z</time></trkpt><trkpt lat="40.5838567" lon="9.04645"><ele>487.00000000000006</ele><time>2026-04-06T14:30:17.986Z</time></trkpt><trkpt lat="40.583795" lon="9.0463267"><ele>487.00000000000006</ele><time>2026-04-06T14:30:18.986Z</time></trkpt><trkpt lat="40.58374" lon="9.04621"><ele>487.0</ele><time>2026-04-06T14:30:19.986Z</time></trkpt><trkpt lat="40.58367" lon="9.0460833"><ele>487.0</ele><time>2026-04-06T14:30:20.986Z</time></trkpt><trkpt lat="40.583575" lon="9.045955"><ele>488.25</ele><time>2026-04-06T14:30:21.986Z</time></trkpt><trkpt lat="40.5834867" lon="9.0458233"><ele>489.5</ele><time>2026-04-06T14:30:22.986Z</time></trkpt><trkpt lat="40.583405" lon="9.0457083"><ele>490.75</ele><time>2026-04-06T14:30:23.986Z</time></trkpt><trkpt lat="40.5833267" lon="9.04557"><ele>492.0</ele><time>2026-04-06T14:30:24.986Z</time></trkpt><trkpt lat="40.583245" lon="9.0454317"><ele>492.75</ele><time>2026-04-06T14:30:25.986Z</time></trkpt><trkpt lat="40.5831567" lon="9.0452767"><ele>493.5</ele><time>2026-04-06T14:30:26.986Z</time></trkpt><trkpt lat="40.5830867" lon="9.0451167"><ele>494.25</ele><time>2026-04-06T14:30:27.986Z</time></trkpt><trkpt lat="40.5830233" lon="9.044965"><ele>495.0</ele><time>2026-04-06T14:30:28.986Z</time></trkpt><trkpt lat="40.5829533" lon="9.0448217"><ele>495.1666666666667</ele><time>2026-04-06T14:30:29.986Z</time></trkpt><trkpt lat="40.5829083" lon="9.0447017"><ele>495.33333333333337</ele><time>2026-04-06T14:30:30.986Z</time></trkpt><trkpt lat="40.5828667" lon="9.0445833"><ele>495.5</ele><time>2026-04-06T14:30:31.986Z</time></trkpt><trkpt lat="40.5828267" lon="9.0444833"><ele>495.6666666666667</ele><time>2026-04-06T14:30:32.986Z</time></trkpt><trkpt lat="40.5827867" lon="9.0443967"><ele>495.83333333333337</ele><time>2026-04-06T14:30:33.986Z</time></trkpt><trkpt lat="40.582755" lon="9.0443117"><ele>496.0</ele><time>2026-04-06T14:30:34.986Z</time></trkpt><trkpt lat="40.582725" lon="9.0442267"><ele>496.33333333333337</ele><time>2026-04-06T14:30:35.986Z</time></trkpt><trkpt lat="40.5826917" lon="9.04413"><ele>496.6666666666667</ele><time>2026-04-06T14:30:36.986Z</time></trkpt><trkpt lat="40.5826483" lon="9.0440417"><ele>497.0</ele><time>2026-04-06T14:30:37.986Z</time></trkpt><trkpt lat="40.5825933" lon="9.0439767"><ele>497.33333333333337</ele><time>2026-04-06T14:30:38.986Z</time></trkpt><trkpt lat="40.58253" lon="9.0439433"><ele>497.6666666666667</ele><time>2026-04-06T14:30:39.986Z</time></trkpt><trkpt lat="40.5824733" lon="9.0439067"><ele>498.0</ele><time>2026-04-06T14:30:40.986Z</time></trkpt><trkpt lat="40.5823633" lon="9.04385"><ele>498.0</ele><time>2026-04-06T14:30:42.986Z</time></trkpt><trkpt lat="40.582305" lon="9.04381"><ele>497.99999999999994</ele><time>2026-04-06T14:30:43.986Z</time></trkpt><trkpt lat="40.5822467" lon="9.0437533"><ele>497.99999999999994</ele><time>2026-04-06T14:30:44.986Z</time></trkpt><trkpt lat="40.5821883" lon="9.0436717"><ele>498.0</ele><time>2026-04-06T14:30:45.986Z</time></trkpt><trkpt lat="40.582125" lon="9.04357"><ele>498.0</ele><time>2026-04-06T14:30:46.986Z</time></trkpt><trkpt lat="40.582055" lon="9.04343"><ele>498.5</ele><time>2026-04-06T14:30:47.986Z</time></trkpt><trkpt lat="40.5819967" lon="9.04327"><ele>499.0</ele><time>2026-04-06T14:30:48.986Z</time></trkpt><trkpt lat="40.5819517" lon="9.0430933"><ele>499.5</ele><time>2026-04-06T14:30:49.986Z</time></trkpt><trkpt lat="40.581915" lon="9.0428767"><ele>500.0</ele><time>2026-04-06T14:30:50.986Z</time></trkpt><trkpt lat="40.5818817" lon="9.0426467"><ele>497.66666666666663</ele><time>2026-04-06T14:30:51.986Z</time></trkpt><trkpt lat="40.58185" lon="9.0424067"><ele>495.33333333333337</ele><time>2026-04-06T14:30:52.986Z</time></trkpt><trkpt lat="40.5818167" lon="9.042155"><ele>493.0</ele><time>2026-04-06T14:30:53.986Z</time></trkpt><trkpt lat="40.5817783" lon="9.0418967"><ele>493.0</ele><time>2026-04-06T14:30:54.986Z</time></trkpt><trkpt lat="40.5817333" lon="9.04163"><ele>493.0</ele><time>2026-04-06T14:30:55.986Z</time></trkpt><trkpt lat="40.58168" lon="9.041355"><ele>493.0</ele><time>2026-04-06T14:30:56.986Z</time></trkpt><trkpt lat="40.5816267" lon="9.0410483"><ele>490.5</ele><time>2026-04-06T14:30:57.986Z</time></trkpt><trkpt lat="40.581575" lon="9.040745"><ele>488.0</ele><time>2026-04-06T14:30:58.986Z</time></trkpt><trkpt lat="40.581515" lon="9.0404517"><ele>488.0</ele><time>2026-04-06T14:30:59.986Z</time></trkpt><trkpt lat="40.5814583" lon="9.04014"><ele>488.0</ele><time>2026-04-06T14:31:00.986Z</time></trkpt><trkpt lat="40.5814083" lon="9.0398333"><ele>486.0</ele><time>2026-04-06T14:31:01.986Z</time></trkpt><trkpt lat="40.5813683" lon="9.0395383"><ele>484.0</ele><time>2026-04-06T14:31:02.987Z</time></trkpt><trkpt lat="40.5813233" lon="9.0392617"><ele>482.0</ele><time>2026-04-06T14:31:03.986Z</time></trkpt><trkpt lat="40.5813067" lon="9.0389883"><ele>481.3333333333333</ele><time>2026-04-06T14:31:04.986Z</time></trkpt><trkpt lat="40.581325" lon="9.0387017"><ele>480.66666666666663</ele><time>2026-04-06T14:31:05.986Z</time></trkpt><trkpt lat="40.5813667" lon="9.038435"><ele>480.0</ele><time>2026-04-06T14:31:06.986Z</time></trkpt><trkpt lat="40.5814417" lon="9.0381933"><ele>480.0</ele><time>2026-04-06T14:31:07.986Z</time></trkpt><trkpt lat="40.5815483" lon="9.0379783"><ele>480.0</ele><time>2026-04-06T14:31:08.986Z</time></trkpt><trkpt lat="40.5816867" lon="9.03778"><ele>480.0</ele><time>2026-04-06T14:31:09.986Z</time></trkpt><trkpt lat="40.5818517" lon="9.0376117"><ele>479.0</ele><time>2026-04-06T14:31:10.986Z</time></trkpt><trkpt lat="40.582025" lon="9.0374867"><ele>478.0</ele><time>2026-04-06T14:31:11.986Z</time></trkpt><trkpt lat="40.5822" lon="9.0373617"><ele>477.0</ele><time>2026-04-06T14:31:12.986Z</time></trkpt><trkpt lat="40.582365" lon="9.0372317"><ele>477.0</ele><time>2026-04-06T14:31:13.987Z</time></trkpt><trkpt lat="40.58254" lon="9.037095"><ele>477.0</ele><time>2026-04-06T14:31:14.986Z</time></trkpt><trkpt lat="40.5826983" lon="9.036935"><ele>477.0</ele><time>2026-04-06T14:31:15.986Z</time></trkpt><trkpt lat="40.582825" lon="9.0367617"><ele>472.33333333333337</ele><time>2026-04-06T14:31:16.987Z</time></trkpt><trkpt lat="40.5829267" lon="9.0365733"><ele>467.6666666666667</ele><time>2026-04-06T14:31:17.986Z</time></trkpt><trkpt lat="40.5830167" lon="9.0363783"><ele>463.0</ele><time>2026-04-06T14:31:18.986Z</time></trkpt><trkpt lat="40.583095" lon="9.0361867"><ele>463.0</ele><time>2026-04-06T14:31:19.986Z</time></trkpt><trkpt lat="40.5831517" lon="9.0360183"><ele>463.0</ele><time>2026-04-06T14:31:20.986Z</time></trkpt><trkpt lat="40.5832033" lon="9.03586"><ele>463.0</ele><time>2026-04-06T14:31:21.986Z</time></trkpt><trkpt lat="40.583275" lon="9.035735"><ele>463.0</ele><time>2026-04-06T14:31:22.986Z</time></trkpt><trkpt lat="40.583335" lon="9.03562"><ele>463.4</ele><time>2026-04-06T14:31:23.986Z</time></trkpt><trkpt lat="40.583395" lon="9.03552"><ele>463.79999999999995</ele><time>2026-04-06T14:31:24.986Z</time></trkpt><trkpt lat="40.5834467" lon="9.03543"><ele>464.2</ele><time>2026-04-06T14:31:25.986Z</time></trkpt><trkpt lat="40.5835033" lon="9.0353617"><ele>464.6</ele><time>2026-04-06T14:31:26.986Z</time></trkpt><trkpt lat="40.5835967" lon="9.0353617"><ele>465.0</ele><time>2026-04-06T14:31:27.987Z</time></trkpt><trkpt lat="40.5837133" lon="9.03541"><ele>465.0</ele><time>2026-04-06T14:31:28.986Z</time></trkpt><trkpt lat="40.58386" lon="9.0354667"><ele>465.0</ele><time>2026-04-06T14:31:29.986Z</time></trkpt><trkpt lat="40.5840267" lon="9.0355317"><ele>465.0</ele><time>2026-04-06T14:31:30.986Z</time></trkpt><trkpt lat="40.58421" lon="9.0355933"><ele>465.0</ele><time>2026-04-06T14:31:31.986Z</time></trkpt><trkpt lat="40.5844" lon="9.0356517"><ele>465.0</ele><time>2026-04-06T14:31:32.986Z</time></trkpt><trkpt lat="40.5814083" lon="9.0398333"><ele>469.33333333333337</ele><time>2026-04-06T14:31:01.986Z</time></trkpt><trkpt lat="40.5813683" lon="9.0395383"><ele>473.6666666666667</ele><time>2026-04-06T14:31:02.987Z</time></trkpt><trkpt lat="40.5813233" lon="9.0392617"><ele>478.0</ele><time>2026-04-06T14:31:03.986Z</time></trkpt><trkpt lat="40.5813067" lon="9.0389883"><ele>478.0</ele><time>2026-04-06T14:31:04.986Z</time></trkpt><trkpt lat="40.581325" lon="9.0387017"><ele>478.0</ele><time>2026-04-06T14:31:05.986Z</time></trkpt><trkpt lat="40.5813667" lon="9.038435"><ele>478.0</ele><time>2026-04-06T14:31:06.986Z</time></trkpt><trkpt lat="40.5814417" lon="9.0381933"><ele>478.6666666666667</ele><time>2026-04-06T14:31:07.986Z</time></trkpt><trkpt lat="40.5815483" lon="9.0379783"><ele>479.33333333333337</ele><time>2026-04-06T14:31:08.986Z</time></trkpt><trkpt lat="40.5816867" lon="9.03778"><ele>480.0</ele><time>2026-04-06T14:31:09.986Z</time></trkpt><trkpt lat="40.5818517" lon="9.0376117"><ele>479.0</ele><time>2026-04-06T14:31:10.986Z</time></trkpt><trkpt lat="40.582025" lon="9.0374867"><ele>478.0</ele><time>2026-04-06T14:31:11.986Z</time></trkpt><trkpt lat="40.5822" lon="9.0373617"><ele>477.0</ele><time>2026-04-06T14:31:12.986Z</time></trkpt><trkpt lat="40.582365" lon="9.0372317"><ele>477.0</ele><time>2026-04-06T14:31:13.987Z</time></trkpt><trkpt lat="40.58254" lon="9.037095"><ele>477.0</ele><time>2026-04-06T14:31:14.986Z</time></trkpt><trkpt lat="40.5826983" lon="9.036935"><ele>477.0</ele><time>2026-04-06T14:31:15.986Z</time></trkpt><trkpt lat="40.582825" lon="9.0367617"><ele>472.33333333333337</ele><time>2026-04-06T14:31:16.987Z</time></trkpt><trkpt lat="40.5829267" lon="9.0365733"><ele>467.6666666666667</ele><time>2026-04-06T14:31:17.986Z</time></trkpt><trkpt lat="40.5830167" lon="9.0363783"><ele>463.0</ele><time>2026-04-06T14:31:18.986Z</time></trkpt><trkpt lat="40.583095" lon="9.0361867"><ele>463.0</ele><time>2026-04-06T14:31:19.986Z</time></trkpt><trkpt lat="40.5831517" lon="9.0360183"><ele>463.0</ele><time>2026-04-06T14:31:20.986Z</time></trkpt><trkpt lat="40.5832033" lon="9.03586"><ele>463.0</ele><time>2026-04-06T14:31:21.986Z</time></trkpt><trkpt lat="40.583275" lon="9.035735"><ele>463.0</ele><time>2026-04-06T14:31:22.986Z</time></trkpt><trkpt lat="40.583335" lon="9.03562"><ele>463.4</ele><time>2026-04-06T14:31:23.986Z</time></trkpt><trkpt lat="40.583395" lon="9.03552"><ele>463.79999999999995</ele><time>2026-04-06T14:31:24.986Z</time></trkpt><trkpt lat="40.5834467" lon="9.03543"><ele>464.2</ele><time>2026-04-06T14:31:25.986Z</time></trkpt><trkpt lat="40.5835033" lon="9.0353617"><ele>464.6</ele><time>2026-04-06T14:31:26.986Z</time></trkpt><trkpt lat="40.5835967" lon="9.0353617"><ele>465.0</ele><time>2026-04-06T14:31:27.987Z</time></trkpt><trkpt lat="40.5837133" lon="9.03541"><ele>465.0</ele><time>2026-04-06T14:31:28.986Z</time></trkpt><trkpt lat="40.58386" lon="9.0354667"><ele>465.0</ele><time>2026-04-06T14:31:29.986Z</time></trkpt><trkpt lat="40.5840267" lon="9.0355317"><ele>465.0</ele><time>2026-04-06T14:31:30.986Z</time></trkpt><trkpt lat="40.58421" lon="9.0355933"><ele>465.0</ele><time>2026-04-06T14:31:31.986Z</time></trkpt><trkpt lat="40.5844" lon="9.0356517"><ele>465.0</ele><time>2026-04-06T14:31:32.986Z</time></trkpt><trkpt lat="40.5846083" lon="9.035715"><ele>465.0</ele><time>2026-04-06T14:31:33.986Z</time></trkpt><trkpt lat="40.5848333" lon="9.0357833"><ele>459.0</ele><time>2026-04-06T14:31:34.986Z</time></trkpt><trkpt lat="40.5850767" lon="9.0358583"><ele>453.0</ele><time>2026-04-06T14:31:35.986Z</time></trkpt><trkpt lat="40.5853133" lon="9.0359283"><ele>448.0</ele><time>2026-04-06T14:31:36.987Z</time></trkpt><trkpt lat="40.5855467" lon="9.036005"><ele>443.0</ele><time>2026-04-06T14:31:37.986Z</time></trkpt><trkpt lat="40.5857983" lon="9.03608"><ele>443.0</ele><time>2026-04-06T14:31:38.987Z</time></trkpt><trkpt lat="40.5860633" lon="9.03615"><ele>443.0</ele><time>2026-04-06T14:31:39.986Z</time></trkpt><trkpt lat="40.5863217" lon="9.0362217"><ele>440.5</ele><time>2026-04-06T14:31:40.986Z</time></trkpt><trkpt lat="40.5865717" lon="9.0362967"><ele>438.0</ele><time>2026-04-06T14:31:41.986Z</time></trkpt><trkpt lat="40.5868183" lon="9.0363733"><ele>437.5</ele><time>2026-04-06T14:31:42.986Z</time></trkpt><trkpt lat="40.5870533" lon="9.036435"><ele>437.0</ele><time>2026-04-06T14:31:43.986Z</time></trkpt><trkpt lat="40.5872717" lon="9.0364883"><ele>437.0</ele><time>2026-04-06T14:31:44.986Z</time></trkpt><trkpt lat="40.58749" lon="9.036555"><ele>437.0</ele><time>2026-04-06T14:31:45.986Z</time></trkpt><trkpt lat="40.587695" lon="9.0366167"><ele>437.0</ele><time>2026-04-06T14:31:46.986Z</time></trkpt><trkpt lat="40.5879" lon="9.036675"><ele>435.3333333333333</ele><time>2026-04-06T14:31:47.986Z</time></trkpt><trkpt lat="40.588105" lon="9.0367283"><ele>433.66666666666663</ele><time>2026-04-06T14:31:48.986Z</time></trkpt><trkpt lat="40.5883" lon="9.0367683"><ele>432.0</ele><time>2026-04-06T14:31:49.986Z</time></trkpt><trkpt lat="40.58848" lon="9.036805"><ele>432.0</ele><time>2026-04-06T14:31:50.986Z</time></trkpt><trkpt lat="40.588665" lon="9.03682"><ele>432.0</ele><time>2026-04-06T14:31:51.985Z</time></trkpt><trkpt lat="40.5888483" lon="9.0368167"><ele>432.0</ele><time>2026-04-06T14:31:52.985Z</time></trkpt><trkpt lat="40.5890517" lon="9.036775"><ele>431.66666666666663</ele><time>2026-04-06T14:31:53.985Z</time></trkpt><trkpt lat="40.5892683" lon="9.0367183"><ele>431.3333333333333</ele><time>2026-04-06T14:31:54.985Z</time></trkpt><trkpt lat="40.5894883" lon="9.0366583"><ele>431.0</ele><time>2026-04-06T14:31:55.985Z</time></trkpt><trkpt lat="40.589715" lon="9.03657"><ele>424.5</ele><time>2026-04-06T14:31:56.985Z</time></trkpt><trkpt lat="40.5899467" lon="9.0364817"><ele>418.0</ele><time>2026-04-06T14:31:57.985Z</time></trkpt><trkpt lat="40.5901833" lon="9.036395"><ele>419.0</ele><time>2026-04-06T14:31:58.985Z</time></trkpt><trkpt lat="40.590435" lon="9.0363"><ele>420.0</ele><time>2026-04-06T14:31:59.985Z</time></trkpt><trkpt lat="40.5906983" lon="9.0361917"><ele>420.0</ele><time>2026-04-06T14:32:00.985Z</time></trkpt><trkpt lat="40.5909483" lon="9.0360683"><ele>420.0</ele><time>2026-04-06T14:32:01.985Z</time></trkpt><trkpt lat="40.5912" lon="9.0359583"><ele>421.0</ele><time>2026-04-06T14:32:02.985Z</time></trkpt><trkpt lat="40.59145" lon="9.0358667"><ele>422.0</ele><time>2026-04-06T14:32:03.985Z</time></trkpt><trkpt lat="40.5917183" lon="9.0357817"><ele>416.5</ele><time>2026-04-06T14:32:04.985Z</time></trkpt><trkpt lat="40.5919867" lon="9.035685"><ele>411.0</ele><time>2026-04-06T14:32:05.985Z</time></trkpt><trkpt lat="40.5922567" lon="9.03561"><ele>410.5</ele><time>2026-04-06T14:32:06.985Z</time></trkpt><trkpt lat="40.592525" lon="9.0355383"><ele>410.0</ele><time>2026-04-06T14:32:07.985Z</time></trkpt><trkpt lat="40.59279" lon="9.0354633"><ele>410.0</ele><time>2026-04-06T14:32:08.985Z</time></trkpt><trkpt lat="40.5930533" lon="9.0353883"><ele>410.0</ele><time>2026-04-06T14:32:09.985Z</time></trkpt><trkpt lat="40.593315" lon="9.03531"><ele>410.0</ele><time>2026-04-06T14:32:10.985Z</time></trkpt><trkpt lat="40.5935817" lon="9.03524"><ele>410.0</ele><time>2026-04-06T14:32:11.985Z</time></trkpt><trkpt lat="40.59385" lon="9.0351617"><ele>410.5</ele><time>2026-04-06T14:32:12.985Z</time></trkpt><trkpt lat="40.5941283" lon="9.0350933"><ele>411.0</ele><time>2026-04-06T14:32:13.985Z</time></trkpt><trkpt lat="40.594395" lon="9.0350167"><ele>407.5</ele><time>2026-04-06T14:32:14.985Z</time></trkpt><trkpt lat="40.5946633" lon="9.03494"><ele>404.0</ele><time>2026-04-06T14:32:15.985Z</time></trkpt><trkpt lat="40.5949233" lon="9.034855"><ele>404.0</ele><time>2026-04-06T14:32:16.985Z</time></trkpt><trkpt lat="40.595185" lon="9.0347583"><ele>404.0</ele><time>2026-04-06T14:32:17.985Z</time></trkpt><trkpt lat="40.5954333" lon="9.034655"><ele>403.5</ele><time>2026-04-06T14:32:18.985Z</time></trkpt><trkpt lat="40.5956817" lon="9.03452"><ele>403.0</ele><time>2026-04-06T14:32:19.985Z</time></trkpt><trkpt lat="40.5959267" lon="9.0343583"><ele>403.0</ele><time>2026-04-06T14:32:20.985Z</time></trkpt><trkpt lat="40.5961633" lon="9.034175"><ele>403.0</ele><time>2026-04-06T14:32:21.985Z</time></trkpt><trkpt lat="40.5964" lon="9.0339767"><ele>402.0</ele><time>2026-04-06T14:32:22.985Z</time></trkpt><trkpt lat="40.5966367" lon="9.033765"><ele>401.0</ele><time>2026-04-06T14:32:23.985Z</time></trkpt><trkpt lat="40.5968767" lon="9.0335483"><ele>400.5</ele><time>2026-04-06T14:32:24.985Z</time></trkpt><trkpt lat="40.5971267" lon="9.0333317"><ele>400.0</ele><time>2026-04-06T14:32:25.985Z</time></trkpt><trkpt lat="40.59739" lon="9.03312"><ele>400.0</ele><time>2026-04-06T14:32:26.985Z</time></trkpt><trkpt lat="40.5976633" lon="9.0329233"><ele>400.0</ele><time>2026-04-06T14:32:27.985Z</time></trkpt><trkpt lat="40.5979333" lon="9.03273"><ele>400.0</ele><time>2026-04-06T14:32:28.985Z</time></trkpt><trkpt lat="40.5982117" lon="9.0325383"><ele>400.0</ele><time>2026-04-06T14:32:29.985Z</time></trkpt><trkpt lat="40.598485" lon="9.0323717"><ele>397.0</ele><time>2026-04-06T14:32:30.985Z</time></trkpt><trkpt lat="40.5987617" lon="9.0322133"><ele>394.0</ele><time>2026-04-06T14:32:31.985Z</time></trkpt><trkpt lat="40.5990467" lon="9.032075"><ele>394.0</ele><time>2026-04-06T14:32:32.985Z</time></trkpt><trkpt lat="40.5993367" lon="9.03196"><ele>394.0</ele><time>2026-04-06T14:32:33.985Z</time></trkpt><trkpt lat="40.5996317" lon="9.0318733"><ele>395.0</ele><time>2026-04-06T14:32:34.985Z</time></trkpt><trkpt lat="40.59993" lon="9.0317817"><ele>396.0</ele><time>2026-04-06T14:32:35.985Z</time></trkpt><trkpt lat="40.6002333" lon="9.0316783"><ele>392.0</ele><time>2026-04-06T14:32:36.985Z</time></trkpt><trkpt lat="40.6005417" lon="9.0315767"><ele>388.0</ele><time>2026-04-06T14:32:37.985Z</time></trkpt><trkpt lat="40.6008383" lon="9.0314833"><ele>388.0</ele><time>2026-04-06T14:32:38.985Z</time></trkpt><trkpt lat="40.6011317" lon="9.0314"><ele>388.0</ele><time>2026-04-06T14:32:39.985Z</time></trkpt><trkpt lat="40.601435" lon="9.03131"><ele>384.5</ele><time>2026-04-06T14:32:40.985Z</time></trkpt><trkpt lat="40.60173" lon="9.031235"><ele>381.0</ele><time>2026-04-06T14:32:41.985Z</time></trkpt><trkpt lat="40.6020383" lon="9.0311517"><ele>374.0</ele><time>2026-04-06T14:32:42.985Z</time></trkpt><trkpt lat="40.6023333" lon="9.031065"><ele>367.0</ele><time>2026-04-06T14:32:43.985Z</time></trkpt><trkpt lat="40.6026317" lon="9.03098"><ele>366.5</ele><time>2026-04-06T14:32:44.985Z</time></trkpt><trkpt lat="40.6029233" lon="9.0308783"><ele>366.0</ele><time>2026-04-06T14:32:45.985Z</time></trkpt><trkpt lat="40.603225" lon="9.0307933"><ele>369.0</ele><time>2026-04-06T14:32:46.985Z</time></trkpt><trkpt lat="40.6035133" lon="9.0306983"><ele>372.0</ele><time>2026-04-06T14:32:47.985Z</time></trkpt><trkpt lat="40.6038083" lon="9.030635"><ele>372.0</ele><time>2026-04-06T14:32:48.985Z</time></trkpt><trkpt lat="40.6040817" lon="9.030555"><ele>372.0</ele><time>2026-04-06T14:32:49.985Z</time></trkpt><trkpt lat="40.60436" lon="9.0304467"><ele>368.5</ele><time>2026-04-06T14:32:50.985Z</time></trkpt><trkpt lat="40.604625" lon="9.0303183"><ele>365.0</ele><time>2026-04-06T14:32:51.985Z</time></trkpt><trkpt lat="40.6048883" lon="9.0301717"><ele>365.0</ele><time>2026-04-06T14:32:52.985Z</time></trkpt><trkpt lat="40.6051517" lon="9.0300167"><ele>365.0</ele><time>2026-04-06T14:32:53.985Z</time></trkpt><trkpt lat="40.60542" lon="9.0298383"><ele>368.0</ele><time>2026-04-06T14:32:54.985Z</time></trkpt><trkpt lat="40.60568" lon="9.0296333"><ele>371.0</ele><time>2026-04-06T14:32:55.985Z</time></trkpt><trkpt lat="40.6059433" lon="9.0294183"><ele>374.0</ele><time>2026-04-06T14:32:56.986Z</time></trkpt><trkpt lat="40.60618" lon="9.0291833"><ele>377.0</ele><time>2026-04-06T14:32:57.985Z</time></trkpt><trkpt lat="40.6064117" lon="9.0289267"><ele>380.0</ele><time>2026-04-06T14:32:58.985Z</time></trkpt><trkpt lat="40.6066333" lon="9.028655"><ele>383.0</ele><time>2026-04-06T14:32:59.985Z</time></trkpt><trkpt lat="40.6068483" lon="9.0283717"><ele>373.5</ele><time>2026-04-06T14:33:00.985Z</time></trkpt><trkpt lat="40.6070417" lon="9.0280633"><ele>364.0</ele><time>2026-04-06T14:33:01.985Z</time></trkpt><trkpt lat="40.6072267" lon="9.0277483"><ele>365.5</ele><time>2026-04-06T14:33:02.985Z</time></trkpt><trkpt lat="40.6074067" lon="9.0274367"><ele>367.0</ele><time>2026-04-06T14:33:03.985Z</time></trkpt><trkpt lat="40.607565" lon="9.0271033"><ele>367.0</ele><time>2026-04-06T14:33:04.985Z</time></trkpt><trkpt lat="40.6077183" lon="9.026765"><ele>367.0</ele><time>2026-04-06T14:33:05.985Z</time></trkpt><trkpt lat="40.6078567" lon="9.0264267"><ele>360.5</ele><time>2026-04-06T14:33:06.985Z</time></trkpt><trkpt lat="40.6079717" lon="9.02608"><ele>354.0</ele><time>2026-04-06T14:33:07.986Z</time></trkpt><trkpt lat="40.60807" lon="9.0257133"><ele>354.0</ele><time>2026-04-06T14:33:08.985Z</time></trkpt><trkpt lat="40.6081583" lon="9.025335"><ele>354.0</ele><time>2026-04-06T14:33:09.985Z</time></trkpt><trkpt lat="40.6082306" lon="9.0249417"><ele>354.5</ele><time>2026-04-06T14:33:10.985Z</time></trkpt><trkpt lat="40.6082824" lon="9.0245431"><ele>355.0</ele><time>2026-04-06T14:33:11.985Z</time></trkpt><trkpt lat="40.6083274" lon="9.0241384"><ele>354.0</ele><time>2026-04-06T14:33:12.985Z</time></trkpt><trkpt lat="40.6083647" lon="9.0237314"><ele>353.0</ele><time>2026-04-06T14:33:13.985Z</time></trkpt><trkpt lat="40.6084017" lon="9.0233379"><ele>348.5</ele><time>2026-04-06T14:33:14.985Z</time></trkpt><trkpt lat="40.6084369" lon="9.0229415"><ele>344.0</ele><time>2026-04-06T14:33:15.985Z</time></trkpt><trkpt lat="40.6084696" lon="9.0225403"><ele>343.5</ele><time>2026-04-06T14:33:16.985Z</time></trkpt><trkpt lat="40.608502" lon="9.0221458"><ele>343.0</ele><time>2026-04-06T14:33:17.985Z</time></trkpt><trkpt lat="40.6085505" lon="9.0217658"><ele>344.5</ele><time>2026-04-06T14:33:18.985Z</time></trkpt><trkpt lat="40.6086197" lon="9.0213974"><ele>346.0</ele><time>2026-04-06T14:33:19.985Z</time></trkpt><trkpt lat="40.6087143" lon="9.0210499"><ele>340.0</ele><time>2026-04-06T14:33:20.985Z</time></trkpt><trkpt lat="40.608825" lon="9.0207164"><ele>334.0</ele><time>2026-04-06T14:33:21.985Z</time></trkpt><trkpt lat="40.6089501" lon="9.020396"><ele>334.0</ele><time>2026-04-06T14:33:22.985Z</time></trkpt><trkpt lat="40.6090974" lon="9.0200827"><ele>334.0</ele><time>2026-04-06T14:33:23.986Z</time></trkpt><trkpt lat="40.6092688" lon="9.0197751"><ele>333.0</ele><time>2026-04-06T14:33:24.985Z</time></trkpt><trkpt lat="40.6094637" lon="9.0194859"><ele>332.0</ele><time>2026-04-06T14:33:25.985Z</time></trkpt><trkpt lat="40.6096722" lon="9.019214"><ele>327.0</ele><time>2026-04-06T14:33:26.985Z</time></trkpt><trkpt lat="40.6098965" lon="9.0189624"><ele>322.0</ele><time>2026-04-06T14:33:27.986Z</time></trkpt><trkpt lat="40.6101221" lon="9.0187317"><ele>319.0</ele><time>2026-04-06T14:33:28.985Z</time></trkpt><trkpt lat="40.6103486" lon="9.0185145"><ele>316.0</ele><time>2026-04-06T14:33:29.985Z</time></trkpt><trkpt lat="40.6105676" lon="9.0183054"><ele>316.0</ele><time>2026-04-06T14:33:30.985Z</time></trkpt><trkpt lat="40.6107831" lon="9.018097"><ele>316.0</ele><time>2026-04-06T14:33:31.985Z</time></trkpt><trkpt lat="40.6109891" lon="9.0178863"><ele>312.5</ele><time>2026-04-06T14:33:32.985Z</time></trkpt><trkpt lat="40.6111836" lon="9.0176597"><ele>309.0</ele><time>2026-04-06T14:33:33.985Z</time></trkpt><trkpt lat="40.6113719" lon="9.0174042"><ele>309.0</ele><time>2026-04-06T14:33:34.985Z</time></trkpt><trkpt lat="40.6115483" lon="9.01712"><ele>309.0</ele><time>2026-04-06T14:33:35.985Z</time></trkpt><trkpt lat="40.6117096" lon="9.0168169"><ele>311.0</ele><time>2026-04-06T14:33:36.985Z</time></trkpt><trkpt lat="40.6118369" lon="9.016498"><ele>313.0</ele><time>2026-04-06T14:33:37.985Z</time></trkpt><trkpt lat="40.6119221" lon="9.0161798"><ele>313.0</ele><time>2026-04-06T14:33:38.985Z</time></trkpt><trkpt lat="40.6119677" lon="9.0158654"><ele>313.0</ele><time>2026-04-06T14:33:39.985Z</time></trkpt><trkpt lat="40.6119999" lon="9.0155368"><ele>304.5</ele><time>2026-04-06T14:33:40.985Z</time></trkpt><trkpt lat="40.6120101" lon="9.0152036"><ele>296.0</ele><time>2026-04-06T14:33:41.985Z</time></trkpt><trkpt lat="40.612011" lon="9.01487"><ele>292.0</ele><time>2026-04-06T14:33:42.985Z</time></trkpt><trkpt lat="40.6119933" lon="9.0145617"><ele>288.0</ele><time>2026-04-06T14:33:43.986Z</time></trkpt><trkpt lat="40.611945" lon="9.01426"><ele>281.0</ele><time>2026-04-06T14:33:44.985Z</time></trkpt><trkpt lat="40.6118833" lon="9.0139483"><ele>274.0</ele><time>2026-04-06T14:33:45.985Z</time></trkpt><trkpt lat="40.6117967" lon="9.01364"><ele>271.5</ele><time>2026-04-06T14:33:46.985Z</time></trkpt><trkpt lat="40.6116767" lon="9.013315"><ele>269.0</ele><time>2026-04-06T14:33:47.985Z</time></trkpt><trkpt lat="40.6115483" lon="9.0129783"><ele>269.0</ele><time>2026-04-06T14:33:48.985Z</time></trkpt><trkpt lat="40.6113983" lon="9.0126567"><ele>269.0</ele><time>2026-04-06T14:33:49.985Z</time></trkpt><trkpt lat="40.6112583" lon="9.012325"><ele>268.0</ele><time>2026-04-06T14:33:50.985Z</time></trkpt><trkpt lat="40.6111233" lon="9.0119967"><ele>267.0</ele><time>2026-04-06T14:33:51.985Z</time></trkpt><trkpt lat="40.610975" lon="9.0116617"><ele>265.5</ele><time>2026-04-06T14:33:52.985Z</time></trkpt><trkpt lat="40.6108383" lon="9.011335"><ele>264.0</ele><time>2026-04-06T14:33:53.985Z</time></trkpt><trkpt lat="40.610705" lon="9.0110133"><ele>264.0</ele><time>2026-04-06T14:33:54.985Z</time></trkpt><trkpt lat="40.6105783" lon="9.01069"><ele>264.0</ele><time>2026-04-06T14:33:55.986Z</time></trkpt><trkpt lat="40.61042" lon="9.0103667"><ele>261.5</ele><time>2026-04-06T14:33:56.985Z</time></trkpt><trkpt lat="40.6102683" lon="9.01004"><ele>259.0</ele><time>2026-04-06T14:33:57.985Z</time></trkpt><trkpt lat="40.6101317" lon="9.00972"><ele>259.0</ele><time>2026-04-06T14:33:58.985Z</time></trkpt><trkpt lat="40.61" lon="9.0093967"><ele>259.0</ele><time>2026-04-06T14:33:59.985Z</time></trkpt><trkpt lat="40.609865" lon="9.00907"><ele>260.0</ele><time>2026-04-06T14:34:00.985Z</time></trkpt><trkpt lat="40.60973" lon="9.0087417"><ele>261.0</ele><time>2026-04-06T14:34:01.985Z</time></trkpt><trkpt lat="40.6095917" lon="9.0084217"><ele>260.0</ele><time>2026-04-06T14:34:02.985Z</time></trkpt><trkpt lat="40.6094467" lon="9.008105"><ele>259.0</ele><time>2026-04-06T14:34:03.985Z</time></trkpt><trkpt lat="40.6093117" lon="9.0078033"><ele>259.0</ele><time>2026-04-06T14:34:04.985Z</time></trkpt><trkpt lat="40.6091767" lon="9.0075067"><ele>259.0</ele><time>2026-04-06T14:34:05.985Z</time></trkpt><trkpt lat="40.60905" lon="9.007205"><ele>260.0</ele><time>2026-04-06T14:34:06.985Z</time></trkpt><trkpt lat="40.6089217" lon="9.006915"><ele>261.0</ele><time>2026-04-06T14:34:07.985Z</time></trkpt><trkpt lat="40.6087983" lon="9.0066233"><ele>261.0</ele><time>2026-04-06T14:34:08.985Z</time></trkpt><trkpt lat="40.6087" lon="9.0063467"><ele>261.0</ele><time>2026-04-06T14:34:09.985Z</time></trkpt><trkpt lat="40.6086167" lon="9.0060567"><ele>255.0</ele><time>2026-04-06T14:34:10.985Z</time></trkpt><trkpt lat="40.6085183" lon="9.0057733"><ele>249.0</ele><time>2026-04-06T14:34:11.986Z</time></trkpt><trkpt lat="40.6084317" lon="9.0054817"><ele>249.0</ele><time>2026-04-06T14:34:12.985Z</time></trkpt><trkpt lat="40.608355" lon="9.0051917"><ele>249.0</ele><time>2026-04-06T14:34:13.985Z</time></trkpt><trkpt lat="40.6082967" lon="9.0048867"><ele>249.0</ele><time>2026-04-06T14:34:14.985Z</time></trkpt><trkpt lat="40.6082483" lon="9.0045833"><ele>249.0</ele><time>2026-04-06T14:34:15.985Z</time></trkpt><trkpt lat="40.6081983" lon="9.00429"><ele>247.66666666666669</ele><time>2026-04-06T14:34:16.985Z</time></trkpt><trkpt lat="40.60814" lon="9.00401"><ele>246.33333333333334</ele><time>2026-04-06T14:34:17.985Z</time></trkpt><trkpt lat="40.6080933" lon="9.0037233"><ele>245.0</ele><time>2026-04-06T14:34:18.985Z</time></trkpt><trkpt lat="40.60805" lon="9.0034417"><ele>241.33333333333334</ele><time>2026-04-06T14:34:19.985Z</time></trkpt><trkpt lat="40.6080067" lon="9.0031717"><ele>237.66666666666669</ele><time>2026-04-06T14:34:20.985Z</time></trkpt><trkpt lat="40.6079683" lon="9.0029033"><ele>234.0</ele><time>2026-04-06T14:34:21.985Z</time></trkpt><trkpt lat="40.6079433" lon="9.0026417"><ele>232.66666666666669</ele><time>2026-04-06T14:34:22.985Z</time></trkpt><trkpt lat="40.6079333" lon="9.0023933"><ele>231.33333333333334</ele><time>2026-04-06T14:34:23.985Z</time></trkpt><trkpt lat="40.6079333" lon="9.0021517"><ele>230.0</ele><time>2026-04-06T14:34:24.985Z</time></trkpt><trkpt lat="40.6079317" lon="9.0019433"><ele>230.0</ele><time>2026-04-06T14:34:25.985Z</time></trkpt><trkpt lat="40.6079317" lon="9.0017583"><ele>230.0</ele><time>2026-04-06T14:34:26.985Z</time></trkpt><trkpt lat="40.6079517" lon="9.00158"><ele>230.0</ele><time>2026-04-06T14:34:27.985Z</time></trkpt><trkpt lat="40.6079883" lon="9.0014217"><ele>230.0</ele><time>2026-04-06T14:34:28.985Z</time></trkpt><trkpt lat="40.60802" lon="9.001265"><ele>230.0</ele><time>2026-04-06T14:34:29.985Z</time></trkpt><trkpt lat="40.6080633" lon="9.0010983"><ele>230.0</ele><time>2026-04-06T14:34:30.985Z</time></trkpt><trkpt lat="40.6080767" lon="9.000925"><ele>230.0</ele><time>2026-04-06T14:34:31.985Z</time></trkpt><trkpt lat="40.6080967" lon="9.000735"><ele>230.0</ele><time>2026-04-06T14:34:32.985Z</time></trkpt><trkpt lat="40.6081217" lon="9.00053"><ele>230.0</ele><time>2026-04-06T14:34:33.985Z</time></trkpt><trkpt lat="40.6081783" lon="9.0003"><ele>230.0</ele><time>2026-04-06T14:34:34.985Z</time></trkpt><trkpt lat="40.60823" lon="9.0000433"><ele>230.0</ele><time>2026-04-06T14:34:35.985Z</time></trkpt><trkpt lat="40.6082633" lon="8.9997733"><ele>230.0</ele><time>2026-04-06T14:34:36.985Z</time></trkpt><trkpt lat="40.6082983" lon="8.9994817"><ele>230.0</ele><time>2026-04-06T14:34:37.985Z</time></trkpt><trkpt lat="40.6083233" lon="8.999185"><ele>229.66666666666669</ele><time>2026-04-06T14:34:38.985Z</time></trkpt><trkpt lat="40.6083483" lon="8.9988933"><ele>229.33333333333331</ele><time>2026-04-06T14:34:39.985Z</time></trkpt><trkpt lat="40.6083717" lon="8.998615"><ele>229.0</ele><time>2026-04-06T14:34:40.985Z</time></trkpt><trkpt lat="40.6083867" lon="8.9983417"><ele>228.33333333333331</ele><time>2026-04-06T14:34:41.985Z</time></trkpt><trkpt lat="40.6084067" lon="8.9980733"><ele>227.66666666666669</ele><time>2026-04-06T14:34:42.985Z</time></trkpt><trkpt lat="40.6084317" lon="8.9978167"><ele>227.0</ele><time>2026-04-06T14:34:43.985Z</time></trkpt><trkpt lat="40.6084533" lon="8.9975683"><ele>226.0</ele><time>2026-04-06T14:34:44.985Z</time></trkpt><trkpt lat="40.6084783" lon="8.99733"><ele>225.0</ele><time>2026-04-06T14:34:45.985Z</time></trkpt><trkpt lat="40.6084917" lon="8.9971033"><ele>224.0</ele><time>2026-04-06T14:34:46.985Z</time></trkpt><trkpt lat="40.6085217" lon="8.9968967"><ele>224.0</ele><time>2026-04-06T14:34:47.985Z</time></trkpt><trkpt lat="40.608555" lon="8.99669"><ele>224.0</ele><time>2026-04-06T14:34:48.985Z</time></trkpt><trkpt lat="40.608605" lon="8.9964933"><ele>224.0</ele><time>2026-04-06T14:34:49.985Z</time></trkpt><trkpt lat="40.60866" lon="8.9963017"><ele>223.5</ele><time>2026-04-06T14:34:50.985Z</time></trkpt><trkpt lat="40.608725" lon="8.9961317"><ele>223.0</ele><time>2026-04-06T14:34:51.985Z</time></trkpt><trkpt lat="40.608815" lon="8.9959733"><ele>222.5</ele><time>2026-04-06T14:34:52.985Z</time></trkpt><trkpt lat="40.6088967" lon="8.99582"><ele>222.0</ele><time>2026-04-06T14:34:53.985Z</time></trkpt><trkpt lat="40.6089867" lon="8.9956783"><ele>222.0</ele><time>2026-04-06T14:34:54.985Z</time></trkpt><trkpt lat="40.6090833" lon="8.9955367"><ele>222.0</ele><time>2026-04-06T14:34:55.985Z</time></trkpt><trkpt lat="40.6091783" lon="8.9954017"><ele>222.0</ele><time>2026-04-06T14:34:56.985Z</time></trkpt><trkpt lat="40.609285" lon="8.995265"><ele>222.0</ele><time>2026-04-06T14:34:57.985Z</time></trkpt><trkpt lat="40.60939" lon="8.995135"><ele>221.5</ele><time>2026-04-06T14:34:58.985Z</time></trkpt><trkpt lat="40.609495" lon="8.9950083"><ele>221.0</ele><time>2026-04-06T14:34:59.985Z</time></trkpt><trkpt lat="40.6096067" lon="8.9949"><ele>220.5</ele><time>2026-04-06T14:35:00.985Z</time></trkpt><trkpt lat="40.6097217" lon="8.994805"><ele>220.0</ele><time>2026-04-06T14:35:01.985Z</time></trkpt><trkpt lat="40.60984" lon="8.9947"><ele>219.75</ele><time>2026-04-06T14:35:02.985Z</time></trkpt><trkpt lat="40.6099617" lon="8.9945967"><ele>219.5</ele><time>2026-04-06T14:35:03.985Z</time></trkpt><trkpt lat="40.6100833" lon="8.994485"><ele>219.25</ele><time>2026-04-06T14:35:04.985Z</time></trkpt><trkpt lat="40.61021" lon="8.99437"><ele>219.0</ele><time>2026-04-06T14:35:05.985Z</time></trkpt><trkpt lat="40.6103433" lon="8.9942583"><ele>219.0</ele><time>2026-04-06T14:35:06.985Z</time></trkpt><trkpt lat="40.61048" lon="8.9941383"><ele>219.0</ele><time>2026-04-06T14:35:07.985Z</time></trkpt><trkpt lat="40.6106017" lon="8.99403"><ele>219.0</ele><time>2026-04-06T14:35:08.985Z</time></trkpt><trkpt lat="40.610735" lon="8.9939167"><ele>219.0</ele><time>2026-04-06T14:35:09.985Z</time></trkpt><trkpt lat="40.6108567" lon="8.993815"><ele>219.0</ele><time>2026-04-06T14:35:10.985Z</time></trkpt><trkpt lat="40.6109667" lon="8.993735"><ele>219.0</ele><time>2026-04-06T14:35:11.985Z</time></trkpt><trkpt lat="40.611055" lon="8.9936617"><ele>219.0</ele><time>2026-04-06T14:35:12.985Z</time></trkpt><trkpt lat="40.6111417" lon="8.9935833"><ele>218.5</ele><time>2026-04-06T14:35:13.985Z</time></trkpt><trkpt lat="40.6112283" lon="8.993505"><ele>218.0</ele><time>2026-04-06T14:35:14.985Z</time></trkpt><trkpt lat="40.611325" lon="8.9934367"><ele>217.5</ele><time>2026-04-06T14:35:15.985Z</time></trkpt><trkpt lat="40.6114367" lon="8.993375"><ele>217.0</ele><time>2026-04-06T14:35:16.985Z</time></trkpt><trkpt lat="40.6115683" lon="8.9933183"><ele>216.66666666666666</ele><time>2026-04-06T14:35:17.985Z</time></trkpt><trkpt lat="40.6117267" lon="8.9932767"><ele>216.33333333333331</ele><time>2026-04-06T14:35:18.985Z</time></trkpt><trkpt lat="40.6119033" lon="8.9932317"><ele>216.0</ele><time>2026-04-06T14:35:19.985Z</time></trkpt><trkpt lat="40.612085" lon="8.99318"><ele>216.0</ele><time>2026-04-06T14:35:20.985Z</time></trkpt><trkpt lat="40.6122733" lon="8.99311"><ele>216.0</ele><time>2026-04-06T14:35:21.985Z</time></trkpt><trkpt lat="40.61246" lon="8.9930417"><ele>216.0</ele><time>2026-04-06T14:35:22.985Z</time></trkpt><trkpt lat="40.6126467" lon="8.9929717"><ele>215.0</ele><time>2026-04-06T14:35:23.985Z</time></trkpt><trkpt lat="40.612835" lon="8.9928983"><ele>214.0</ele><time>2026-04-06T14:35:24.985Z</time></trkpt><trkpt lat="40.6130333" lon="8.9928183"><ele>213.0</ele><time>2026-04-06T14:35:25.985Z</time></trkpt><trkpt lat="40.6132517" lon="8.99275"><ele>213.0</ele><time>2026-04-06T14:35:26.985Z</time></trkpt><trkpt lat="40.61345" lon="8.9926733"><ele>213.0</ele><time>2026-04-06T14:35:27.985Z</time></trkpt><trkpt lat="40.6136567" lon="8.9925933"><ele>213.0</ele><time>2026-04-06T14:35:28.985Z</time></trkpt><trkpt lat="40.613865" lon="8.9925117"><ele>214.0</ele><time>2026-04-06T14:35:29.985Z</time></trkpt><trkpt lat="40.614095" lon="8.9924167"><ele>215.0</ele><time>2026-04-06T14:35:30.985Z</time></trkpt><trkpt lat="40.6143167" lon="8.99233"><ele>214.66666666666669</ele><time>2026-04-06T14:35:31.985Z</time></trkpt><trkpt lat="40.6145317" lon="8.9922567"><ele>214.33333333333331</ele><time>2026-04-06T14:35:32.985Z</time></trkpt><trkpt lat="40.614735" lon="8.99218"><ele>214.0</ele><time>2026-04-06T14:35:33.985Z</time></trkpt><trkpt lat="40.6149417" lon="8.9920983"><ele>214.0</ele><time>2026-04-06T14:35:34.985Z</time></trkpt><trkpt lat="40.615145" lon="8.99201"><ele>214.0</ele><time>2026-04-06T14:35:35.985Z</time></trkpt><trkpt lat="40.6153617" lon="8.9919217"><ele>214.0</ele><time>2026-04-06T14:35:36.985Z</time></trkpt><trkpt lat="40.615575" lon="8.9918467"><ele>212.0</ele><time>2026-04-06T14:35:37.985Z</time></trkpt><trkpt lat="40.6157883" lon="8.9917667"><ele>210.0</ele><time>2026-04-06T14:35:38.985Z</time></trkpt><trkpt lat="40.6160117" lon="8.99168"><ele>211.0</ele><time>2026-04-06T14:35:39.985Z</time></trkpt><trkpt lat="40.61623" lon="8.9916033"><ele>212.0</ele><time>2026-04-06T14:35:40.985Z</time></trkpt><trkpt lat="40.61645" lon="8.9915283"><ele>212.0</ele><time>2026-04-06T14:35:41.985Z</time></trkpt><trkpt lat="40.61666" lon="8.9914433"><ele>212.0</ele><time>2026-04-06T14:35:42.985Z</time></trkpt><trkpt lat="40.61688" lon="8.991355"><ele>210.0</ele><time>2026-04-06T14:35:43.985Z</time></trkpt><trkpt lat="40.6170967" lon="8.9912717"><ele>208.0</ele><time>2026-04-06T14:35:44.985Z</time></trkpt><trkpt lat="40.6173267" lon="8.991185"><ele>208.0</ele><time>2026-04-06T14:35:45.985Z</time></trkpt><trkpt lat="40.6175467" lon="8.9911183"><ele>208.0</ele><time>2026-04-06T14:35:46.986Z</time></trkpt><trkpt lat="40.617765" lon="8.9910283"><ele>207.66666666666666</ele><time>2026-04-06T14:35:47.985Z</time></trkpt><trkpt lat="40.6179717" lon="8.990955"><ele>207.33333333333331</ele><time>2026-04-06T14:35:48.985Z</time></trkpt><trkpt lat="40.6181583" lon="8.990875"><ele>207.0</ele><time>2026-04-06T14:35:49.985Z</time></trkpt><trkpt lat="40.61833" lon="8.9908283"><ele>206.66666666666669</ele><time>2026-04-06T14:35:50.985Z</time></trkpt><trkpt lat="40.6185217" lon="8.990815"><ele>206.33333333333334</ele><time>2026-04-06T14:35:51.985Z</time></trkpt><trkpt lat="40.6187" lon="8.9908733"><ele>206.0</ele><time>2026-04-06T14:35:52.985Z</time></trkpt><trkpt lat="40.6188833" lon="8.99098"><ele>206.66666666666669</ele><time>2026-04-06T14:35:53.985Z</time></trkpt><trkpt lat="40.6190817" lon="8.9910833"><ele>207.33333333333331</ele><time>2026-04-06T14:35:54.985Z</time></trkpt><trkpt lat="40.6192983" lon="8.9911833"><ele>208.0</ele><time>2026-04-06T14:35:55.985Z</time></trkpt><trkpt lat="40.619505" lon="8.991285"><ele>208.0</ele><time>2026-04-06T14:35:56.985Z</time></trkpt><trkpt lat="40.6197267" lon="8.9913883"><ele>208.0</ele><time>2026-04-06T14:35:57.986Z</time></trkpt><trkpt lat="40.6199467" lon="8.9914883"><ele>208.0</ele><time>2026-04-06T14:35:58.985Z</time></trkpt><trkpt lat="40.6201667" lon="8.991595"><ele>208.0</ele><time>2026-04-06T14:35:59.985Z</time></trkpt><trkpt lat="40.6204083" lon="8.991695"><ele>210.5</ele><time>2026-04-06T14:36:00.985Z</time></trkpt><trkpt lat="40.62064" lon="8.9918017"><ele>213.0</ele><time>2026-04-06T14:36:01.985Z</time></trkpt><trkpt lat="40.6208783" lon="8.9918983"><ele>213.0</ele><time>2026-04-06T14:36:02.985Z</time></trkpt><trkpt lat="40.621115" lon="8.99198"><ele>213.0</ele><time>2026-04-06T14:36:03.985Z</time></trkpt><trkpt lat="40.62135" lon="8.9920767"><ele>209.5</ele><time>2026-04-06T14:36:04.985Z</time></trkpt><trkpt lat="40.6215867" lon="8.99218"><ele>206.0</ele><time>2026-04-06T14:36:05.985Z</time></trkpt><trkpt lat="40.6218217" lon="8.99227"><ele>204.0</ele><time>2026-04-06T14:36:06.985Z</time></trkpt><trkpt lat="40.6220433" lon="8.9923667"><ele>202.0</ele><time>2026-04-06T14:36:07.985Z</time></trkpt><trkpt lat="40.6222617" lon="8.99247"><ele>206.0</ele><time>2026-04-06T14:36:08.985Z</time></trkpt><trkpt lat="40.6224833" lon="8.9925717"><ele>210.0</ele><time>2026-04-06T14:36:09.985Z</time></trkpt><trkpt lat="40.6227117" lon="8.9926617"><ele>207.0</ele><time>2026-04-06T14:36:10.985Z</time></trkpt><trkpt lat="40.622935" lon="8.9927383"><ele>204.0</ele><time>2026-04-06T14:36:11.985Z</time></trkpt><trkpt lat="40.6231717" lon="8.99282"><ele>204.0</ele><time>2026-04-06T14:36:12.985Z</time></trkpt><trkpt lat="40.6234033" lon="8.9929"><ele>204.0</ele><time>2026-04-06T14:36:13.986Z</time></trkpt><trkpt lat="40.6236183" lon="8.9929733"><ele>202.66666666666669</ele><time>2026-04-06T14:36:14.985Z</time></trkpt><trkpt lat="40.62382" lon="8.99304"><ele>201.33333333333334</ele><time>2026-04-06T14:36:15.985Z</time></trkpt><trkpt lat="40.62401" lon="8.9931117"><ele>200.0</ele><time>2026-04-06T14:36:16.985Z</time></trkpt><trkpt lat="40.6241917" lon="8.9931817"><ele>200.0</ele><time>2026-04-06T14:36:17.985Z</time></trkpt><trkpt lat="40.6243833" lon="8.9932533"><ele>200.0</ele><time>2026-04-06T14:36:18.985Z</time></trkpt><trkpt lat="40.62459" lon="8.9932917"><ele>200.0</ele><time>2026-04-06T14:36:19.985Z</time></trkpt><trkpt lat="40.624805" lon="8.9932783"><ele>199.33333333333334</ele><time>2026-04-06T14:36:20.985Z</time></trkpt><trkpt lat="40.6250067" lon="8.9932017"><ele>198.66666666666669</ele><time>2026-04-06T14:36:21.985Z</time></trkpt><trkpt lat="40.6252033" lon="8.9930783"><ele>198.0</ele><time>2026-04-06T14:36:22.985Z</time></trkpt><trkpt lat="40.6253917" lon="8.992935"><ele>198.0</ele><time>2026-04-06T14:36:23.985Z</time></trkpt><trkpt lat="40.6255617" lon="8.9928067"><ele>198.0</ele><time>2026-04-06T14:36:24.985Z</time></trkpt><trkpt lat="40.62575" lon="8.9926617"><ele>198.0</ele><time>2026-04-06T14:36:25.985Z</time></trkpt><trkpt lat="40.625935" lon="8.992535"><ele>197.66666666666669</ele><time>2026-04-06T14:36:26.985Z</time></trkpt><trkpt lat="40.6261" lon="8.99241"><ele>197.33333333333334</ele><time>2026-04-06T14:36:27.985Z</time></trkpt><trkpt lat="40.626245" lon="8.99229"><ele>197.0</ele><time>2026-04-06T14:36:28.985Z</time></trkpt><trkpt lat="40.62638" lon="8.9921317"><ele>199.0</ele><time>2026-04-06T14:36:29.985Z</time></trkpt><trkpt lat="40.6264917" lon="8.9919317"><ele>201.0</ele><time>2026-04-06T14:36:30.985Z</time></trkpt><trkpt lat="40.6266083" lon="8.9917183"><ele>203.0</ele><time>2026-04-06T14:36:31.985Z</time></trkpt><trkpt lat="40.6267417" lon="8.99149"><ele>203.0</ele><time>2026-04-06T14:36:32.985Z</time></trkpt><trkpt lat="40.6268633" lon="8.9912483"><ele>203.0</ele><time>2026-04-06T14:36:33.985Z</time></trkpt><trkpt lat="40.626985" lon="8.9909783"><ele>203.0</ele><time>2026-04-06T14:36:34.985Z</time></trkpt><trkpt lat="40.6270767" lon="8.9907"><ele>203.0</ele><time>2026-04-06T14:36:35.985Z</time></trkpt><trkpt lat="40.6271767" lon="8.9904033"><ele>203.0</ele><time>2026-04-06T14:36:36.985Z</time></trkpt><trkpt lat="40.6272683" lon="8.9901167"><ele>203.0</ele><time>2026-04-06T14:36:37.985Z</time></trkpt><trkpt lat="40.6273583" lon="8.9898383"><ele>202.0</ele><time>2026-04-06T14:36:38.985Z</time></trkpt><trkpt lat="40.6274517" lon="8.989575"><ele>201.0</ele><time>2026-04-06T14:36:39.985Z</time></trkpt><trkpt lat="40.6275317" lon="8.9893267"><ele>200.0</ele><time>2026-04-06T14:36:40.985Z</time></trkpt><trkpt lat="40.6275967" lon="8.98909"><ele>200.0</ele><time>2026-04-06T14:36:41.985Z</time></trkpt><trkpt lat="40.6276917" lon="8.9888567"><ele>200.0</ele><time>2026-04-06T14:36:42.985Z</time></trkpt><trkpt lat="40.6277683" lon="8.988645"><ele>200.0</ele><time>2026-04-06T14:36:43.985Z</time></trkpt><trkpt lat="40.6278567" lon="8.9884517"><ele>201.66666666666669</ele><time>2026-04-06T14:36:44.985Z</time></trkpt><trkpt lat="40.6279533" lon="8.988275"><ele>203.33333333333331</ele><time>2026-04-06T14:36:45.985Z</time></trkpt><trkpt lat="40.6280483" lon="8.988115"><ele>205.0</ele><time>2026-04-06T14:36:46.985Z</time></trkpt><trkpt lat="40.62815" lon="8.98798"><ele>205.0</ele><time>2026-04-06T14:36:47.985Z</time></trkpt><trkpt lat="40.628245" lon="8.9878467"><ele>205.0</ele><time>2026-04-06T14:36:48.985Z</time></trkpt><trkpt lat="40.62833" lon="8.987735"><ele>205.0</ele><time>2026-04-06T14:36:49.985Z</time></trkpt><trkpt lat="40.62841" lon="8.98764"><ele>205.0</ele><time>2026-04-06T14:36:50.985Z</time></trkpt><trkpt lat="40.6284717" lon="8.9875583"><ele>204.8</ele><time>2026-04-06T14:36:51.985Z</time></trkpt><trkpt lat="40.6285367" lon="8.987475"><ele>204.6</ele><time>2026-04-06T14:36:52.985Z</time></trkpt><trkpt lat="40.6285933" lon="8.98739"><ele>204.39999999999998</ele><time>2026-04-06T14:36:53.985Z</time></trkpt><trkpt lat="40.6286683" lon="8.987285"><ele>204.2</ele><time>2026-04-06T14:36:54.985Z</time></trkpt><trkpt lat="40.6287683" lon="8.987185"><ele>204.0</ele><time>2026-04-06T14:36:55.985Z</time></trkpt><trkpt lat="40.62888" lon="8.9870817"><ele>203.0</ele><time>2026-04-06T14:36:56.985Z</time></trkpt><trkpt lat="40.62901" lon="8.9869933"><ele>202.0</ele><time>2026-04-06T14:36:57.985Z</time></trkpt><trkpt lat="40.6291617" lon="8.9869367"><ele>201.0</ele><time>2026-04-06T14:36:58.985Z</time></trkpt><trkpt lat="40.6293433" lon="8.9868917"><ele>199.33333333333331</ele><time>2026-04-06T14:36:59.985Z</time></trkpt><trkpt lat="40.6295417" lon="8.986885"><ele>197.66666666666666</ele><time>2026-04-06T14:37:00.985Z</time></trkpt><trkpt lat="40.6297483" lon="8.986875"><ele>196.0</ele><time>2026-04-06T14:37:01.985Z</time></trkpt><trkpt lat="40.62997" lon="8.986875"><ele>196.0</ele><time>2026-04-06T14:37:02.985Z</time></trkpt><trkpt lat="40.63019" lon="8.9868767"><ele>196.0</ele><time>2026-04-06T14:37:03.985Z</time></trkpt><trkpt lat="40.6304183" lon="8.9868633"><ele>196.0</ele><time>2026-04-06T14:37:04.985Z</time></trkpt><trkpt lat="40.6306533" lon="8.9868533"><ele>195.0</ele><time>2026-04-06T14:37:05.985Z</time></trkpt><trkpt lat="40.6308967" lon="8.9868433"><ele>194.0</ele><time>2026-04-06T14:37:06.985Z</time></trkpt><trkpt lat="40.631155" lon="8.9868283"><ele>193.0</ele><time>2026-04-06T14:37:07.985Z</time></trkpt><trkpt lat="40.6314083" lon="8.9868217"><ele>192.0</ele><time>2026-04-06T14:37:08.985Z</time></trkpt><trkpt lat="40.63166" lon="8.9868033"><ele>192.0</ele><time>2026-04-06T14:37:09.985Z</time></trkpt><trkpt lat="40.6319167" lon="8.986775"><ele>192.0</ele><time>2026-04-06T14:37:10.986Z</time></trkpt><trkpt lat="40.6321767" lon="8.9867633"><ele>190.0</ele><time>2026-04-06T14:37:11.985Z</time></trkpt><trkpt lat="40.6324283" lon="8.98676"><ele>188.0</ele><time>2026-04-06T14:37:12.985Z</time></trkpt><trkpt lat="40.632685" lon="8.98676"><ele>188.0</ele><time>2026-04-06T14:37:13.985Z</time></trkpt><trkpt lat="40.6329367" lon="8.986755"><ele>188.0</ele><time>2026-04-06T14:37:14.985Z</time></trkpt><trkpt lat="40.6331933" lon="8.9867433"><ele>188.0</ele><time>2026-04-06T14:37:15.985Z</time></trkpt><trkpt lat="40.6334483" lon="8.9867317"><ele>188.0</ele><time>2026-04-06T14:37:16.985Z</time></trkpt><trkpt lat="40.6337067" lon="8.9867217"><ele>187.5</ele><time>2026-04-06T14:37:17.985Z</time></trkpt><trkpt lat="40.6339783" lon="8.986705"><ele>187.0</ele><time>2026-04-06T14:37:18.985Z</time></trkpt><trkpt lat="40.634235" lon="8.9866883"><ele>187.5</ele><time>2026-04-06T14:37:19.985Z</time></trkpt><trkpt lat="40.6344967" lon="8.9866733"><ele>188.0</ele><time>2026-04-06T14:37:20.985Z</time></trkpt><trkpt lat="40.6347517" lon="8.9866683"><ele>188.0</ele><time>2026-04-06T14:37:21.985Z</time></trkpt><trkpt lat="40.6350117" lon="8.9866583"><ele>188.0</ele><time>2026-04-06T14:37:22.985Z</time></trkpt><trkpt lat="40.63527" lon="8.9866517"><ele>187.0</ele><time>2026-04-06T14:37:23.985Z</time></trkpt><trkpt lat="40.63553" lon="8.9866433"><ele>186.0</ele><time>2026-04-06T14:37:24.985Z</time></trkpt><trkpt lat="40.6357783" lon="8.9866433"><ele>186.0</ele><time>2026-04-06T14:37:25.985Z</time></trkpt><trkpt lat="40.63603" lon="8.9866167"><ele>186.0</ele><time>2026-04-06T14:37:26.985Z</time></trkpt><trkpt lat="40.6362833" lon="8.9866"><ele>186.0</ele><time>2026-04-06T14:37:27.985Z</time></trkpt><trkpt lat="40.6365267" lon="8.9865833"><ele>186.0</ele><time>2026-04-06T14:37:28.985Z</time></trkpt><trkpt lat="40.6367617" lon="8.98658"><ele>186.5</ele><time>2026-04-06T14:37:29.985Z</time></trkpt><trkpt lat="40.6369983" lon="8.98658"><ele>187.0</ele><time>2026-04-06T14:37:30.985Z</time></trkpt><trkpt lat="40.6372283" lon="8.9865667"><ele>187.0</ele><time>2026-04-06T14:37:31.985Z</time></trkpt><trkpt lat="40.63745" lon="8.9865217"><ele>187.0</ele><time>2026-04-06T14:37:32.985Z</time></trkpt><trkpt lat="40.637645" lon="8.9864317"><ele>187.0</ele><time>2026-04-06T14:37:33.985Z</time></trkpt><trkpt lat="40.637835" lon="8.9863067"><ele>187.0</ele><time>2026-04-06T14:37:34.985Z</time></trkpt><trkpt lat="40.6380117" lon="8.9861433"><ele>187.0</ele><time>2026-04-06T14:37:35.985Z</time></trkpt><trkpt lat="40.6381867" lon="8.9859433"><ele>187.0</ele><time>2026-04-06T14:37:36.985Z</time></trkpt><trkpt lat="40.6383367" lon="8.9857283"><ele>187.0</ele><time>2026-04-06T14:37:37.986Z</time></trkpt><trkpt lat="40.6384933" lon="8.985505"><ele>187.0</ele><time>2026-04-06T14:37:38.985Z</time></trkpt><trkpt lat="40.6386633" lon="8.985275"><ele>185.5</ele><time>2026-04-06T14:37:39.986Z</time></trkpt><trkpt lat="40.6388517" lon="8.98504"><ele>184.0</ele><time>2026-04-06T14:37:40.985Z</time></trkpt><trkpt lat="40.639045" lon="8.9847967"><ele>184.0</ele><time>2026-04-06T14:37:41.985Z</time></trkpt><trkpt lat="40.6392283" lon="8.9845667"><ele>184.0</ele><time>2026-04-06T14:37:42.985Z</time></trkpt><trkpt lat="40.6394233" lon="8.9843333"><ele>182.0</ele><time>2026-04-06T14:37:43.985Z</time></trkpt><trkpt lat="40.6396217" lon="8.9840867"><ele>180.0</ele><time>2026-04-06T14:37:44.985Z</time></trkpt><trkpt lat="40.6398017" lon="8.9838433"><ele>180.0</ele><time>2026-04-06T14:37:45.985Z</time></trkpt><trkpt lat="40.6400167" lon="8.9836"><ele>180.0</ele><time>2026-04-06T14:37:46.985Z</time></trkpt><trkpt lat="40.6401983" lon="8.9833567"><ele>181.0</ele><time>2026-04-06T14:37:47.985Z</time></trkpt><trkpt lat="40.6403867" lon="8.98312"><ele>182.0</ele><time>2026-04-06T14:37:48.985Z</time></trkpt><trkpt lat="40.6405667" lon="8.9828833"><ele>182.0</ele><time>2026-04-06T14:37:49.985Z</time></trkpt><trkpt lat="40.6407633" lon="8.9826267"><ele>182.0</ele><time>2026-04-06T14:37:50.985Z</time></trkpt><trkpt lat="40.6409417" lon="8.9823917"><ele>182.5</ele><time>2026-04-06T14:37:51.985Z</time></trkpt><trkpt lat="40.6411283" lon="8.9821517"><ele>183.0</ele><time>2026-04-06T14:37:52.985Z</time></trkpt><trkpt lat="40.64132" lon="8.98192"><ele>184.5</ele><time>2026-04-06T14:37:53.985Z</time></trkpt><trkpt lat="40.6415083" lon="8.9816817"><ele>186.0</ele><time>2026-04-06T14:37:54.985Z</time></trkpt><trkpt lat="40.641705" lon="8.981445"><ele>186.0</ele><time>2026-04-06T14:37:55.985Z</time></trkpt><trkpt lat="40.64189" lon="8.9812133"><ele>186.0</ele><time>2026-04-06T14:37:56.985Z</time></trkpt><trkpt lat="40.64208" lon="8.980975"><ele>185.0</ele><time>2026-04-06T14:37:57.985Z</time></trkpt><trkpt lat="40.6422683" lon="8.9807483"><ele>184.0</ele><time>2026-04-06T14:37:58.985Z</time></trkpt><trkpt lat="40.6424483" lon="8.980525"><ele>184.0</ele><time>2026-04-06T14:37:59.985Z</time></trkpt><trkpt lat="40.64262" lon="8.98029"><ele>184.0</ele><time>2026-04-06T14:38:00.985Z</time></trkpt><trkpt lat="40.6427967" lon="8.9800617"><ele>185.5</ele><time>2026-04-06T14:38:01.985Z</time></trkpt><trkpt lat="40.6429817" lon="8.9798483"><ele>187.0</ele><time>2026-04-06T14:38:02.985Z</time></trkpt><trkpt lat="40.6431733" lon="8.9796517"><ele>187.0</ele><time>2026-04-06T14:38:03.985Z</time></trkpt><trkpt lat="40.6433667" lon="8.9794667"><ele>187.0</ele><time>2026-04-06T14:38:04.985Z</time></trkpt><trkpt lat="40.643575" lon="8.9792833"><ele>188.0</ele><time>2026-04-06T14:38:05.985Z</time></trkpt><trkpt lat="40.6437967" lon="8.9791233"><ele>189.0</ele><time>2026-04-06T14:38:06.985Z</time></trkpt><trkpt lat="40.6440217" lon="8.9789917"><ele>189.0</ele><time>2026-04-06T14:38:07.985Z</time></trkpt><trkpt lat="40.6442567" lon="8.9788483"><ele>189.0</ele><time>2026-04-06T14:38:08.985Z</time></trkpt><trkpt lat="40.6444767" lon="8.9787067"><ele>187.5</ele><time>2026-04-06T14:38:09.985Z</time></trkpt><trkpt lat="40.6447017" lon="8.97856"><ele>186.0</ele><time>2026-04-06T14:38:10.985Z</time></trkpt><trkpt lat="40.6449283" lon="8.9784233"><ele>187.0</ele><time>2026-04-06T14:38:11.985Z</time></trkpt><trkpt lat="40.6451467" lon="8.978285"><ele>188.0</ele><time>2026-04-06T14:38:12.985Z</time></trkpt><trkpt lat="40.6453717" lon="8.97814"><ele>189.0</ele><time>2026-04-06T14:38:13.985Z</time></trkpt><trkpt lat="40.6455833" lon="8.9779917"><ele>190.0</ele><time>2026-04-06T14:38:14.985Z</time></trkpt><trkpt lat="40.6458067" lon="8.97785"><ele>190.0</ele><time>2026-04-06T14:38:15.985Z</time></trkpt><trkpt lat="40.646035" lon="8.9777067"><ele>190.0</ele><time>2026-04-06T14:38:16.985Z</time></trkpt><trkpt lat="40.646255" lon="8.9775717"><ele>192.0</ele><time>2026-04-06T14:38:17.985Z</time></trkpt><trkpt lat="40.646475" lon="8.977425"><ele>194.0</ele><time>2026-04-06T14:38:18.985Z</time></trkpt><trkpt lat="40.64669" lon="8.9772733"><ele>194.0</ele><time>2026-04-06T14:38:19.985Z</time></trkpt><trkpt lat="40.6468983" lon="8.97713"><ele>194.0</ele><time>2026-04-06T14:38:20.985Z</time></trkpt><trkpt lat="40.6471233" lon="8.976985"><ele>194.0</ele><time>2026-04-06T14:38:21.985Z</time></trkpt><trkpt lat="40.64735" lon="8.97683"><ele>194.0</ele><time>2026-04-06T14:38:22.985Z</time></trkpt><trkpt lat="40.6475717" lon="8.9766917"><ele>191.5</ele><time>2026-04-06T14:38:23.985Z</time></trkpt><trkpt lat="40.6478033" lon="8.97654"><ele>189.0</ele><time>2026-04-06T14:38:24.985Z</time></trkpt><trkpt lat="40.6480333" lon="8.97639"><ele>189.0</ele><time>2026-04-06T14:38:25.985Z</time></trkpt><trkpt lat="40.6482533" lon="8.97624"><ele>189.0</ele><time>2026-04-06T14:38:26.985Z</time></trkpt><trkpt lat="40.6484717" lon="8.9760967"><ele>188.0</ele><time>2026-04-06T14:38:27.985Z</time></trkpt><trkpt lat="40.6486983" lon="8.975945"><ele>187.0</ele><time>2026-04-06T14:38:28.985Z</time></trkpt><trkpt lat="40.6489183" lon="8.975805"><ele>186.5</ele><time>2026-04-06T14:38:29.985Z</time></trkpt><trkpt lat="40.6491333" lon="8.97566"><ele>186.0</ele><time>2026-04-06T14:38:30.985Z</time></trkpt><trkpt lat="40.649345" lon="8.9755467"><ele>186.0</ele><time>2026-04-06T14:38:31.985Z</time></trkpt><trkpt lat="40.6495683" lon="8.97545"><ele>186.0</ele><time>2026-04-06T14:38:32.985Z</time></trkpt><trkpt lat="40.6498017" lon="8.975415"><ele>186.0</ele><time>2026-04-06T14:38:33.985Z</time></trkpt><trkpt lat="40.6500367" lon="8.9753983"><ele>186.0</ele><time>2026-04-06T14:38:34.985Z</time></trkpt><trkpt lat="40.6502917" lon="8.9754067"><ele>185.0</ele><time>2026-04-06T14:38:35.985Z</time></trkpt><trkpt lat="40.6505367" lon="8.975445"><ele>184.0</ele><time>2026-04-06T14:38:36.985Z</time></trkpt><trkpt lat="40.6507967" lon="8.9754683"><ele>184.0</ele><time>2026-04-06T14:38:37.985Z</time></trkpt><trkpt lat="40.65107" lon="8.9754883"><ele>184.0</ele><time>2026-04-06T14:38:38.985Z</time></trkpt><trkpt lat="40.6513217" lon="8.9755117"><ele>182.5</ele><time>2026-04-06T14:38:39.985Z</time></trkpt><trkpt lat="40.6515867" lon="8.9755317"><ele>181.0</ele><time>2026-04-06T14:38:40.985Z</time></trkpt><trkpt lat="40.6518417" lon="8.9755383"><ele>181.5</ele><time>2026-04-06T14:38:41.985Z</time></trkpt><trkpt lat="40.6521" lon="8.975545"><ele>182.0</ele><time>2026-04-06T14:38:42.985Z</time></trkpt><trkpt lat="40.6523567" lon="8.9755767"><ele>182.0</ele><time>2026-04-06T14:38:43.985Z</time></trkpt><trkpt lat="40.65261" lon="8.9755883"><ele>182.0</ele><time>2026-04-06T14:38:44.985Z</time></trkpt><trkpt lat="40.6528567" lon="8.97561"><ele>182.0</ele><time>2026-04-06T14:38:45.985Z</time></trkpt><trkpt lat="40.6530967" lon="8.9756283"><ele>182.0</ele><time>2026-04-06T14:38:46.985Z</time></trkpt><trkpt lat="40.653335" lon="8.975645"><ele>182.0</ele><time>2026-04-06T14:38:47.985Z</time></trkpt><trkpt lat="40.6535817" lon="8.9756583"><ele>182.0</ele><time>2026-04-06T14:38:48.985Z</time></trkpt><trkpt lat="40.65383" lon="8.9756667"><ele>183.5</ele><time>2026-04-06T14:38:49.985Z</time></trkpt><trkpt lat="40.6540683" lon="8.97568"><ele>185.0</ele><time>2026-04-06T14:38:50.985Z</time></trkpt><trkpt lat="40.654295" lon="8.975685"><ele>185.5</ele><time>2026-04-06T14:38:51.985Z</time></trkpt><trkpt lat="40.6545317" lon="8.975695"><ele>186.0</ele><time>2026-04-06T14:38:52.985Z</time></trkpt><trkpt lat="40.654765" lon="8.9757083"><ele>186.0</ele><time>2026-04-06T14:38:53.985Z</time></trkpt><trkpt lat="40.6550017" lon="8.9757183"><ele>186.0</ele><time>2026-04-06T14:38:54.985Z</time></trkpt><trkpt lat="40.655235" lon="8.975735"><ele>186.5</ele><time>2026-04-06T14:38:55.985Z</time></trkpt><trkpt lat="40.6554567" lon="8.9757467"><ele>187.0</ele><time>2026-04-06T14:38:56.985Z</time></trkpt><trkpt lat="40.655685" lon="8.9757633"><ele>187.0</ele><time>2026-04-06T14:38:57.985Z</time></trkpt><trkpt lat="40.65591" lon="8.9757783"><ele>187.0</ele><time>2026-04-06T14:38:58.985Z</time></trkpt><trkpt lat="40.6561283" lon="8.9757917"><ele>187.0</ele><time>2026-04-06T14:38:59.985Z</time></trkpt><trkpt lat="40.656355" lon="8.9757917"><ele>186.0</ele><time>2026-04-06T14:39:00.985Z</time></trkpt><trkpt lat="40.65658" lon="8.975785"><ele>185.0</ele><time>2026-04-06T14:39:01.985Z</time></trkpt><trkpt lat="40.6568133" lon="8.9757583"><ele>185.0</ele><time>2026-04-06T14:39:02.985Z</time></trkpt><trkpt lat="40.657045" lon="8.97572"><ele>185.0</ele><time>2026-04-06T14:39:03.985Z</time></trkpt><trkpt lat="40.6572833" lon="8.9756683"><ele>185.0</ele><time>2026-04-06T14:39:04.985Z</time></trkpt><trkpt lat="40.6575217" lon="8.9756"><ele>185.0</ele><time>2026-04-06T14:39:05.985Z</time></trkpt><trkpt lat="40.65776" lon="8.9755267"><ele>183.5</ele><time>2026-04-06T14:39:06.985Z</time></trkpt><trkpt lat="40.6580083" lon="8.975435"><ele>182.0</ele><time>2026-04-06T14:39:07.985Z</time></trkpt><trkpt lat="40.6582483" lon="8.9753433"><ele>182.0</ele><time>2026-04-06T14:39:08.985Z</time></trkpt><trkpt lat="40.6584983" lon="8.97524"><ele>182.0</ele><time>2026-04-06T14:39:09.985Z</time></trkpt><trkpt lat="40.6587417" lon="8.975135"><ele>181.0</ele><time>2026-04-06T14:39:10.986Z</time></trkpt><trkpt lat="40.6589783" lon="8.9750367"><ele>180.0</ele><time>2026-04-06T14:39:11.985Z</time></trkpt><trkpt lat="40.65922" lon="8.9749533"><ele>179.0</ele><time>2026-04-06T14:39:12.985Z</time></trkpt><trkpt lat="40.65946" lon="8.974865"><ele>178.0</ele><time>2026-04-06T14:39:13.985Z</time></trkpt><trkpt lat="40.6597033" lon="8.9747833"><ele>178.0</ele><time>2026-04-06T14:39:14.985Z</time></trkpt><trkpt lat="40.659935" lon="8.9746933"><ele>178.0</ele><time>2026-04-06T14:39:15.985Z</time></trkpt><trkpt lat="40.6601683" lon="8.9745967"><ele>177.0</ele><time>2026-04-06T14:39:16.985Z</time></trkpt><trkpt lat="40.6604083" lon="8.9745067"><ele>176.0</ele><time>2026-04-06T14:39:17.985Z</time></trkpt><trkpt lat="40.6606467" lon="8.974405"><ele>176.0</ele><time>2026-04-06T14:39:18.985Z</time></trkpt><trkpt lat="40.6608833" lon="8.9743"><ele>176.0</ele><time>2026-04-06T14:39:19.985Z</time></trkpt><trkpt lat="40.6611117" lon="8.9742067"><ele>175.33333333333331</ele><time>2026-04-06T14:39:20.985Z</time></trkpt><trkpt lat="40.6613317" lon="8.9741333"><ele>174.66666666666666</ele><time>2026-04-06T14:39:21.986Z</time></trkpt><trkpt lat="40.66155" lon="8.97408"><ele>174.0</ele><time>2026-04-06T14:39:22.985Z</time></trkpt><trkpt lat="40.6617567" lon="8.9740283"><ele>173.33333333333334</ele><time>2026-04-06T14:39:23.985Z</time></trkpt><trkpt lat="40.66197" lon="8.9740133"><ele>172.66666666666669</ele><time>2026-04-06T14:39:24.985Z</time></trkpt><trkpt lat="40.6621717" lon="8.9740133"><ele>172.0</ele><time>2026-04-06T14:39:25.986Z</time></trkpt><trkpt lat="40.6623717" lon="8.9739867"><ele>172.0</ele><time>2026-04-06T14:39:26.985Z</time></trkpt><trkpt lat="40.66256" lon="8.9739333"><ele>172.0</ele><time>2026-04-06T14:39:27.985Z</time></trkpt><trkpt lat="40.6627333" lon="8.97383"><ele>172.0</ele><time>2026-04-06T14:39:28.985Z</time></trkpt><trkpt lat="40.66291" lon="8.973705"><ele>172.0</ele><time>2026-04-06T14:39:29.985Z</time></trkpt><trkpt lat="40.66308" lon="8.973575"><ele>172.0</ele><time>2026-04-06T14:39:30.985Z</time></trkpt><trkpt lat="40.6632433" lon="8.9734433"><ele>172.0</ele><time>2026-04-06T14:39:31.986Z</time></trkpt><trkpt lat="40.6634117" lon="8.9733"><ele>173.0</ele><time>2026-04-06T14:39:32.985Z</time></trkpt><trkpt lat="40.663615" lon="8.9731617"><ele>174.0</ele><time>2026-04-06T14:39:33.986Z</time></trkpt><trkpt lat="40.6638083" lon="8.9730217"><ele>175.0</ele><time>2026-04-06T14:39:34.985Z</time></trkpt><trkpt lat="40.66399" lon="8.972885"><ele>175.0</ele><time>2026-04-06T14:39:35.985Z</time></trkpt><trkpt lat="40.6641567" lon="8.972755"><ele>175.0</ele><time>2026-04-06T14:39:36.985Z</time></trkpt><trkpt lat="40.66432" lon="8.9726317"><ele>175.0</ele><time>2026-04-06T14:39:37.985Z</time></trkpt><trkpt lat="40.664495" lon="8.9725183"><ele>174.33333333333334</ele><time>2026-04-06T14:39:38.985Z</time></trkpt><trkpt lat="40.664655" lon="8.972415"><ele>173.66666666666666</ele><time>2026-04-06T14:39:39.985Z</time></trkpt><trkpt lat="40.6648117" lon="8.9723083"><ele>173.0</ele><time>2026-04-06T14:39:40.985Z</time></trkpt><trkpt lat="40.6649683" lon="8.9722033"><ele>173.0</ele><time>2026-04-06T14:39:41.985Z</time></trkpt><trkpt lat="40.6650883" lon="8.9721217"><ele>173.0</ele><time>2026-04-06T14:39:42.985Z</time></trkpt><trkpt lat="40.6652083" lon="8.972055"><ele>173.0</ele><time>2026-04-06T14:39:43.985Z</time></trkpt><trkpt lat="40.6652983" lon="8.97202"><ele>173.0</ele><time>2026-04-06T14:39:44.985Z</time></trkpt><trkpt lat="40.6653833" lon="8.972015"><ele>173.0</ele><time>2026-04-06T14:39:45.985Z</time></trkpt><trkpt lat="40.6654783" lon="8.9720117"><ele>173.0</ele><time>2026-04-06T14:39:46.985Z</time></trkpt><trkpt lat="40.66557" lon="8.9720033"><ele>173.0</ele><time>2026-04-06T14:39:47.984Z</time></trkpt><trkpt lat="40.6656567" lon="8.97196"><ele>173.0</ele><time>2026-04-06T14:39:48.984Z</time></trkpt><trkpt lat="40.6657183" lon="8.971875"><ele>173.0</ele><time>2026-04-06T14:39:49.984Z</time></trkpt><trkpt lat="40.665755" lon="8.9717483"><ele>173.0</ele><time>2026-04-06T14:39:50.984Z</time></trkpt><trkpt lat="40.665815" lon="8.9716067"><ele>172.66666666666666</ele><time>2026-04-06T14:39:51.984Z</time></trkpt><trkpt lat="40.665895" lon="8.97148"><ele>172.33333333333334</ele><time>2026-04-06T14:39:52.984Z</time></trkpt><trkpt lat="40.66602" lon="8.9713683"><ele>172.0</ele><time>2026-04-06T14:39:53.984Z</time></trkpt><trkpt lat="40.6661817" lon="8.9712567"><ele>172.0</ele><time>2026-04-06T14:39:54.985Z</time></trkpt><trkpt lat="40.6663633" lon="8.9711367"><ele>172.0</ele><time>2026-04-06T14:39:55.984Z</time></trkpt><trkpt lat="40.6665433" lon="8.9710033"><ele>172.0</ele><time>2026-04-06T14:39:56.984Z</time></trkpt><trkpt lat="40.6667217" lon="8.9708667"><ele>171.5</ele><time>2026-04-06T14:39:57.984Z</time></trkpt><trkpt lat="40.6669117" lon="8.970715"><ele>171.0</ele><time>2026-04-06T14:39:58.984Z</time></trkpt><trkpt lat="40.6671117" lon="8.970545"><ele>171.0</ele><time>2026-04-06T14:39:59.984Z</time></trkpt><trkpt lat="40.6673217" lon="8.97036"><ele>171.0</ele><time>2026-04-06T14:40:00.984Z</time></trkpt><trkpt lat="40.6675283" lon="8.9701617"><ele>171.0</ele><time>2026-04-06T14:40:01.984Z</time></trkpt><trkpt lat="40.66775" lon="8.9699433"><ele>171.0</ele><time>2026-04-06T14:40:02.984Z</time></trkpt><trkpt lat="40.6679533" lon="8.9697333"><ele>171.5</ele><time>2026-04-06T14:40:03.984Z</time></trkpt><trkpt lat="40.66818" lon="8.9695167"><ele>172.0</ele><time>2026-04-06T14:40:04.984Z</time></trkpt><trkpt lat="40.6683867" lon="8.9693033"><ele>172.0</ele><time>2026-04-06T14:40:05.984Z</time></trkpt><trkpt lat="40.668605" lon="8.96909"><ele>172.0</ele><time>2026-04-06T14:40:06.984Z</time></trkpt><trkpt lat="40.6688083" lon="8.96888"><ele>172.0</ele><time>2026-04-06T14:40:07.984Z</time></trkpt><trkpt lat="40.6690133" lon="8.968675"><ele>172.0</ele><time>2026-04-06T14:40:08.984Z</time></trkpt><trkpt lat="40.6692317" lon="8.9684783"><ele>172.0</ele><time>2026-04-06T14:40:09.984Z</time></trkpt><trkpt lat="40.6694433" lon="8.9682767"><ele>172.0</ele><time>2026-04-06T14:40:10.984Z</time></trkpt><trkpt lat="40.6696533" lon="8.9680733"><ele>172.0</ele><time>2026-04-06T14:40:11.984Z</time></trkpt><trkpt lat="40.6698617" lon="8.9678717"><ele>172.0</ele><time>2026-04-06T14:40:12.984Z</time></trkpt><trkpt lat="40.6700683" lon="8.9676717"><ele>172.0</ele><time>2026-04-06T14:40:13.984Z</time></trkpt><trkpt lat="40.6702783" lon="8.967475"><ele>172.0</ele><time>2026-04-06T14:40:14.984Z</time></trkpt><trkpt lat="40.6704833" lon="8.96727"><ele>172.0</ele><time>2026-04-06T14:40:15.984Z</time></trkpt><trkpt lat="40.67069" lon="8.967065"><ele>172.0</ele><time>2026-04-06T14:40:16.984Z</time></trkpt><trkpt lat="40.670895" lon="8.9668567"><ele>172.5</ele><time>2026-04-06T14:40:17.984Z</time></trkpt><trkpt lat="40.6710883" lon="8.966655"><ele>173.0</ele><time>2026-04-06T14:40:18.984Z</time></trkpt><trkpt lat="40.6712767" lon="8.9664567"><ele>173.0</ele><time>2026-04-06T14:40:19.984Z</time></trkpt><trkpt lat="40.671475" lon="8.966265"><ele>173.0</ele><time>2026-04-06T14:40:20.984Z</time></trkpt><trkpt lat="40.6716733" lon="8.966065"><ele>173.0</ele><time>2026-04-06T14:40:21.984Z</time></trkpt><trkpt lat="40.6718733" lon="8.9658667"><ele>173.0</ele><time>2026-04-06T14:40:22.984Z</time></trkpt><trkpt lat="40.67207" lon="8.9656733"><ele>174.0</ele><time>2026-04-06T14:40:23.984Z</time></trkpt><trkpt lat="40.672275" lon="8.9654683"><ele>175.0</ele><time>2026-04-06T14:40:24.984Z</time></trkpt><trkpt lat="40.672465" lon="8.9652717"><ele>175.0</ele><time>2026-04-06T14:40:25.984Z</time></trkpt><trkpt lat="40.6726633" lon="8.9650733"><ele>175.0</ele><time>2026-04-06T14:40:26.984Z</time></trkpt><trkpt lat="40.672865" lon="8.9648767"><ele>176.0</ele><time>2026-04-06T14:40:27.984Z</time></trkpt><trkpt lat="40.6730633" lon="8.96467"><ele>177.0</ele><time>2026-04-06T14:40:28.984Z</time></trkpt><trkpt lat="40.67327" lon="8.9644683"><ele>177.0</ele><time>2026-04-06T14:40:29.984Z</time></trkpt><trkpt lat="40.6734883" lon="8.9642733"><ele>177.0</ele><time>2026-04-06T14:40:30.984Z</time></trkpt><trkpt lat="40.6737067" lon="8.9640817"><ele>176.0</ele><time>2026-04-06T14:40:31.984Z</time></trkpt><trkpt lat="40.67393" lon="8.963885"><ele>175.0</ele><time>2026-04-06T14:40:32.984Z</time></trkpt><trkpt lat="40.674155" lon="8.9636967"><ele>175.0</ele><time>2026-04-06T14:40:33.984Z</time></trkpt><trkpt lat="40.6743617" lon="8.9635133"><ele>175.0</ele><time>2026-04-06T14:40:34.984Z</time></trkpt><trkpt lat="40.674555" lon="8.963355"><ele>176.0</ele><time>2026-04-06T14:40:35.984Z</time></trkpt><trkpt lat="40.6747467" lon="8.9631867"><ele>177.0</ele><time>2026-04-06T14:40:36.984Z</time></trkpt><trkpt lat="40.6749083" lon="8.96303"><ele>178.0</ele><time>2026-04-06T14:40:37.984Z</time></trkpt><trkpt lat="40.6750883" lon="8.96287"><ele>178.0</ele><time>2026-04-06T14:40:38.984Z</time></trkpt><trkpt lat="40.675265" lon="8.9627183"><ele>178.0</ele><time>2026-04-06T14:40:39.984Z</time></trkpt><trkpt lat="40.6754267" lon="8.962565"><ele>178.0</ele><time>2026-04-06T14:40:40.984Z</time></trkpt><trkpt lat="40.6756033" lon="8.9624017"><ele>179.0</ele><time>2026-04-06T14:40:41.984Z</time></trkpt><trkpt lat="40.6757967" lon="8.9622417"><ele>180.0</ele><time>2026-04-06T14:40:42.984Z</time></trkpt><trkpt lat="40.675975" lon="8.9620667"><ele>181.5</ele><time>2026-04-06T14:40:43.984Z</time></trkpt><trkpt lat="40.6761583" lon="8.9618867"><ele>183.0</ele><time>2026-04-06T14:40:44.984Z</time></trkpt><trkpt lat="40.6763617" lon="8.961715"><ele>183.0</ele><time>2026-04-06T14:40:45.984Z</time></trkpt><trkpt lat="40.6765533" lon="8.9615433"><ele>183.0</ele><time>2026-04-06T14:40:46.984Z</time></trkpt><trkpt lat="40.6767467" lon="8.9613733"><ele>183.0</ele><time>2026-04-06T14:40:47.984Z</time></trkpt><trkpt lat="40.6769317" lon="8.961215"><ele>183.0</ele><time>2026-04-06T14:40:48.984Z</time></trkpt><trkpt lat="40.677105" lon="8.96104"><ele>183.0</ele><time>2026-04-06T14:40:49.984Z</time></trkpt><trkpt lat="40.67729" lon="8.96085"><ele>182.66666666666666</ele><time>2026-04-06T14:40:50.985Z</time></trkpt><trkpt lat="40.6774517" lon="8.9606417"><ele>182.33333333333331</ele><time>2026-04-06T14:40:51.984Z</time></trkpt><trkpt lat="40.67759" lon="8.9604217"><ele>182.0</ele><time>2026-04-06T14:40:52.984Z</time></trkpt><trkpt lat="40.6777183" lon="8.9602017"><ele>180.66666666666666</ele><time>2026-04-06T14:40:53.984Z</time></trkpt><trkpt lat="40.6778433" lon="8.9599767"><ele>179.33333333333334</ele><time>2026-04-06T14:40:54.985Z</time></trkpt><trkpt lat="40.6779733" lon="8.959745"><ele>178.0</ele><time>2026-04-06T14:40:55.984Z</time></trkpt><trkpt lat="40.6781217" lon="8.9594883"><ele>178.0</ele><time>2026-04-06T14:40:56.984Z</time></trkpt><trkpt lat="40.6782583" lon="8.9592317"><ele>178.0</ele><time>2026-04-06T14:40:57.984Z</time></trkpt><trkpt lat="40.678415" lon="8.9589667"><ele>178.0</ele><time>2026-04-06T14:40:58.984Z</time></trkpt><trkpt lat="40.6785683" lon="8.9587017"><ele>178.0</ele><time>2026-04-06T14:40:59.984Z</time></trkpt><trkpt lat="40.6787233" lon="8.9584467"><ele>178.5</ele><time>2026-04-06T14:41:00.984Z</time></trkpt><trkpt lat="40.67887" lon="8.9581883"><ele>179.0</ele><time>2026-04-06T14:41:01.985Z</time></trkpt><trkpt lat="40.6790183" lon="8.9579283"><ele>179.0</ele><time>2026-04-06T14:41:02.984Z</time></trkpt><trkpt lat="40.6791633" lon="8.957685"><ele>179.0</ele><time>2026-04-06T14:41:03.984Z</time></trkpt><trkpt lat="40.6793083" lon="8.9574483"><ele>178.66666666666666</ele><time>2026-04-06T14:41:04.984Z</time></trkpt><trkpt lat="40.67943" lon="8.957225"><ele>178.33333333333334</ele><time>2026-04-06T14:41:05.984Z</time></trkpt><trkpt lat="40.67956" lon="8.95702"><ele>178.0</ele><time>2026-04-06T14:41:06.984Z</time></trkpt><trkpt lat="40.6796667" lon="8.9568283"><ele>177.66666666666669</ele><time>2026-04-06T14:41:07.984Z</time></trkpt><trkpt lat="40.6797667" lon="8.9566483"><ele>177.33333333333334</ele><time>2026-04-06T14:41:08.984Z</time></trkpt><trkpt lat="40.6798717" lon="8.9564883"><ele>177.0</ele><time>2026-04-06T14:41:09.984Z</time></trkpt><trkpt lat="40.679975" lon="8.95633"><ele>177.0</ele><time>2026-04-06T14:41:10.985Z</time></trkpt><trkpt lat="40.6800583" lon="8.956165"><ele>177.0</ele><time>2026-04-06T14:41:11.984Z</time></trkpt><trkpt lat="40.6801333" lon="8.95602"><ele>177.0</ele><time>2026-04-06T14:41:12.984Z</time></trkpt><trkpt lat="40.6802083" lon="8.955885"><ele>177.0</ele><time>2026-04-06T14:41:13.984Z</time></trkpt><trkpt lat="40.680285" lon="8.9557517"><ele>177.0</ele><time>2026-04-06T14:41:14.984Z</time></trkpt><trkpt lat="40.68036" lon="8.9556233"><ele>177.0</ele><time>2026-04-06T14:41:15.984Z</time></trkpt><trkpt lat="40.6804267" lon="8.9555067"><ele>177.0</ele><time>2026-04-06T14:41:16.984Z</time></trkpt><trkpt lat="40.6804933" lon="8.9553917"><ele>177.0</ele><time>2026-04-06T14:41:17.984Z</time></trkpt><trkpt lat="40.6805567" lon="8.95528"><ele>177.0</ele><time>2026-04-06T14:41:18.984Z</time></trkpt><trkpt lat="40.6806183" lon="8.9551767"><ele>177.0</ele><time>2026-04-06T14:41:19.984Z</time></trkpt><trkpt lat="40.6806817" lon="8.9550783"><ele>177.0</ele><time>2026-04-06T14:41:20.984Z</time></trkpt><trkpt lat="40.6807483" lon="8.9549817"><ele>177.0</ele><time>2026-04-06T14:41:21.984Z</time></trkpt><trkpt lat="40.6808067" lon="8.95489"><ele>177.0</ele><time>2026-04-06T14:41:22.984Z</time></trkpt><trkpt lat="40.6808617" lon="8.9548"><ele>177.0</ele><time>2026-04-06T14:41:23.984Z</time></trkpt><trkpt lat="40.6809067" lon="8.95472"><ele>177.2</ele><time>2026-04-06T14:41:24.984Z</time></trkpt><trkpt lat="40.6809533" lon="8.954635"><ele>177.39999999999998</ele><time>2026-04-06T14:41:25.984Z</time></trkpt><trkpt lat="40.6810133" lon="8.9545467"><ele>177.60000000000002</ele><time>2026-04-06T14:41:26.984Z</time></trkpt><trkpt lat="40.6810783" lon="8.95444"><ele>177.8</ele><time>2026-04-06T14:41:27.984Z</time></trkpt><trkpt lat="40.68114" lon="8.9543267"><ele>178.0</ele><time>2026-04-06T14:41:28.984Z</time></trkpt><trkpt lat="40.6812117" lon="8.954195"><ele>178.0</ele><time>2026-04-06T14:41:29.984Z</time></trkpt><trkpt lat="40.6812767" lon="8.9540633"><ele>178.0</ele><time>2026-04-06T14:41:30.984Z</time></trkpt><trkpt lat="40.6813483" lon="8.9539333"><ele>178.0</ele><time>2026-04-06T14:41:31.984Z</time></trkpt><trkpt lat="40.68142" lon="8.9538033"><ele>178.0</ele><time>2026-04-06T14:41:32.984Z</time></trkpt><trkpt lat="40.6814917" lon="8.95367"><ele>178.0</ele><time>2026-04-06T14:41:33.984Z</time></trkpt><trkpt lat="40.6815683" lon="8.9535317"><ele>178.0</ele><time>2026-04-06T14:41:34.984Z</time></trkpt><trkpt lat="40.6816467" lon="8.953405"><ele>178.0</ele><time>2026-04-06T14:41:35.984Z</time></trkpt><trkpt lat="40.68172" lon="8.9532733"><ele>178.0</ele><time>2026-04-06T14:41:36.984Z</time></trkpt><trkpt lat="40.6818117" lon="8.95313"><ele>178.25</ele><time>2026-04-06T14:41:37.984Z</time></trkpt><trkpt lat="40.68189" lon="8.952975"><ele>178.5</ele><time>2026-04-06T14:41:38.984Z</time></trkpt><trkpt lat="40.6819733" lon="8.952815"><ele>178.75</ele><time>2026-04-06T14:41:39.984Z</time></trkpt><trkpt lat="40.6820617" lon="8.95266"><ele>179.0</ele><time>2026-04-06T14:41:40.984Z</time></trkpt><trkpt lat="40.6821567" lon="8.9525"><ele>178.33333333333331</ele><time>2026-04-06T14:41:41.984Z</time></trkpt><trkpt lat="40.6822617" lon="8.9523317"><ele>177.66666666666666</ele><time>2026-04-06T14:41:42.984Z</time></trkpt><trkpt lat="40.6823733" lon="8.9521483"><ele>177.0</ele><time>2026-04-06T14:41:43.984Z</time></trkpt><trkpt lat="40.6824733" lon="8.951955"><ele>177.0</ele><time>2026-04-06T14:41:44.984Z</time></trkpt><trkpt lat="40.6825733" lon="8.9517767"><ele>177.0</ele><time>2026-04-06T14:41:45.984Z</time></trkpt><trkpt lat="40.68268" lon="8.9515883"><ele>177.0</ele><time>2026-04-06T14:41:46.984Z</time></trkpt><trkpt lat="40.6827933" lon="8.951385"><ele>178.0</ele><time>2026-04-06T14:41:47.984Z</time></trkpt><trkpt lat="40.682915" lon="8.9511767"><ele>179.0</ele><time>2026-04-06T14:41:48.984Z</time></trkpt><trkpt lat="40.6830283" lon="8.9509683"><ele>180.0</ele><time>2026-04-06T14:41:49.984Z</time></trkpt><trkpt lat="40.6831533" lon="8.950755"><ele>181.33333333333334</ele><time>2026-04-06T14:41:50.984Z</time></trkpt><trkpt lat="40.6832883" lon="8.9505333"><ele>182.66666666666669</ele><time>2026-04-06T14:41:51.984Z</time></trkpt><trkpt lat="40.6834083" lon="8.9503167"><ele>184.0</ele><time>2026-04-06T14:41:52.984Z</time></trkpt><trkpt lat="40.683535" lon="8.950095"><ele>184.33333333333334</ele><time>2026-04-06T14:41:53.984Z</time></trkpt><trkpt lat="40.6836733" lon="8.9498717"><ele>184.66666666666666</ele><time>2026-04-06T14:41:54.984Z</time></trkpt><trkpt lat="40.6838017" lon="8.94965"><ele>185.0</ele><time>2026-04-06T14:41:55.984Z</time></trkpt><trkpt lat="40.6839267" lon="8.94943"><ele>185.0</ele><time>2026-04-06T14:41:56.984Z</time></trkpt><trkpt lat="40.684055" lon="8.9492067"><ele>185.0</ele><time>2026-04-06T14:41:57.984Z</time></trkpt><trkpt lat="40.68419" lon="8.9489717"><ele>185.0</ele><time>2026-04-06T14:41:58.984Z</time></trkpt><trkpt lat="40.6843067" lon="8.9487083"><ele>185.0</ele><time>2026-04-06T14:41:59.984Z</time></trkpt><trkpt lat="40.6844167" lon="8.94845"><ele>185.0</ele><time>2026-04-06T14:42:00.984Z</time></trkpt><trkpt lat="40.6845183" lon="8.9481783"><ele>181.0</ele><time>2026-04-06T14:42:01.985Z</time></trkpt><trkpt lat="40.6846217" lon="8.9479033"><ele>177.0</ele><time>2026-04-06T14:42:02.984Z</time></trkpt><trkpt lat="40.6847183" lon="8.9476283"><ele>175.0</ele><time>2026-04-06T14:42:03.984Z</time></trkpt><trkpt lat="40.684815" lon="8.94735"><ele>173.0</ele><time>2026-04-06T14:42:04.984Z</time></trkpt><trkpt lat="40.6849" lon="8.9470667"><ele>173.0</ele><time>2026-04-06T14:42:05.984Z</time></trkpt><trkpt lat="40.6849833" lon="8.9467883"><ele>173.0</ele><time>2026-04-06T14:42:06.984Z</time></trkpt><trkpt lat="40.685075" lon="8.94653"><ele>173.0</ele><time>2026-04-06T14:42:07.984Z</time></trkpt><trkpt lat="40.6851683" lon="8.9462533"><ele>174.33333333333331</ele><time>2026-04-06T14:42:08.984Z</time></trkpt><trkpt lat="40.68526" lon="8.9459783"><ele>175.66666666666666</ele><time>2026-04-06T14:42:09.985Z</time></trkpt><trkpt lat="40.685345" lon="8.94571"><ele>177.0</ele><time>2026-04-06T14:42:10.984Z</time></trkpt><trkpt lat="40.6854467" lon="8.9454417"><ele>177.0</ele><time>2026-04-06T14:42:11.984Z</time></trkpt><trkpt lat="40.685545" lon="8.945165"><ele>177.0</ele><time>2026-04-06T14:42:12.984Z</time></trkpt><trkpt lat="40.6856383" lon="8.9448767"><ele>178.0</ele><time>2026-04-06T14:42:13.984Z</time></trkpt><trkpt lat="40.6857283" lon="8.9445917"><ele>179.0</ele><time>2026-04-06T14:42:14.984Z</time></trkpt><trkpt lat="40.68582" lon="8.9443283"><ele>179.33333333333331</ele><time>2026-04-06T14:42:15.984Z</time></trkpt><trkpt lat="40.6859117" lon="8.94408"><ele>179.66666666666666</ele><time>2026-04-06T14:42:16.984Z</time></trkpt><trkpt lat="40.6859967" lon="8.9438433"><ele>180.0</ele><time>2026-04-06T14:42:17.984Z</time></trkpt><trkpt lat="40.6860717" lon="8.943615"><ele>179.33333333333334</ele><time>2026-04-06T14:42:18.984Z</time></trkpt><trkpt lat="40.68613" lon="8.9433933"><ele>178.66666666666669</ele><time>2026-04-06T14:42:19.984Z</time></trkpt><trkpt lat="40.686155" lon="8.9431583"><ele>178.0</ele><time>2026-04-06T14:42:20.984Z</time></trkpt><trkpt lat="40.6861533" lon="8.9429"><ele>178.0</ele><time>2026-04-06T14:42:21.984Z</time></trkpt><trkpt lat="40.686115" lon="8.9426417"><ele>178.0</ele><time>2026-04-06T14:42:22.984Z</time></trkpt><trkpt lat="40.6860567" lon="8.9423733"><ele>178.0</ele><time>2026-04-06T14:42:23.984Z</time></trkpt><trkpt lat="40.6859833" lon="8.9420883"><ele>180.0</ele><time>2026-04-06T14:42:24.984Z</time></trkpt><trkpt lat="40.6859067" lon="8.9418017"><ele>182.0</ele><time>2026-04-06T14:42:25.984Z</time></trkpt><trkpt lat="40.685825" lon="8.941515"><ele>182.0</ele><time>2026-04-06T14:42:26.984Z</time></trkpt><trkpt lat="40.68575" lon="8.941225"><ele>182.0</ele><time>2026-04-06T14:42:27.984Z</time></trkpt><trkpt lat="40.685675" lon="8.940925"><ele>183.0</ele><time>2026-04-06T14:42:28.984Z</time></trkpt><trkpt lat="40.68561" lon="8.940615"><ele>184.0</ele><time>2026-04-06T14:42:29.984Z</time></trkpt><trkpt lat="40.68554" lon="8.9403067"><ele>184.0</ele><time>2026-04-06T14:42:30.984Z</time></trkpt><trkpt lat="40.6854833" lon="8.9400017"><ele>184.0</ele><time>2026-04-06T14:42:31.984Z</time></trkpt><trkpt lat="40.68544" lon="8.93968"><ele>184.0</ele><time>2026-04-06T14:42:32.984Z</time></trkpt><trkpt lat="40.6854017" lon="8.9393583"><ele>184.0</ele><time>2026-04-06T14:42:33.984Z</time></trkpt><trkpt lat="40.6853717" lon="8.9390217"><ele>184.0</ele><time>2026-04-06T14:42:34.984Z</time></trkpt><trkpt lat="40.6853333" lon="8.938695"><ele>184.0</ele><time>2026-04-06T14:42:35.984Z</time></trkpt><trkpt lat="40.6853" lon="8.9383567"><ele>184.0</ele><time>2026-04-06T14:42:36.984Z</time></trkpt><trkpt lat="40.68527" lon="8.9380283"><ele>184.0</ele><time>2026-04-06T14:42:37.984Z</time></trkpt><trkpt lat="40.6852367" lon="8.9377017"><ele>184.0</ele><time>2026-04-06T14:42:38.984Z</time></trkpt><trkpt lat="40.6852017" lon="8.9373833"><ele>184.0</ele><time>2026-04-06T14:42:39.984Z</time></trkpt><trkpt lat="40.6851733" lon="8.9370733"><ele>184.0</ele><time>2026-04-06T14:42:40.985Z</time></trkpt><trkpt lat="40.685145" lon="8.9367767"><ele>184.0</ele><time>2026-04-06T14:42:41.985Z</time></trkpt><trkpt lat="40.6851217" lon="8.9364867"><ele>184.0</ele><time>2026-04-06T14:42:42.984Z</time></trkpt><trkpt lat="40.685115" lon="8.9362117"><ele>184.0</ele><time>2026-04-06T14:42:43.984Z</time></trkpt><trkpt lat="40.6851383" lon="8.9359567"><ele>184.0</ele><time>2026-04-06T14:42:44.984Z</time></trkpt><trkpt lat="40.6851983" lon="8.935695"><ele>184.0</ele><time>2026-04-06T14:42:45.984Z</time></trkpt><trkpt lat="40.6853267" lon="8.93545"><ele>184.33333333333334</ele><time>2026-04-06T14:42:46.984Z</time></trkpt><trkpt lat="40.6854567" lon="8.93523"><ele>184.66666666666666</ele><time>2026-04-06T14:42:47.984Z</time></trkpt><trkpt lat="40.6855933" lon="8.93499"><ele>185.0</ele><time>2026-04-06T14:42:48.984Z</time></trkpt><trkpt lat="40.6857367" lon="8.934725"><ele>185.5</ele><time>2026-04-06T14:42:49.984Z</time></trkpt><trkpt lat="40.6858767" lon="8.9344517"><ele>186.0</ele><time>2026-04-06T14:42:50.984Z</time></trkpt><trkpt lat="40.686015" lon="8.9341767"><ele>184.5</ele><time>2026-04-06T14:42:51.984Z</time></trkpt><trkpt lat="40.6861583" lon="8.9339017"><ele>183.0</ele><time>2026-04-06T14:42:52.984Z</time></trkpt><trkpt lat="40.6863017" lon="8.93364"><ele>182.5</ele><time>2026-04-06T14:42:53.984Z</time></trkpt><trkpt lat="40.68644" lon="8.9333617"><ele>182.0</ele><time>2026-04-06T14:42:54.984Z</time></trkpt><trkpt lat="40.6865883" lon="8.9330833"><ele>182.0</ele><time>2026-04-06T14:42:55.984Z</time></trkpt><trkpt lat="40.68672" lon="8.9328133"><ele>182.0</ele><time>2026-04-06T14:42:56.984Z</time></trkpt><trkpt lat="40.6868583" lon="8.9325333"><ele>181.0</ele><time>2026-04-06T14:42:57.984Z</time></trkpt><trkpt lat="40.6870017" lon="8.932255"><ele>180.0</ele><time>2026-04-06T14:42:58.984Z</time></trkpt><trkpt lat="40.6871417" lon="8.9319933"><ele>179.0</ele><time>2026-04-06T14:42:59.984Z</time></trkpt><trkpt lat="40.6872817" lon="8.9317217"><ele>178.0</ele><time>2026-04-06T14:43:00.984Z</time></trkpt><trkpt lat="40.68742" lon="8.9314517"><ele>178.0</ele><time>2026-04-06T14:43:01.984Z</time></trkpt><trkpt lat="40.6875733" lon="8.93119"><ele>178.0</ele><time>2026-04-06T14:43:02.984Z</time></trkpt><trkpt lat="40.6877133" lon="8.93093"><ele>177.0</ele><time>2026-04-06T14:43:03.984Z</time></trkpt><trkpt lat="40.687845" lon="8.930665"><ele>176.0</ele><time>2026-04-06T14:43:04.984Z</time></trkpt><trkpt lat="40.6879717" lon="8.93041"><ele>176.0</ele><time>2026-04-06T14:43:05.984Z</time></trkpt><trkpt lat="40.68811" lon="8.93015"><ele>176.0</ele><time>2026-04-06T14:43:06.984Z</time></trkpt><trkpt lat="40.6882383" lon="8.9298817"><ele>177.0</ele><time>2026-04-06T14:43:07.984Z</time></trkpt><trkpt lat="40.6883667" lon="8.9296217"><ele>178.0</ele><time>2026-04-06T14:43:08.984Z</time></trkpt><trkpt lat="40.6884933" lon="8.929365"><ele>180.5</ele><time>2026-04-06T14:43:09.984Z</time></trkpt><trkpt lat="40.688635" lon="8.9291"><ele>183.0</ele><time>2026-04-06T14:43:10.984Z</time></trkpt><trkpt lat="40.6887567" lon="8.9288483"><ele>183.0</ele><time>2026-04-06T14:43:11.984Z</time></trkpt><trkpt lat="40.68889" lon="8.928595"><ele>183.0</ele><time>2026-04-06T14:43:12.984Z</time></trkpt><trkpt lat="40.6890133" lon="8.9283467"><ele>183.0</ele><time>2026-04-06T14:43:13.984Z</time></trkpt><trkpt lat="40.6891333" lon="8.928105"><ele>183.0</ele><time>2026-04-06T14:43:14.984Z</time></trkpt><trkpt lat="40.689265" lon="8.92786"><ele>183.0</ele><time>2026-04-06T14:43:15.984Z</time></trkpt><trkpt lat="40.6893717" lon="8.9276283"><ele>183.66666666666666</ele><time>2026-04-06T14:43:16.984Z</time></trkpt><trkpt lat="40.6894933" lon="8.9273983"><ele>184.33333333333331</ele><time>2026-04-06T14:43:17.984Z</time></trkpt><trkpt lat="40.6896217" lon="8.9271717"><ele>185.0</ele><time>2026-04-06T14:43:18.984Z</time></trkpt><trkpt lat="40.6897633" lon="8.9269533"><ele>185.0</ele><time>2026-04-06T14:43:19.984Z</time></trkpt><trkpt lat="40.6899267" lon="8.9267583"><ele>185.0</ele><time>2026-04-06T14:43:20.985Z</time></trkpt><trkpt lat="40.69011" lon="8.926575"><ele>182.0</ele><time>2026-04-06T14:43:21.984Z</time></trkpt><trkpt lat="40.6902883" lon="8.9263917"><ele>179.0</ele><time>2026-04-06T14:43:22.984Z</time></trkpt><trkpt lat="40.6904767" lon="8.9262017"><ele>179.0</ele><time>2026-04-06T14:43:23.984Z</time></trkpt><trkpt lat="40.6906617" lon="8.9260017"><ele>179.0</ele><time>2026-04-06T14:43:24.984Z</time></trkpt><trkpt lat="40.6908533" lon="8.925795"><ele>179.0</ele><time>2026-04-06T14:43:25.984Z</time></trkpt><trkpt lat="40.6910483" lon="8.9255967"><ele>179.0</ele><time>2026-04-06T14:43:26.984Z</time></trkpt><trkpt lat="40.6912367" lon="8.92539"><ele>178.5</ele><time>2026-04-06T14:43:27.984Z</time></trkpt><trkpt lat="40.6914217" lon="8.9251967"><ele>178.0</ele><time>2026-04-06T14:43:28.984Z</time></trkpt><trkpt lat="40.6915967" lon="8.9250017"><ele>178.0</ele><time>2026-04-06T14:43:29.984Z</time></trkpt><trkpt lat="40.691775" lon="8.9248117"><ele>178.0</ele><time>2026-04-06T14:43:30.984Z</time></trkpt><trkpt lat="40.6919533" lon="8.9246183"><ele>178.0</ele><time>2026-04-06T14:43:31.984Z</time></trkpt><trkpt lat="40.6921217" lon="8.9244233"><ele>178.0</ele><time>2026-04-06T14:43:32.984Z</time></trkpt><trkpt lat="40.6923067" lon="8.9242283"><ele>178.0</ele><time>2026-04-06T14:43:33.985Z</time></trkpt><trkpt lat="40.6924917" lon="8.92403"><ele>178.0</ele><time>2026-04-06T14:43:34.984Z</time></trkpt><trkpt lat="40.6926567" lon="8.9238283"><ele>177.0</ele><time>2026-04-06T14:43:35.984Z</time></trkpt><trkpt lat="40.692815" lon="8.92361"><ele>176.0</ele><time>2026-04-06T14:43:36.984Z</time></trkpt><trkpt lat="40.6929567" lon="8.9233767"><ele>176.0</ele><time>2026-04-06T14:43:37.984Z</time></trkpt><trkpt lat="40.6930883" lon="8.9231367"><ele>176.0</ele><time>2026-04-06T14:43:38.984Z</time></trkpt><trkpt lat="40.6932167" lon="8.922885"><ele>176.0</ele><time>2026-04-06T14:43:39.984Z</time></trkpt><trkpt lat="40.69335" lon="8.9226283"><ele>176.0</ele><time>2026-04-06T14:43:40.985Z</time></trkpt><trkpt lat="40.6934867" lon="8.9223767"><ele>177.0</ele><time>2026-04-06T14:43:41.984Z</time></trkpt><trkpt lat="40.6936267" lon="8.92213"><ele>178.0</ele><time>2026-04-06T14:43:42.984Z</time></trkpt><trkpt lat="40.6937417" lon="8.921895"><ele>179.0</ele><time>2026-04-06T14:43:43.984Z</time></trkpt><trkpt lat="40.69384" lon="8.9216417"><ele>179.0</ele><time>2026-04-06T14:43:44.984Z</time></trkpt><trkpt lat="40.6939067" lon="8.921375"><ele>179.0</ele><time>2026-04-06T14:43:45.984Z</time></trkpt><trkpt lat="40.6939333" lon="8.92109"><ele>179.0</ele><time>2026-04-06T14:43:46.984Z</time></trkpt><trkpt lat="40.6939483" lon="8.9207967"><ele>179.0</ele><time>2026-04-06T14:43:47.984Z</time></trkpt><trkpt lat="40.693955" lon="8.9204833"><ele>179.0</ele><time>2026-04-06T14:43:48.984Z</time></trkpt><trkpt lat="40.6939583" lon="8.92017"><ele>179.0</ele><time>2026-04-06T14:43:49.984Z</time></trkpt><trkpt lat="40.6939717" lon="8.9198417"><ele>179.0</ele><time>2026-04-06T14:43:50.984Z</time></trkpt><trkpt lat="40.6939883" lon="8.9195117"><ele>179.0</ele><time>2026-04-06T14:43:51.984Z</time></trkpt><trkpt lat="40.694005" lon="8.91918"><ele>179.0</ele><time>2026-04-06T14:43:52.984Z</time></trkpt><trkpt lat="40.694025" lon="8.918845"><ele>179.0</ele><time>2026-04-06T14:43:53.984Z</time></trkpt><trkpt lat="40.694045" lon="8.9185133"><ele>179.0</ele><time>2026-04-06T14:43:54.984Z</time></trkpt><trkpt lat="40.6940617" lon="8.91818"><ele>178.5</ele><time>2026-04-06T14:43:55.984Z</time></trkpt><trkpt lat="40.6940683" lon="8.9178433"><ele>178.0</ele><time>2026-04-06T14:43:56.984Z</time></trkpt><trkpt lat="40.6940917" lon="8.9175117"><ele>179.0</ele><time>2026-04-06T14:43:57.984Z</time></trkpt><trkpt lat="40.6941117" lon="8.91719"><ele>180.0</ele><time>2026-04-06T14:43:58.984Z</time></trkpt><trkpt lat="40.694125" lon="8.9168833"><ele>180.5</ele><time>2026-04-06T14:43:59.984Z</time></trkpt><trkpt lat="40.69414" lon="8.9165717"><ele>181.0</ele><time>2026-04-06T14:44:00.985Z</time></trkpt><trkpt lat="40.69415" lon="8.9162467"><ele>181.0</ele><time>2026-04-06T14:44:01.984Z</time></trkpt><trkpt lat="40.69416" lon="8.915925"><ele>181.0</ele><time>2026-04-06T14:44:02.984Z</time></trkpt><trkpt lat="40.6941683" lon="8.9156017"><ele>181.0</ele><time>2026-04-06T14:44:03.984Z</time></trkpt><trkpt lat="40.6941783" lon="8.9152633"><ele>181.0</ele><time>2026-04-06T14:44:04.984Z</time></trkpt><trkpt lat="40.6941967" lon="8.9149333"><ele>181.0</ele><time>2026-04-06T14:44:05.984Z</time></trkpt><trkpt lat="40.6942333" lon="8.9146083"><ele>181.0</ele><time>2026-04-06T14:44:06.984Z</time></trkpt><trkpt lat="40.6942867" lon="8.9143"><ele>182.0</ele><time>2026-04-06T14:44:07.984Z</time></trkpt><trkpt lat="40.6943567" lon="8.9139767"><ele>183.0</ele><time>2026-04-06T14:44:08.984Z</time></trkpt><trkpt lat="40.694435" lon="8.9136583"><ele>183.5</ele><time>2026-04-06T14:44:09.984Z</time></trkpt><trkpt lat="40.6945367" lon="8.913355"><ele>184.0</ele><time>2026-04-06T14:44:10.984Z</time></trkpt><trkpt lat="40.6946367" lon="8.91305"><ele>184.0</ele><time>2026-04-06T14:44:11.984Z</time></trkpt><trkpt lat="40.6947333" lon="8.9127233"><ele>184.0</ele><time>2026-04-06T14:44:12.984Z</time></trkpt><trkpt lat="40.694815" lon="8.9124017"><ele>183.5</ele><time>2026-04-06T14:44:13.984Z</time></trkpt><trkpt lat="40.6949017" lon="8.91208"><ele>183.0</ele><time>2026-04-06T14:44:14.984Z</time></trkpt><trkpt lat="40.695" lon="8.911765"><ele>182.5</ele><time>2026-04-06T14:44:15.984Z</time></trkpt><trkpt lat="40.6950867" lon="8.911455"><ele>182.0</ele><time>2026-04-06T14:44:16.984Z</time></trkpt><trkpt lat="40.6951833" lon="8.9111433"><ele>184.5</ele><time>2026-04-06T14:44:17.984Z</time></trkpt><trkpt lat="40.6952783" lon="8.9108233"><ele>187.0</ele><time>2026-04-06T14:44:18.984Z</time></trkpt><trkpt lat="40.6953617" lon="8.9105067"><ele>187.0</ele><time>2026-04-06T14:44:19.984Z</time></trkpt><trkpt lat="40.6954567" lon="8.910205"><ele>187.0</ele><time>2026-04-06T14:44:20.984Z</time></trkpt><trkpt lat="40.69554" lon="8.9098917"><ele>187.5</ele><time>2026-04-06T14:44:21.984Z</time></trkpt><trkpt lat="40.695635" lon="8.9095783"><ele>188.0</ele><time>2026-04-06T14:44:22.984Z</time></trkpt><trkpt lat="40.695735" lon="8.9092633"><ele>188.5</ele><time>2026-04-06T14:44:23.984Z</time></trkpt><trkpt lat="40.6958383" lon="8.90895"><ele>189.0</ele><time>2026-04-06T14:44:24.984Z</time></trkpt><trkpt lat="40.6959617" lon="8.90865"><ele>189.0</ele><time>2026-04-06T14:44:25.984Z</time></trkpt><trkpt lat="40.69608" lon="8.9083417"><ele>189.0</ele><time>2026-04-06T14:44:26.984Z</time></trkpt><trkpt lat="40.6962167" lon="8.9080317"><ele>191.5</ele><time>2026-04-06T14:44:27.984Z</time></trkpt><trkpt lat="40.6963517" lon="8.9077317"><ele>194.0</ele><time>2026-04-06T14:44:28.984Z</time></trkpt><trkpt lat="40.69648" lon="8.9074233"><ele>194.5</ele><time>2026-04-06T14:44:29.984Z</time></trkpt><trkpt lat="40.6966083" lon="8.9071133"><ele>195.0</ele><time>2026-04-06T14:44:30.984Z</time></trkpt><trkpt lat="40.6967383" lon="8.9068167"><ele>195.5</ele><time>2026-04-06T14:44:31.984Z</time></trkpt><trkpt lat="40.69686" lon="8.9065133"><ele>196.0</ele><time>2026-04-06T14:44:32.985Z</time></trkpt><trkpt lat="40.6969783" lon="8.90623"><ele>197.0</ele><time>2026-04-06T14:44:33.984Z</time></trkpt><trkpt lat="40.6971067" lon="8.9059367"><ele>198.0</ele><time>2026-04-06T14:44:34.984Z</time></trkpt><trkpt lat="40.69722" lon="8.9056417"><ele>198.5</ele><time>2026-04-06T14:44:35.984Z</time></trkpt><trkpt lat="40.6973317" lon="8.905355"><ele>199.0</ele><time>2026-04-06T14:44:36.984Z</time></trkpt><trkpt lat="40.6974483" lon="8.9050683"><ele>197.5</ele><time>2026-04-06T14:44:37.984Z</time></trkpt><trkpt lat="40.6975667" lon="8.9047883"><ele>196.0</ele><time>2026-04-06T14:44:38.984Z</time></trkpt><trkpt lat="40.6976817" lon="8.904505"><ele>200.0</ele><time>2026-04-06T14:44:39.984Z</time></trkpt><trkpt lat="40.697815" lon="8.904225"><ele>204.0</ele><time>2026-04-06T14:44:40.984Z</time></trkpt><trkpt lat="40.6979667" lon="8.9039783"><ele>204.0</ele><time>2026-04-06T14:44:41.984Z</time></trkpt><trkpt lat="40.698135" lon="8.9037467"><ele>204.0</ele><time>2026-04-06T14:44:42.984Z</time></trkpt><trkpt lat="40.6983267" lon="8.9035183"><ele>203.0</ele><time>2026-04-06T14:44:43.984Z</time></trkpt><trkpt lat="40.6985067" lon="8.9032983"><ele>202.0</ele><time>2026-04-06T14:44:44.984Z</time></trkpt><trkpt lat="40.6986667" lon="8.9030583"><ele>204.0</ele><time>2026-04-06T14:44:45.984Z</time></trkpt><trkpt lat="40.6987983" lon="8.9027883"><ele>206.0</ele><time>2026-04-06T14:44:46.984Z</time></trkpt><trkpt lat="40.69892" lon="8.9025183"><ele>206.0</ele><time>2026-04-06T14:44:47.984Z</time></trkpt><trkpt lat="40.699055" lon="8.90223"><ele>206.0</ele><time>2026-04-06T14:44:48.984Z</time></trkpt><trkpt lat="40.6991733" lon="8.901935"><ele>206.5</ele><time>2026-04-06T14:44:49.984Z</time></trkpt><trkpt lat="40.6992967" lon="8.901645"><ele>207.0</ele><time>2026-04-06T14:44:50.984Z</time></trkpt><trkpt lat="40.69942" lon="8.9013467"><ele>209.5</ele><time>2026-04-06T14:44:51.984Z</time></trkpt><trkpt lat="40.6995467" lon="8.9010667"><ele>212.0</ele><time>2026-04-06T14:44:52.984Z</time></trkpt><trkpt lat="40.6996683" lon="8.9007767"><ele>212.0</ele><time>2026-04-06T14:44:53.984Z</time></trkpt><trkpt lat="40.69979" lon="8.90049"><ele>212.0</ele><time>2026-04-06T14:44:54.984Z</time></trkpt><trkpt lat="40.6999117" lon="8.9002117"><ele>212.5</ele><time>2026-04-06T14:44:55.984Z</time></trkpt><trkpt lat="40.7000367" lon="8.899945"><ele>213.0</ele><time>2026-04-06T14:44:56.984Z</time></trkpt><trkpt lat="40.700145" lon="8.8996767"><ele>214.66666666666669</ele><time>2026-04-06T14:44:57.984Z</time></trkpt><trkpt lat="40.70026" lon="8.8994233"><ele>216.33333333333334</ele><time>2026-04-06T14:44:58.984Z</time></trkpt><trkpt lat="40.700365" lon="8.89917"><ele>218.0</ele><time>2026-04-06T14:44:59.984Z</time></trkpt><trkpt lat="40.7004667" lon="8.8989217"><ele>218.66666666666669</ele><time>2026-04-06T14:45:00.984Z</time></trkpt><trkpt lat="40.700575" lon="8.898685"><ele>219.33333333333331</ele><time>2026-04-06T14:45:01.984Z</time></trkpt><trkpt lat="40.7006767" lon="8.898465"><ele>220.0</ele><time>2026-04-06T14:45:02.984Z</time></trkpt><trkpt lat="40.7007633" lon="8.8982233"><ele>220.0</ele><time>2026-04-06T14:45:03.984Z</time></trkpt><trkpt lat="40.7008433" lon="8.897975"><ele>220.0</ele><time>2026-04-06T14:45:04.984Z</time></trkpt><trkpt lat="40.70091" lon="8.89771"><ele>220.0</ele><time>2026-04-06T14:45:05.984Z</time></trkpt><trkpt lat="40.7009683" lon="8.8974317"><ele>218.5</ele><time>2026-04-06T14:45:06.984Z</time></trkpt><trkpt lat="40.7010233" lon="8.8971483"><ele>217.0</ele><time>2026-04-06T14:45:07.984Z</time></trkpt><trkpt lat="40.7010733" lon="8.896845"><ele>223.5</ele><time>2026-04-06T14:45:08.984Z</time></trkpt><trkpt lat="40.7011167" lon="8.8965417"><ele>230.0</ele><time>2026-04-06T14:45:09.984Z</time></trkpt><trkpt lat="40.70117" lon="8.896245"><ele>230.0</ele><time>2026-04-06T14:45:10.984Z</time></trkpt><trkpt lat="40.7012133" lon="8.8959617"><ele>230.0</ele><time>2026-04-06T14:45:11.985Z</time></trkpt><trkpt lat="40.7012383" lon="8.895685"><ele>230.0</ele><time>2026-04-06T14:45:12.984Z</time></trkpt><trkpt lat="40.7012767" lon="8.895425"><ele>229.66666666666669</ele><time>2026-04-06T14:45:13.984Z</time></trkpt><trkpt lat="40.7013017" lon="8.8951767"><ele>229.33333333333331</ele><time>2026-04-06T14:45:14.984Z</time></trkpt><trkpt lat="40.7013" lon="8.8949517"><ele>229.0</ele><time>2026-04-06T14:45:15.984Z</time></trkpt><trkpt lat="40.7012533" lon="8.89475"><ele>229.0</ele><time>2026-04-06T14:45:16.984Z</time></trkpt><trkpt lat="40.7011633" lon="8.894565"><ele>229.0</ele><time>2026-04-06T14:45:17.984Z</time></trkpt><trkpt lat="40.70105" lon="8.8943833"><ele>229.0</ele><time>2026-04-06T14:45:18.984Z</time></trkpt><trkpt lat="40.7009267" lon="8.894195"><ele>227.66666666666666</ele><time>2026-04-06T14:45:19.984Z</time></trkpt><trkpt lat="40.7007933" lon="8.8940083"><ele>226.33333333333331</ele><time>2026-04-06T14:45:20.984Z</time></trkpt><trkpt lat="40.700665" lon="8.8937967"><ele>225.0</ele><time>2026-04-06T14:45:21.984Z</time></trkpt><trkpt lat="40.70057" lon="8.8935917"><ele>228.33333333333331</ele><time>2026-04-06T14:45:22.984Z</time></trkpt><trkpt lat="40.700505" lon="8.8933583"><ele>231.66666666666666</ele><time>2026-04-06T14:45:23.984Z</time></trkpt><trkpt lat="40.7004683" lon="8.8931267"><ele>235.0</ele><time>2026-04-06T14:45:24.984Z</time></trkpt><trkpt lat="40.700455" lon="8.8928717"><ele>236.33333333333331</ele><time>2026-04-06T14:45:25.984Z</time></trkpt><trkpt lat="40.70045" lon="8.892585"><ele>237.66666666666669</ele><time>2026-04-06T14:45:26.984Z</time></trkpt><trkpt lat="40.7004533" lon="8.8923467"><ele>239.0</ele><time>2026-04-06T14:45:27.984Z</time></trkpt><trkpt lat="40.7004967" lon="8.8921217"><ele>239.0</ele><time>2026-04-06T14:45:28.984Z</time></trkpt><trkpt lat="40.7005817" lon="8.89194"><ele>239.0</ele><time>2026-04-06T14:45:29.984Z</time></trkpt><trkpt lat="40.7007133" lon="8.89177"><ele>239.0</ele><time>2026-04-06T14:45:30.984Z</time></trkpt><trkpt lat="40.7008767" lon="8.8916283"><ele>238.0</ele><time>2026-04-06T14:45:31.984Z</time></trkpt><trkpt lat="40.7010333" lon="8.8914867"><ele>237.0</ele><time>2026-04-06T14:45:32.984Z</time></trkpt><trkpt lat="40.70121" lon="8.8913383"><ele>236.0</ele><time>2026-04-06T14:45:33.984Z</time></trkpt><trkpt lat="40.701405" lon="8.89119"><ele>237.33333333333334</ele><time>2026-04-06T14:45:34.984Z</time></trkpt><trkpt lat="40.7015633" lon="8.8910383"><ele>238.66666666666669</ele><time>2026-04-06T14:45:35.984Z</time></trkpt><trkpt lat="40.70171" lon="8.890875"><ele>240.0</ele><time>2026-04-06T14:45:36.984Z</time></trkpt><trkpt lat="40.7018417" lon="8.890695"><ele>244.33333333333331</ele><time>2026-04-06T14:45:37.984Z</time></trkpt><trkpt lat="40.7019433" lon="8.8904917"><ele>248.66666666666666</ele><time>2026-04-06T14:45:38.984Z</time></trkpt><trkpt lat="40.7020133" lon="8.8902583"><ele>253.0</ele><time>2026-04-06T14:45:39.984Z</time></trkpt><trkpt lat="40.7020367" lon="8.89002"><ele>253.66666666666666</ele><time>2026-04-06T14:45:40.984Z</time></trkpt><trkpt lat="40.70204" lon="8.88977"><ele>254.33333333333331</ele><time>2026-04-06T14:45:41.984Z</time></trkpt><trkpt lat="40.7020083" lon="8.8895183"><ele>255.0</ele><time>2026-04-06T14:45:42.984Z</time></trkpt><trkpt lat="40.7019417" lon="8.88928"><ele>251.0</ele><time>2026-04-06T14:45:43.984Z</time></trkpt><trkpt lat="40.7018317" lon="8.889035"><ele>247.0</ele><time>2026-04-06T14:45:44.984Z</time></trkpt><trkpt lat="40.7017283" lon="8.8887917"><ele>243.0</ele><time>2026-04-06T14:45:45.984Z</time></trkpt><trkpt lat="40.701625" lon="8.8885317"><ele>246.66666666666669</ele><time>2026-04-06T14:45:46.984Z</time></trkpt><trkpt lat="40.7014967" lon="8.8882733"><ele>250.33333333333334</ele><time>2026-04-06T14:45:47.985Z</time></trkpt><trkpt lat="40.70142" lon="8.8880167"><ele>254.0</ele><time>2026-04-06T14:45:48.984Z</time></trkpt><trkpt lat="40.7013783" lon="8.887745"><ele>256.6666666666667</ele><time>2026-04-06T14:45:49.984Z</time></trkpt><trkpt lat="40.70138" lon="8.88747"><ele>259.3333333333333</ele><time>2026-04-06T14:45:50.984Z</time></trkpt><trkpt lat="40.70138" lon="8.8871983"><ele>262.0</ele><time>2026-04-06T14:45:51.984Z</time></trkpt><trkpt lat="40.7013983" lon="8.8869317"><ele>263.3333333333333</ele><time>2026-04-06T14:45:52.984Z</time></trkpt><trkpt lat="40.7013817" lon="8.8866783"><ele>264.6666666666667</ele><time>2026-04-06T14:45:53.984Z</time></trkpt><trkpt lat="40.7013133" lon="8.88645"><ele>266.0</ele><time>2026-04-06T14:45:54.984Z</time></trkpt><trkpt lat="40.7012117" lon="8.886225"><ele>266.0</ele><time>2026-04-06T14:45:55.984Z</time></trkpt><trkpt lat="40.7010917" lon="8.886015"><ele>266.0</ele><time>2026-04-06T14:45:56.984Z</time></trkpt><trkpt lat="40.7009567" lon="8.8858267"><ele>266.0</ele><time>2026-04-06T14:45:57.984Z</time></trkpt><trkpt lat="40.700825" lon="8.8856567"><ele>264.6666666666667</ele><time>2026-04-06T14:45:58.985Z</time></trkpt><trkpt lat="40.7007183" lon="8.88548"><ele>263.3333333333333</ele><time>2026-04-06T14:45:59.984Z</time></trkpt><trkpt lat="40.700575" lon="8.885355"><ele>262.0</ele><time>2026-04-06T14:46:00.984Z</time></trkpt><trkpt lat="40.700425" lon="8.885265"><ele>262.0</ele><time>2026-04-06T14:46:01.984Z</time></trkpt><trkpt lat="40.7002717" lon="8.8852383"><ele>262.0</ele><time>2026-04-06T14:46:02.984Z</time></trkpt><trkpt lat="40.7001133" lon="8.8852767"><ele>262.0</ele><time>2026-04-06T14:46:03.984Z</time></trkpt><trkpt lat="40.6999717" lon="8.8853617"><ele>260.0</ele><time>2026-04-06T14:46:04.985Z</time></trkpt><trkpt lat="40.6998483" lon="8.8855217"><ele>258.0</ele><time>2026-04-06T14:46:05.984Z</time></trkpt><trkpt lat="40.6997333" lon="8.8857033"><ele>256.0</ele><time>2026-04-06T14:46:06.984Z</time></trkpt><trkpt lat="40.6995933" lon="8.885885"><ele>258.0</ele><time>2026-04-06T14:46:07.984Z</time></trkpt><trkpt lat="40.6994233" lon="8.8860633"><ele>260.0</ele><time>2026-04-06T14:46:08.984Z</time></trkpt><trkpt lat="40.6992617" lon="8.8862267"><ele>262.0</ele><time>2026-04-06T14:46:09.984Z</time></trkpt><trkpt lat="40.6991033" lon="8.886395"><ele>262.0</ele><time>2026-04-06T14:46:10.984Z</time></trkpt><trkpt lat="40.698935" lon="8.8865483"><ele>262.0</ele><time>2026-04-06T14:46:11.984Z</time></trkpt><trkpt lat="40.698785" lon="8.8866633"><ele>262.0</ele><time>2026-04-06T14:46:12.984Z</time></trkpt><trkpt lat="40.69861" lon="8.8867533"><ele>258.3333333333333</ele><time>2026-04-06T14:46:13.984Z</time></trkpt><trkpt lat="40.698435" lon="8.8868183"><ele>254.66666666666669</ele><time>2026-04-06T14:46:14.984Z</time></trkpt><trkpt lat="40.6982483" lon="8.8868433"><ele>251.0</ele><time>2026-04-06T14:46:15.984Z</time></trkpt><trkpt lat="40.6981017" lon="8.88684"><ele>252.75</ele><time>2026-04-06T14:46:16.984Z</time></trkpt><trkpt lat="40.69799" lon="8.8867567"><ele>254.5</ele><time>2026-04-06T14:46:17.984Z</time></trkpt><trkpt lat="40.6978817" lon="8.886615"><ele>256.25</ele><time>2026-04-06T14:46:18.984Z</time></trkpt><trkpt lat="40.6977883" lon="8.8864483"><ele>258.0</ele><time>2026-04-06T14:46:19.984Z</time></trkpt><trkpt lat="40.6977217" lon="8.8862367"><ele>258.0</ele><time>2026-04-06T14:46:20.985Z</time></trkpt><trkpt lat="40.6976717" lon="8.88601"><ele>258.0</ele><time>2026-04-06T14:46:21.984Z</time></trkpt><trkpt lat="40.6976383" lon="8.8857933"><ele>258.0</ele><time>2026-04-06T14:46:22.985Z</time></trkpt><trkpt lat="40.6976283" lon="8.88558"><ele>261.0</ele><time>2026-04-06T14:46:23.984Z</time></trkpt><trkpt lat="40.6976283" lon="8.885385"><ele>264.0</ele><time>2026-04-06T14:46:24.984Z</time></trkpt><trkpt lat="40.69759" lon="8.8852117"><ele>267.0</ele><time>2026-04-06T14:46:25.984Z</time></trkpt><trkpt lat="40.697495" lon="8.8850567"><ele>270.0</ele><time>2026-04-06T14:46:26.984Z</time></trkpt><trkpt lat="40.6973583" lon="8.8849533"><ele>268.6666666666667</ele><time>2026-04-06T14:46:27.984Z</time></trkpt><trkpt lat="40.69719" lon="8.8848667"><ele>267.33333333333337</ele><time>2026-04-06T14:46:28.984Z</time></trkpt><trkpt lat="40.697015" lon="8.8847867"><ele>266.0</ele><time>2026-04-06T14:46:29.984Z</time></trkpt><trkpt lat="40.696875" lon="8.8846617"><ele>266.0</ele><time>2026-04-06T14:46:30.984Z</time></trkpt><trkpt lat="40.6967467" lon="8.8844983"><ele>266.0</ele><time>2026-04-06T14:46:31.984Z</time></trkpt><trkpt lat="40.6966583" lon="8.8842867"><ele>266.0</ele><time>2026-04-06T14:46:32.984Z</time></trkpt><trkpt lat="40.6966117" lon="8.8840233"><ele>274.0</ele><time>2026-04-06T14:46:33.984Z</time></trkpt><trkpt lat="40.6965567" lon="8.8837383"><ele>282.0</ele><time>2026-04-06T14:46:34.984Z</time></trkpt><trkpt lat="40.6964767" lon="8.8834483"><ele>287.0</ele><time>2026-04-06T14:46:35.984Z</time></trkpt><trkpt lat="40.696405" lon="8.883145"><ele>292.0</ele><time>2026-04-06T14:46:36.984Z</time></trkpt><trkpt lat="40.6963167" lon="8.88282"><ele>300.5</ele><time>2026-04-06T14:46:37.984Z</time></trkpt><trkpt lat="40.6962117" lon="8.8824867"><ele>309.0</ele><time>2026-04-06T14:46:38.984Z</time></trkpt><trkpt lat="40.6960983" lon="8.88217"><ele>301.5</ele><time>2026-04-06T14:46:39.984Z</time></trkpt><trkpt lat="40.6960017" lon="8.8818683"><ele>294.0</ele><time>2026-04-06T14:46:40.984Z</time></trkpt><trkpt lat="40.69591" lon="8.881565"><ele>294.0</ele><time>2026-04-06T14:46:41.984Z</time></trkpt><trkpt lat="40.6958233" lon="8.8812633"><ele>294.0</ele><time>2026-04-06T14:46:42.983Z</time></trkpt><trkpt lat="40.6957567" lon="8.8809567"><ele>298.0</ele><time>2026-04-06T14:46:43.984Z</time></trkpt><trkpt lat="40.6957067" lon="8.88066"><ele>302.0</ele><time>2026-04-06T14:46:44.984Z</time></trkpt><trkpt lat="40.6956517" lon="8.8803933"><ele>306.0</ele><time>2026-04-06T14:46:45.984Z</time></trkpt><trkpt lat="40.6955817" lon="8.880125"><ele>310.3333333333333</ele><time>2026-04-06T14:46:46.984Z</time></trkpt><trkpt lat="40.695505" lon="8.8798717"><ele>314.66666666666663</ele><time>2026-04-06T14:46:47.984Z</time></trkpt><trkpt lat="40.6954017" lon="8.8796183"><ele>319.0</ele><time>2026-04-06T14:46:48.984Z</time></trkpt><trkpt lat="40.6952733" lon="8.8793867"><ele>310.5</ele><time>2026-04-06T14:46:49.984Z</time></trkpt><trkpt lat="40.695125" lon="8.8791517"><ele>302.0</ele><time>2026-04-06T14:46:50.984Z</time></trkpt><trkpt lat="40.6949783" lon="8.8789317"><ele>302.0</ele><time>2026-04-06T14:46:51.984Z</time></trkpt><trkpt lat="40.6948433" lon="8.878725"><ele>302.0</ele><time>2026-04-06T14:46:52.984Z</time></trkpt><trkpt lat="40.69473" lon="8.8785217"><ele>302.0</ele><time>2026-04-06T14:46:53.984Z</time></trkpt><trkpt lat="40.6946333" lon="8.878295"><ele>308.33333333333337</ele><time>2026-04-06T14:46:54.984Z</time></trkpt><trkpt lat="40.6945533" lon="8.8780383"><ele>314.6666666666667</ele><time>2026-04-06T14:46:55.984Z</time></trkpt><trkpt lat="40.6944883" lon="8.8777667"><ele>321.0</ele><time>2026-04-06T14:46:56.984Z</time></trkpt><trkpt lat="40.6944483" lon="8.8774783"><ele>314.0</ele><time>2026-04-06T14:46:57.984Z</time></trkpt><trkpt lat="40.6943917" lon="8.8771917"><ele>307.0</ele><time>2026-04-06T14:46:58.984Z</time></trkpt><trkpt lat="40.694325" lon="8.8768933"><ele>313.0</ele><time>2026-04-06T14:46:59.984Z</time></trkpt><trkpt lat="40.6942483" lon="8.8765983"><ele>319.0</ele><time>2026-04-06T14:47:00.984Z</time></trkpt><trkpt lat="40.6941683" lon="8.876325"><ele>319.0</ele><time>2026-04-06T14:47:01.984Z</time></trkpt><trkpt lat="40.69407" lon="8.8760817"><ele>319.0</ele><time>2026-04-06T14:47:02.984Z</time></trkpt><trkpt lat="40.6939367" lon="8.8758733"><ele>319.0</ele><time>2026-04-06T14:47:03.984Z</time></trkpt><trkpt lat="40.6938017" lon="8.875685"><ele>320.0</ele><time>2026-04-06T14:47:04.984Z</time></trkpt><trkpt lat="40.6936683" lon="8.8755083"><ele>321.0</ele><time>2026-04-06T14:47:05.984Z</time></trkpt><trkpt lat="40.6935783" lon="8.8753067"><ele>322.0</ele><time>2026-04-06T14:47:06.984Z</time></trkpt><trkpt lat="40.6935367" lon="8.8750933"><ele>322.0</ele><time>2026-04-06T14:47:07.984Z</time></trkpt><trkpt lat="40.6935267" lon="8.87487"><ele>322.0</ele><time>2026-04-06T14:47:08.984Z</time></trkpt><trkpt lat="40.6935333" lon="8.8746083"><ele>322.0</ele><time>2026-04-06T14:47:09.984Z</time></trkpt><trkpt lat="40.693555" lon="8.874335"><ele>321.3333333333333</ele><time>2026-04-06T14:47:10.984Z</time></trkpt><trkpt lat="40.693565" lon="8.87405"><ele>320.6666666666667</ele><time>2026-04-06T14:47:11.984Z</time></trkpt><trkpt lat="40.6935617" lon="8.8737517"><ele>320.0</ele><time>2026-04-06T14:47:12.984Z</time></trkpt><trkpt lat="40.6935483" lon="8.8734517"><ele>318.0</ele><time>2026-04-06T14:47:13.985Z</time></trkpt><trkpt lat="40.6935317" lon="8.8731467"><ele>316.0</ele><time>2026-04-06T14:47:14.984Z</time></trkpt><trkpt lat="40.6935133" lon="8.8728367"><ele>315.3333333333333</ele><time>2026-04-06T14:47:15.984Z</time></trkpt><trkpt lat="40.6934983" lon="8.87254"><ele>314.6666666666667</ele><time>2026-04-06T14:47:16.984Z</time></trkpt><trkpt lat="40.6934933" lon="8.8722733"><ele>314.0</ele><time>2026-04-06T14:47:17.984Z</time></trkpt><trkpt lat="40.6934883" lon="8.8720267"><ele>314.0</ele><time>2026-04-06T14:47:18.984Z</time></trkpt><trkpt lat="40.6934967" lon="8.8717867"><ele>314.0</ele><time>2026-04-06T14:47:19.984Z</time></trkpt><trkpt lat="40.693525" lon="8.8715533"><ele>314.0</ele><time>2026-04-06T14:47:20.984Z</time></trkpt><trkpt lat="40.6935917" lon="8.87134"><ele>315.0</ele><time>2026-04-06T14:47:21.984Z</time></trkpt><trkpt lat="40.6936833" lon="8.8711383"><ele>316.0</ele><time>2026-04-06T14:47:22.984Z</time></trkpt><trkpt lat="40.6937667" lon="8.8709617"><ele>317.0</ele><time>2026-04-06T14:47:23.984Z</time></trkpt><trkpt lat="40.6938283" lon="8.8708167"><ele>315.6</ele><time>2026-04-06T14:47:24.984Z</time></trkpt><trkpt lat="40.6939067" lon="8.8707017"><ele>314.2</ele><time>2026-04-06T14:47:25.984Z</time></trkpt><trkpt lat="40.69399" lon="8.8706333"><ele>312.8</ele><time>2026-04-06T14:47:26.984Z</time></trkpt><trkpt lat="40.694075" lon="8.87066"><ele>311.4</ele><time>2026-04-06T14:47:27.984Z</time></trkpt><trkpt lat="40.6941717" lon="8.87077"><ele>310.0</ele><time>2026-04-06T14:47:28.984Z</time></trkpt><trkpt lat="40.694255" lon="8.87092"><ele>311.75</ele><time>2026-04-06T14:47:29.984Z</time></trkpt><trkpt lat="40.6943483" lon="8.8710683"><ele>313.5</ele><time>2026-04-06T14:47:30.984Z</time></trkpt><trkpt lat="40.694475" lon="8.8711783"><ele>315.25</ele><time>2026-04-06T14:47:31.984Z</time></trkpt><trkpt lat="40.69462" lon="8.871235"><ele>317.0</ele><time>2026-04-06T14:47:32.984Z</time></trkpt><trkpt lat="40.6947767" lon="8.8712267"><ele>317.0</ele><time>2026-04-06T14:47:33.984Z</time></trkpt><trkpt lat="40.6949583" lon="8.87119"><ele>317.0</ele><time>2026-04-06T14:47:34.985Z</time></trkpt><trkpt lat="40.6951267" lon="8.87116"><ele>317.0</ele><time>2026-04-06T14:47:35.984Z</time></trkpt><trkpt lat="40.6952967" lon="8.87118"><ele>312.6666666666667</ele><time>2026-04-06T14:47:36.984Z</time></trkpt><trkpt lat="40.69545" lon="8.87124"><ele>308.3333333333333</ele><time>2026-04-06T14:47:37.984Z</time></trkpt><trkpt lat="40.6956083" lon="8.8713733"><ele>304.0</ele><time>2026-04-06T14:47:38.984Z</time></trkpt><trkpt lat="40.6957717" lon="8.87154"><ele>304.0</ele><time>2026-04-06T14:47:39.984Z</time></trkpt><trkpt lat="40.6959267" lon="8.8717317"><ele>304.0</ele><time>2026-04-06T14:47:40.984Z</time></trkpt><trkpt lat="40.6960767" lon="8.87193"><ele>304.0</ele><time>2026-04-06T14:47:41.984Z</time></trkpt><trkpt lat="40.6962317" lon="8.87213"><ele>303.3333333333333</ele><time>2026-04-06T14:47:42.984Z</time></trkpt><trkpt lat="40.6963833" lon="8.8723033"><ele>302.6666666666667</ele><time>2026-04-06T14:47:43.984Z</time></trkpt><trkpt lat="40.69652" lon="8.8724617"><ele>302.0</ele><time>2026-04-06T14:47:44.984Z</time></trkpt><trkpt lat="40.6966367" lon="8.8725683"><ele>303.0</ele><time>2026-04-06T14:47:45.984Z</time></trkpt><trkpt lat="40.6967517" lon="8.872635"><ele>304.0</ele><time>2026-04-06T14:47:46.984Z</time></trkpt><trkpt lat="40.6968717" lon="8.8726067"><ele>305.0</ele><time>2026-04-06T14:47:47.984Z</time></trkpt><trkpt lat="40.6969833" lon="8.8725217"><ele>306.0</ele><time>2026-04-06T14:47:48.984Z</time></trkpt><trkpt lat="40.69706" lon="8.8723917"><ele>306.0</ele><time>2026-04-06T14:47:49.984Z</time></trkpt><trkpt lat="40.6971033" lon="8.8722083"><ele>306.0</ele><time>2026-04-06T14:47:50.984Z</time></trkpt><trkpt lat="40.6971417" lon="8.87198"><ele>306.0</ele><time>2026-04-06T14:47:51.984Z</time></trkpt><trkpt lat="40.6972033" lon="8.8717433"><ele>305.0</ele><time>2026-04-06T14:47:52.984Z</time></trkpt><trkpt lat="40.6972883" lon="8.8715167"><ele>304.0</ele><time>2026-04-06T14:47:53.984Z</time></trkpt><trkpt lat="40.6973817" lon="8.87132"><ele>303.0</ele><time>2026-04-06T14:47:54.984Z</time></trkpt><trkpt lat="40.6975017" lon="8.8711417"><ele>303.0</ele><time>2026-04-06T14:47:55.985Z</time></trkpt><trkpt lat="40.6976" lon="8.8710283"><ele>303.0</ele><time>2026-04-06T14:47:56.984Z</time></trkpt><trkpt lat="40.6977383" lon="8.8709817"><ele>303.0</ele><time>2026-04-06T14:47:57.984Z</time></trkpt><trkpt lat="40.6979133" lon="8.870995"><ele>303.0</ele><time>2026-04-06T14:47:58.984Z</time></trkpt><trkpt lat="40.6981017" lon="8.871005"><ele>302.3333333333333</ele><time>2026-04-06T14:47:59.984Z</time></trkpt><trkpt lat="40.6982917" lon="8.8709667"><ele>301.66666666666663</ele><time>2026-04-06T14:48:00.984Z</time></trkpt><trkpt lat="40.69848" lon="8.8708767"><ele>301.0</ele><time>2026-04-06T14:48:01.984Z</time></trkpt><trkpt lat="40.6986633" lon="8.87074"><ele>304.0</ele><time>2026-04-06T14:48:02.984Z</time></trkpt><trkpt lat="40.6988333" lon="8.8705967"><ele>307.0</ele><time>2026-04-06T14:48:03.985Z</time></trkpt><trkpt lat="40.6990117" lon="8.870435"><ele>310.0</ele><time>2026-04-06T14:48:04.984Z</time></trkpt><trkpt lat="40.69918" lon="8.8702383"><ele>307.66666666666663</ele><time>2026-04-06T14:48:05.984Z</time></trkpt><trkpt lat="40.6993283" lon="8.87001"><ele>305.3333333333333</ele><time>2026-04-06T14:48:06.984Z</time></trkpt><trkpt lat="40.6994517" lon="8.8697717"><ele>303.0</ele><time>2026-04-06T14:48:07.984Z</time></trkpt><trkpt lat="40.6995633" lon="8.8695183"><ele>306.0</ele><time>2026-04-06T14:48:08.984Z</time></trkpt><trkpt lat="40.699655" lon="8.8692533"><ele>309.0</ele><time>2026-04-06T14:48:09.984Z</time></trkpt><trkpt lat="40.69972" lon="8.86897"><ele>312.0</ele><time>2026-04-06T14:48:10.984Z</time></trkpt><trkpt lat="40.6997817" lon="8.868685"><ele>310.3333333333333</ele><time>2026-04-06T14:48:11.984Z</time></trkpt><trkpt lat="40.69984" lon="8.8684017"><ele>308.66666666666663</ele><time>2026-04-06T14:48:12.984Z</time></trkpt><trkpt lat="40.6998933" lon="8.8681217"><ele>307.0</ele><time>2026-04-06T14:48:13.984Z</time></trkpt><trkpt lat="40.69996" lon="8.8678517"><ele>306.3333333333333</ele><time>2026-04-06T14:48:14.984Z</time></trkpt><trkpt lat="40.70003" lon="8.8676033"><ele>305.6666666666667</ele><time>2026-04-06T14:48:15.984Z</time></trkpt><trkpt lat="40.7001333" lon="8.8673683"><ele>305.0</ele><time>2026-04-06T14:48:16.984Z</time></trkpt><trkpt lat="40.7002617" lon="8.8671367"><ele>306.0</ele><time>2026-04-06T14:48:17.984Z</time></trkpt><trkpt lat="40.7003883" lon="8.8669233"><ele>307.0</ele><time>2026-04-06T14:48:18.984Z</time></trkpt><trkpt lat="40.7005033" lon="8.86669"><ele>308.0</ele><time>2026-04-06T14:48:19.984Z</time></trkpt><trkpt lat="40.7005917" lon="8.86646"><ele>308.0</ele><time>2026-04-06T14:48:20.984Z</time></trkpt><trkpt lat="40.7006767" lon="8.8662567"><ele>308.0</ele><time>2026-04-06T14:48:21.984Z</time></trkpt><trkpt lat="40.7007617" lon="8.8660883"><ele>308.0</ele><time>2026-04-06T14:48:22.984Z</time></trkpt><trkpt lat="40.7008583" lon="8.8659633"><ele>307.25</ele><time>2026-04-06T14:48:23.984Z</time></trkpt><trkpt lat="40.7009917" lon="8.8659167"><ele>306.5</ele><time>2026-04-06T14:48:24.984Z</time></trkpt><trkpt lat="40.7011267" lon="8.8659383"><ele>305.75</ele><time>2026-04-06T14:48:25.984Z</time></trkpt><trkpt lat="40.701265" lon="8.86603"><ele>305.0</ele><time>2026-04-06T14:48:26.984Z</time></trkpt><trkpt lat="40.7014167" lon="8.86615"><ele>305.0</ele><time>2026-04-06T14:48:27.984Z</time></trkpt><trkpt lat="40.7015533" lon="8.8663"><ele>305.0</ele><time>2026-04-06T14:48:28.984Z</time></trkpt><trkpt lat="40.7017117" lon="8.8664467"><ele>305.0</ele><time>2026-04-06T14:48:29.984Z</time></trkpt><trkpt lat="40.7018833" lon="8.8666067"><ele>305.5</ele><time>2026-04-06T14:48:30.984Z</time></trkpt><trkpt lat="40.702065" lon="8.86678"><ele>306.0</ele><time>2026-04-06T14:48:31.984Z</time></trkpt><trkpt lat="40.7022567" lon="8.8669417"><ele>306.0</ele><time>2026-04-06T14:48:32.984Z</time></trkpt><trkpt lat="40.7024383" lon="8.8671017"><ele>306.0</ele><time>2026-04-06T14:48:33.984Z</time></trkpt><trkpt lat="40.7026033" lon="8.8672383"><ele>306.0</ele><time>2026-04-06T14:48:34.984Z</time></trkpt><trkpt lat="40.7027567" lon="8.8673667"><ele>304.6666666666667</ele><time>2026-04-06T14:48:35.984Z</time></trkpt><trkpt lat="40.702915" lon="8.8674617"><ele>303.33333333333337</ele><time>2026-04-06T14:48:36.984Z</time></trkpt><trkpt lat="40.7030667" lon="8.8674983"><ele>302.0</ele><time>2026-04-06T14:48:37.984Z</time></trkpt><trkpt lat="40.70323" lon="8.8674767"><ele>302.0</ele><time>2026-04-06T14:48:38.984Z</time></trkpt><trkpt lat="40.7033933" lon="8.8674167"><ele>302.0</ele><time>2026-04-06T14:48:39.984Z</time></trkpt><trkpt lat="40.7035867" lon="8.86732"><ele>302.0</ele><time>2026-04-06T14:48:40.984Z</time></trkpt><trkpt lat="40.70378" lon="8.867225"><ele>303.6666666666667</ele><time>2026-04-06T14:48:41.984Z</time></trkpt><trkpt lat="40.7039867" lon="8.8671383"><ele>305.3333333333333</ele><time>2026-04-06T14:48:42.984Z</time></trkpt><trkpt lat="40.7042017" lon="8.8670283"><ele>307.0</ele><time>2026-04-06T14:48:43.983Z</time></trkpt><trkpt lat="40.7044167" lon="8.866965"><ele>307.0</ele><time>2026-04-06T14:48:44.983Z</time></trkpt><trkpt lat="40.7046333" lon="8.8669083"><ele>307.0</ele><time>2026-04-06T14:48:45.983Z</time></trkpt><trkpt lat="40.7048417" lon="8.8668733"><ele>307.0</ele><time>2026-04-06T14:48:46.983Z</time></trkpt><trkpt lat="40.705045" lon="8.8668583"><ele>307.0</ele><time>2026-04-06T14:48:47.983Z</time></trkpt><trkpt lat="40.7052367" lon="8.8668317"><ele>307.0</ele><time>2026-04-06T14:48:48.983Z</time></trkpt><trkpt lat="40.705395" lon="8.8667783"><ele>307.0</ele><time>2026-04-06T14:48:49.983Z</time></trkpt><trkpt lat="40.7055367" lon="8.8667033"><ele>306.25</ele><time>2026-04-06T14:48:50.983Z</time></trkpt><trkpt lat="40.7056433" lon="8.86659"><ele>305.5</ele><time>2026-04-06T14:48:51.983Z</time></trkpt><trkpt lat="40.705695" lon="8.8664133"><ele>304.75</ele><time>2026-04-06T14:48:52.983Z</time></trkpt><trkpt lat="40.705715" lon="8.8661933"><ele>304.0</ele><time>2026-04-06T14:48:53.983Z</time></trkpt><trkpt lat="40.705725" lon="8.86596"><ele>305.0</ele><time>2026-04-06T14:48:54.983Z</time></trkpt><trkpt lat="40.70574" lon="8.8657017"><ele>306.0</ele><time>2026-04-06T14:48:55.983Z</time></trkpt><trkpt lat="40.7057517" lon="8.8654317"><ele>307.0</ele><time>2026-04-06T14:48:56.983Z</time></trkpt><trkpt lat="40.7057583" lon="8.865155"><ele>309.0</ele><time>2026-04-06T14:48:57.983Z</time></trkpt><trkpt lat="40.7057283" lon="8.8648583"><ele>311.0</ele><time>2026-04-06T14:48:58.983Z</time></trkpt><trkpt lat="40.7056783" lon="8.86457"><ele>315.5</ele><time>2026-04-06T14:48:59.983Z</time></trkpt><trkpt lat="40.70559" lon="8.8642767"><ele>320.0</ele><time>2026-04-06T14:49:00.983Z</time></trkpt><trkpt lat="40.7055117" lon="8.8639817"><ele>320.0</ele><time>2026-04-06T14:49:01.983Z</time></trkpt><trkpt lat="40.7054267" lon="8.863685"><ele>320.0</ele><time>2026-04-06T14:49:02.983Z</time></trkpt><trkpt lat="40.7053283" lon="8.8633883"><ele>315.0</ele><time>2026-04-06T14:49:03.983Z</time></trkpt><trkpt lat="40.7052317" lon="8.863095"><ele>310.0</ele><time>2026-04-06T14:49:04.983Z</time></trkpt><trkpt lat="40.7051367" lon="8.8628"><ele>314.5</ele><time>2026-04-06T14:49:05.983Z</time></trkpt><trkpt lat="40.705055" lon="8.8625067"><ele>319.0</ele><time>2026-04-06T14:49:06.983Z</time></trkpt><trkpt lat="40.704985" lon="8.862215"><ele>319.0</ele><time>2026-04-06T14:49:07.983Z</time></trkpt><trkpt lat="40.7049567" lon="8.86192"><ele>319.0</ele><time>2026-04-06T14:49:08.983Z</time></trkpt><trkpt lat="40.7049383" lon="8.8616267"><ele>319.0</ele><time>2026-04-06T14:49:09.983Z</time></trkpt><trkpt lat="40.7049367" lon="8.8613367"><ele>321.3333333333333</ele><time>2026-04-06T14:49:10.983Z</time></trkpt><trkpt lat="40.7049183" lon="8.8610617"><ele>323.6666666666667</ele><time>2026-04-06T14:49:11.983Z</time></trkpt><trkpt lat="40.7049067" lon="8.8608083"><ele>326.0</ele><time>2026-04-06T14:49:12.983Z</time></trkpt><trkpt lat="40.70486" lon="8.8605717"><ele>327.33333333333337</ele><time>2026-04-06T14:49:13.983Z</time></trkpt><trkpt lat="40.7047583" lon="8.8603567"><ele>328.6666666666667</ele><time>2026-04-06T14:49:14.983Z</time></trkpt><trkpt lat="40.7046533" lon="8.8601333"><ele>330.0</ele><time>2026-04-06T14:49:15.983Z</time></trkpt><trkpt lat="40.7045667" lon="8.859935"><ele>334.3333333333333</ele><time>2026-04-06T14:49:16.983Z</time></trkpt><trkpt lat="40.7044867" lon="8.8597533"><ele>338.66666666666663</ele><time>2026-04-06T14:49:17.983Z</time></trkpt><trkpt lat="40.7044317" lon="8.859575"><ele>343.0</ele><time>2026-04-06T14:49:18.983Z</time></trkpt><trkpt lat="40.7044083" lon="8.8593733"><ele>343.25</ele><time>2026-04-06T14:49:19.983Z</time></trkpt><trkpt lat="40.7044167" lon="8.8591683"><ele>343.5</ele><time>2026-04-06T14:49:20.983Z</time></trkpt><trkpt lat="40.7044483" lon="8.8589817"><ele>343.75</ele><time>2026-04-06T14:49:21.983Z</time></trkpt><trkpt lat="40.7045017" lon="8.8588417"><ele>344.0</ele><time>2026-04-06T14:49:22.983Z</time></trkpt><trkpt lat="40.70461" lon="8.8587483"><ele>344.0</ele><time>2026-04-06T14:49:23.983Z</time></trkpt><trkpt lat="40.70476" lon="8.8586917"><ele>344.0</ele><time>2026-04-06T14:49:24.983Z</time></trkpt><trkpt lat="40.7049283" lon="8.8586483"><ele>344.0</ele><time>2026-04-06T14:49:25.983Z</time></trkpt><trkpt lat="40.705085" lon="8.8585717"><ele>344.0</ele><time>2026-04-06T14:49:26.983Z</time></trkpt><trkpt lat="40.7052383" lon="8.8584583"><ele>344.0</ele><time>2026-04-06T14:49:27.983Z</time></trkpt><trkpt lat="40.70536" lon="8.8582967"><ele>344.0</ele><time>2026-04-06T14:49:28.983Z</time></trkpt><trkpt lat="40.7054383" lon="8.8581017"><ele>345.6666666666667</ele><time>2026-04-06T14:49:29.983Z</time></trkpt><trkpt lat="40.7054817" lon="8.857885"><ele>347.3333333333333</ele><time>2026-04-06T14:49:30.983Z</time></trkpt><trkpt lat="40.7054983" lon="8.8576667"><ele>349.0</ele><time>2026-04-06T14:49:31.983Z</time></trkpt><trkpt lat="40.7055317" lon="8.8574433"><ele>349.0</ele><time>2026-04-06T14:49:32.983Z</time></trkpt><trkpt lat="40.7056183" lon="8.85724"><ele>349.0</ele><time>2026-04-06T14:49:33.983Z</time></trkpt><trkpt lat="40.705725" lon="8.8570333"><ele>349.0</ele><time>2026-04-06T14:49:34.983Z</time></trkpt><trkpt lat="40.7058667" lon="8.8568617"><ele>346.3333333333333</ele><time>2026-04-06T14:49:35.984Z</time></trkpt><trkpt lat="40.7060467" lon="8.8566833"><ele>343.6666666666667</ele><time>2026-04-06T14:49:36.983Z</time></trkpt><trkpt lat="40.706185" lon="8.8565167"><ele>341.0</ele><time>2026-04-06T14:49:37.983Z</time></trkpt><trkpt lat="40.7063167" lon="8.8563267"><ele>343.0</ele><time>2026-04-06T14:49:38.983Z</time></trkpt><trkpt lat="40.706445" lon="8.856115"><ele>345.0</ele><time>2026-04-06T14:49:39.983Z</time></trkpt><trkpt lat="40.706575" lon="8.85593"><ele>347.0</ele><time>2026-04-06T14:49:40.983Z</time></trkpt><trkpt lat="40.7067217" lon="8.8557917"><ele>347.0</ele><time>2026-04-06T14:49:41.983Z</time></trkpt><trkpt lat="40.7069" lon="8.85566"><ele>347.0</ele><time>2026-04-06T14:49:42.983Z</time></trkpt><trkpt lat="40.7070583" lon="8.8555317"><ele>347.0</ele><time>2026-04-06T14:49:43.983Z</time></trkpt><trkpt lat="40.7071983" lon="8.8553517"><ele>350.33333333333337</ele><time>2026-04-06T14:49:44.983Z</time></trkpt><trkpt lat="40.707355" lon="8.8551817"><ele>353.6666666666667</ele><time>2026-04-06T14:49:45.983Z</time></trkpt><trkpt lat="40.7075167" lon="8.85501"><ele>357.0</ele><time>2026-04-06T14:49:46.983Z</time></trkpt><trkpt lat="40.7076917" lon="8.8548333"><ele>359.6666666666667</ele><time>2026-04-06T14:49:47.983Z</time></trkpt><trkpt lat="40.7078483" lon="8.854645"><ele>362.33333333333337</ele><time>2026-04-06T14:49:48.983Z</time></trkpt><trkpt lat="40.7079917" lon="8.8544367"><ele>365.0</ele><time>2026-04-06T14:49:49.983Z</time></trkpt><trkpt lat="40.7081467" lon="8.854235"><ele>365.0</ele><time>2026-04-06T14:49:50.983Z</time></trkpt><trkpt lat="40.7083017" lon="8.8540533"><ele>365.0</ele><time>2026-04-06T14:49:51.983Z</time></trkpt><trkpt lat="40.7084517" lon="8.8539033"><ele>365.0</ele><time>2026-04-06T14:49:52.983Z</time></trkpt><trkpt lat="40.708565" lon="8.8537317"><ele>367.0</ele><time>2026-04-06T14:49:53.983Z</time></trkpt><trkpt lat="40.7086467" lon="8.8535267"><ele>369.0</ele><time>2026-04-06T14:49:54.983Z</time></trkpt><trkpt lat="40.7087383" lon="8.85331"><ele>371.0</ele><time>2026-04-06T14:49:55.983Z</time></trkpt><trkpt lat="40.7088467" lon="8.8531283"><ele>371.0</ele><time>2026-04-06T14:49:56.983Z</time></trkpt><trkpt lat="40.7089833" lon="8.853"><ele>371.0</ele><time>2026-04-06T14:49:57.983Z</time></trkpt><trkpt lat="40.7091583" lon="8.852915"><ele>371.0</ele><time>2026-04-06T14:49:58.982Z</time></trkpt><trkpt lat="40.70935" lon="8.8528367"><ele>372.33333333333337</ele><time>2026-04-06T14:49:59.983Z</time></trkpt><trkpt lat="40.7095567" lon="8.8527333"><ele>373.6666666666667</ele><time>2026-04-06T14:50:00.983Z</time></trkpt><trkpt lat="40.7097617" lon="8.8526583"><ele>375.0</ele><time>2026-04-06T14:50:01.983Z</time></trkpt><trkpt lat="40.7099467" lon="8.85257"><ele>375.0</ele><time>2026-04-06T14:50:02.983Z</time></trkpt><trkpt lat="40.710105" lon="8.8524767"><ele>375.0</ele><time>2026-04-06T14:50:03.983Z</time></trkpt><trkpt lat="40.7102117" lon="8.8523317"><ele>375.0</ele><time>2026-04-06T14:50:04.983Z</time></trkpt><trkpt lat="40.7103117" lon="8.8521233"><ele>376.3333333333333</ele><time>2026-04-06T14:50:05.984Z</time></trkpt><trkpt lat="40.710425" lon="8.8519017"><ele>377.66666666666663</ele><time>2026-04-06T14:50:06.983Z</time></trkpt><trkpt lat="40.7105667" lon="8.8516867"><ele>379.0</ele><time>2026-04-06T14:50:07.983Z</time></trkpt><trkpt lat="40.7107167" lon="8.8515217"><ele>379.0</ele><time>2026-04-06T14:50:08.983Z</time></trkpt><trkpt lat="40.7108667" lon="8.851385"><ele>379.0</ele><time>2026-04-06T14:50:09.983Z</time></trkpt><trkpt lat="40.71101" lon="8.8512683"><ele>379.0</ele><time>2026-04-06T14:50:10.983Z</time></trkpt><trkpt lat="40.7111533" lon="8.8512183"><ele>381.0</ele><time>2026-04-06T14:50:11.983Z</time></trkpt><trkpt lat="40.7112967" lon="8.8512417"><ele>383.0</ele><time>2026-04-06T14:50:12.983Z</time></trkpt><trkpt lat="40.7114517" lon="8.8513067"><ele>385.0</ele><time>2026-04-06T14:50:13.983Z</time></trkpt><trkpt lat="40.7115967" lon="8.8513383"><ele>385.0</ele><time>2026-04-06T14:50:14.983Z</time></trkpt><trkpt lat="40.711745" lon="8.8513"><ele>385.0</ele><time>2026-04-06T14:50:15.983Z</time></trkpt><trkpt lat="40.7118867" lon="8.8511933"><ele>385.0</ele><time>2026-04-06T14:50:16.983Z</time></trkpt><trkpt lat="40.71203" lon="8.8510483"><ele>385.33333333333337</ele><time>2026-04-06T14:50:17.983Z</time></trkpt><trkpt lat="40.712145" lon="8.8508683"><ele>385.66666666666663</ele><time>2026-04-06T14:50:18.983Z</time></trkpt><trkpt lat="40.7122267" lon="8.85068"><ele>386.0</ele><time>2026-04-06T14:50:19.983Z</time></trkpt><trkpt lat="40.7122583" lon="8.8505"><ele>386.0</ele><time>2026-04-06T14:50:20.983Z</time></trkpt><trkpt lat="40.7122567" lon="8.8503033"><ele>386.0</ele><time>2026-04-06T14:50:21.983Z</time></trkpt><trkpt lat="40.7122133" lon="8.8500983"><ele>386.0</ele><time>2026-04-06T14:50:22.983Z</time></trkpt><trkpt lat="40.7121833" lon="8.8498983"><ele>385.0</ele><time>2026-04-06T14:50:23.983Z</time></trkpt><trkpt lat="40.7122233" lon="8.8497067"><ele>384.0</ele><time>2026-04-06T14:50:24.983Z</time></trkpt><trkpt lat="40.7122967" lon="8.8494817"><ele>383.0</ele><time>2026-04-06T14:50:25.983Z</time></trkpt><trkpt lat="40.7123883" lon="8.8492483"><ele>382.6666666666667</ele><time>2026-04-06T14:50:26.983Z</time></trkpt><trkpt lat="40.7124767" lon="8.84902"><ele>382.3333333333333</ele><time>2026-04-06T14:50:27.983Z</time></trkpt><trkpt lat="40.71258" lon="8.848805"><ele>382.0</ele><time>2026-04-06T14:50:28.983Z</time></trkpt><trkpt lat="40.71272" lon="8.8486167"><ele>381.3333333333333</ele><time>2026-04-06T14:50:29.983Z</time></trkpt><trkpt lat="40.7128983" lon="8.8484417"><ele>380.6666666666667</ele><time>2026-04-06T14:50:30.983Z</time></trkpt><trkpt lat="40.7130967" lon="8.8482967"><ele>380.0</ele><time>2026-04-06T14:50:31.983Z</time></trkpt><trkpt lat="40.713315" lon="8.8481333"><ele>380.0</ele><time>2026-04-06T14:50:32.983Z</time></trkpt><trkpt lat="40.7135483" lon="8.8479633"><ele>380.0</ele><time>2026-04-06T14:50:33.983Z</time></trkpt><trkpt lat="40.713785" lon="8.84778"><ele>378.5</ele><time>2026-04-06T14:50:34.983Z</time></trkpt><trkpt lat="40.71401" lon="8.8475967"><ele>377.0</ele><time>2026-04-06T14:50:35.983Z</time></trkpt><trkpt lat="40.71422" lon="8.847415"><ele>377.0</ele><time>2026-04-06T14:50:36.983Z</time></trkpt><trkpt lat="40.7144433" lon="8.84723"><ele>377.0</ele><time>2026-04-06T14:50:37.983Z</time></trkpt><trkpt lat="40.71466" lon="8.8470617"><ele>377.0</ele><time>2026-04-06T14:50:38.984Z</time></trkpt><trkpt lat="40.7148683" lon="8.8468917"><ele>377.0</ele><time>2026-04-06T14:50:39.984Z</time></trkpt><trkpt lat="40.7150767" lon="8.8467367"><ele>377.5</ele><time>2026-04-06T14:50:40.983Z</time></trkpt><trkpt lat="40.71528" lon="8.8465783"><ele>378.0</ele><time>2026-04-06T14:50:41.983Z</time></trkpt><trkpt lat="40.7154833" lon="8.846415"><ele>378.0</ele><time>2026-04-06T14:50:42.983Z</time></trkpt><trkpt lat="40.71568" lon="8.8462583"><ele>378.0</ele><time>2026-04-06T14:50:43.983Z</time></trkpt><trkpt lat="40.7158767" lon="8.8460933"><ele>378.0</ele><time>2026-04-06T14:50:44.983Z</time></trkpt><trkpt lat="40.716065" lon="8.8459333"><ele>378.0</ele><time>2026-04-06T14:50:45.983Z</time></trkpt><trkpt lat="40.7162567" lon="8.8457783"><ele>378.0</ele><time>2026-04-06T14:50:46.983Z</time></trkpt><trkpt lat="40.7164533" lon="8.845615"><ele>378.0</ele><time>2026-04-06T14:50:47.983Z</time></trkpt><trkpt lat="40.716645" lon="8.845485"><ele>378.0</ele><time>2026-04-06T14:50:48.983Z</time></trkpt><trkpt lat="40.71683" lon="8.8453517"><ele>378.0</ele><time>2026-04-06T14:50:49.983Z</time></trkpt><trkpt lat="40.717005" lon="8.8452017"><ele>377.3333333333333</ele><time>2026-04-06T14:50:50.983Z</time></trkpt><trkpt lat="40.717165" lon="8.8450717"><ele>376.66666666666663</ele><time>2026-04-06T14:50:51.983Z</time></trkpt><trkpt lat="40.7173117" lon="8.8449617"><ele>376.0</ele><time>2026-04-06T14:50:52.983Z</time></trkpt><trkpt lat="40.71745" lon="8.8448433"><ele>376.0</ele><time>2026-04-06T14:50:53.983Z</time></trkpt><trkpt lat="40.71758" lon="8.8447333"><ele>376.0</ele><time>2026-04-06T14:50:54.983Z</time></trkpt><trkpt lat="40.7177117" lon="8.8446283"><ele>376.0</ele><time>2026-04-06T14:50:55.983Z</time></trkpt><trkpt lat="40.7178317" lon="8.84454"><ele>376.0</ele><time>2026-04-06T14:50:56.983Z</time></trkpt><trkpt lat="40.7179467" lon="8.844455"><ele>375.6</ele><time>2026-04-06T14:50:57.983Z</time></trkpt><trkpt lat="40.7180567" lon="8.8443817"><ele>375.20000000000005</ele><time>2026-04-06T14:50:58.983Z</time></trkpt><trkpt lat="40.7181567" lon="8.84433"><ele>374.79999999999995</ele><time>2026-04-06T14:50:59.983Z</time></trkpt><trkpt lat="40.7182367" lon="8.84428"><ele>374.4</ele><time>2026-04-06T14:51:00.983Z</time></trkpt><trkpt lat="40.7183017" lon="8.8442483"><ele>374.0</ele><time>2026-04-06T14:51:01.983Z</time></trkpt><trkpt lat="40.7184083" lon="8.844205"><ele>374.33333333333337</ele><time>2026-04-06T14:51:03.983Z</time></trkpt><trkpt lat="40.7184867" lon="8.844165"><ele>374.6666666666667</ele><time>2026-04-06T14:51:05.984Z</time></trkpt><trkpt lat="40.718555" lon="8.844135"><ele>375.0</ele><time>2026-04-06T14:51:07.983Z</time></trkpt><trkpt lat="40.71862" lon="8.8441083"><ele>375.3333333333333</ele><time>2026-04-06T14:51:10.983Z</time></trkpt><trkpt lat="40.7186833" lon="8.8440917"><ele>375.66666666666663</ele><time>2026-04-06T14:54:10.984Z</time></trkpt><trkpt lat="40.71877" lon="8.8440017"><ele>376.0</ele><time>2026-04-06T14:54:12.983Z</time></trkpt><trkpt lat="40.7188317" lon="8.8439467"><ele>376.0</ele><time>2026-04-06T14:54:13.983Z</time></trkpt><trkpt lat="40.7189033" lon="8.8438867"><ele>376.0</ele><time>2026-04-06T14:54:14.983Z</time></trkpt><trkpt lat="40.7189783" lon="8.8438133"><ele>376.0</ele><time>2026-04-06T14:54:15.983Z</time></trkpt><trkpt lat="40.71905" lon="8.8437467"><ele>376.0</ele><time>2026-04-06T14:54:16.983Z</time></trkpt><trkpt lat="40.7191233" lon="8.8436717"><ele>376.0</ele><time>2026-04-06T14:54:17.984Z</time></trkpt><trkpt lat="40.7191933" lon="8.8436033"><ele>376.0</ele><time>2026-04-06T14:54:18.983Z</time></trkpt><trkpt lat="40.719275" lon="8.8435517"><ele>376.0</ele><time>2026-04-06T14:54:19.983Z</time></trkpt><trkpt lat="40.7193567" lon="8.8435183"><ele>376.0</ele><time>2026-04-06T14:54:20.983Z</time></trkpt><trkpt lat="40.71944" lon="8.84351"><ele>376.0</ele><time>2026-04-06T14:54:21.983Z</time></trkpt><trkpt lat="40.7195283" lon="8.84353"><ele>376.0</ele><time>2026-04-06T14:54:22.983Z</time></trkpt><trkpt lat="40.7196133" lon="8.843555"><ele>376.0</ele><time>2026-04-06T14:54:23.983Z</time></trkpt><trkpt lat="40.7196917" lon="8.8435917"><ele>376.0</ele><time>2026-04-06T14:54:24.983Z</time></trkpt><trkpt lat="40.719775" lon="8.84361"><ele>375.20000000000005</ele><time>2026-04-06T14:54:25.983Z</time></trkpt><trkpt lat="40.7198633" lon="8.84359"><ele>374.40000000000003</ele><time>2026-04-06T14:54:26.983Z</time></trkpt><trkpt lat="40.7199533" lon="8.843555"><ele>373.6</ele><time>2026-04-06T14:54:27.983Z</time></trkpt><trkpt lat="40.7200317" lon="8.8435117"><ele>372.8</ele><time>2026-04-06T14:54:28.983Z</time></trkpt><trkpt lat="40.7201183" lon="8.8434417"><ele>372.0</ele><time>2026-04-06T14:54:29.983Z</time></trkpt><trkpt lat="40.7202083" lon="8.84337"><ele>372.0</ele><time>2026-04-06T14:54:30.983Z</time></trkpt><trkpt lat="40.7202883" lon="8.8432933"><ele>372.0</ele><time>2026-04-06T14:54:31.983Z</time></trkpt><trkpt lat="40.720365" lon="8.8432267"><ele>372.0</ele><time>2026-04-06T14:54:32.983Z</time></trkpt><trkpt lat="40.7204417" lon="8.8431533"><ele>372.0</ele><time>2026-04-06T14:54:33.983Z</time></trkpt><trkpt lat="40.7205267" lon="8.8430817"><ele>372.0</ele><time>2026-04-06T14:54:34.983Z</time></trkpt><trkpt lat="40.720595" lon="8.8430117"><ele>372.0</ele><time>2026-04-06T14:54:35.983Z</time></trkpt><trkpt lat="40.7206633" lon="8.842925"><ele>372.0</ele><time>2026-04-06T14:54:36.983Z</time></trkpt><trkpt lat="40.7207133" lon="8.8428517"><ele>372.0</ele><time>2026-04-06T14:54:37.983Z</time></trkpt><trkpt lat="40.7207433" lon="8.8427583"><ele>372.0</ele><time>2026-04-06T14:54:38.983Z</time></trkpt><trkpt lat="40.7207567" lon="8.8426667"><ele>372.0</ele><time>2026-04-06T14:54:39.983Z</time></trkpt><trkpt lat="40.7207467" lon="8.8425683"><ele>372.0</ele><time>2026-04-06T14:54:40.983Z</time></trkpt><trkpt lat="40.7207083" lon="8.8424633"><ele>372.40000000000003</ele><time>2026-04-06T14:54:41.983Z</time></trkpt><trkpt lat="40.7206583" lon="8.842355"><ele>372.8</ele><time>2026-04-06T14:54:42.983Z</time></trkpt><trkpt lat="40.7206" lon="8.8422483"><ele>373.2</ele><time>2026-04-06T14:54:43.983Z</time></trkpt><trkpt lat="40.7205267" lon="8.8421583"><ele>373.6</ele><time>2026-04-06T14:54:44.983Z</time></trkpt><trkpt lat="40.7204383" lon="8.8420733"><ele>374.0</ele><time>2026-04-06T14:54:45.983Z</time></trkpt><trkpt lat="40.720355" lon="8.8420167"><ele>374.0</ele><time>2026-04-06T14:54:46.983Z</time></trkpt><trkpt lat="40.7202667" lon="8.8419433"><ele>374.0</ele><time>2026-04-06T14:54:47.983Z</time></trkpt><trkpt lat="40.7201917" lon="8.84186"><ele>374.0</ele><time>2026-04-06T14:54:48.983Z</time></trkpt><trkpt lat="40.7201467" lon="8.8417517"><ele>374.0</ele><time>2026-04-06T14:54:49.983Z</time></trkpt><trkpt lat="40.72014" lon="8.8416283"><ele>374.0</ele><time>2026-04-06T14:54:50.983Z</time></trkpt><trkpt lat="40.72015" lon="8.8414917"><ele>376.25</ele><time>2026-04-06T14:54:51.983Z</time></trkpt><trkpt lat="40.7201483" lon="8.8413517"><ele>378.5</ele><time>2026-04-06T14:54:52.983Z</time></trkpt><trkpt lat="40.7201617" lon="8.8411983"><ele>380.75</ele><time>2026-04-06T14:54:53.983Z</time></trkpt><trkpt lat="40.72018" lon="8.8410383"><ele>383.0</ele><time>2026-04-06T14:54:54.983Z</time></trkpt><trkpt lat="40.7202083" lon="8.8408733"><ele>382.5</ele><time>2026-04-06T14:54:55.983Z</time></trkpt><trkpt lat="40.72027" lon="8.8407133"><ele>382.0</ele><time>2026-04-06T14:54:56.983Z</time></trkpt><trkpt lat="40.7203383" lon="8.8405533"><ele>381.5</ele><time>2026-04-06T14:54:57.983Z</time></trkpt><trkpt lat="40.7203983" lon="8.8404083"><ele>381.0</ele><time>2026-04-06T14:54:58.983Z</time></trkpt><trkpt lat="40.7204733" lon="8.8402767"><ele>381.0</ele><time>2026-04-06T14:54:59.983Z</time></trkpt><trkpt lat="40.7205467" lon="8.840195"><ele>381.0</ele><time>2026-04-06T14:55:00.983Z</time></trkpt><trkpt lat="40.7206583" lon="8.8401733"><ele>381.0</ele><time>2026-04-06T14:55:01.983Z</time></trkpt><trkpt lat="40.720775" lon="8.8402033"><ele>381.0</ele><time>2026-04-06T14:55:02.983Z</time></trkpt><trkpt lat="40.720885" lon="8.84028"><ele>381.0</ele><time>2026-04-06T14:55:03.983Z</time></trkpt><trkpt lat="40.7209883" lon="8.8403817"><ele>381.0</ele><time>2026-04-06T14:55:04.983Z</time></trkpt><trkpt lat="40.7210333" lon="8.84052"><ele>381.0</ele><time>2026-04-06T14:55:05.983Z</time></trkpt><trkpt lat="40.721055" lon="8.8406583"><ele>381.0</ele><time>2026-04-06T14:55:06.983Z</time></trkpt><trkpt lat="40.7210817" lon="8.8407833"><ele>381.0</ele><time>2026-04-06T14:55:07.983Z</time></trkpt><trkpt lat="40.721115" lon="8.8408917"><ele>381.6</ele><time>2026-04-06T14:55:08.983Z</time></trkpt><trkpt lat="40.7211617" lon="8.840975"><ele>382.20000000000005</ele><time>2026-04-06T14:55:09.983Z</time></trkpt><trkpt lat="40.72123" lon="8.8410317"><ele>382.79999999999995</ele><time>2026-04-06T14:55:10.983Z</time></trkpt><trkpt lat="40.7213067" lon="8.8410383"><ele>383.4</ele><time>2026-04-06T14:55:11.983Z</time></trkpt><trkpt lat="40.7214133" lon="8.8410033"><ele>384.0</ele><time>2026-04-06T14:55:12.983Z</time></trkpt><trkpt lat="40.7215283" lon="8.8409317"><ele>384.0</ele><time>2026-04-06T14:55:13.983Z</time></trkpt><trkpt lat="40.721645" lon="8.8408417"><ele>384.0</ele><time>2026-04-06T14:55:14.983Z</time></trkpt><trkpt lat="40.7217717" lon="8.84078"><ele>384.0</ele><time>2026-04-06T14:55:15.983Z</time></trkpt><trkpt lat="40.7219183" lon="8.8407583"><ele>384.0</ele><time>2026-04-06T14:55:16.983Z</time></trkpt><trkpt lat="40.7220867" lon="8.8407483"><ele>384.75</ele><time>2026-04-06T14:55:17.983Z</time></trkpt><trkpt lat="40.722245" lon="8.8407783"><ele>385.5</ele><time>2026-04-06T14:55:18.983Z</time></trkpt><trkpt lat="40.7223883" lon="8.8408033"><ele>386.25</ele><time>2026-04-06T14:55:19.983Z</time></trkpt><trkpt lat="40.72252" lon="8.8407933"><ele>387.0</ele><time>2026-04-06T14:55:20.983Z</time></trkpt><trkpt lat="40.7226117" lon="8.84077"><ele>387.0</ele><time>2026-04-06T14:55:21.983Z</time></trkpt><trkpt lat="40.7226583" lon="8.8406967"><ele>387.0</ele><time>2026-04-06T14:55:22.983Z</time></trkpt><trkpt lat="40.7226733" lon="8.8406067"><ele>387.0</ele><time>2026-04-06T14:55:23.983Z</time></trkpt><trkpt lat="40.7226733" lon="8.8405083"><ele>387.0</ele><time>2026-04-06T14:55:24.983Z</time></trkpt><trkpt lat="40.72268" lon="8.8404083"><ele>387.0</ele><time>2026-04-06T14:55:25.983Z</time></trkpt><trkpt lat="40.7226867" lon="8.8403017"><ele>387.0</ele><time>2026-04-06T14:55:26.983Z</time></trkpt><trkpt lat="40.7226933" lon="8.8401683"><ele>388.25</ele><time>2026-04-06T14:55:27.983Z</time></trkpt><trkpt lat="40.7226983" lon="8.8400167"><ele>389.5</ele><time>2026-04-06T14:55:28.983Z</time></trkpt><trkpt lat="40.7227083" lon="8.8398567"><ele>390.75</ele><time>2026-04-06T14:55:29.983Z</time></trkpt><trkpt lat="40.7227117" lon="8.8396667"><ele>392.0</ele><time>2026-04-06T14:55:30.983Z</time></trkpt><trkpt lat="40.72272" lon="8.839485"><ele>393.0</ele><time>2026-04-06T14:55:31.983Z</time></trkpt><trkpt lat="40.7226883" lon="8.8392817"><ele>394.0</ele><time>2026-04-06T14:55:32.983Z</time></trkpt><trkpt lat="40.7226133" lon="8.8390767"><ele>395.0</ele><time>2026-04-06T14:55:33.983Z</time></trkpt><trkpt lat="40.7225283" lon="8.8388533"><ele>395.0</ele><time>2026-04-06T14:55:34.983Z</time></trkpt><trkpt lat="40.72243" lon="8.838625"><ele>395.0</ele><time>2026-04-06T14:55:35.983Z</time></trkpt><trkpt lat="40.722335" lon="8.8383817"><ele>395.0</ele><time>2026-04-06T14:55:36.983Z</time></trkpt><trkpt lat="40.7222517" lon="8.83813"><ele>395.3333333333333</ele><time>2026-04-06T14:55:37.983Z</time></trkpt><trkpt lat="40.7221683" lon="8.837895"><ele>395.66666666666663</ele><time>2026-04-06T14:55:38.983Z</time></trkpt><trkpt lat="40.7220917" lon="8.8376617"><ele>396.0</ele><time>2026-04-06T14:55:39.983Z</time></trkpt><trkpt lat="40.722025" lon="8.8374567"><ele>396.25</ele><time>2026-04-06T14:55:40.983Z</time></trkpt><trkpt lat="40.7219933" lon="8.8372833"><ele>396.5</ele><time>2026-04-06T14:55:41.983Z</time></trkpt><trkpt lat="40.72201" lon="8.8371317"><ele>396.75</ele><time>2026-04-06T14:55:42.983Z</time></trkpt><trkpt lat="40.7220767" lon="8.8370167"><ele>397.0</ele><time>2026-04-06T14:55:43.984Z</time></trkpt><trkpt lat="40.7221867" lon="8.8369433"><ele>397.0</ele><time>2026-04-06T14:55:44.983Z</time></trkpt><trkpt lat="40.72232" lon="8.8368933"><ele>397.0</ele><time>2026-04-06T14:55:45.983Z</time></trkpt><trkpt lat="40.7224617" lon="8.83683"><ele>397.0</ele><time>2026-04-06T14:55:46.983Z</time></trkpt><trkpt lat="40.7225783" lon="8.83674"><ele>397.0</ele><time>2026-04-06T14:55:47.983Z</time></trkpt><trkpt lat="40.7226533" lon="8.8366317"><ele>397.25</ele><time>2026-04-06T14:55:48.984Z</time></trkpt><trkpt lat="40.7226833" lon="8.836485"><ele>397.5</ele><time>2026-04-06T14:55:49.983Z</time></trkpt><trkpt lat="40.7226483" lon="8.8363167"><ele>397.75</ele><time>2026-04-06T14:55:50.983Z</time></trkpt><trkpt lat="40.722605" lon="8.8361283"><ele>398.0</ele><time>2026-04-06T14:55:51.984Z</time></trkpt><trkpt lat="40.722555" lon="8.83592"><ele>398.0</ele><time>2026-04-06T14:55:52.983Z</time></trkpt><trkpt lat="40.72249" lon="8.8357017"><ele>398.0</ele><time>2026-04-06T14:55:53.983Z</time></trkpt><trkpt lat="40.7224283" lon="8.8354617"><ele>398.0</ele><time>2026-04-06T14:55:54.983Z</time></trkpt><trkpt lat="40.7223567" lon="8.8352033"><ele>397.0</ele><time>2026-04-06T14:55:55.983Z</time></trkpt><trkpt lat="40.72229" lon="8.8349417"><ele>396.0</ele><time>2026-04-06T14:55:56.983Z</time></trkpt><trkpt lat="40.7222317" lon="8.8346883"><ele>395.0</ele><time>2026-04-06T14:55:57.983Z</time></trkpt><trkpt lat="40.72217" lon="8.8344567"><ele>393.66666666666663</ele><time>2026-04-06T14:55:58.983Z</time></trkpt><trkpt lat="40.7221283" lon="8.83424"><ele>392.33333333333337</ele><time>2026-04-06T14:55:59.984Z</time></trkpt><trkpt lat="40.7220383" lon="8.8340583"><ele>391.0</ele><time>2026-04-06T14:56:00.983Z</time></trkpt><trkpt lat="40.72191" lon="8.8339317"><ele>393.0</ele><time>2026-04-06T14:56:01.983Z</time></trkpt><trkpt lat="40.7217667" lon="8.8338467"><ele>395.0</ele><time>2026-04-06T14:56:02.983Z</time></trkpt><trkpt lat="40.7216267" lon="8.8337483"><ele>397.0</ele><time>2026-04-06T14:56:03.983Z</time></trkpt><trkpt lat="40.7214933" lon="8.83361"><ele>395.0</ele><time>2026-04-06T14:56:04.983Z</time></trkpt><trkpt lat="40.7214083" lon="8.8334067"><ele>393.0</ele><time>2026-04-06T14:56:05.983Z</time></trkpt><trkpt lat="40.7213517" lon="8.8331633"><ele>391.0</ele><time>2026-04-06T14:56:06.983Z</time></trkpt><trkpt lat="40.7212867" lon="8.8329133"><ele>391.0</ele><time>2026-04-06T14:56:07.983Z</time></trkpt><trkpt lat="40.72121" lon="8.832645"><ele>391.0</ele><time>2026-04-06T14:56:08.983Z</time></trkpt><trkpt lat="40.721135" lon="8.8323767"><ele>391.0</ele><time>2026-04-06T14:56:09.983Z</time></trkpt><trkpt lat="40.7210633" lon="8.8321"><ele>391.0</ele><time>2026-04-06T14:56:10.983Z</time></trkpt><trkpt lat="40.7209933" lon="8.8318383"><ele>391.0</ele><time>2026-04-06T14:56:11.983Z</time></trkpt><trkpt lat="40.720935" lon="8.83159"><ele>391.0</ele><time>2026-04-06T14:56:12.983Z</time></trkpt><trkpt lat="40.7209033" lon="8.8313417"><ele>390.33333333333337</ele><time>2026-04-06T14:56:13.983Z</time></trkpt><trkpt lat="40.7209" lon="8.83111"><ele>389.66666666666663</ele><time>2026-04-06T14:56:14.983Z</time></trkpt><trkpt lat="40.720935" lon="8.8308717"><ele>389.0</ele><time>2026-04-06T14:56:15.983Z</time></trkpt><trkpt lat="40.7209917" lon="8.8306117"><ele>387.0</ele><time>2026-04-06T14:56:16.984Z</time></trkpt><trkpt lat="40.7210483" lon="8.83033"><ele>385.0</ele><time>2026-04-06T14:56:17.983Z</time></trkpt><trkpt lat="40.7211183" lon="8.8300417"><ele>383.5</ele><time>2026-04-06T14:56:18.983Z</time></trkpt><trkpt lat="40.7211883" lon="8.8297567"><ele>382.0</ele><time>2026-04-06T14:56:19.983Z</time></trkpt><trkpt lat="40.721255" lon="8.8294633"><ele>382.5</ele><time>2026-04-06T14:56:20.983Z</time></trkpt><trkpt lat="40.7213317" lon="8.82916"><ele>383.0</ele><time>2026-04-06T14:56:21.983Z</time></trkpt><trkpt lat="40.721395" lon="8.8288517"><ele>383.0</ele><time>2026-04-06T14:56:22.983Z</time></trkpt><trkpt lat="40.7214333" lon="8.82857"><ele>383.0</ele><time>2026-04-06T14:56:23.983Z</time></trkpt><trkpt lat="40.7214917" lon="8.8283017"><ele>383.0</ele><time>2026-04-06T14:56:24.983Z</time></trkpt><trkpt lat="40.7215483" lon="8.8280617"><ele>384.0</ele><time>2026-04-06T14:56:25.983Z</time></trkpt><trkpt lat="40.7215917" lon="8.8278517"><ele>385.0</ele><time>2026-04-06T14:56:26.984Z</time></trkpt><trkpt lat="40.721635" lon="8.8276567"><ele>386.0</ele><time>2026-04-06T14:56:27.983Z</time></trkpt><trkpt lat="40.7216933" lon="8.8274933"><ele>386.0</ele><time>2026-04-06T14:56:28.983Z</time></trkpt><trkpt lat="40.7217983" lon="8.8273833"><ele>386.0</ele><time>2026-04-06T14:56:29.983Z</time></trkpt><trkpt lat="40.72195" lon="8.8273267"><ele>386.0</ele><time>2026-04-06T14:56:30.983Z</time></trkpt><trkpt lat="40.7221133" lon="8.827315"><ele>385.3333333333333</ele><time>2026-04-06T14:56:31.983Z</time></trkpt><trkpt lat="40.722285" lon="8.8273583"><ele>384.66666666666663</ele><time>2026-04-06T14:56:32.983Z</time></trkpt><trkpt lat="40.7224583" lon="8.8274117"><ele>384.0</ele><time>2026-04-06T14:56:33.983Z</time></trkpt><trkpt lat="40.722655" lon="8.8274533"><ele>382.3333333333333</ele><time>2026-04-06T14:56:34.983Z</time></trkpt><trkpt lat="40.7228533" lon="8.8274917"><ele>380.66666666666663</ele><time>2026-04-06T14:56:35.983Z</time></trkpt><trkpt lat="40.7230533" lon="8.8275283"><ele>379.0</ele><time>2026-04-06T14:56:36.983Z</time></trkpt><trkpt lat="40.7232583" lon="8.8275533"><ele>379.0</ele><time>2026-04-06T14:56:37.983Z</time></trkpt><trkpt lat="40.7234533" lon="8.827575"><ele>379.0</ele><time>2026-04-06T14:56:38.983Z</time></trkpt><trkpt lat="40.7236383" lon="8.8275733"><ele>379.0</ele><time>2026-04-06T14:56:39.983Z</time></trkpt><trkpt lat="40.7238183" lon="8.8275283"><ele>378.0</ele><time>2026-04-06T14:56:40.983Z</time></trkpt><trkpt lat="40.7240033" lon="8.8274117"><ele>377.0</ele><time>2026-04-06T14:56:41.983Z</time></trkpt><trkpt lat="40.724185" lon="8.82726"><ele>376.0</ele><time>2026-04-06T14:56:42.983Z</time></trkpt><trkpt lat="40.72435" lon="8.827105"><ele>375.66666666666663</ele><time>2026-04-06T14:56:43.983Z</time></trkpt><trkpt lat="40.7245217" lon="8.826945"><ele>375.3333333333333</ele><time>2026-04-06T14:56:44.983Z</time></trkpt><trkpt lat="40.7246983" lon="8.8267917"><ele>375.0</ele><time>2026-04-06T14:56:45.983Z</time></trkpt><trkpt lat="40.7248867" lon="8.8266333"><ele>375.0</ele><time>2026-04-06T14:56:46.983Z</time></trkpt><trkpt lat="40.7250767" lon="8.82647"><ele>375.0</ele><time>2026-04-06T14:56:47.983Z</time></trkpt><trkpt lat="40.7252633" lon="8.8263333"><ele>375.0</ele><time>2026-04-06T14:56:48.983Z</time></trkpt><trkpt lat="40.72545" lon="8.8262317"><ele>374.6666666666667</ele><time>2026-04-06T14:56:49.983Z</time></trkpt><trkpt lat="40.7256283" lon="8.8261817"><ele>374.33333333333337</ele><time>2026-04-06T14:56:50.983Z</time></trkpt><trkpt lat="40.7258217" lon="8.826185"><ele>374.0</ele><time>2026-04-06T14:56:51.983Z</time></trkpt><trkpt lat="40.7259933" lon="8.82625"><ele>375.0</ele><time>2026-04-06T14:56:52.983Z</time></trkpt><trkpt lat="40.726165" lon="8.8263717"><ele>376.0</ele><time>2026-04-06T14:56:53.983Z</time></trkpt><trkpt lat="40.7263267" lon="8.8265317"><ele>377.0</ele><time>2026-04-06T14:56:54.983Z</time></trkpt><trkpt lat="40.726495" lon="8.8267117"><ele>376.6666666666667</ele><time>2026-04-06T14:56:55.983Z</time></trkpt><trkpt lat="40.726645" lon="8.82691"><ele>376.3333333333333</ele><time>2026-04-06T14:56:56.983Z</time></trkpt><trkpt lat="40.7267833" lon="8.8270917"><ele>376.0</ele><time>2026-04-06T14:56:57.983Z</time></trkpt><trkpt lat="40.7269117" lon="8.82725"><ele>376.0</ele><time>2026-04-06T14:56:58.983Z</time></trkpt><trkpt lat="40.7270333" lon="8.8273783"><ele>376.0</ele><time>2026-04-06T14:56:59.983Z</time></trkpt><trkpt lat="40.7271583" lon="8.8274567"><ele>376.0</ele><time>2026-04-06T14:57:00.983Z</time></trkpt><trkpt lat="40.72727" lon="8.8274517"><ele>376.0</ele><time>2026-04-06T14:57:01.983Z</time></trkpt><trkpt lat="40.7273817" lon="8.8273783"><ele>376.0</ele><time>2026-04-06T14:57:02.983Z</time></trkpt><trkpt lat="40.7275033" lon="8.8272417"><ele>376.0</ele><time>2026-04-06T14:57:03.983Z</time></trkpt><trkpt lat="40.727645" lon="8.827085"><ele>376.0</ele><time>2026-04-06T14:57:04.983Z</time></trkpt><trkpt lat="40.727795" lon="8.82691"><ele>375.66666666666663</ele><time>2026-04-06T14:57:05.983Z</time></trkpt><trkpt lat="40.727965" lon="8.8267317"><ele>375.3333333333333</ele><time>2026-04-06T14:57:06.983Z</time></trkpt><trkpt lat="40.7281383" lon="8.8265517"><ele>375.0</ele><time>2026-04-06T14:57:07.983Z</time></trkpt><trkpt lat="40.7283217" lon="8.826355"><ele>375.0</ele><time>2026-04-06T14:57:08.983Z</time></trkpt><trkpt lat="40.7285117" lon="8.8261417"><ele>375.0</ele><time>2026-04-06T14:57:09.983Z</time></trkpt><trkpt lat="40.7287083" lon="8.82591"><ele>373.0</ele><time>2026-04-06T14:57:10.983Z</time></trkpt><trkpt lat="40.7289" lon="8.8256783"><ele>371.0</ele><time>2026-04-06T14:57:11.983Z</time></trkpt><trkpt lat="40.7291017" lon="8.8254433"><ele>371.0</ele><time>2026-04-06T14:57:12.983Z</time></trkpt><trkpt lat="40.7293083" lon="8.8252233"><ele>371.0</ele><time>2026-04-06T14:57:13.983Z</time></trkpt><trkpt lat="40.729525" lon="8.8250017"><ele>371.0</ele><time>2026-04-06T14:57:14.983Z</time></trkpt><trkpt lat="40.7297233" lon="8.8247783"><ele>371.0</ele><time>2026-04-06T14:57:15.983Z</time></trkpt><trkpt lat="40.7299233" lon="8.8245467"><ele>371.0</ele><time>2026-04-06T14:57:16.983Z</time></trkpt><trkpt lat="40.73012" lon="8.8243333"><ele>371.0</ele><time>2026-04-06T14:57:17.983Z</time></trkpt><trkpt lat="40.7303183" lon="8.8241367"><ele>369.0</ele><time>2026-04-06T14:57:18.983Z</time></trkpt><trkpt lat="40.73051" lon="8.8239617"><ele>367.0</ele><time>2026-04-06T14:57:19.983Z</time></trkpt><trkpt lat="40.73069" lon="8.8237767"><ele>367.0</ele><time>2026-04-06T14:57:20.984Z</time></trkpt><trkpt lat="40.730855" lon="8.8236"><ele>367.0</ele><time>2026-04-06T14:57:21.983Z</time></trkpt><trkpt lat="40.7310283" lon="8.823435"><ele>367.0</ele><time>2026-04-06T14:57:22.983Z</time></trkpt><trkpt lat="40.731205" lon="8.8233217"><ele>365.0</ele><time>2026-04-06T14:57:23.983Z</time></trkpt><trkpt lat="40.7314" lon="8.82325"><ele>363.0</ele><time>2026-04-06T14:57:24.983Z</time></trkpt><trkpt lat="40.73161" lon="8.8231967"><ele>361.0</ele><time>2026-04-06T14:57:25.983Z</time></trkpt><trkpt lat="40.7318017" lon="8.8231433"><ele>359.0</ele><time>2026-04-06T14:57:26.983Z</time></trkpt><trkpt lat="40.7319917" lon="8.8230817"><ele>357.0</ele><time>2026-04-06T14:57:27.983Z</time></trkpt><trkpt lat="40.732185" lon="8.8230083"><ele>355.0</ele><time>2026-04-06T14:57:28.983Z</time></trkpt><trkpt lat="40.732365" lon="8.822915"><ele>355.0</ele><time>2026-04-06T14:57:29.983Z</time></trkpt><trkpt lat="40.7325333" lon="8.822785"><ele>355.0</ele><time>2026-04-06T14:57:30.983Z</time></trkpt><trkpt lat="40.732695" lon="8.8226533"><ele>355.0</ele><time>2026-04-06T14:57:31.983Z</time></trkpt><trkpt lat="40.73285" lon="8.8225417"><ele>354.3333333333333</ele><time>2026-04-06T14:57:32.983Z</time></trkpt><trkpt lat="40.7329717" lon="8.8224333"><ele>353.6666666666667</ele><time>2026-04-06T14:57:33.983Z</time></trkpt><trkpt lat="40.7330833" lon="8.8222733"><ele>353.0</ele><time>2026-04-06T14:57:34.983Z</time></trkpt><trkpt lat="40.7331533" lon="8.8220833"><ele>353.0</ele><time>2026-04-06T14:57:35.983Z</time></trkpt><trkpt lat="40.73321" lon="8.8218683"><ele>353.0</ele><time>2026-04-06T14:57:36.984Z</time></trkpt><trkpt lat="40.7332833" lon="8.8216667"><ele>353.0</ele><time>2026-04-06T14:57:37.984Z</time></trkpt><trkpt lat="40.733375" lon="8.8214817"><ele>353.33333333333337</ele><time>2026-04-06T14:57:38.983Z</time></trkpt><trkpt lat="40.7335117" lon="8.82134"><ele>353.6666666666667</ele><time>2026-04-06T14:57:39.983Z</time></trkpt><trkpt lat="40.733665" lon="8.8212083"><ele>354.0</ele><time>2026-04-06T14:57:40.983Z</time></trkpt><trkpt lat="40.733825" lon="8.8210833"><ele>353.0</ele><time>2026-04-06T14:57:41.983Z</time></trkpt><trkpt lat="40.7339933" lon="8.8209583"><ele>352.0</ele><time>2026-04-06T14:57:42.983Z</time></trkpt><trkpt lat="40.73417" lon="8.820825"><ele>351.0</ele><time>2026-04-06T14:57:43.983Z</time></trkpt><trkpt lat="40.7343433" lon="8.820695"><ele>351.0</ele><time>2026-04-06T14:57:44.983Z</time></trkpt><trkpt lat="40.7345117" lon="8.8205967"><ele>351.0</ele><time>2026-04-06T14:57:45.983Z</time></trkpt><trkpt lat="40.7346767" lon="8.8205133"><ele>351.0</ele><time>2026-04-06T14:57:46.983Z</time></trkpt><trkpt lat="40.73486" lon="8.8204467"><ele>351.0</ele><time>2026-04-06T14:57:47.983Z</time></trkpt><trkpt lat="40.7350517" lon="8.82039"><ele>351.0</ele><time>2026-04-06T14:57:48.983Z</time></trkpt><trkpt lat="40.7352567" lon="8.8203433"><ele>351.0</ele><time>2026-04-06T14:57:49.983Z</time></trkpt><trkpt lat="40.735465" lon="8.8203133"><ele>351.3333333333333</ele><time>2026-04-06T14:57:50.983Z</time></trkpt><trkpt lat="40.7356617" lon="8.820295"><ele>351.66666666666663</ele><time>2026-04-06T14:57:51.983Z</time></trkpt><trkpt lat="40.735845" lon="8.8202767"><ele>352.0</ele><time>2026-04-06T14:57:52.983Z</time></trkpt><trkpt lat="40.7360167" lon="8.8202617"><ele>352.25</ele><time>2026-04-06T14:57:53.983Z</time></trkpt><trkpt lat="40.7361667" lon="8.8202567"><ele>352.5</ele><time>2026-04-06T14:57:54.983Z</time></trkpt><trkpt lat="40.7363" lon="8.8202417"><ele>352.75</ele><time>2026-04-06T14:57:55.983Z</time></trkpt><trkpt lat="40.736415" lon="8.8202267"><ele>353.0</ele><time>2026-04-06T14:57:56.983Z</time></trkpt><trkpt lat="40.7364917" lon="8.820235"><ele>353.0</ele><time>2026-04-06T14:57:57.983Z</time></trkpt><trkpt lat="40.736555" lon="8.8202333"><ele>353.0</ele><time>2026-04-06T14:57:58.983Z</time></trkpt><trkpt lat="40.7366183" lon="8.820235"><ele>353.0</ele><time>2026-04-06T14:57:59.983Z</time></trkpt><trkpt lat="40.7367333" lon="8.8202233"><ele>353.0</ele><time>2026-04-06T14:58:01.983Z</time></trkpt><trkpt lat="40.7368433" lon="8.82019"><ele>353.0</ele><time>2026-04-06T14:58:03.983Z</time></trkpt><trkpt lat="40.7368867" lon="8.8201033"><ele>353.0</ele><time>2026-04-06T14:58:05.983Z</time></trkpt><trkpt lat="40.7368417" lon="8.8200217"><ele>354.5</ele><time>2026-04-06T14:58:07.983Z</time></trkpt><trkpt lat="40.7367183" lon="8.8199317"><ele>356.0</ele><time>2026-04-06T14:58:09.983Z</time></trkpt><trkpt lat="40.7366333" lon="8.8198617"><ele>357.5</ele><time>2026-04-06T14:58:10.983Z</time></trkpt><trkpt lat="40.7365367" lon="8.8197667"><ele>359.0</ele><time>2026-04-06T14:58:11.983Z</time></trkpt><trkpt lat="40.7364367" lon="8.8196133"><ele>359.0</ele><time>2026-04-06T14:58:12.983Z</time></trkpt><trkpt lat="40.736335" lon="8.81945"><ele>359.0</ele><time>2026-04-06T14:58:13.983Z</time></trkpt><trkpt lat="40.736225" lon="8.8192733"><ele>359.0</ele><time>2026-04-06T14:58:14.983Z</time></trkpt><trkpt lat="40.73611" lon="8.819105"><ele>359.0</ele><time>2026-04-06T14:58:15.983Z</time></trkpt><trkpt lat="40.7359883" lon="8.8189133"><ele>359.0</ele><time>2026-04-06T14:58:16.983Z</time></trkpt><trkpt lat="40.735855" lon="8.8187483"><ele>359.0</ele><time>2026-04-06T14:58:17.983Z</time></trkpt><trkpt lat="40.73571" lon="8.8186083"><ele>361.0</ele><time>2026-04-06T14:58:18.983Z</time></trkpt><trkpt lat="40.735555" lon="8.8184767"><ele>363.0</ele><time>2026-04-06T14:58:19.983Z</time></trkpt><trkpt lat="40.7353967" lon="8.81837"><ele>365.0</ele><time>2026-04-06T14:58:20.983Z</time></trkpt><trkpt lat="40.7352267" lon="8.818305"><ele>362.75</ele><time>2026-04-06T14:58:21.983Z</time></trkpt><trkpt lat="40.7350717" lon="8.8182817"><ele>360.5</ele><time>2026-04-06T14:58:22.983Z</time></trkpt><trkpt lat="40.7349417" lon="8.8183083"><ele>358.25</ele><time>2026-04-06T14:58:23.982Z</time></trkpt><trkpt lat="40.734815" lon="8.81839"><ele>356.0</ele><time>2026-04-06T14:58:24.982Z</time></trkpt><trkpt lat="40.7347067" lon="8.8185217"><ele>355.5</ele><time>2026-04-06T14:58:25.982Z</time></trkpt><trkpt lat="40.7346133" lon="8.8186733"><ele>355.0</ele><time>2026-04-06T14:58:26.982Z</time></trkpt><trkpt lat="40.734515" lon="8.8187983"><ele>354.5</ele><time>2026-04-06T14:58:27.982Z</time></trkpt><trkpt lat="40.7343983" lon="8.8188567"><ele>354.0</ele><time>2026-04-06T14:58:28.982Z</time></trkpt><trkpt lat="40.7342567" lon="8.8188533"><ele>353.6666666666667</ele><time>2026-04-06T14:58:29.982Z</time></trkpt><trkpt lat="40.7341083" lon="8.818795"><ele>353.33333333333337</ele><time>2026-04-06T14:58:30.982Z</time></trkpt><trkpt lat="40.7339733" lon="8.8186867"><ele>353.0</ele><time>2026-04-06T14:58:31.982Z</time></trkpt><trkpt lat="40.7338417" lon="8.81856"><ele>353.6666666666667</ele><time>2026-04-06T14:58:32.982Z</time></trkpt><trkpt lat="40.73369" lon="8.81843"><ele>354.3333333333333</ele><time>2026-04-06T14:58:33.982Z</time></trkpt><trkpt lat="40.7335233" lon="8.818295"><ele>355.0</ele><time>2026-04-06T14:58:34.982Z</time></trkpt><trkpt lat="40.73334" lon="8.8181517"><ele>355.0</ele><time>2026-04-06T14:58:35.982Z</time></trkpt><trkpt lat="40.733145" lon="8.8179983"><ele>355.0</ele><time>2026-04-06T14:58:36.983Z</time></trkpt><trkpt lat="40.7329467" lon="8.81784"><ele>355.0</ele><time>2026-04-06T14:58:37.982Z</time></trkpt><trkpt lat="40.7327483" lon="8.8176683"><ele>355.0</ele><time>2026-04-06T14:58:38.982Z</time></trkpt><trkpt lat="40.7325367" lon="8.8174867"><ele>355.5</ele><time>2026-04-06T14:58:39.982Z</time></trkpt><trkpt lat="40.7323233" lon="8.8172983"><ele>356.0</ele><time>2026-04-06T14:58:40.982Z</time></trkpt><trkpt lat="40.732115" lon="8.8171317"><ele>356.0</ele><time>2026-04-06T14:58:41.982Z</time></trkpt><trkpt lat="40.7319033" lon="8.8169583"><ele>356.0</ele><time>2026-04-06T14:58:42.983Z</time></trkpt><trkpt lat="40.7316867" lon="8.81677"><ele>357.0</ele><time>2026-04-06T14:58:43.982Z</time></trkpt><trkpt lat="40.7314683" lon="8.816585"><ele>358.0</ele><time>2026-04-06T14:58:44.982Z</time></trkpt><trkpt lat="40.731245" lon="8.8164"><ele>360.0</ele><time>2026-04-06T14:58:45.982Z</time></trkpt><trkpt lat="40.7310233" lon="8.8162167"><ele>362.0</ele><time>2026-04-06T14:58:46.982Z</time></trkpt><trkpt lat="40.7308117" lon="8.8160283"><ele>364.0</ele><time>2026-04-06T14:58:47.982Z</time></trkpt><trkpt lat="40.730605" lon="8.8158267"><ele>366.0</ele><time>2026-04-06T14:58:48.982Z</time></trkpt><trkpt lat="40.7303967" lon="8.8156183"><ele>366.5</ele><time>2026-04-06T14:58:49.982Z</time></trkpt><trkpt lat="40.73019" lon="8.8154133"><ele>367.0</ele><time>2026-04-06T14:58:50.982Z</time></trkpt><trkpt lat="40.7299817" lon="8.8152017"><ele>368.0</ele><time>2026-04-06T14:58:51.982Z</time></trkpt><trkpt lat="40.7297733" lon="8.81499"><ele>369.0</ele><time>2026-04-06T14:58:52.982Z</time></trkpt><trkpt lat="40.72956" lon="8.81478"><ele>369.0</ele><time>2026-04-06T14:58:53.982Z</time></trkpt><trkpt lat="40.72934" lon="8.81458"><ele>369.0</ele><time>2026-04-06T14:58:54.982Z</time></trkpt><trkpt lat="40.729125" lon="8.8143717"><ele>370.5</ele><time>2026-04-06T14:58:55.982Z</time></trkpt><trkpt lat="40.7289167" lon="8.8141667"><ele>372.0</ele><time>2026-04-06T14:58:56.982Z</time></trkpt><trkpt lat="40.7287117" lon="8.81395"><ele>372.0</ele><time>2026-04-06T14:58:57.982Z</time></trkpt><trkpt lat="40.728505" lon="8.8137433"><ele>372.0</ele><time>2026-04-06T14:58:58.982Z</time></trkpt><trkpt lat="40.7283083" lon="8.8135333"><ele>372.0</ele><time>2026-04-06T14:58:59.982Z</time></trkpt><trkpt lat="40.7281" lon="8.8133317"><ele>372.0</ele><time>2026-04-06T14:59:00.982Z</time></trkpt><trkpt lat="40.7278967" lon="8.8131217"><ele>374.5</ele><time>2026-04-06T14:59:01.982Z</time></trkpt><trkpt lat="40.72769" lon="8.81292"><ele>377.0</ele><time>2026-04-06T14:59:02.982Z</time></trkpt><trkpt lat="40.7274817" lon="8.8127183"><ele>376.5</ele><time>2026-04-06T14:59:03.982Z</time></trkpt><trkpt lat="40.7272767" lon="8.812505"><ele>376.0</ele><time>2026-04-06T14:59:04.982Z</time></trkpt><trkpt lat="40.7270683" lon="8.8123083"><ele>376.5</ele><time>2026-04-06T14:59:05.982Z</time></trkpt><trkpt lat="40.72686" lon="8.8121183"><ele>377.0</ele><time>2026-04-06T14:59:06.982Z</time></trkpt><trkpt lat="40.72665" lon="8.8119367"><ele>378.5</ele><time>2026-04-06T14:59:07.982Z</time></trkpt><trkpt lat="40.7264383" lon="8.81176"><ele>380.0</ele><time>2026-04-06T14:59:08.982Z</time></trkpt><trkpt lat="40.7262183" lon="8.8116017"><ele>381.0</ele><time>2026-04-06T14:59:09.982Z</time></trkpt><trkpt lat="40.72599" lon="8.8114417"><ele>382.0</ele><time>2026-04-06T14:59:10.982Z</time></trkpt><trkpt lat="40.725765" lon="8.811295"><ele>382.0</ele><time>2026-04-06T14:59:11.982Z</time></trkpt><trkpt lat="40.7255333" lon="8.8111567"><ele>382.0</ele><time>2026-04-06T14:59:12.982Z</time></trkpt><trkpt lat="40.725305" lon="8.811015"><ele>386.0</ele><time>2026-04-06T14:59:13.982Z</time></trkpt><trkpt lat="40.7250733" lon="8.81088"><ele>390.0</ele><time>2026-04-06T14:59:14.982Z</time></trkpt><trkpt lat="40.7248367" lon="8.8107483"><ele>390.0</ele><time>2026-04-06T14:59:15.982Z</time></trkpt><trkpt lat="40.7246" lon="8.81065"><ele>390.0</ele><time>2026-04-06T14:59:16.982Z</time></trkpt><trkpt lat="40.7243583" lon="8.8105517"><ele>390.5</ele><time>2026-04-06T14:59:17.982Z</time></trkpt><trkpt lat="40.7241167" lon="8.81047"><ele>391.0</ele><time>2026-04-06T14:59:18.982Z</time></trkpt><trkpt lat="40.7238817" lon="8.810395"><ele>391.0</ele><time>2026-04-06T14:59:19.982Z</time></trkpt><trkpt lat="40.7236417" lon="8.8103217"><ele>391.0</ele><time>2026-04-06T14:59:20.982Z</time></trkpt><trkpt lat="40.7234067" lon="8.8102583"><ele>391.5</ele><time>2026-04-06T14:59:21.983Z</time></trkpt><trkpt lat="40.7231633" lon="8.8101917"><ele>392.0</ele><time>2026-04-06T14:59:22.982Z</time></trkpt><trkpt lat="40.7229233" lon="8.8101383"><ele>396.0</ele><time>2026-04-06T14:59:23.982Z</time></trkpt><trkpt lat="40.7226733" lon="8.8100883"><ele>400.0</ele><time>2026-04-06T14:59:24.982Z</time></trkpt><trkpt lat="40.7224167" lon="8.81004"><ele>400.0</ele><time>2026-04-06T14:59:25.982Z</time></trkpt><trkpt lat="40.7221767" lon="8.8099867"><ele>400.0</ele><time>2026-04-06T14:59:26.982Z</time></trkpt><trkpt lat="40.7219317" lon="8.80994"><ele>400.0</ele><time>2026-04-06T14:59:27.982Z</time></trkpt><trkpt lat="40.7216867" lon="8.8099017"><ele>400.0</ele><time>2026-04-06T14:59:28.982Z</time></trkpt><trkpt lat="40.72145" lon="8.80985"><ele>400.0</ele><time>2026-04-06T14:59:29.982Z</time></trkpt><trkpt lat="40.7212133" lon="8.8098033"><ele>400.0</ele><time>2026-04-06T14:59:30.982Z</time></trkpt><trkpt lat="40.7209767" lon="8.8097533"><ele>400.0</ele><time>2026-04-06T14:59:31.982Z</time></trkpt><trkpt lat="40.72073" lon="8.8097117"><ele>400.0</ele><time>2026-04-06T14:59:32.982Z</time></trkpt><trkpt lat="40.7204917" lon="8.8096683"><ele>400.0</ele><time>2026-04-06T14:59:33.982Z</time></trkpt><trkpt lat="40.7202567" lon="8.8096233"><ele>400.0</ele><time>2026-04-06T14:59:34.982Z</time></trkpt><trkpt lat="40.72001" lon="8.80957"><ele>401.0</ele><time>2026-04-06T14:59:35.982Z</time></trkpt><trkpt lat="40.7197733" lon="8.8095067"><ele>402.0</ele><time>2026-04-06T14:59:36.982Z</time></trkpt><trkpt lat="40.7195233" lon="8.809445"><ele>403.5</ele><time>2026-04-06T14:59:37.982Z</time></trkpt><trkpt lat="40.71928" lon="8.8093867"><ele>405.0</ele><time>2026-04-06T14:59:38.982Z</time></trkpt><trkpt lat="40.71904" lon="8.8093183"><ele>405.5</ele><time>2026-04-06T14:59:39.982Z</time></trkpt><trkpt lat="40.7187983" lon="8.80924"><ele>406.0</ele><time>2026-04-06T14:59:40.982Z</time></trkpt><trkpt lat="40.718555" lon="8.8091567"><ele>408.5</ele><time>2026-04-06T14:59:41.983Z</time></trkpt><trkpt lat="40.71832" lon="8.8090717"><ele>411.0</ele><time>2026-04-06T14:59:42.982Z</time></trkpt><trkpt lat="40.7180833" lon="8.8089733"><ele>411.0</ele><time>2026-04-06T14:59:43.982Z</time></trkpt><trkpt lat="40.7178533" lon="8.8088717"><ele>411.0</ele><time>2026-04-06T14:59:44.982Z</time></trkpt><trkpt lat="40.71761" lon="8.8087817"><ele>416.0</ele><time>2026-04-06T14:59:45.982Z</time></trkpt><trkpt lat="40.7173633" lon="8.808675"><ele>421.0</ele><time>2026-04-06T14:59:46.982Z</time></trkpt><trkpt lat="40.7171267" lon="8.8085717"><ele>420.5</ele><time>2026-04-06T14:59:47.982Z</time></trkpt><trkpt lat="40.71689" lon="8.80846"><ele>420.0</ele><time>2026-04-06T14:59:48.983Z</time></trkpt><trkpt lat="40.7166467" lon="8.80833"><ele>420.0</ele><time>2026-04-06T14:59:49.982Z</time></trkpt><trkpt lat="40.716415" lon="8.8082067"><ele>420.0</ele><time>2026-04-06T14:59:50.982Z</time></trkpt><trkpt lat="40.716185" lon="8.8080783"><ele>420.0</ele><time>2026-04-06T14:59:51.982Z</time></trkpt><trkpt lat="40.7159383" lon="8.8079567"><ele>420.0</ele><time>2026-04-06T14:59:52.982Z</time></trkpt><trkpt lat="40.7156967" lon="8.807825"><ele>420.0</ele><time>2026-04-06T14:59:53.982Z</time></trkpt><trkpt lat="40.71546" lon="8.80768"><ele>420.0</ele><time>2026-04-06T14:59:54.982Z</time></trkpt><trkpt lat="40.7152267" lon="8.8075283"><ele>420.5</ele><time>2026-04-06T14:59:55.982Z</time></trkpt><trkpt lat="40.7149867" lon="8.8073783"><ele>421.0</ele><time>2026-04-06T14:59:56.982Z</time></trkpt><trkpt lat="40.7147567" lon="8.8072167"><ele>421.0</ele><time>2026-04-06T14:59:57.982Z</time></trkpt><trkpt lat="40.7145217" lon="8.8070517"><ele>421.0</ele><time>2026-04-06T14:59:58.982Z</time></trkpt><trkpt lat="40.7142917" lon="8.80689"><ele>422.5</ele><time>2026-04-06T14:59:59.982Z</time></trkpt><trkpt lat="40.7140667" lon="8.80672"><ele>424.0</ele><time>2026-04-06T15:00:00.982Z</time></trkpt><trkpt lat="40.7138417" lon="8.8065483"><ele>424.0</ele><time>2026-04-06T15:00:01.982Z</time></trkpt><trkpt lat="40.7136183" lon="8.8063717"><ele>424.0</ele><time>2026-04-06T15:00:02.982Z</time></trkpt><trkpt lat="40.71341" lon="8.806185"><ele>426.0</ele><time>2026-04-06T15:00:03.982Z</time></trkpt><trkpt lat="40.7131917" lon="8.8060133"><ele>428.0</ele><time>2026-04-06T15:00:04.982Z</time></trkpt><trkpt lat="40.7129783" lon="8.8058233"><ele>428.0</ele><time>2026-04-06T15:00:05.982Z</time></trkpt><trkpt lat="40.7127633" lon="8.8056383"><ele>428.0</ele><time>2026-04-06T15:00:06.982Z</time></trkpt><trkpt lat="40.7125483" lon="8.8054417"><ele>429.0</ele><time>2026-04-06T15:00:07.982Z</time></trkpt><trkpt lat="40.7123333" lon="8.8052433"><ele>430.0</ele><time>2026-04-06T15:00:08.982Z</time></trkpt><trkpt lat="40.7121317" lon="8.805025"><ele>431.5</ele><time>2026-04-06T15:00:09.982Z</time></trkpt><trkpt lat="40.71193" lon="8.804815"><ele>433.0</ele><time>2026-04-06T15:00:10.982Z</time></trkpt><trkpt lat="40.7117383" lon="8.8045983"><ele>434.0</ele><time>2026-04-06T15:00:11.982Z</time></trkpt><trkpt lat="40.7115467" lon="8.8043883"><ele>435.0</ele><time>2026-04-06T15:00:12.982Z</time></trkpt><trkpt lat="40.7113467" lon="8.8041717"><ele>436.0</ele><time>2026-04-06T15:00:13.982Z</time></trkpt><trkpt lat="40.711145" lon="8.8039567"><ele>437.0</ele><time>2026-04-06T15:00:14.982Z</time></trkpt><trkpt lat="40.7109533" lon="8.8037317"><ele>439.5</ele><time>2026-04-06T15:00:15.982Z</time></trkpt><trkpt lat="40.710765" lon="8.8034867"><ele>442.0</ele><time>2026-04-06T15:00:16.982Z</time></trkpt><trkpt lat="40.7105667" lon="8.8032333"><ele>442.0</ele><time>2026-04-06T15:00:17.982Z</time></trkpt><trkpt lat="40.71037" lon="8.80299"><ele>442.0</ele><time>2026-04-06T15:00:18.982Z</time></trkpt><trkpt lat="40.71017" lon="8.80275"><ele>444.0</ele><time>2026-04-06T15:00:19.982Z</time></trkpt><trkpt lat="40.7099767" lon="8.8024933"><ele>446.0</ele><time>2026-04-06T15:00:20.982Z</time></trkpt><trkpt lat="40.709785" lon="8.802235"><ele>446.0</ele><time>2026-04-06T15:00:21.982Z</time></trkpt><trkpt lat="40.7095983" lon="8.8019567"><ele>446.0</ele><time>2026-04-06T15:00:22.982Z</time></trkpt><trkpt lat="40.7093983" lon="8.8016917"><ele>446.5</ele><time>2026-04-06T15:00:23.982Z</time></trkpt><trkpt lat="40.7092017" lon="8.8014183"><ele>447.0</ele><time>2026-04-06T15:00:24.982Z</time></trkpt><trkpt lat="40.709" lon="8.8011433"><ele>447.0</ele><time>2026-04-06T15:00:25.982Z</time></trkpt><trkpt lat="40.7088067" lon="8.80087"><ele>447.0</ele><time>2026-04-06T15:00:26.982Z</time></trkpt><trkpt lat="40.70861" lon="8.8006017"><ele>446.0</ele><time>2026-04-06T15:00:27.982Z</time></trkpt><trkpt lat="40.7084067" lon="8.8003317"><ele>445.0</ele><time>2026-04-06T15:00:28.982Z</time></trkpt><trkpt lat="40.7081967" lon="8.8000633"><ele>443.0</ele><time>2026-04-06T15:00:29.982Z</time></trkpt><trkpt lat="40.707995" lon="8.7998083"><ele>441.0</ele><time>2026-04-06T15:00:30.983Z</time></trkpt><trkpt lat="40.7077767" lon="8.7995783"><ele>436.5</ele><time>2026-04-06T15:00:31.982Z</time></trkpt><trkpt lat="40.7075367" lon="8.799355"><ele>432.0</ele><time>2026-04-06T15:00:32.982Z</time></trkpt><trkpt lat="40.7073033" lon="8.7991283"><ele>432.0</ele><time>2026-04-06T15:00:33.982Z</time></trkpt><trkpt lat="40.7070683" lon="8.7989017"><ele>432.0</ele><time>2026-04-06T15:00:34.982Z</time></trkpt><trkpt lat="40.7068367" lon="8.798675"><ele>427.0</ele><time>2026-04-06T15:00:35.982Z</time></trkpt><trkpt lat="40.7065967" lon="8.798465"><ele>422.0</ele><time>2026-04-06T15:00:36.982Z</time></trkpt><trkpt lat="40.7063483" lon="8.7982683"><ele>422.0</ele><time>2026-04-06T15:00:37.982Z</time></trkpt><trkpt lat="40.7060917" lon="8.7980917"><ele>422.0</ele><time>2026-04-06T15:00:38.982Z</time></trkpt><trkpt lat="40.7058267" lon="8.797935"><ele>419.0</ele><time>2026-04-06T15:00:39.982Z</time></trkpt><trkpt lat="40.70556" lon="8.79779"><ele>416.0</ele><time>2026-04-06T15:00:40.982Z</time></trkpt><trkpt lat="40.7052817" lon="8.7976533"><ele>415.5</ele><time>2026-04-06T15:00:41.982Z</time></trkpt><trkpt lat="40.7050017" lon="8.797525"><ele>415.0</ele><time>2026-04-06T15:00:42.982Z</time></trkpt><trkpt lat="40.7047167" lon="8.7974117"><ele>415.0</ele><time>2026-04-06T15:00:43.982Z</time></trkpt><trkpt lat="40.70444" lon="8.7973083"><ele>415.0</ele><time>2026-04-06T15:00:44.982Z</time></trkpt><trkpt lat="40.7041517" lon="8.7972183"><ele>417.0</ele><time>2026-04-06T15:00:45.982Z</time></trkpt><trkpt lat="40.7038633" lon="8.7971367"><ele>419.0</ele><time>2026-04-06T15:00:46.983Z</time></trkpt><trkpt lat="40.7035767" lon="8.7970483"><ele>419.0</ele><time>2026-04-06T15:00:47.982Z</time></trkpt><trkpt lat="40.703295" lon="8.796965"><ele>419.0</ele><time>2026-04-06T15:00:48.982Z</time></trkpt><trkpt lat="40.7030067" lon="8.7968817"><ele>421.5</ele><time>2026-04-06T15:00:49.982Z</time></trkpt><trkpt lat="40.7027267" lon="8.7967967"><ele>424.0</ele><time>2026-04-06T15:00:50.982Z</time></trkpt><trkpt lat="40.7024483" lon="8.7967083"><ele>424.0</ele><time>2026-04-06T15:00:51.982Z</time></trkpt><trkpt lat="40.7021633" lon="8.79662"><ele>424.0</ele><time>2026-04-06T15:00:52.982Z</time></trkpt><trkpt lat="40.701865" lon="8.796535"><ele>424.5</ele><time>2026-04-06T15:00:53.982Z</time></trkpt><trkpt lat="40.7015767" lon="8.7964517"><ele>425.0</ele><time>2026-04-06T15:00:54.983Z</time></trkpt><trkpt lat="40.7012767" lon="8.79636"><ele>424.0</ele><time>2026-04-06T15:00:55.982Z</time></trkpt><trkpt lat="40.7009833" lon="8.7962767"><ele>423.0</ele><time>2026-04-06T15:00:56.982Z</time></trkpt><trkpt lat="40.7006967" lon="8.79619"><ele>423.0</ele><time>2026-04-06T15:00:57.982Z</time></trkpt><trkpt lat="40.7004117" lon="8.796095"><ele>423.0</ele><time>2026-04-06T15:00:58.982Z</time></trkpt><trkpt lat="40.7001083" lon="8.796005"><ele>422.5</ele><time>2026-04-06T15:00:59.982Z</time></trkpt><trkpt lat="40.6998183" lon="8.79591"><ele>422.0</ele><time>2026-04-06T15:01:00.982Z</time></trkpt><trkpt lat="40.6995217" lon="8.795815"><ele>419.0</ele><time>2026-04-06T15:01:01.982Z</time></trkpt><trkpt lat="40.6992283" lon="8.795715"><ele>416.0</ele><time>2026-04-06T15:01:02.982Z</time></trkpt><trkpt lat="40.6989367" lon="8.7956167"><ele>416.0</ele><time>2026-04-06T15:01:03.982Z</time></trkpt><trkpt lat="40.698645" lon="8.7954967"><ele>416.0</ele><time>2026-04-06T15:01:04.982Z</time></trkpt><trkpt lat="40.6983517" lon="8.7953683"><ele>414.5</ele><time>2026-04-06T15:01:05.982Z</time></trkpt><trkpt lat="40.698055" lon="8.79525"><ele>413.0</ele><time>2026-04-06T15:01:06.982Z</time></trkpt><trkpt lat="40.6977683" lon="8.7951233"><ele>408.0</ele><time>2026-04-06T15:01:07.982Z</time></trkpt><trkpt lat="40.69749" lon="8.79499"><ele>403.0</ele><time>2026-04-06T15:01:08.982Z</time></trkpt><trkpt lat="40.6972033" lon="8.794855"><ele>401.0</ele><time>2026-04-06T15:01:09.982Z</time></trkpt><trkpt lat="40.696915" lon="8.794735"><ele>399.0</ele><time>2026-04-06T15:01:10.982Z</time></trkpt><trkpt lat="40.696635" lon="8.7946017"><ele>399.0</ele><time>2026-04-06T15:01:11.982Z</time></trkpt><trkpt lat="40.6963567" lon="8.7944683"><ele>399.0</ele><time>2026-04-06T15:01:12.982Z</time></trkpt><trkpt lat="40.6960617" lon="8.7943417"><ele>397.5</ele><time>2026-04-06T15:01:13.982Z</time></trkpt><trkpt lat="40.6957733" lon="8.794205"><ele>396.0</ele><time>2026-04-06T15:01:14.982Z</time></trkpt><trkpt lat="40.6954867" lon="8.79407"><ele>394.0</ele><time>2026-04-06T15:01:15.982Z</time></trkpt><trkpt lat="40.6952067" lon="8.79393"><ele>392.0</ele><time>2026-04-06T15:01:16.982Z</time></trkpt><trkpt lat="40.6949283" lon="8.7937967"><ele>392.0</ele><time>2026-04-06T15:01:17.982Z</time></trkpt><trkpt lat="40.6946433" lon="8.793655"><ele>392.0</ele><time>2026-04-06T15:01:18.982Z</time></trkpt><trkpt lat="40.6943633" lon="8.7935167"><ele>390.5</ele><time>2026-04-06T15:01:19.982Z</time></trkpt><trkpt lat="40.69408" lon="8.793385"><ele>389.0</ele><time>2026-04-06T15:01:20.982Z</time></trkpt><trkpt lat="40.693805" lon="8.793255"><ele>382.5</ele><time>2026-04-06T15:01:21.982Z</time></trkpt><trkpt lat="40.69355" lon="8.7931017"><ele>376.0</ele><time>2026-04-06T15:01:22.982Z</time></trkpt><trkpt lat="40.6932667" lon="8.7929717"><ele>376.0</ele><time>2026-04-06T15:01:23.982Z</time></trkpt><trkpt lat="40.692985" lon="8.7928483"><ele>376.0</ele><time>2026-04-06T15:01:24.982Z</time></trkpt><trkpt lat="40.6927" lon="8.792725"><ele>374.0</ele><time>2026-04-06T15:01:25.982Z</time></trkpt><trkpt lat="40.692415" lon="8.79259"><ele>372.0</ele><time>2026-04-06T15:01:26.982Z</time></trkpt><trkpt lat="40.6921267" lon="8.7924617"><ele>369.5</ele><time>2026-04-06T15:01:27.982Z</time></trkpt><trkpt lat="40.69185" lon="8.7923317"><ele>367.0</ele><time>2026-04-06T15:01:28.982Z</time></trkpt><trkpt lat="40.6915733" lon="8.7921967"><ele>367.0</ele><time>2026-04-06T15:01:29.982Z</time></trkpt><trkpt lat="40.6912917" lon="8.7920633"><ele>367.0</ele><time>2026-04-06T15:01:30.982Z</time></trkpt><trkpt lat="40.6910117" lon="8.7919333"><ele>365.5</ele><time>2026-04-06T15:01:31.982Z</time></trkpt><trkpt lat="40.6907317" lon="8.791805"><ele>364.0</ele><time>2026-04-06T15:01:32.982Z</time></trkpt><trkpt lat="40.69046" lon="8.7916833"><ele>363.5</ele><time>2026-04-06T15:01:33.982Z</time></trkpt><trkpt lat="40.6901867" lon="8.791565"><ele>363.0</ele><time>2026-04-06T15:01:34.982Z</time></trkpt><trkpt lat="40.6899117" lon="8.7914333"><ele>363.0</ele><time>2026-04-06T15:01:35.983Z</time></trkpt><trkpt lat="40.689645" lon="8.7913083"><ele>363.0</ele><time>2026-04-06T15:01:36.982Z</time></trkpt><trkpt lat="40.6893683" lon="8.7911767"><ele>365.5</ele><time>2026-04-06T15:01:37.982Z</time></trkpt><trkpt lat="40.6890917" lon="8.7910483"><ele>368.0</ele><time>2026-04-06T15:01:38.982Z</time></trkpt><trkpt lat="40.6888167" lon="8.7909283"><ele>368.5</ele><time>2026-04-06T15:01:39.982Z</time></trkpt><trkpt lat="40.68854" lon="8.7908133"><ele>369.0</ele><time>2026-04-06T15:01:40.982Z</time></trkpt><trkpt lat="40.68827" lon="8.7906867"><ele>369.0</ele><time>2026-04-06T15:01:41.982Z</time></trkpt><trkpt lat="40.688" lon="8.790555"><ele>369.0</ele><time>2026-04-06T15:01:42.982Z</time></trkpt><trkpt lat="40.6877383" lon="8.790425"><ele>369.0</ele><time>2026-04-06T15:01:43.982Z</time></trkpt><trkpt lat="40.6874683" lon="8.7902867"><ele>369.0</ele><time>2026-04-06T15:01:44.982Z</time></trkpt><trkpt lat="40.6871867" lon="8.7901367"><ele>368.5</ele><time>2026-04-06T15:01:45.982Z</time></trkpt><trkpt lat="40.6869183" lon="8.7899917"><ele>368.0</ele><time>2026-04-06T15:01:46.983Z</time></trkpt><trkpt lat="40.6866567" lon="8.7898217"><ele>368.0</ele><time>2026-04-06T15:01:47.982Z</time></trkpt><trkpt lat="40.68639" lon="8.7896617"><ele>368.0</ele><time>2026-04-06T15:01:48.982Z</time></trkpt><trkpt lat="40.6861167" lon="8.789495"><ele>368.0</ele><time>2026-04-06T15:01:49.982Z</time></trkpt><trkpt lat="40.685855" lon="8.7893017"><ele>368.0</ele><time>2026-04-06T15:01:50.982Z</time></trkpt><trkpt lat="40.6856017" lon="8.7890933"><ele>368.0</ele><time>2026-04-06T15:01:51.983Z</time></trkpt><trkpt lat="40.685345" lon="8.7888733"><ele>368.0</ele><time>2026-04-06T15:01:52.982Z</time></trkpt><trkpt lat="40.6851017" lon="8.788645"><ele>368.5</ele><time>2026-04-06T15:01:53.982Z</time></trkpt><trkpt lat="40.68487" lon="8.7884017"><ele>369.0</ele><time>2026-04-06T15:01:54.982Z</time></trkpt><trkpt lat="40.68464" lon="8.78817"><ele>370.5</ele><time>2026-04-06T15:01:55.982Z</time></trkpt><trkpt lat="40.68441" lon="8.78792"><ele>372.0</ele><time>2026-04-06T15:01:56.982Z</time></trkpt><trkpt lat="40.68419" lon="8.7876733"><ele>373.5</ele><time>2026-04-06T15:01:57.982Z</time></trkpt><trkpt lat="40.68397" lon="8.7874317"><ele>375.0</ele><time>2026-04-06T15:01:58.982Z</time></trkpt><trkpt lat="40.68376" lon="8.78719"><ele>376.0</ele><time>2026-04-06T15:01:59.982Z</time></trkpt><trkpt lat="40.6835383" lon="8.7869517"><ele>377.0</ele><time>2026-04-06T15:02:00.982Z</time></trkpt><trkpt lat="40.683325" lon="8.7867117"><ele>378.5</ele><time>2026-04-06T15:02:01.982Z</time></trkpt><trkpt lat="40.683115" lon="8.786475"><ele>380.0</ele><time>2026-04-06T15:02:02.982Z</time></trkpt><trkpt lat="40.6829" lon="8.7862333"><ele>379.5</ele><time>2026-04-06T15:02:03.982Z</time></trkpt><trkpt lat="40.6826983" lon="8.7859767"><ele>379.0</ele><time>2026-04-06T15:02:04.982Z</time></trkpt><trkpt lat="40.682495" lon="8.7857117"><ele>379.0</ele><time>2026-04-06T15:02:05.982Z</time></trkpt><trkpt lat="40.682315" lon="8.7854317"><ele>379.0</ele><time>2026-04-06T15:02:06.983Z</time></trkpt><trkpt lat="40.682145" lon="8.7851467"><ele>378.0</ele><time>2026-04-06T15:02:07.982Z</time></trkpt><trkpt lat="40.6819767" lon="8.7848583"><ele>377.0</ele><time>2026-04-06T15:02:08.982Z</time></trkpt><trkpt lat="40.6818117" lon="8.784555"><ele>378.5</ele><time>2026-04-06T15:02:09.982Z</time></trkpt><trkpt lat="40.68166" lon="8.7842417"><ele>380.0</ele><time>2026-04-06T15:02:10.982Z</time></trkpt><trkpt lat="40.6815133" lon="8.78391"><ele>380.0</ele><time>2026-04-06T15:02:11.982Z</time></trkpt><trkpt lat="40.6813683" lon="8.78356"><ele>380.0</ele><time>2026-04-06T15:02:12.982Z</time></trkpt><trkpt lat="40.6812417" lon="8.7832067"><ele>381.0</ele><time>2026-04-06T15:02:13.982Z</time></trkpt><trkpt lat="40.6811183" lon="8.7828367"><ele>382.0</ele><time>2026-04-06T15:02:14.982Z</time></trkpt><trkpt lat="40.681005" lon="8.78247"><ele>382.0</ele><time>2026-04-06T15:02:15.982Z</time></trkpt><trkpt lat="40.680915" lon="8.7820933"><ele>382.0</ele><time>2026-04-06T15:02:16.982Z</time></trkpt><trkpt lat="40.6808333" lon="8.7817133"><ele>385.5</ele><time>2026-04-06T15:02:17.982Z</time></trkpt><trkpt lat="40.68076" lon="8.7813317"><ele>389.0</ele><time>2026-04-06T15:02:18.983Z</time></trkpt><trkpt lat="40.6807067" lon="8.7809567"><ele>391.5</ele><time>2026-04-06T15:02:19.982Z</time></trkpt><trkpt lat="40.6806617" lon="8.78057"><ele>394.0</ele><time>2026-04-06T15:02:20.982Z</time></trkpt><trkpt lat="40.6806333" lon="8.78018"><ele>394.0</ele><time>2026-04-06T15:02:21.982Z</time></trkpt><trkpt lat="40.68062" lon="8.7797933"><ele>394.0</ele><time>2026-04-06T15:02:22.982Z</time></trkpt><trkpt lat="40.6806" lon="8.7794067"><ele>394.0</ele><time>2026-04-06T15:02:23.982Z</time></trkpt><trkpt lat="40.6806" lon="8.7790083"><ele>394.0</ele><time>2026-04-06T15:02:24.982Z</time></trkpt><trkpt lat="40.6805983" lon="8.7786267"><ele>395.5</ele><time>2026-04-06T15:02:25.982Z</time></trkpt><trkpt lat="40.6805867" lon="8.7782483"><ele>397.0</ele><time>2026-04-06T15:02:26.982Z</time></trkpt><trkpt lat="40.6805633" lon="8.777875"><ele>398.0</ele><time>2026-04-06T15:02:27.983Z</time></trkpt><trkpt lat="40.68053" lon="8.7775083"><ele>399.0</ele><time>2026-04-06T15:02:28.982Z</time></trkpt><trkpt lat="40.6804867" lon="8.777145"><ele>398.5</ele><time>2026-04-06T15:02:29.982Z</time></trkpt><trkpt lat="40.6804267" lon="8.7767833"><ele>398.0</ele><time>2026-04-06T15:02:30.982Z</time></trkpt><trkpt lat="40.6803517" lon="8.77643"><ele>400.0</ele><time>2026-04-06T15:02:31.982Z</time></trkpt><trkpt lat="40.6802633" lon="8.7760783"><ele>402.0</ele><time>2026-04-06T15:02:32.982Z</time></trkpt><trkpt lat="40.680145" lon="8.7757383"><ele>398.0</ele><time>2026-04-06T15:02:33.982Z</time></trkpt><trkpt lat="40.6800133" lon="8.7754017"><ele>394.0</ele><time>2026-04-06T15:02:34.982Z</time></trkpt><trkpt lat="40.67987" lon="8.7750783"><ele>391.5</ele><time>2026-04-06T15:02:35.982Z</time></trkpt><trkpt lat="40.6797167" lon="8.7747583"><ele>389.0</ele><time>2026-04-06T15:02:36.982Z</time></trkpt><trkpt lat="40.67955" lon="8.774445"><ele>387.5</ele><time>2026-04-06T15:02:37.982Z</time></trkpt><trkpt lat="40.6793767" lon="8.774135"><ele>386.0</ele><time>2026-04-06T15:02:38.982Z</time></trkpt><trkpt lat="40.6791967" lon="8.7738417"><ele>386.0</ele><time>2026-04-06T15:02:39.982Z</time></trkpt><trkpt lat="40.6789983" lon="8.773565"><ele>386.0</ele><time>2026-04-06T15:02:40.982Z</time></trkpt><trkpt lat="40.6787833" lon="8.773295"><ele>382.0</ele><time>2026-04-06T15:02:41.982Z</time></trkpt><trkpt lat="40.6785517" lon="8.773035"><ele>378.0</ele><time>2026-04-06T15:02:42.983Z</time></trkpt><trkpt lat="40.67832" lon="8.7727967"><ele>377.0</ele><time>2026-04-06T15:02:43.982Z</time></trkpt><trkpt lat="40.67808" lon="8.7725783"><ele>376.0</ele><time>2026-04-06T15:02:44.982Z</time></trkpt><trkpt lat="40.6778333" lon="8.772365"><ele>373.0</ele><time>2026-04-06T15:02:45.982Z</time></trkpt><trkpt lat="40.6775917" lon="8.7721567"><ele>370.0</ele><time>2026-04-06T15:02:46.982Z</time></trkpt><trkpt lat="40.67734" lon="8.7719517"><ele>371.0</ele><time>2026-04-06T15:02:47.982Z</time></trkpt><trkpt lat="40.6770833" lon="8.77174"><ele>372.0</ele><time>2026-04-06T15:02:48.982Z</time></trkpt><trkpt lat="40.6768233" lon="8.7715233"><ele>372.0</ele><time>2026-04-06T15:02:49.982Z</time></trkpt><trkpt lat="40.67657" lon="8.77131"><ele>372.0</ele><time>2026-04-06T15:02:50.982Z</time></trkpt><trkpt lat="40.6763067" lon="8.771095"><ele>373.5</ele><time>2026-04-06T15:02:51.982Z</time></trkpt><trkpt lat="40.6760417" lon="8.7708667"><ele>375.0</ele><time>2026-04-06T15:02:52.982Z</time></trkpt><trkpt lat="40.675785" lon="8.77063"><ele>375.0</ele><time>2026-04-06T15:02:53.982Z</time></trkpt><trkpt lat="40.6755183" lon="8.7704133"><ele>375.0</ele><time>2026-04-06T15:02:54.982Z</time></trkpt><trkpt lat="40.6752533" lon="8.7702067"><ele>372.0</ele><time>2026-04-06T15:02:55.982Z</time></trkpt><trkpt lat="40.6749867" lon="8.7699917"><ele>369.0</ele><time>2026-04-06T15:02:56.982Z</time></trkpt><trkpt lat="40.6747183" lon="8.76976"><ele>369.0</ele><time>2026-04-06T15:02:57.982Z</time></trkpt><trkpt lat="40.674455" lon="8.7695267"><ele>369.0</ele><time>2026-04-06T15:02:58.982Z</time></trkpt><trkpt lat="40.6741833" lon="8.7693033"><ele>367.5</ele><time>2026-04-06T15:02:59.982Z</time></trkpt><trkpt lat="40.67392" lon="8.7690733"><ele>366.0</ele><time>2026-04-06T15:03:00.982Z</time></trkpt><trkpt lat="40.6736583" lon="8.76885"><ele>363.5</ele><time>2026-04-06T15:03:01.982Z</time></trkpt><trkpt lat="40.6733967" lon="8.7686267"><ele>361.0</ele><time>2026-04-06T15:03:02.982Z</time></trkpt><trkpt lat="40.6731333" lon="8.7684067"><ele>360.5</ele><time>2026-04-06T15:03:03.982Z</time></trkpt><trkpt lat="40.6728667" lon="8.7681983"><ele>360.0</ele><time>2026-04-06T15:03:04.982Z</time></trkpt><trkpt lat="40.6726133" lon="8.7679933"><ele>356.0</ele><time>2026-04-06T15:03:05.982Z</time></trkpt><trkpt lat="40.6723617" lon="8.76779"><ele>352.0</ele><time>2026-04-06T15:03:06.982Z</time></trkpt><trkpt lat="40.6721067" lon="8.7675683"><ele>351.0</ele><time>2026-04-06T15:03:07.982Z</time></trkpt><trkpt lat="40.671855" lon="8.7673533"><ele>350.0</ele><time>2026-04-06T15:03:08.982Z</time></trkpt><trkpt lat="40.6715967" lon="8.7671417"><ele>350.0</ele><time>2026-04-06T15:03:09.982Z</time></trkpt><trkpt lat="40.6713383" lon="8.7669217"><ele>350.0</ele><time>2026-04-06T15:03:10.982Z</time></trkpt><trkpt lat="40.6710817" lon="8.7667133"><ele>352.5</ele><time>2026-04-06T15:03:11.982Z</time></trkpt><trkpt lat="40.670835" lon="8.7664917"><ele>355.0</ele><time>2026-04-06T15:03:12.982Z</time></trkpt><trkpt lat="40.6705883" lon="8.76627"><ele>355.0</ele><time>2026-04-06T15:03:13.982Z</time></trkpt><trkpt lat="40.6703367" lon="8.766055"><ele>355.0</ele><time>2026-04-06T15:03:14.982Z</time></trkpt><trkpt lat="40.6700833" lon="8.765855"><ele>356.0</ele><time>2026-04-06T15:03:15.982Z</time></trkpt><trkpt lat="40.669835" lon="8.7656533"><ele>357.0</ele><time>2026-04-06T15:03:16.982Z</time></trkpt><trkpt lat="40.6695817" lon="8.7654417"><ele>356.0</ele><time>2026-04-06T15:03:17.982Z</time></trkpt><trkpt lat="40.6693283" lon="8.765235"><ele>355.0</ele><time>2026-04-06T15:03:18.982Z</time></trkpt><trkpt lat="40.6690767" lon="8.765015"><ele>355.0</ele><time>2026-04-06T15:03:19.982Z</time></trkpt><trkpt lat="40.6688283" lon="8.7647917"><ele>355.0</ele><time>2026-04-06T15:03:20.983Z</time></trkpt><trkpt lat="40.66858" lon="8.7645633"><ele>357.5</ele><time>2026-04-06T15:03:21.982Z</time></trkpt><trkpt lat="40.66833" lon="8.7643483"><ele>360.0</ele><time>2026-04-06T15:03:22.982Z</time></trkpt><trkpt lat="40.6680817" lon="8.76415"><ele>360.0</ele><time>2026-04-06T15:03:23.982Z</time></trkpt><trkpt lat="40.6678333" lon="8.7639467"><ele>360.0</ele><time>2026-04-06T15:03:24.982Z</time></trkpt><trkpt lat="40.6675917" lon="8.7637333"><ele>361.0</ele><time>2026-04-06T15:03:25.982Z</time></trkpt><trkpt lat="40.66735" lon="8.7635383"><ele>362.0</ele><time>2026-04-06T15:03:26.982Z</time></trkpt><trkpt lat="40.6671167" lon="8.7633283"><ele>357.5</ele><time>2026-04-06T15:03:27.982Z</time></trkpt><trkpt lat="40.6668717" lon="8.763105"><ele>353.0</ele><time>2026-04-06T15:03:28.982Z</time></trkpt><trkpt lat="40.66664" lon="8.762875"><ele>357.5</ele><time>2026-04-06T15:03:29.982Z</time></trkpt><trkpt lat="40.6664167" lon="8.762635"><ele>362.0</ele><time>2026-04-06T15:03:30.982Z</time></trkpt><trkpt lat="40.6662067" lon="8.76239"><ele>360.5</ele><time>2026-04-06T15:03:31.982Z</time></trkpt><trkpt lat="40.665995" lon="8.7621283"><ele>359.0</ele><time>2026-04-06T15:03:32.982Z</time></trkpt><trkpt lat="40.6657917" lon="8.7618567"><ele>359.0</ele><time>2026-04-06T15:03:33.982Z</time></trkpt><trkpt lat="40.6656" lon="8.76158"><ele>359.0</ele><time>2026-04-06T15:03:34.982Z</time></trkpt><trkpt lat="40.6654017" lon="8.7612883"><ele>362.0</ele><time>2026-04-06T15:03:35.982Z</time></trkpt><trkpt lat="40.6652217" lon="8.7609933"><ele>365.0</ele><time>2026-04-06T15:03:36.982Z</time></trkpt><trkpt lat="40.6650467" lon="8.7606933"><ele>365.0</ele><time>2026-04-06T15:03:37.982Z</time></trkpt><trkpt lat="40.664875" lon="8.760375"><ele>365.0</ele><time>2026-04-06T15:03:38.982Z</time></trkpt><trkpt lat="40.664715" lon="8.7600567"><ele>364.0</ele><time>2026-04-06T15:03:39.982Z</time></trkpt><trkpt lat="40.66456" lon="8.7597367"><ele>363.0</ele><time>2026-04-06T15:03:40.983Z</time></trkpt><trkpt lat="40.664415" lon="8.7594067"><ele>363.5</ele><time>2026-04-06T15:03:41.982Z</time></trkpt><trkpt lat="40.6642767" lon="8.7590783"><ele>364.0</ele><time>2026-04-06T15:03:42.982Z</time></trkpt><trkpt lat="40.6641283" lon="8.7587533"><ele>368.5</ele><time>2026-04-06T15:03:43.982Z</time></trkpt><trkpt lat="40.6639683" lon="8.7584367"><ele>373.0</ele><time>2026-04-06T15:03:44.982Z</time></trkpt><trkpt lat="40.6638183" lon="8.75811"><ele>373.0</ele><time>2026-04-06T15:03:45.982Z</time></trkpt><trkpt lat="40.663675" lon="8.75779"><ele>373.0</ele><time>2026-04-06T15:03:46.982Z</time></trkpt><trkpt lat="40.6635267" lon="8.7574633"><ele>369.0</ele><time>2026-04-06T15:03:47.982Z</time></trkpt><trkpt lat="40.66338" lon="8.75714"><ele>365.0</ele><time>2026-04-06T15:03:48.982Z</time></trkpt><trkpt lat="40.6632183" lon="8.756825"><ele>365.0</ele><time>2026-04-06T15:03:49.982Z</time></trkpt><trkpt lat="40.6630717" lon="8.7565"><ele>365.0</ele><time>2026-04-06T15:03:50.982Z</time></trkpt><trkpt lat="40.6629217" lon="8.75617"><ele>360.5</ele><time>2026-04-06T15:03:51.982Z</time></trkpt><trkpt lat="40.662765" lon="8.7558383"><ele>356.0</ele><time>2026-04-06T15:03:52.982Z</time></trkpt><trkpt lat="40.6626167" lon="8.7555183"><ele>354.0</ele><time>2026-04-06T15:03:53.982Z</time></trkpt><trkpt lat="40.6624617" lon="8.7551933"><ele>352.0</ele><time>2026-04-06T15:03:54.982Z</time></trkpt><trkpt lat="40.6623067" lon="8.7548683"><ele>352.0</ele><time>2026-04-06T15:03:55.982Z</time></trkpt><trkpt lat="40.662155" lon="8.75453"><ele>352.0</ele><time>2026-04-06T15:03:56.982Z</time></trkpt><trkpt lat="40.662005" lon="8.7541917"><ele>350.5</ele><time>2026-04-06T15:03:57.982Z</time></trkpt><trkpt lat="40.6618533" lon="8.7538583"><ele>349.0</ele><time>2026-04-06T15:03:58.982Z</time></trkpt><trkpt lat="40.6617" lon="8.7535167"><ele>349.0</ele><time>2026-04-06T15:03:59.982Z</time></trkpt><trkpt lat="40.6615433" lon="8.7531833"><ele>349.0</ele><time>2026-04-06T15:04:00.982Z</time></trkpt><trkpt lat="40.6613817" lon="8.7528483"><ele>350.0</ele><time>2026-04-06T15:04:01.982Z</time></trkpt><trkpt lat="40.6612217" lon="8.7525117"><ele>351.0</ele><time>2026-04-06T15:04:02.982Z</time></trkpt><trkpt lat="40.6610683" lon="8.752175"><ele>347.0</ele><time>2026-04-06T15:04:03.982Z</time></trkpt><trkpt lat="40.6609133" lon="8.7518333"><ele>343.0</ele><time>2026-04-06T15:04:04.982Z</time></trkpt><trkpt lat="40.66076" lon="8.7515017"><ele>343.0</ele><time>2026-04-06T15:04:05.982Z</time></trkpt><trkpt lat="40.6606033" lon="8.7511717"><ele>343.0</ele><time>2026-04-06T15:04:06.983Z</time></trkpt><trkpt lat="40.660445" lon="8.7508467"><ele>342.0</ele><time>2026-04-06T15:04:07.982Z</time></trkpt><trkpt lat="40.6602917" lon="8.75052"><ele>341.0</ele><time>2026-04-06T15:04:08.982Z</time></trkpt><trkpt lat="40.6601433" lon="8.7501917"><ele>341.0</ele><time>2026-04-06T15:04:09.982Z</time></trkpt><trkpt lat="40.6599983" lon="8.749875"><ele>341.0</ele><time>2026-04-06T15:04:10.982Z</time></trkpt><trkpt lat="40.6598583" lon="8.7495733"><ele>344.0</ele><time>2026-04-06T15:04:11.982Z</time></trkpt><trkpt lat="40.65972" lon="8.74927"><ele>347.0</ele><time>2026-04-06T15:04:12.982Z</time></trkpt><trkpt lat="40.6595817" lon="8.7489783"><ele>348.0</ele><time>2026-04-06T15:04:13.982Z</time></trkpt><trkpt lat="40.659445" lon="8.74869"><ele>349.0</ele><time>2026-04-06T15:04:14.982Z</time></trkpt><trkpt lat="40.659315" lon="8.7483933"><ele>352.0</ele><time>2026-04-06T15:04:15.982Z</time></trkpt><trkpt lat="40.6592" lon="8.7480883"><ele>355.0</ele><time>2026-04-06T15:04:16.982Z</time></trkpt><trkpt lat="40.6590833" lon="8.7477767"><ele>360.5</ele><time>2026-04-06T15:04:17.982Z</time></trkpt><trkpt lat="40.6589717" lon="8.7474633"><ele>366.0</ele><time>2026-04-06T15:04:18.982Z</time></trkpt><trkpt lat="40.6588783" lon="8.7471417"><ele>372.0</ele><time>2026-04-06T15:04:19.982Z</time></trkpt><trkpt lat="40.658785" lon="8.74682"><ele>378.0</ele><time>2026-04-06T15:04:20.982Z</time></trkpt><trkpt lat="40.65871" lon="8.7464983"><ele>378.0</ele><time>2026-04-06T15:04:21.982Z</time></trkpt><trkpt lat="40.65864" lon="8.7461733"><ele>378.0</ele><time>2026-04-06T15:04:22.982Z</time></trkpt><trkpt lat="40.658575" lon="8.7458483"><ele>377.0</ele><time>2026-04-06T15:04:23.982Z</time></trkpt><trkpt lat="40.6585217" lon="8.7455267"><ele>376.0</ele><time>2026-04-06T15:04:24.982Z</time></trkpt><trkpt lat="40.6585017" lon="8.74519"><ele>376.0</ele><time>2026-04-06T15:04:25.982Z</time></trkpt><trkpt lat="40.658475" lon="8.7448567"><ele>376.0</ele><time>2026-04-06T15:04:26.982Z</time></trkpt><trkpt lat="40.6584533" lon="8.744525"><ele>376.0</ele><time>2026-04-06T15:04:27.982Z</time></trkpt><trkpt lat="40.6584533" lon="8.74418"><ele>376.0</ele><time>2026-04-06T15:04:28.982Z</time></trkpt><trkpt lat="40.6584617" lon="8.7438417"><ele>375.0</ele><time>2026-04-06T15:04:29.982Z</time></trkpt><trkpt lat="40.6584617" lon="8.743505"><ele>374.0</ele><time>2026-04-06T15:04:30.982Z</time></trkpt><trkpt lat="40.65847" lon="8.7431683"><ele>374.0</ele><time>2026-04-06T15:04:31.982Z</time></trkpt><trkpt lat="40.6584783" lon="8.7428267"><ele>374.0</ele><time>2026-04-06T15:04:32.982Z</time></trkpt><trkpt lat="40.658475" lon="8.7424983"><ele>373.5</ele><time>2026-04-06T15:04:33.982Z</time></trkpt><trkpt lat="40.65848" lon="8.7421667"><ele>373.0</ele><time>2026-04-06T15:04:34.982Z</time></trkpt><trkpt lat="40.6584783" lon="8.74183"><ele>373.0</ele><time>2026-04-06T15:04:35.982Z</time></trkpt><trkpt lat="40.65849" lon="8.7414933"><ele>373.0</ele><time>2026-04-06T15:04:36.982Z</time></trkpt><trkpt lat="40.6585167" lon="8.7411667"><ele>371.5</ele><time>2026-04-06T15:04:37.982Z</time></trkpt><trkpt lat="40.6585333" lon="8.7408533"><ele>370.0</ele><time>2026-04-06T15:04:38.982Z</time></trkpt><trkpt lat="40.658555" lon="8.7405383"><ele>370.0</ele><time>2026-04-06T15:04:39.982Z</time></trkpt><trkpt lat="40.6585767" lon="8.7402233"><ele>370.0</ele><time>2026-04-06T15:04:40.982Z</time></trkpt><trkpt lat="40.6586017" lon="8.7399067"><ele>367.0</ele><time>2026-04-06T15:04:41.982Z</time></trkpt><trkpt lat="40.6586283" lon="8.7395833"><ele>364.0</ele><time>2026-04-06T15:04:42.982Z</time></trkpt><trkpt lat="40.6586633" lon="8.739255"><ele>362.0</ele><time>2026-04-06T15:04:43.982Z</time></trkpt><trkpt lat="40.6586917" lon="8.7389233"><ele>360.0</ele><time>2026-04-06T15:04:44.982Z</time></trkpt><trkpt lat="40.65872" lon="8.7385867"><ele>357.5</ele><time>2026-04-06T15:04:45.982Z</time></trkpt><trkpt lat="40.65874" lon="8.738245"><ele>355.0</ele><time>2026-04-06T15:04:46.982Z</time></trkpt><trkpt lat="40.6587533" lon="8.737915"><ele>354.5</ele><time>2026-04-06T15:04:47.982Z</time></trkpt><trkpt lat="40.6587833" lon="8.7375817"><ele>354.0</ele><time>2026-04-06T15:04:48.982Z</time></trkpt><trkpt lat="40.658815" lon="8.737255"><ele>354.0</ele><time>2026-04-06T15:04:49.982Z</time></trkpt><trkpt lat="40.658845" lon="8.73693"><ele>354.0</ele><time>2026-04-06T15:04:50.982Z</time></trkpt><trkpt lat="40.6588733" lon="8.7365967"><ele>352.5</ele><time>2026-04-06T15:04:51.982Z</time></trkpt><trkpt lat="40.6588867" lon="8.7362667"><ele>351.0</ele><time>2026-04-06T15:04:52.982Z</time></trkpt><trkpt lat="40.65891" lon="8.7359333"><ele>349.5</ele><time>2026-04-06T15:04:53.982Z</time></trkpt><trkpt lat="40.6589283" lon="8.7356"><ele>348.0</ele><time>2026-04-06T15:04:54.982Z</time></trkpt><trkpt lat="40.6589367" lon="8.7352633"><ele>347.5</ele><time>2026-04-06T15:04:55.982Z</time></trkpt><trkpt lat="40.6589467" lon="8.7349267"><ele>347.0</ele><time>2026-04-06T15:04:56.982Z</time></trkpt><trkpt lat="40.6589433" lon="8.73459"><ele>346.0</ele><time>2026-04-06T15:04:57.982Z</time></trkpt><trkpt lat="40.658935" lon="8.734255"><ele>345.0</ele><time>2026-04-06T15:04:58.983Z</time></trkpt><trkpt lat="40.658915" lon="8.7339233"><ele>345.0</ele><time>2026-04-06T15:04:59.982Z</time></trkpt><trkpt lat="40.6588833" lon="8.7335733"><ele>345.0</ele><time>2026-04-06T15:05:00.982Z</time></trkpt><trkpt lat="40.6588483" lon="8.7332167"><ele>344.5</ele><time>2026-04-06T15:05:01.982Z</time></trkpt><trkpt lat="40.658805" lon="8.7328633"><ele>344.0</ele><time>2026-04-06T15:05:02.982Z</time></trkpt><trkpt lat="40.6587617" lon="8.732475"><ele>342.0</ele><time>2026-04-06T15:05:03.982Z</time></trkpt><trkpt lat="40.6587333" lon="8.73208"><ele>340.0</ele><time>2026-04-06T15:05:04.982Z</time></trkpt><trkpt lat="40.658715" lon="8.7316733"><ele>339.0</ele><time>2026-04-06T15:05:05.982Z</time></trkpt><trkpt lat="40.6586933" lon="8.7312733"><ele>338.0</ele><time>2026-04-06T15:05:06.982Z</time></trkpt><trkpt lat="40.65868" lon="8.73086"><ele>337.0</ele><time>2026-04-06T15:05:07.982Z</time></trkpt><trkpt lat="40.6586483" lon="8.7304533"><ele>336.0</ele><time>2026-04-06T15:05:08.982Z</time></trkpt><trkpt lat="40.6586333" lon="8.7300467"><ele>335.0</ele><time>2026-04-06T15:05:09.982Z</time></trkpt><trkpt lat="40.6586017" lon="8.729645"><ele>334.0</ele><time>2026-04-06T15:05:10.982Z</time></trkpt><trkpt lat="40.6585717" lon="8.7292433"><ele>332.5</ele><time>2026-04-06T15:05:11.982Z</time></trkpt><trkpt lat="40.6585367" lon="8.7288467"><ele>331.0</ele><time>2026-04-06T15:05:12.982Z</time></trkpt><trkpt lat="40.6585" lon="8.728445"><ele>330.5</ele><time>2026-04-06T15:05:13.982Z</time></trkpt><trkpt lat="40.658465" lon="8.72804"><ele>330.0</ele><time>2026-04-06T15:05:14.982Z</time></trkpt><trkpt lat="40.6584367" lon="8.7276433"><ele>328.0</ele><time>2026-04-06T15:05:15.982Z</time></trkpt><trkpt lat="40.6584233" lon="8.727265"><ele>326.0</ele><time>2026-04-06T15:05:16.982Z</time></trkpt><trkpt lat="40.6583983" lon="8.72688"><ele>325.0</ele><time>2026-04-06T15:05:17.982Z</time></trkpt><trkpt lat="40.6583683" lon="8.72649"><ele>324.0</ele><time>2026-04-06T15:05:18.982Z</time></trkpt><trkpt lat="40.6583467" lon="8.7261033"><ele>324.5</ele><time>2026-04-06T15:05:19.982Z</time></trkpt><trkpt lat="40.6583217" lon="8.7257283"><ele>325.0</ele><time>2026-04-06T15:05:20.982Z</time></trkpt><trkpt lat="40.65829" lon="8.7253667"><ele>324.5</ele><time>2026-04-06T15:05:21.982Z</time></trkpt><trkpt lat="40.6582633" lon="8.7250133"><ele>324.0</ele><time>2026-04-06T15:05:22.982Z</time></trkpt><trkpt lat="40.6582233" lon="8.7246733"><ele>323.5</ele><time>2026-04-06T15:05:23.982Z</time></trkpt><trkpt lat="40.6582033" lon="8.7243383"><ele>323.0</ele><time>2026-04-06T15:05:24.982Z</time></trkpt><trkpt lat="40.658175" lon="8.7240083"><ele>323.0</ele><time>2026-04-06T15:05:25.982Z</time></trkpt><trkpt lat="40.6581533" lon="8.72369"><ele>323.0</ele><time>2026-04-06T15:05:26.982Z</time></trkpt><trkpt lat="40.65813" lon="8.72337"><ele>322.5</ele><time>2026-04-06T15:05:27.982Z</time></trkpt><trkpt lat="40.6580983" lon="8.723055"><ele>322.0</ele><time>2026-04-06T15:05:28.983Z</time></trkpt><trkpt lat="40.6580767" lon="8.7227333"><ele>322.0</ele><time>2026-04-06T15:05:29.982Z</time></trkpt><trkpt lat="40.6580333" lon="8.7224067"><ele>322.0</ele><time>2026-04-06T15:05:30.982Z</time></trkpt><trkpt lat="40.657985" lon="8.7220833"><ele>322.5</ele><time>2026-04-06T15:05:31.982Z</time></trkpt><trkpt lat="40.6579367" lon="8.721755"><ele>323.0</ele><time>2026-04-06T15:05:32.982Z</time></trkpt><trkpt lat="40.6578833" lon="8.7214467"><ele>323.0</ele><time>2026-04-06T15:05:33.982Z</time></trkpt><trkpt lat="40.6578267" lon="8.7211467"><ele>323.0</ele><time>2026-04-06T15:05:34.982Z</time></trkpt><trkpt lat="40.6577867" lon="8.7208683"><ele>323.0</ele><time>2026-04-06T15:05:35.982Z</time></trkpt><trkpt lat="40.6577283" lon="8.7206067"><ele>320.6666666666667</ele><time>2026-04-06T15:05:36.982Z</time></trkpt><trkpt lat="40.6576767" lon="8.7203483"><ele>318.3333333333333</ele><time>2026-04-06T15:05:37.982Z</time></trkpt><trkpt lat="40.6576233" lon="8.7200983"><ele>316.0</ele><time>2026-04-06T15:05:38.982Z</time></trkpt><trkpt lat="40.657575" lon="8.7198683"><ele>316.0</ele><time>2026-04-06T15:05:39.982Z</time></trkpt><trkpt lat="40.6575333" lon="8.71964"><ele>316.0</ele><time>2026-04-06T15:05:40.982Z</time></trkpt><trkpt lat="40.6574967" lon="8.7194183"><ele>316.0</ele><time>2026-04-06T15:05:41.982Z</time></trkpt><trkpt lat="40.6574567" lon="8.7192017"><ele>316.0</ele><time>2026-04-06T15:05:42.982Z</time></trkpt><trkpt lat="40.6574233" lon="8.719"><ele>316.0</ele><time>2026-04-06T15:05:43.983Z</time></trkpt><trkpt lat="40.657385" lon="8.7187967"><ele>316.0</ele><time>2026-04-06T15:05:44.982Z</time></trkpt><trkpt lat="40.6573533" lon="8.7185833"><ele>316.0</ele><time>2026-04-06T15:05:45.982Z</time></trkpt><trkpt lat="40.65733" lon="8.7183717"><ele>316.0</ele><time>2026-04-06T15:05:46.982Z</time></trkpt><trkpt lat="40.6573183" lon="8.7181533"><ele>316.0</ele><time>2026-04-06T15:05:47.983Z</time></trkpt><trkpt lat="40.6573267" lon="8.7179267"><ele>315.3333333333333</ele><time>2026-04-06T15:05:48.982Z</time></trkpt><trkpt lat="40.65735" lon="8.717715"><ele>314.6666666666667</ele><time>2026-04-06T15:05:49.982Z</time></trkpt><trkpt lat="40.6573917" lon="8.71751"><ele>314.0</ele><time>2026-04-06T15:05:50.982Z</time></trkpt><trkpt lat="40.6574517" lon="8.7172967"><ele>314.0</ele><time>2026-04-06T15:05:51.982Z</time></trkpt><trkpt lat="40.6575267" lon="8.7171033"><ele>314.0</ele><time>2026-04-06T15:05:52.982Z</time></trkpt><trkpt lat="40.6576383" lon="8.716915"><ele>314.0</ele><time>2026-04-06T15:05:53.982Z</time></trkpt><trkpt lat="40.657765" lon="8.7167267"><ele>312.6666666666667</ele><time>2026-04-06T15:05:54.982Z</time></trkpt><trkpt lat="40.6579133" lon="8.7165483"><ele>311.3333333333333</ele><time>2026-04-06T15:05:55.982Z</time></trkpt><trkpt lat="40.6580767" lon="8.716385"><ele>310.0</ele><time>2026-04-06T15:05:56.982Z</time></trkpt><trkpt lat="40.65826" lon="8.7162433"><ele>310.0</ele><time>2026-04-06T15:05:57.983Z</time></trkpt><trkpt lat="40.658445" lon="8.716135"><ele>310.0</ele><time>2026-04-06T15:05:58.982Z</time></trkpt><trkpt lat="40.6586467" lon="8.71605"><ele>310.0</ele><time>2026-04-06T15:05:59.982Z</time></trkpt><trkpt lat="40.6588467" lon="8.7159683"><ele>309.3333333333333</ele><time>2026-04-06T15:06:00.982Z</time></trkpt><trkpt lat="40.65905" lon="8.7158717"><ele>308.6666666666667</ele><time>2026-04-06T15:06:01.982Z</time></trkpt><trkpt lat="40.6592633" lon="8.71577"><ele>308.0</ele><time>2026-04-06T15:06:02.982Z</time></trkpt><trkpt lat="40.6594817" lon="8.7156833"><ele>308.0</ele><time>2026-04-06T15:06:03.982Z</time></trkpt><trkpt lat="40.6596833" lon="8.7155967"><ele>308.0</ele><time>2026-04-06T15:06:04.982Z</time></trkpt><trkpt lat="40.6598733" lon="8.7155017"><ele>308.0</ele><time>2026-04-06T15:06:05.982Z</time></trkpt><trkpt lat="40.6600467" lon="8.7153783"><ele>306.6666666666667</ele><time>2026-04-06T15:06:06.982Z</time></trkpt><trkpt lat="40.6601933" lon="8.71523"><ele>305.3333333333333</ele><time>2026-04-06T15:06:07.982Z</time></trkpt><trkpt lat="40.6603167" lon="8.715045"><ele>304.0</ele><time>2026-04-06T15:06:08.982Z</time></trkpt><trkpt lat="40.6604267" lon="8.7148283"><ele>304.0</ele><time>2026-04-06T15:06:09.982Z</time></trkpt><trkpt lat="40.66052" lon="8.7145967"><ele>304.0</ele><time>2026-04-06T15:06:10.982Z</time></trkpt><trkpt lat="40.6605767" lon="8.7143467"><ele>304.0</ele><time>2026-04-06T15:06:11.982Z</time></trkpt><trkpt lat="40.6606117" lon="8.714085"><ele>304.0</ele><time>2026-04-06T15:06:12.982Z</time></trkpt><trkpt lat="40.660625" lon="8.7138117"><ele>304.0</ele><time>2026-04-06T15:06:13.982Z</time></trkpt><trkpt lat="40.6606517" lon="8.7135317"><ele>304.0</ele><time>2026-04-06T15:06:14.982Z</time></trkpt><trkpt lat="40.6606783" lon="8.7132533"><ele>304.3333333333333</ele><time>2026-04-06T15:06:15.982Z</time></trkpt><trkpt lat="40.6607367" lon="8.712975"><ele>304.6666666666667</ele><time>2026-04-06T15:06:16.982Z</time></trkpt><trkpt lat="40.6608167" lon="8.7127167"><ele>305.0</ele><time>2026-04-06T15:06:17.982Z</time></trkpt><trkpt lat="40.6608983" lon="8.7124417"><ele>305.0</ele><time>2026-04-06T15:06:18.982Z</time></trkpt><trkpt lat="40.661" lon="8.7121717"><ele>305.0</ele><time>2026-04-06T15:06:19.982Z</time></trkpt><trkpt lat="40.6611017" lon="8.7118883"><ele>307.5</ele><time>2026-04-06T15:06:20.982Z</time></trkpt><trkpt lat="40.6612167" lon="8.7116067"><ele>310.0</ele><time>2026-04-06T15:06:21.982Z</time></trkpt><trkpt lat="40.6613283" lon="8.7113317"><ele>308.0</ele><time>2026-04-06T15:06:22.982Z</time></trkpt><trkpt lat="40.6614367" lon="8.71105"><ele>306.0</ele><time>2026-04-06T15:06:23.982Z</time></trkpt><trkpt lat="40.6615283" lon="8.71078"><ele>306.0</ele><time>2026-04-06T15:06:24.982Z</time></trkpt><trkpt lat="40.6616317" lon="8.7105267"><ele>306.0</ele><time>2026-04-06T15:06:25.982Z</time></trkpt><trkpt lat="40.6617533" lon="8.7102883"><ele>306.0</ele><time>2026-04-06T15:06:26.982Z</time></trkpt><trkpt lat="40.6618933" lon="8.7100667"><ele>307.0</ele><time>2026-04-06T15:06:27.982Z</time></trkpt><trkpt lat="40.66206" lon="8.7098767"><ele>308.0</ele><time>2026-04-06T15:06:28.982Z</time></trkpt><trkpt lat="40.6622333" lon="8.70969"><ele>309.0</ele><time>2026-04-06T15:06:29.982Z</time></trkpt><trkpt lat="40.66242" lon="8.709495"><ele>308.5</ele><time>2026-04-06T15:06:30.982Z</time></trkpt><trkpt lat="40.6626067" lon="8.7093183"><ele>308.0</ele><time>2026-04-06T15:06:31.982Z</time></trkpt><trkpt lat="40.662815" lon="8.7091667"><ele>308.0</ele><time>2026-04-06T15:06:32.982Z</time></trkpt><trkpt lat="40.6630233" lon="8.70902"><ele>308.0</ele><time>2026-04-06T15:06:33.982Z</time></trkpt><trkpt lat="40.6632367" lon="8.7088783"><ele>308.0</ele><time>2026-04-06T15:06:34.982Z</time></trkpt><trkpt lat="40.6634483" lon="8.7087333"><ele>308.0</ele><time>2026-04-06T15:06:35.982Z</time></trkpt><trkpt lat="40.6636517" lon="8.7085967"><ele>306.0</ele><time>2026-04-06T15:06:36.982Z</time></trkpt><trkpt lat="40.6638667" lon="8.7084383"><ele>304.0</ele><time>2026-04-06T15:06:37.982Z</time></trkpt><trkpt lat="40.6640817" lon="8.70828"><ele>304.0</ele><time>2026-04-06T15:06:38.982Z</time></trkpt><trkpt lat="40.664305" lon="8.708125"><ele>304.0</ele><time>2026-04-06T15:06:39.982Z</time></trkpt><trkpt lat="40.6645283" lon="8.7079817"><ele>305.0</ele><time>2026-04-06T15:06:40.982Z</time></trkpt><trkpt lat="40.66475" lon="8.70786"><ele>306.0</ele><time>2026-04-06T15:06:41.982Z</time></trkpt><trkpt lat="40.6649683" lon="8.7077467"><ele>301.0</ele><time>2026-04-06T15:06:42.982Z</time></trkpt><trkpt lat="40.66519" lon="8.70765"><ele>296.0</ele><time>2026-04-06T15:06:43.982Z</time></trkpt><trkpt lat="40.6654117" lon="8.7075583"><ele>293.0</ele><time>2026-04-06T15:06:44.982Z</time></trkpt><trkpt lat="40.6656267" lon="8.707475"><ele>290.0</ele><time>2026-04-06T15:06:45.983Z</time></trkpt><trkpt lat="40.6658483" lon="8.70737"><ele>290.0</ele><time>2026-04-06T15:06:46.982Z</time></trkpt><trkpt lat="40.6660667" lon="8.7072783"><ele>290.0</ele><time>2026-04-06T15:06:47.982Z</time></trkpt><trkpt lat="40.6662867" lon="8.707185"><ele>291.0</ele><time>2026-04-06T15:06:48.982Z</time></trkpt><trkpt lat="40.666505" lon="8.7070767"><ele>292.0</ele><time>2026-04-06T15:06:49.982Z</time></trkpt><trkpt lat="40.6667233" lon="8.7069667"><ele>286.5</ele><time>2026-04-06T15:06:50.982Z</time></trkpt><trkpt lat="40.666945" lon="8.7068633"><ele>281.0</ele><time>2026-04-06T15:06:51.982Z</time></trkpt><trkpt lat="40.6671567" lon="8.7067517"><ele>281.0</ele><time>2026-04-06T15:06:52.982Z</time></trkpt><trkpt lat="40.6673633" lon="8.7066367"><ele>281.0</ele><time>2026-04-06T15:06:53.982Z</time></trkpt><trkpt lat="40.6675617" lon="8.7064883"><ele>281.0</ele><time>2026-04-06T15:06:54.982Z</time></trkpt><trkpt lat="40.6677283" lon="8.706255"><ele>281.0</ele><time>2026-04-06T15:06:55.982Z</time></trkpt><trkpt lat="40.66789" lon="8.705995"><ele>279.5</ele><time>2026-04-06T15:06:56.982Z</time></trkpt><trkpt lat="40.6680633" lon="8.7057333"><ele>278.0</ele><time>2026-04-06T15:06:57.982Z</time></trkpt><trkpt lat="40.66825" lon="8.7054733"><ele>280.0</ele><time>2026-04-06T15:06:58.982Z</time></trkpt><trkpt lat="40.6684317" lon="8.7052267"><ele>282.0</ele><time>2026-04-06T15:06:59.982Z</time></trkpt><trkpt lat="40.66861" lon="8.7049817"><ele>282.0</ele><time>2026-04-06T15:07:00.982Z</time></trkpt><trkpt lat="40.66878" lon="8.7047417"><ele>282.0</ele><time>2026-04-06T15:07:01.982Z</time></trkpt><trkpt lat="40.66894" lon="8.7044917"><ele>273.0</ele><time>2026-04-06T15:07:02.983Z</time></trkpt><trkpt lat="40.66909" lon="8.704245"><ele>264.0</ele><time>2026-04-06T15:07:03.982Z</time></trkpt><trkpt lat="40.66926" lon="8.7040233"><ele>264.0</ele><time>2026-04-06T15:07:04.982Z</time></trkpt><trkpt lat="40.6694333" lon="8.7037983"><ele>264.0</ele><time>2026-04-06T15:07:05.982Z</time></trkpt><trkpt lat="40.6696217" lon="8.70358"><ele>262.5</ele><time>2026-04-06T15:07:06.982Z</time></trkpt><trkpt lat="40.66981" lon="8.70337"><ele>261.0</ele><time>2026-04-06T15:07:07.982Z</time></trkpt><trkpt lat="40.6699967" lon="8.70317"><ele>261.0</ele><time>2026-04-06T15:07:08.982Z</time></trkpt><trkpt lat="40.6701833" lon="8.702975"><ele>261.0</ele><time>2026-04-06T15:07:09.982Z</time></trkpt><trkpt lat="40.670345" lon="8.7027533"><ele>263.0</ele><time>2026-04-06T15:07:10.982Z</time></trkpt><trkpt lat="40.670495" lon="8.7025283"><ele>265.0</ele><time>2026-04-06T15:07:11.982Z</time></trkpt><trkpt lat="40.6706433" lon="8.7022767"><ele>265.0</ele><time>2026-04-06T15:07:12.982Z</time></trkpt><trkpt lat="40.6707617" lon="8.7020183"><ele>265.0</ele><time>2026-04-06T15:07:13.982Z</time></trkpt><trkpt lat="40.67085" lon="8.7017383"><ele>257.0</ele><time>2026-04-06T15:07:14.982Z</time></trkpt><trkpt lat="40.67091" lon="8.7014467"><ele>249.0</ele><time>2026-04-06T15:07:15.982Z</time></trkpt><trkpt lat="40.6709333" lon="8.7011517"><ele>243.5</ele><time>2026-04-06T15:07:16.982Z</time></trkpt><trkpt lat="40.6709417" lon="8.7008467"><ele>238.0</ele><time>2026-04-06T15:07:17.982Z</time></trkpt><trkpt lat="40.670935" lon="8.7005217"><ele>235.5</ele><time>2026-04-06T15:07:18.982Z</time></trkpt><trkpt lat="40.6709383" lon="8.7001883"><ele>233.0</ele><time>2026-04-06T15:07:19.982Z</time></trkpt><trkpt lat="40.6709667" lon="8.6998833"><ele>233.0</ele><time>2026-04-06T15:07:20.982Z</time></trkpt><trkpt lat="40.6710183" lon="8.699595"><ele>233.0</ele><time>2026-04-06T15:07:21.982Z</time></trkpt><trkpt lat="40.67109" lon="8.6993233"><ele>233.0</ele><time>2026-04-06T15:07:22.982Z</time></trkpt><trkpt lat="40.671165" lon="8.6990733"><ele>231.66666666666669</ele><time>2026-04-06T15:07:23.982Z</time></trkpt><trkpt lat="40.6712517" lon="8.698835"><ele>230.33333333333331</ele><time>2026-04-06T15:07:24.982Z</time></trkpt><trkpt lat="40.67133" lon="8.6986067"><ele>229.0</ele><time>2026-04-06T15:07:25.982Z</time></trkpt><trkpt lat="40.671415" lon="8.6983833"><ele>229.0</ele><time>2026-04-06T15:07:26.982Z</time></trkpt><trkpt lat="40.6714917" lon="8.6981667"><ele>229.0</ele><time>2026-04-06T15:07:27.982Z</time></trkpt><trkpt lat="40.6715683" lon="8.6979733"><ele>229.0</ele><time>2026-04-06T15:07:28.982Z</time></trkpt><trkpt lat="40.671645" lon="8.6977717"><ele>224.33333333333331</ele><time>2026-04-06T15:07:29.982Z</time></trkpt><trkpt lat="40.6717367" lon="8.697575"><ele>219.66666666666669</ele><time>2026-04-06T15:07:30.982Z</time></trkpt><trkpt lat="40.671815" lon="8.6973883"><ele>215.0</ele><time>2026-04-06T15:07:31.982Z</time></trkpt><trkpt lat="40.6719017" lon="8.697205"><ele>215.33333333333334</ele><time>2026-04-06T15:07:32.982Z</time></trkpt><trkpt lat="40.671985" lon="8.6970117"><ele>215.66666666666669</ele><time>2026-04-06T15:07:33.982Z</time></trkpt><trkpt lat="40.6720733" lon="8.6968133"><ele>216.0</ele><time>2026-04-06T15:07:34.983Z</time></trkpt><trkpt lat="40.67216" lon="8.6966067"><ele>216.0</ele><time>2026-04-06T15:07:35.982Z</time></trkpt><trkpt lat="40.6722367" lon="8.6963933"><ele>216.0</ele><time>2026-04-06T15:07:36.982Z</time></trkpt><trkpt lat="40.6723067" lon="8.6961817"><ele>216.0</ele><time>2026-04-06T15:07:37.982Z</time></trkpt><trkpt lat="40.672365" lon="8.6959733"><ele>213.0</ele><time>2026-04-06T15:07:38.982Z</time></trkpt><trkpt lat="40.6724167" lon="8.6957517"><ele>210.0</ele><time>2026-04-06T15:07:39.982Z</time></trkpt><trkpt lat="40.6724533" lon="8.6955217"><ele>207.0</ele><time>2026-04-06T15:07:40.982Z</time></trkpt><trkpt lat="40.6724633" lon="8.69529"><ele>204.33333333333331</ele><time>2026-04-06T15:07:41.982Z</time></trkpt><trkpt lat="40.67247" lon="8.6950567"><ele>201.66666666666666</ele><time>2026-04-06T15:07:42.982Z</time></trkpt><trkpt lat="40.6724633" lon="8.69483"><ele>199.0</ele><time>2026-04-06T15:07:43.982Z</time></trkpt><trkpt lat="40.6724533" lon="8.69462"><ele>199.66666666666666</ele><time>2026-04-06T15:07:44.982Z</time></trkpt><trkpt lat="40.6724467" lon="8.6944"><ele>200.33333333333331</ele><time>2026-04-06T15:07:45.982Z</time></trkpt><trkpt lat="40.6724417" lon="8.6941667"><ele>201.0</ele><time>2026-04-06T15:07:46.982Z</time></trkpt><trkpt lat="40.6724417" lon="8.6939367"><ele>201.0</ele><time>2026-04-06T15:07:47.982Z</time></trkpt><trkpt lat="40.6724267" lon="8.6937133"><ele>201.0</ele><time>2026-04-06T15:07:48.982Z</time></trkpt><trkpt lat="40.6724217" lon="8.6934833"><ele>201.0</ele><time>2026-04-06T15:07:49.982Z</time></trkpt><trkpt lat="40.6724167" lon="8.6932483"><ele>201.0</ele><time>2026-04-06T15:07:50.982Z</time></trkpt><trkpt lat="40.6724217" lon="8.6930183"><ele>201.0</ele><time>2026-04-06T15:07:51.982Z</time></trkpt><trkpt lat="40.6724217" lon="8.6928"><ele>201.0</ele><time>2026-04-06T15:07:52.982Z</time></trkpt><trkpt lat="40.67242" lon="8.6925883"><ele>202.0</ele><time>2026-04-06T15:07:53.982Z</time></trkpt><trkpt lat="40.6724183" lon="8.6923867"><ele>203.0</ele><time>2026-04-06T15:07:54.982Z</time></trkpt><trkpt lat="40.6724133" lon="8.6921733"><ele>204.0</ele><time>2026-04-06T15:07:55.982Z</time></trkpt><trkpt lat="40.6724133" lon="8.6919683"><ele>204.0</ele><time>2026-04-06T15:07:56.982Z</time></trkpt><trkpt lat="40.6723967" lon="8.6917783"><ele>204.0</ele><time>2026-04-06T15:07:57.982Z</time></trkpt><trkpt lat="40.672375" lon="8.6915883"><ele>204.0</ele><time>2026-04-06T15:07:58.982Z</time></trkpt><trkpt lat="40.6723517" lon="8.6914083"><ele>204.0</ele><time>2026-04-06T15:07:59.982Z</time></trkpt><trkpt lat="40.6723167" lon="8.6912417"><ele>203.0</ele><time>2026-04-06T15:08:00.982Z</time></trkpt><trkpt lat="40.6722717" lon="8.691055"><ele>202.0</ele><time>2026-04-06T15:08:01.982Z</time></trkpt><trkpt lat="40.67223" lon="8.69087"><ele>201.0</ele><time>2026-04-06T15:08:02.982Z</time></trkpt><trkpt lat="40.67218" lon="8.6906783"><ele>200.0</ele><time>2026-04-06T15:08:03.982Z</time></trkpt><trkpt lat="40.6721233" lon="8.6904833"><ele>200.0</ele><time>2026-04-06T15:08:04.982Z</time></trkpt><trkpt lat="40.6720617" lon="8.6902867"><ele>200.0</ele><time>2026-04-06T15:08:05.982Z</time></trkpt><trkpt lat="40.6719883" lon="8.6900733"><ele>200.0</ele><time>2026-04-06T15:08:06.982Z</time></trkpt><trkpt lat="40.671925" lon="8.6898267"><ele>201.33333333333334</ele><time>2026-04-06T15:08:07.982Z</time></trkpt><trkpt lat="40.6718667" lon="8.6895733"><ele>202.66666666666669</ele><time>2026-04-06T15:08:08.982Z</time></trkpt><trkpt lat="40.6718117" lon="8.6892933"><ele>204.0</ele><time>2026-04-06T15:08:09.982Z</time></trkpt><trkpt lat="40.67175" lon="8.6890233"><ele>204.0</ele><time>2026-04-06T15:08:10.982Z</time></trkpt><trkpt lat="40.671685" lon="8.6887467"><ele>204.0</ele><time>2026-04-06T15:08:11.983Z</time></trkpt><trkpt lat="40.6716167" lon="8.6884733"><ele>204.0</ele><time>2026-04-06T15:08:12.982Z</time></trkpt><trkpt lat="40.6715467" lon="8.68819"><ele>203.33333333333331</ele><time>2026-04-06T15:08:13.982Z</time></trkpt><trkpt lat="40.6714817" lon="8.6879133"><ele>202.66666666666666</ele><time>2026-04-06T15:08:14.982Z</time></trkpt><trkpt lat="40.6714267" lon="8.6876367"><ele>202.0</ele><time>2026-04-06T15:08:15.982Z</time></trkpt><trkpt lat="40.671395" lon="8.6873467"><ele>201.5</ele><time>2026-04-06T15:08:16.982Z</time></trkpt><trkpt lat="40.67139" lon="8.6870433"><ele>201.0</ele><time>2026-04-06T15:08:17.982Z</time></trkpt><trkpt lat="40.6713883" lon="8.6867167"><ele>200.5</ele><time>2026-04-06T15:08:18.982Z</time></trkpt><trkpt lat="40.6713967" lon="8.6863883"><ele>200.0</ele><time>2026-04-06T15:08:19.982Z</time></trkpt><trkpt lat="40.6714117" lon="8.6860617"><ele>199.5</ele><time>2026-04-06T15:08:20.982Z</time></trkpt><trkpt lat="40.6714183" lon="8.6857483"><ele>199.0</ele><time>2026-04-06T15:08:21.982Z</time></trkpt><trkpt lat="40.6714267" lon="8.6854267"><ele>198.0</ele><time>2026-04-06T15:08:22.982Z</time></trkpt><trkpt lat="40.6714283" lon="8.6850883"><ele>197.0</ele><time>2026-04-06T15:08:23.982Z</time></trkpt><trkpt lat="40.6714367" lon="8.68476"><ele>197.5</ele><time>2026-04-06T15:08:24.982Z</time></trkpt><trkpt lat="40.6714433" lon="8.6844267"><ele>198.0</ele><time>2026-04-06T15:08:25.982Z</time></trkpt><trkpt lat="40.6714517" lon="8.6840883"><ele>198.0</ele><time>2026-04-06T15:08:26.982Z</time></trkpt><trkpt lat="40.6714617" lon="8.6837583"><ele>198.0</ele><time>2026-04-06T15:08:27.982Z</time></trkpt><trkpt lat="40.6714733" lon="8.683425"><ele>198.0</ele><time>2026-04-06T15:08:28.982Z</time></trkpt><trkpt lat="40.6714867" lon="8.683095"><ele>198.0</ele><time>2026-04-06T15:08:29.981Z</time></trkpt><trkpt lat="40.6715017" lon="8.6827683"><ele>199.5</ele><time>2026-04-06T15:08:30.981Z</time></trkpt><trkpt lat="40.671505" lon="8.6824417"><ele>201.0</ele><time>2026-04-06T15:08:31.981Z</time></trkpt><trkpt lat="40.6715083" lon="8.6821167"><ele>203.0</ele><time>2026-04-06T15:08:32.981Z</time></trkpt><trkpt lat="40.6715233" lon="8.6817883"><ele>205.0</ele><time>2026-04-06T15:08:33.981Z</time></trkpt><trkpt lat="40.6715267" lon="8.6814583"><ele>205.0</ele><time>2026-04-06T15:08:34.981Z</time></trkpt><trkpt lat="40.671535" lon="8.6811317"><ele>205.0</ele><time>2026-04-06T15:08:35.981Z</time></trkpt><trkpt lat="40.671545" lon="8.6807883"><ele>205.0</ele><time>2026-04-06T15:08:36.981Z</time></trkpt><trkpt lat="40.6715483" lon="8.6804533"><ele>205.0</ele><time>2026-04-06T15:08:37.981Z</time></trkpt><trkpt lat="40.671545" lon="8.68011"><ele>205.0</ele><time>2026-04-06T15:08:38.981Z</time></trkpt><trkpt lat="40.67155" lon="8.6797667"><ele>205.0</ele><time>2026-04-06T15:08:39.981Z</time></trkpt><trkpt lat="40.6715567" lon="8.6794183"><ele>206.0</ele><time>2026-04-06T15:08:40.981Z</time></trkpt><trkpt lat="40.6715683" lon="8.6790683"><ele>207.0</ele><time>2026-04-06T15:08:41.981Z</time></trkpt><trkpt lat="40.6715917" lon="8.6787083"><ele>206.0</ele><time>2026-04-06T15:08:42.981Z</time></trkpt><trkpt lat="40.6715983" lon="8.6783467"><ele>205.0</ele><time>2026-04-06T15:08:43.981Z</time></trkpt><trkpt lat="40.6716083" lon="8.6779833"><ele>203.0</ele><time>2026-04-06T15:08:44.982Z</time></trkpt><trkpt lat="40.6716083" lon="8.67762"><ele>201.0</ele><time>2026-04-06T15:08:45.981Z</time></trkpt><trkpt lat="40.6716117" lon="8.6772583"><ele>198.5</ele><time>2026-04-06T15:08:46.981Z</time></trkpt><trkpt lat="40.6716133" lon="8.6769067"><ele>196.0</ele><time>2026-04-06T15:08:47.981Z</time></trkpt><trkpt lat="40.6716167" lon="8.6765517"><ele>196.0</ele><time>2026-04-06T15:08:48.981Z</time></trkpt><trkpt lat="40.6716167" lon="8.6761983"><ele>196.0</ele><time>2026-04-06T15:08:49.981Z</time></trkpt><trkpt lat="40.6716283" lon="8.6758383"><ele>193.5</ele><time>2026-04-06T15:08:50.981Z</time></trkpt><trkpt lat="40.6716367" lon="8.6754867"><ele>191.0</ele><time>2026-04-06T15:08:51.981Z</time></trkpt><trkpt lat="40.6716417" lon="8.675135"><ele>190.0</ele><time>2026-04-06T15:08:52.981Z</time></trkpt><trkpt lat="40.6716533" lon="8.6747933"><ele>189.0</ele><time>2026-04-06T15:08:53.981Z</time></trkpt><trkpt lat="40.671655" lon="8.67444"><ele>188.5</ele><time>2026-04-06T15:08:54.981Z</time></trkpt><trkpt lat="40.6716667" lon="8.6741017"><ele>188.0</ele><time>2026-04-06T15:08:55.981Z</time></trkpt><trkpt lat="40.67167" lon="8.67378"><ele>188.0</ele><time>2026-04-06T15:08:56.981Z</time></trkpt><trkpt lat="40.6716767" lon="8.6734517"><ele>188.0</ele><time>2026-04-06T15:08:57.981Z</time></trkpt><trkpt lat="40.671695" lon="8.6731217"><ele>188.0</ele><time>2026-04-06T15:08:58.981Z</time></trkpt><trkpt lat="40.6717033" lon="8.67279"><ele>188.0</ele><time>2026-04-06T15:08:59.981Z</time></trkpt><trkpt lat="40.6717067" lon="8.6724567"><ele>188.0</ele><time>2026-04-06T15:09:00.981Z</time></trkpt><trkpt lat="40.6717117" lon="8.672125"><ele>188.0</ele><time>2026-04-06T15:09:01.981Z</time></trkpt><trkpt lat="40.67172" lon="8.6717917"><ele>188.0</ele><time>2026-04-06T15:09:02.982Z</time></trkpt><trkpt lat="40.6717067" lon="8.6714533"><ele>188.0</ele><time>2026-04-06T15:09:03.981Z</time></trkpt><trkpt lat="40.6716733" lon="8.6711283"><ele>187.5</ele><time>2026-04-06T15:09:04.981Z</time></trkpt><trkpt lat="40.6716133" lon="8.670795"><ele>187.0</ele><time>2026-04-06T15:09:05.981Z</time></trkpt><trkpt lat="40.6715467" lon="8.6704683"><ele>186.5</ele><time>2026-04-06T15:09:06.982Z</time></trkpt><trkpt lat="40.6714683" lon="8.67013"><ele>186.0</ele><time>2026-04-06T15:09:07.981Z</time></trkpt><trkpt lat="40.67139" lon="8.6698"><ele>186.0</ele><time>2026-04-06T15:09:08.981Z</time></trkpt><trkpt lat="40.6713183" lon="8.6694567"><ele>186.0</ele><time>2026-04-06T15:09:09.981Z</time></trkpt><trkpt lat="40.6712417" lon="8.669115"><ele>186.5</ele><time>2026-04-06T15:09:10.981Z</time></trkpt><trkpt lat="40.67116" lon="8.66878"><ele>187.0</ele><time>2026-04-06T15:09:11.981Z</time></trkpt><trkpt lat="40.6710817" lon="8.668445"><ele>190.0</ele><time>2026-04-06T15:09:12.981Z</time></trkpt><trkpt lat="40.6710133" lon="8.6681167"><ele>193.0</ele><time>2026-04-06T15:09:13.981Z</time></trkpt><trkpt lat="40.67095" lon="8.667785"><ele>193.0</ele><time>2026-04-06T15:09:14.981Z</time></trkpt><trkpt lat="40.670885" lon="8.667475"><ele>193.0</ele><time>2026-04-06T15:09:15.981Z</time></trkpt><trkpt lat="40.67082" lon="8.66718"><ele>193.0</ele><time>2026-04-06T15:09:16.981Z</time></trkpt><trkpt lat="40.6707667" lon="8.6668967"><ele>193.0</ele><time>2026-04-06T15:09:17.981Z</time></trkpt><trkpt lat="40.6707067" lon="8.6666383"><ele>193.0</ele><time>2026-04-06T15:09:18.981Z</time></trkpt><trkpt lat="40.6706567" lon="8.6663917"><ele>193.0</ele><time>2026-04-06T15:09:19.981Z</time></trkpt><trkpt lat="40.6706083" lon="8.6661617"><ele>193.0</ele><time>2026-04-06T15:09:20.981Z</time></trkpt><trkpt lat="40.6705533" lon="8.6659317"><ele>193.0</ele><time>2026-04-06T15:09:21.981Z</time></trkpt><trkpt lat="40.6705033" lon="8.6657233"><ele>193.0</ele><time>2026-04-06T15:09:22.981Z</time></trkpt><trkpt lat="40.6704633" lon="8.665535"><ele>193.0</ele><time>2026-04-06T15:09:23.981Z</time></trkpt><trkpt lat="40.6704283" lon="8.66537"><ele>193.0</ele><time>2026-04-06T15:09:24.981Z</time></trkpt><trkpt lat="40.6704133" lon="8.6652283"><ele>193.0</ele><time>2026-04-06T15:09:25.981Z</time></trkpt><trkpt lat="40.6704217" lon="8.6651083"><ele>193.66666666666666</ele><time>2026-04-06T15:09:26.981Z</time></trkpt><trkpt lat="40.6704533" lon="8.6650233"><ele>194.33333333333331</ele><time>2026-04-06T15:09:27.981Z</time></trkpt><trkpt lat="40.6705133" lon="8.664955"><ele>195.0</ele><time>2026-04-06T15:09:28.981Z</time></trkpt><trkpt lat="40.6705683" lon="8.664885"><ele>195.66666666666669</ele><time>2026-04-06T15:09:29.981Z</time></trkpt><trkpt lat="40.6706" lon="8.6648017"><ele>196.33333333333334</ele><time>2026-04-06T15:09:30.981Z</time></trkpt><trkpt lat="40.6706083" lon="8.6646967"><ele>197.0</ele><time>2026-04-06T15:09:31.981Z</time></trkpt><trkpt lat="40.670575" lon="8.6646"><ele>197.0</ele><time>2026-04-06T15:09:32.981Z</time></trkpt><trkpt lat="40.67052" lon="8.6645067"><ele>197.0</ele><time>2026-04-06T15:09:33.981Z</time></trkpt><trkpt lat="40.6704783" lon="8.6644067"><ele>197.0</ele><time>2026-04-06T15:09:34.981Z</time></trkpt><trkpt lat="40.6704533" lon="8.6642683"><ele>197.0</ele><time>2026-04-06T15:09:35.981Z</time></trkpt><trkpt lat="40.670455" lon="8.6641017"><ele>197.0</ele><time>2026-04-06T15:09:36.981Z</time></trkpt><trkpt lat="40.6704867" lon="8.6639233"><ele>197.0</ele><time>2026-04-06T15:09:37.981Z</time></trkpt><trkpt lat="40.670535" lon="8.6637417"><ele>197.0</ele><time>2026-04-06T15:09:38.981Z</time></trkpt><trkpt lat="40.670595" lon="8.6635567"><ele>197.0</ele><time>2026-04-06T15:09:39.981Z</time></trkpt><trkpt lat="40.6706633" lon="8.6633483"><ele>196.66666666666669</ele><time>2026-04-06T15:09:40.981Z</time></trkpt><trkpt lat="40.6707333" lon="8.6631383"><ele>196.33333333333331</ele><time>2026-04-06T15:09:41.981Z</time></trkpt><trkpt lat="40.6708167" lon="8.6629217"><ele>196.0</ele><time>2026-04-06T15:09:42.981Z</time></trkpt><trkpt lat="40.6709067" lon="8.6626983"><ele>195.66666666666666</ele><time>2026-04-06T15:09:43.981Z</time></trkpt><trkpt lat="40.6710033" lon="8.662465"><ele>195.33333333333331</ele><time>2026-04-06T15:09:44.981Z</time></trkpt><trkpt lat="40.6711133" lon="8.66222"><ele>195.0</ele><time>2026-04-06T15:09:45.981Z</time></trkpt><trkpt lat="40.6712267" lon="8.6619767"><ele>197.0</ele><time>2026-04-06T15:09:46.981Z</time></trkpt><trkpt lat="40.671345" lon="8.66172"><ele>199.0</ele><time>2026-04-06T15:09:47.981Z</time></trkpt><trkpt lat="40.6714667" lon="8.6614617"><ele>199.0</ele><time>2026-04-06T15:09:48.981Z</time></trkpt><trkpt lat="40.6715767" lon="8.661205"><ele>199.0</ele><time>2026-04-06T15:09:49.981Z</time></trkpt><trkpt lat="40.6717017" lon="8.660975"><ele>199.0</ele><time>2026-04-06T15:09:50.981Z</time></trkpt><trkpt lat="40.671835" lon="8.6607633"><ele>196.66666666666666</ele><time>2026-04-06T15:09:51.981Z</time></trkpt><trkpt lat="40.671975" lon="8.6605483"><ele>194.33333333333331</ele><time>2026-04-06T15:09:52.981Z</time></trkpt><trkpt lat="40.6721167" lon="8.6603317"><ele>192.0</ele><time>2026-04-06T15:09:53.981Z</time></trkpt><trkpt lat="40.672255" lon="8.660115"><ele>192.0</ele><time>2026-04-06T15:09:54.981Z</time></trkpt><trkpt lat="40.6724" lon="8.6598833"><ele>192.0</ele><time>2026-04-06T15:09:55.981Z</time></trkpt><trkpt lat="40.6725267" lon="8.659645"><ele>192.0</ele><time>2026-04-06T15:09:56.981Z</time></trkpt><trkpt lat="40.6726533" lon="8.6593883"><ele>189.5</ele><time>2026-04-06T15:09:57.981Z</time></trkpt><trkpt lat="40.6727733" lon="8.6591167"><ele>187.0</ele><time>2026-04-06T15:09:58.981Z</time></trkpt><trkpt lat="40.67289" lon="8.6588217"><ele>187.0</ele><time>2026-04-06T15:09:59.981Z</time></trkpt><trkpt lat="40.6730017" lon="8.6585133"><ele>187.0</ele><time>2026-04-06T15:10:00.981Z</time></trkpt><trkpt lat="40.6731083" lon="8.658185"><ele>187.0</ele><time>2026-04-06T15:10:01.981Z</time></trkpt><trkpt lat="40.6732033" lon="8.65784"><ele>187.0</ele><time>2026-04-06T15:10:02.981Z</time></trkpt><trkpt lat="40.6732967" lon="8.65748"><ele>187.5</ele><time>2026-04-06T15:10:03.981Z</time></trkpt><trkpt lat="40.6733867" lon="8.6571133"><ele>188.0</ele><time>2026-04-06T15:10:04.981Z</time></trkpt><trkpt lat="40.6734767" lon="8.65673"><ele>188.0</ele><time>2026-04-06T15:10:05.981Z</time></trkpt><trkpt lat="40.6735783" lon="8.6563417"><ele>188.0</ele><time>2026-04-06T15:10:06.981Z</time></trkpt><trkpt lat="40.6736783" lon="8.6559417"><ele>187.0</ele><time>2026-04-06T15:10:07.981Z</time></trkpt><trkpt lat="40.6737783" lon="8.6555483"><ele>186.0</ele><time>2026-04-06T15:10:08.982Z</time></trkpt><trkpt lat="40.673875" lon="8.65516"><ele>186.0</ele><time>2026-04-06T15:10:09.981Z</time></trkpt><trkpt lat="40.6739667" lon="8.65476"><ele>186.0</ele><time>2026-04-06T15:10:10.981Z</time></trkpt><trkpt lat="40.67405" lon="8.6543567"><ele>186.0</ele><time>2026-04-06T15:10:11.981Z</time></trkpt><trkpt lat="40.6741383" lon="8.6539617"><ele>186.0</ele><time>2026-04-06T15:10:12.981Z</time></trkpt><trkpt lat="40.6742267" lon="8.653565"><ele>186.0</ele><time>2026-04-06T15:10:13.981Z</time></trkpt><trkpt lat="40.6743033" lon="8.6531633"><ele>186.0</ele><time>2026-04-06T15:10:14.981Z</time></trkpt><trkpt lat="40.6743983" lon="8.6527667"><ele>184.5</ele><time>2026-04-06T15:10:15.981Z</time></trkpt><trkpt lat="40.67449" lon="8.65236"><ele>183.0</ele><time>2026-04-06T15:10:16.981Z</time></trkpt><trkpt lat="40.6745733" lon="8.65195"><ele>182.0</ele><time>2026-04-06T15:10:17.981Z</time></trkpt><trkpt lat="40.6746583" lon="8.6515367"><ele>181.0</ele><time>2026-04-06T15:10:18.981Z</time></trkpt><trkpt lat="40.67473" lon="8.6511333"><ele>181.0</ele><time>2026-04-06T15:10:19.981Z</time></trkpt><trkpt lat="40.6748083" lon="8.6507283"><ele>181.0</ele><time>2026-04-06T15:10:20.981Z</time></trkpt><trkpt lat="40.6748933" lon="8.650315"><ele>181.5</ele><time>2026-04-06T15:10:21.981Z</time></trkpt><trkpt lat="40.67498" lon="8.6499033"><ele>182.0</ele><time>2026-04-06T15:10:22.981Z</time></trkpt><trkpt lat="40.67507" lon="8.6494983"><ele>182.5</ele><time>2026-04-06T15:10:23.981Z</time></trkpt><trkpt lat="40.675165" lon="8.6491"><ele>183.0</ele><time>2026-04-06T15:10:24.981Z</time></trkpt><trkpt lat="40.6752667" lon="8.6487117"><ele>182.0</ele><time>2026-04-06T15:10:25.981Z</time></trkpt><trkpt lat="40.6753783" lon="8.6483283"><ele>181.0</ele><time>2026-04-06T15:10:26.981Z</time></trkpt><trkpt lat="40.675495" lon="8.6479433"><ele>180.5</ele><time>2026-04-06T15:10:27.981Z</time></trkpt><trkpt lat="40.67562" lon="8.6475633"><ele>180.0</ele><time>2026-04-06T15:10:28.981Z</time></trkpt><trkpt lat="40.6757483" lon="8.647175"><ele>179.5</ele><time>2026-04-06T15:10:29.981Z</time></trkpt><trkpt lat="40.6758783" lon="8.64681"><ele>179.0</ele><time>2026-04-06T15:10:30.981Z</time></trkpt><trkpt lat="40.6760183" lon="8.6464467"><ele>176.5</ele><time>2026-04-06T15:10:31.981Z</time></trkpt><trkpt lat="40.6761883" lon="8.6461017"><ele>174.0</ele><time>2026-04-06T15:10:32.981Z</time></trkpt><trkpt lat="40.676385" lon="8.6457567"><ele>174.0</ele><time>2026-04-06T15:10:33.982Z</time></trkpt><trkpt lat="40.6765883" lon="8.6454267"><ele>174.0</ele><time>2026-04-06T15:10:34.981Z</time></trkpt><trkpt lat="40.6767883" lon="8.645095"><ele>171.0</ele><time>2026-04-06T15:10:35.981Z</time></trkpt><trkpt lat="40.676985" lon="8.6447867"><ele>168.0</ele><time>2026-04-06T15:10:36.981Z</time></trkpt><trkpt lat="40.6771717" lon="8.6444917"><ele>170.0</ele><time>2026-04-06T15:10:37.981Z</time></trkpt><trkpt lat="40.677345" lon="8.644215"><ele>172.0</ele><time>2026-04-06T15:10:38.981Z</time></trkpt><trkpt lat="40.6775033" lon="8.6439583"><ele>172.0</ele><time>2026-04-06T15:10:39.981Z</time></trkpt><trkpt lat="40.677655" lon="8.643715"><ele>172.0</ele><time>2026-04-06T15:10:40.981Z</time></trkpt><trkpt lat="40.6778033" lon="8.643475"><ele>170.5</ele><time>2026-04-06T15:10:41.981Z</time></trkpt><trkpt lat="40.677955" lon="8.6432317"><ele>169.0</ele><time>2026-04-06T15:10:42.981Z</time></trkpt><trkpt lat="40.6781" lon="8.642985"><ele>169.5</ele><time>2026-04-06T15:10:43.981Z</time></trkpt><trkpt lat="40.6782617" lon="8.6427267"><ele>170.0</ele><time>2026-04-06T15:10:44.981Z</time></trkpt><trkpt lat="40.6784267" lon="8.6424633"><ele>170.0</ele><time>2026-04-06T15:10:45.981Z</time></trkpt><trkpt lat="40.67859" lon="8.6421983"><ele>170.0</ele><time>2026-04-06T15:10:46.981Z</time></trkpt><trkpt lat="40.6787483" lon="8.6419133"><ele>169.5</ele><time>2026-04-06T15:10:47.981Z</time></trkpt><trkpt lat="40.6789233" lon="8.6416233"><ele>169.0</ele><time>2026-04-06T15:10:48.981Z</time></trkpt><trkpt lat="40.6790983" lon="8.641325"><ele>169.5</ele><time>2026-04-06T15:10:49.981Z</time></trkpt><trkpt lat="40.679285" lon="8.6410183"><ele>170.0</ele><time>2026-04-06T15:10:50.981Z</time></trkpt><trkpt lat="40.6794867" lon="8.6407117"><ele>170.0</ele><time>2026-04-06T15:10:51.981Z</time></trkpt><trkpt lat="40.6796883" lon="8.6404067"><ele>170.0</ele><time>2026-04-06T15:10:52.981Z</time></trkpt><trkpt lat="40.6798933" lon="8.640105"><ele>169.0</ele><time>2026-04-06T15:10:53.981Z</time></trkpt><trkpt lat="40.6801067" lon="8.639795"><ele>168.0</ele><time>2026-04-06T15:10:54.981Z</time></trkpt><trkpt lat="40.68032" lon="8.63948"><ele>166.0</ele><time>2026-04-06T15:10:55.981Z</time></trkpt><trkpt lat="40.680525" lon="8.6391633"><ele>164.0</ele><time>2026-04-06T15:10:56.981Z</time></trkpt><trkpt lat="40.6807283" lon="8.63884"><ele>163.0</ele><time>2026-04-06T15:10:57.981Z</time></trkpt><trkpt lat="40.68094" lon="8.6385167"><ele>162.0</ele><time>2026-04-06T15:10:58.981Z</time></trkpt><trkpt lat="40.681165" lon="8.6381933"><ele>162.0</ele><time>2026-04-06T15:10:59.981Z</time></trkpt><trkpt lat="40.681385" lon="8.6378533"><ele>162.0</ele><time>2026-04-06T15:11:00.981Z</time></trkpt><trkpt lat="40.6816083" lon="8.6375317"><ele>162.0</ele><time>2026-04-06T15:11:01.981Z</time></trkpt><trkpt lat="40.68183" lon="8.637195"><ele>162.0</ele><time>2026-04-06T15:11:02.981Z</time></trkpt><trkpt lat="40.6820367" lon="8.636845"><ele>162.0</ele><time>2026-04-06T15:11:03.981Z</time></trkpt><trkpt lat="40.68225" lon="8.6364883"><ele>162.0</ele><time>2026-04-06T15:11:04.981Z</time></trkpt><trkpt lat="40.6824733" lon="8.6361383"><ele>161.5</ele><time>2026-04-06T15:11:05.982Z</time></trkpt><trkpt lat="40.68271" lon="8.6357933"><ele>161.0</ele><time>2026-04-06T15:11:06.981Z</time></trkpt><trkpt lat="40.6829383" lon="8.6354483"><ele>162.5</ele><time>2026-04-06T15:11:07.981Z</time></trkpt><trkpt lat="40.683175" lon="8.6351083"><ele>164.0</ele><time>2026-04-06T15:11:08.981Z</time></trkpt><trkpt lat="40.6834033" lon="8.63476"><ele>164.0</ele><time>2026-04-06T15:11:09.981Z</time></trkpt><trkpt lat="40.6836333" lon="8.634405"><ele>164.0</ele><time>2026-04-06T15:11:10.981Z</time></trkpt><trkpt lat="40.6838583" lon="8.6340583"><ele>164.0</ele><time>2026-04-06T15:11:11.981Z</time></trkpt><trkpt lat="40.6840917" lon="8.63371"><ele>164.0</ele><time>2026-04-06T15:11:12.981Z</time></trkpt><trkpt lat="40.6843283" lon="8.633355"><ele>164.5</ele><time>2026-04-06T15:11:13.981Z</time></trkpt><trkpt lat="40.6845617" lon="8.6330067"><ele>165.0</ele><time>2026-04-06T15:11:14.981Z</time></trkpt><trkpt lat="40.6848" lon="8.63266"><ele>164.0</ele><time>2026-04-06T15:11:15.981Z</time></trkpt><trkpt lat="40.6850383" lon="8.63232"><ele>163.0</ele><time>2026-04-06T15:11:16.981Z</time></trkpt><trkpt lat="40.6852767" lon="8.63198"><ele>162.5</ele><time>2026-04-06T15:11:17.981Z</time></trkpt><trkpt lat="40.6855117" lon="8.6316483"><ele>162.0</ele><time>2026-04-06T15:11:18.981Z</time></trkpt><trkpt lat="40.6857367" lon="8.6313117"><ele>162.5</ele><time>2026-04-06T15:11:19.981Z</time></trkpt><trkpt lat="40.6859633" lon="8.630975"><ele>163.0</ele><time>2026-04-06T15:11:20.981Z</time></trkpt><trkpt lat="40.6862033" lon="8.6306233"><ele>165.5</ele><time>2026-04-06T15:11:21.981Z</time></trkpt><trkpt lat="40.6864283" lon="8.630285"><ele>168.0</ele><time>2026-04-06T15:11:22.981Z</time></trkpt><trkpt lat="40.6866683" lon="8.6299467"><ele>168.0</ele><time>2026-04-06T15:11:23.981Z</time></trkpt><trkpt lat="40.6869" lon="8.6296117"><ele>168.0</ele><time>2026-04-06T15:11:24.981Z</time></trkpt><trkpt lat="40.6871267" lon="8.6292717"><ele>168.0</ele><time>2026-04-06T15:11:25.981Z</time></trkpt><trkpt lat="40.6873483" lon="8.6289317"><ele>168.0</ele><time>2026-04-06T15:11:26.981Z</time></trkpt><trkpt lat="40.68758" lon="8.6285917"><ele>166.0</ele><time>2026-04-06T15:11:27.981Z</time></trkpt><trkpt lat="40.6878183" lon="8.6282517"><ele>164.0</ele><time>2026-04-06T15:11:28.981Z</time></trkpt><trkpt lat="40.6880483" lon="8.6279067"><ele>165.5</ele><time>2026-04-06T15:11:29.981Z</time></trkpt><trkpt lat="40.6882733" lon="8.6275667"><ele>167.0</ele><time>2026-04-06T15:11:30.981Z</time></trkpt><trkpt lat="40.688495" lon="8.6272317"><ele>165.5</ele><time>2026-04-06T15:11:31.982Z</time></trkpt><trkpt lat="40.688725" lon="8.6268867"><ele>164.0</ele><time>2026-04-06T15:11:32.981Z</time></trkpt><trkpt lat="40.6889467" lon="8.626545"><ele>164.0</ele><time>2026-04-06T15:11:33.981Z</time></trkpt><trkpt lat="40.6891733" lon="8.626195"><ele>164.0</ele><time>2026-04-06T15:11:34.981Z</time></trkpt><trkpt lat="40.6893917" lon="8.6258517"><ele>164.0</ele><time>2026-04-06T15:11:35.981Z</time></trkpt><trkpt lat="40.6896067" lon="8.6255017"><ele>164.0</ele><time>2026-04-06T15:11:36.981Z</time></trkpt><trkpt lat="40.6898267" lon="8.6251433"><ele>164.0</ele><time>2026-04-06T15:11:37.981Z</time></trkpt><trkpt lat="40.69005" lon="8.6247967"><ele>164.0</ele><time>2026-04-06T15:11:38.981Z</time></trkpt><trkpt lat="40.6902617" lon="8.6244567"><ele>162.5</ele><time>2026-04-06T15:11:39.981Z</time></trkpt><trkpt lat="40.69046" lon="8.6241183"><ele>161.0</ele><time>2026-04-06T15:11:40.981Z</time></trkpt><trkpt lat="40.6906517" lon="8.623815"><ele>162.0</ele><time>2026-04-06T15:11:41.981Z</time></trkpt><trkpt lat="40.6908433" lon="8.6235"><ele>163.0</ele><time>2026-04-06T15:11:42.981Z</time></trkpt><trkpt lat="40.69104" lon="8.6231833"><ele>164.0</ele><time>2026-04-06T15:11:43.981Z</time></trkpt><trkpt lat="40.6912383" lon="8.6228567"><ele>165.0</ele><time>2026-04-06T15:11:44.981Z</time></trkpt><trkpt lat="40.6914433" lon="8.6225417"><ele>165.0</ele><time>2026-04-06T15:11:45.981Z</time></trkpt><trkpt lat="40.6916417" lon="8.6222133"><ele>165.0</ele><time>2026-04-06T15:11:46.981Z</time></trkpt><trkpt lat="40.6918333" lon="8.6219017"><ele>164.0</ele><time>2026-04-06T15:11:47.981Z</time></trkpt><trkpt lat="40.69202" lon="8.621595"><ele>163.0</ele><time>2026-04-06T15:11:48.981Z</time></trkpt><trkpt lat="40.6922083" lon="8.6212767"><ele>162.5</ele><time>2026-04-06T15:11:49.981Z</time></trkpt><trkpt lat="40.6923883" lon="8.6209633"><ele>162.0</ele><time>2026-04-06T15:11:50.981Z</time></trkpt><trkpt lat="40.6925717" lon="8.620655"><ele>161.5</ele><time>2026-04-06T15:11:51.981Z</time></trkpt><trkpt lat="40.6927583" lon="8.6203467"><ele>161.0</ele><time>2026-04-06T15:11:52.981Z</time></trkpt><trkpt lat="40.6929467" lon="8.620055"><ele>161.0</ele><time>2026-04-06T15:11:53.981Z</time></trkpt><trkpt lat="40.6931317" lon="8.6197517"><ele>161.0</ele><time>2026-04-06T15:11:54.981Z</time></trkpt><trkpt lat="40.693315" lon="8.6194533"><ele>161.5</ele><time>2026-04-06T15:11:55.981Z</time></trkpt><trkpt lat="40.6935183" lon="8.619175"><ele>162.0</ele><time>2026-04-06T15:11:56.981Z</time></trkpt><trkpt lat="40.6937317" lon="8.6189133"><ele>161.5</ele><time>2026-04-06T15:11:57.981Z</time></trkpt><trkpt lat="40.6939567" lon="8.6186767"><ele>161.0</ele><time>2026-04-06T15:11:58.981Z</time></trkpt><trkpt lat="40.694195" lon="8.6184583"><ele>157.0</ele><time>2026-04-06T15:11:59.981Z</time></trkpt><trkpt lat="40.6944433" lon="8.6182683"><ele>153.0</ele><time>2026-04-06T15:12:00.981Z</time></trkpt><trkpt lat="40.6946933" lon="8.6181167"><ele>153.0</ele><time>2026-04-06T15:12:01.981Z</time></trkpt><trkpt lat="40.6949533" lon="8.61797"><ele>153.0</ele><time>2026-04-06T15:12:02.981Z</time></trkpt><trkpt lat="40.695215" lon="8.61784"><ele>150.5</ele><time>2026-04-06T15:12:03.981Z</time></trkpt><trkpt lat="40.6954667" lon="8.6177217"><ele>148.0</ele><time>2026-04-06T15:12:04.981Z</time></trkpt><trkpt lat="40.6957183" lon="8.6175967"><ele>148.0</ele><time>2026-04-06T15:12:05.981Z</time></trkpt><trkpt lat="40.69598" lon="8.6174817"><ele>148.0</ele><time>2026-04-06T15:12:06.981Z</time></trkpt><trkpt lat="40.6962317" lon="8.617365"><ele>150.0</ele><time>2026-04-06T15:12:07.981Z</time></trkpt><trkpt lat="40.6964783" lon="8.617225"><ele>152.0</ele><time>2026-04-06T15:12:08.982Z</time></trkpt><trkpt lat="40.696725" lon="8.6170517"><ele>153.0</ele><time>2026-04-06T15:12:09.981Z</time></trkpt><trkpt lat="40.6969633" lon="8.6168533"><ele>154.0</ele><time>2026-04-06T15:12:10.981Z</time></trkpt><trkpt lat="40.697185" lon="8.6166333"><ele>154.0</ele><time>2026-04-06T15:12:11.981Z</time></trkpt><trkpt lat="40.6974017" lon="8.6163783"><ele>154.0</ele><time>2026-04-06T15:12:12.981Z</time></trkpt><trkpt lat="40.697595" lon="8.6160967"><ele>157.0</ele><time>2026-04-06T15:12:13.981Z</time></trkpt><trkpt lat="40.6977767" lon="8.6157983"><ele>160.0</ele><time>2026-04-06T15:12:14.981Z</time></trkpt><trkpt lat="40.6979483" lon="8.61547"><ele>157.0</ele><time>2026-04-06T15:12:15.982Z</time></trkpt><trkpt lat="40.698105" lon="8.6151567"><ele>154.0</ele><time>2026-04-06T15:12:16.981Z</time></trkpt><trkpt lat="40.69827" lon="8.6148317"><ele>154.0</ele><time>2026-04-06T15:12:17.981Z</time></trkpt><trkpt lat="40.6984433" lon="8.6145033"><ele>154.0</ele><time>2026-04-06T15:12:18.981Z</time></trkpt><trkpt lat="40.6986067" lon="8.61418"><ele>152.5</ele><time>2026-04-06T15:12:19.981Z</time></trkpt><trkpt lat="40.698785" lon="8.613845"><ele>151.0</ele><time>2026-04-06T15:12:20.981Z</time></trkpt><trkpt lat="40.6989533" lon="8.6135183"><ele>151.0</ele><time>2026-04-06T15:12:21.981Z</time></trkpt><trkpt lat="40.6991267" lon="8.6131917"><ele>151.0</ele><time>2026-04-06T15:12:22.981Z</time></trkpt><trkpt lat="40.699305" lon="8.6128617"><ele>156.5</ele><time>2026-04-06T15:12:23.981Z</time></trkpt><trkpt lat="40.699475" lon="8.6125383"><ele>162.0</ele><time>2026-04-06T15:12:24.981Z</time></trkpt><trkpt lat="40.6996333" lon="8.612205"><ele>157.5</ele><time>2026-04-06T15:12:25.981Z</time></trkpt><trkpt lat="40.6997883" lon="8.611865"><ele>153.0</ele><time>2026-04-06T15:12:26.981Z</time></trkpt><trkpt lat="40.699935" lon="8.6115233"><ele>153.0</ele><time>2026-04-06T15:12:27.981Z</time></trkpt><trkpt lat="40.7000683" lon="8.6111867"><ele>153.0</ele><time>2026-04-06T15:12:28.981Z</time></trkpt><trkpt lat="40.700215" lon="8.6108567"><ele>153.0</ele><time>2026-04-06T15:12:29.981Z</time></trkpt><trkpt lat="40.700345" lon="8.610505"><ele>153.0</ele><time>2026-04-06T15:12:30.981Z</time></trkpt><trkpt lat="40.700485" lon="8.6101483"><ele>150.0</ele><time>2026-04-06T15:12:31.981Z</time></trkpt><trkpt lat="40.7006367" lon="8.6097967"><ele>147.0</ele><time>2026-04-06T15:12:32.981Z</time></trkpt><trkpt lat="40.70079" lon="8.609435"><ele>144.5</ele><time>2026-04-06T15:12:33.982Z</time></trkpt><trkpt lat="40.7009367" lon="8.6090883"><ele>142.0</ele><time>2026-04-06T15:12:34.981Z</time></trkpt><trkpt lat="40.7010767" lon="8.6087533"><ele>145.0</ele><time>2026-04-06T15:12:35.981Z</time></trkpt><trkpt lat="40.7012217" lon="8.60841"><ele>148.0</ele><time>2026-04-06T15:12:36.981Z</time></trkpt><trkpt lat="40.7013533" lon="8.6080717"><ele>145.5</ele><time>2026-04-06T15:12:37.981Z</time></trkpt><trkpt lat="40.7014833" lon="8.607745"><ele>143.0</ele><time>2026-04-06T15:12:38.981Z</time></trkpt><trkpt lat="40.7015967" lon="8.6074183"><ele>143.0</ele><time>2026-04-06T15:12:39.981Z</time></trkpt><trkpt lat="40.7017067" lon="8.6070917"><ele>143.0</ele><time>2026-04-06T15:12:40.981Z</time></trkpt><trkpt lat="40.7017867" lon="8.6067533"><ele>143.5</ele><time>2026-04-06T15:12:41.981Z</time></trkpt><trkpt lat="40.7018183" lon="8.6063867"><ele>144.0</ele><time>2026-04-06T15:12:42.981Z</time></trkpt><trkpt lat="40.7018183" lon="8.6060183"><ele>144.0</ele><time>2026-04-06T15:12:43.981Z</time></trkpt><trkpt lat="40.7018117" lon="8.60566"><ele>144.0</ele><time>2026-04-06T15:12:44.981Z</time></trkpt><trkpt lat="40.7017767" lon="8.6052983"><ele>141.0</ele><time>2026-04-06T15:12:45.981Z</time></trkpt><trkpt lat="40.701725" lon="8.60493"><ele>138.0</ele><time>2026-04-06T15:12:46.981Z</time></trkpt><trkpt lat="40.7016417" lon="8.6045583"><ele>143.5</ele><time>2026-04-06T15:12:47.981Z</time></trkpt><trkpt lat="40.701565" lon="8.6041767"><ele>149.0</ele><time>2026-04-06T15:12:48.981Z</time></trkpt><trkpt lat="40.7014783" lon="8.603795"><ele>155.5</ele><time>2026-04-06T15:12:49.981Z</time></trkpt><trkpt lat="40.70141" lon="8.603415"><ele>162.0</ele><time>2026-04-06T15:12:50.981Z</time></trkpt><trkpt lat="40.7013333" lon="8.6030383"><ele>171.5</ele><time>2026-04-06T15:12:51.981Z</time></trkpt><trkpt lat="40.7012517" lon="8.6026483"><ele>181.0</ele><time>2026-04-06T15:12:52.981Z</time></trkpt><trkpt lat="40.7011733" lon="8.6022683"><ele>186.0</ele><time>2026-04-06T15:12:53.981Z</time></trkpt><trkpt lat="40.70109" lon="8.601885"><ele>191.0</ele><time>2026-04-06T15:12:54.981Z</time></trkpt><trkpt lat="40.7010133" lon="8.6015033"><ele>168.0</ele><time>2026-04-06T15:12:55.982Z</time></trkpt><trkpt lat="40.7009367" lon="8.6011183"><ele>145.0</ele><time>2026-04-06T15:12:56.981Z</time></trkpt><trkpt lat="40.7008433" lon="8.6007217"><ele>145.0</ele><time>2026-04-06T15:12:57.981Z</time></trkpt><trkpt lat="40.70076" lon="8.6003367"><ele>145.0</ele><time>2026-04-06T15:12:58.981Z</time></trkpt><trkpt lat="40.7006883" lon="8.5999617"><ele>146.5</ele><time>2026-04-06T15:12:59.981Z</time></trkpt><trkpt lat="40.700605" lon="8.5995867"><ele>148.0</ele><time>2026-04-06T15:13:00.981Z</time></trkpt><trkpt lat="40.700525" lon="8.5992133"><ele>150.0</ele><time>2026-04-06T15:13:01.981Z</time></trkpt><trkpt lat="40.700425" lon="8.5988417"><ele>152.0</ele><time>2026-04-06T15:13:02.981Z</time></trkpt><trkpt lat="40.7002983" lon="8.5984833"><ele>153.0</ele><time>2026-04-06T15:13:03.981Z</time></trkpt><trkpt lat="40.7001583" lon="8.598145"><ele>154.0</ele><time>2026-04-06T15:13:04.981Z</time></trkpt><trkpt lat="40.6999883" lon="8.5978183"><ele>154.0</ele><time>2026-04-06T15:13:05.981Z</time></trkpt><trkpt lat="40.6998167" lon="8.59751"><ele>154.0</ele><time>2026-04-06T15:13:06.981Z</time></trkpt><trkpt lat="40.699635" lon="8.5972033"><ele>146.5</ele><time>2026-04-06T15:13:07.981Z</time></trkpt><trkpt lat="40.6994733" lon="8.5968817"><ele>139.0</ele><time>2026-04-06T15:13:08.981Z</time></trkpt><trkpt lat="40.6993333" lon="8.59657"><ele>139.0</ele><time>2026-04-06T15:13:09.981Z</time></trkpt><trkpt lat="40.6992267" lon="8.5962367"><ele>139.0</ele><time>2026-04-06T15:13:10.982Z</time></trkpt><trkpt lat="40.6991517" lon="8.5959"><ele>146.0</ele><time>2026-04-06T15:13:11.981Z</time></trkpt><trkpt lat="40.6990883" lon="8.5955433"><ele>153.0</ele><time>2026-04-06T15:13:12.981Z</time></trkpt><trkpt lat="40.699065" lon="8.5951783"><ele>153.0</ele><time>2026-04-06T15:13:13.981Z</time></trkpt><trkpt lat="40.6990417" lon="8.5948267"><ele>153.0</ele><time>2026-04-06T15:13:14.981Z</time></trkpt><trkpt lat="40.6990467" lon="8.59447"><ele>153.0</ele><time>2026-04-06T15:13:15.981Z</time></trkpt><trkpt lat="40.699085" lon="8.5941283"><ele>153.0</ele><time>2026-04-06T15:13:16.981Z</time></trkpt><trkpt lat="40.69914" lon="8.5938067"><ele>149.5</ele><time>2026-04-06T15:13:17.981Z</time></trkpt><trkpt lat="40.6992133" lon="8.5935067"><ele>146.0</ele><time>2026-04-06T15:13:18.981Z</time></trkpt><trkpt lat="40.699305" lon="8.5932367"><ele>146.0</ele><time>2026-04-06T15:13:19.981Z</time></trkpt><trkpt lat="40.6994083" lon="8.593"><ele>146.0</ele><time>2026-04-06T15:13:20.981Z</time></trkpt><trkpt lat="40.699515" lon="8.5927617"><ele>146.0</ele><time>2026-04-06T15:13:21.981Z</time></trkpt><trkpt lat="40.6996283" lon="8.5925"><ele>143.5</ele><time>2026-04-06T15:13:22.981Z</time></trkpt><trkpt lat="40.6997633" lon="8.5922433"><ele>141.0</ele><time>2026-04-06T15:13:23.981Z</time></trkpt><trkpt lat="40.6998917" lon="8.5919817"><ele>141.0</ele><time>2026-04-06T15:13:24.981Z</time></trkpt><trkpt lat="40.7000267" lon="8.5917133"><ele>141.0</ele><time>2026-04-06T15:13:25.981Z</time></trkpt><trkpt lat="40.7001617" lon="8.591435"><ele>144.5</ele><time>2026-04-06T15:13:26.981Z</time></trkpt><trkpt lat="40.7003033" lon="8.5911583"><ele>148.0</ele><time>2026-04-06T15:13:27.981Z</time></trkpt><trkpt lat="40.7004533" lon="8.5908733"><ele>148.0</ele><time>2026-04-06T15:13:28.981Z</time></trkpt><trkpt lat="40.700605" lon="8.5905867"><ele>148.0</ele><time>2026-04-06T15:13:29.981Z</time></trkpt><trkpt lat="40.700755" lon="8.5902933"><ele>153.5</ele><time>2026-04-06T15:13:30.981Z</time></trkpt><trkpt lat="40.7009033" lon="8.5900017"><ele>159.0</ele><time>2026-04-06T15:13:31.981Z</time></trkpt><trkpt lat="40.70105" lon="8.589705"><ele>176.0</ele><time>2026-04-06T15:13:32.981Z</time></trkpt><trkpt lat="40.701195" lon="8.5894033"><ele>193.0</ele><time>2026-04-06T15:13:33.981Z</time></trkpt><trkpt lat="40.70131" lon="8.5890783"><ele>193.0</ele><time>2026-04-06T15:13:34.981Z</time></trkpt><trkpt lat="40.7013917" lon="8.5887567"><ele>193.0</ele><time>2026-04-06T15:13:35.981Z</time></trkpt><trkpt lat="40.70146" lon="8.5884517"><ele>193.5</ele><time>2026-04-06T15:13:36.981Z</time></trkpt><trkpt lat="40.701525" lon="8.5881267"><ele>194.0</ele><time>2026-04-06T15:13:37.981Z</time></trkpt><trkpt lat="40.7015933" lon="8.5877967"><ele>198.0</ele><time>2026-04-06T15:13:38.981Z</time></trkpt><trkpt lat="40.7016583" lon="8.587465"><ele>202.0</ele><time>2026-04-06T15:13:39.981Z</time></trkpt><trkpt lat="40.701725" lon="8.587135"><ele>213.0</ele><time>2026-04-06T15:13:40.981Z</time></trkpt><trkpt lat="40.70179" lon="8.5868067"><ele>224.0</ele><time>2026-04-06T15:13:41.981Z</time></trkpt><trkpt lat="40.70155" lon="8.5851117"><ele>233.0</ele><time>2026-04-06T15:13:48.029Z</time></trkpt><trkpt lat="40.701195" lon="8.5845933"><ele>206.5</ele><time>2026-04-06T15:13:49.029Z</time></trkpt><trkpt lat="40.701035" lon="8.58423"><ele>180.0</ele><time>2026-04-06T15:13:50.029Z</time></trkpt><trkpt lat="40.700895" lon="8.5839383"><ele>184.0</ele><time>2026-04-06T15:13:51.029Z</time></trkpt><trkpt lat="40.7007783" lon="8.583665"><ele>188.0</ele><time>2026-04-06T15:13:52.029Z</time></trkpt><trkpt lat="40.700665" lon="8.583405"><ele>188.0</ele><time>2026-04-06T15:13:53.029Z</time></trkpt><trkpt lat="40.700555" lon="8.5831383"><ele>188.0</ele><time>2026-04-06T15:13:54.029Z</time></trkpt><trkpt lat="40.7004617" lon="8.58287"><ele>180.66666666666666</ele><time>2026-04-06T15:13:55.029Z</time></trkpt><trkpt lat="40.7003617" lon="8.58262"><ele>173.33333333333334</ele><time>2026-04-06T15:13:56.029Z</time></trkpt><trkpt lat="40.7002617" lon="8.58236"><ele>166.0</ele><time>2026-04-06T15:13:57.029Z</time></trkpt><trkpt lat="40.7001783" lon="8.5821067"><ele>171.33333333333334</ele><time>2026-04-06T15:13:58.029Z</time></trkpt><trkpt lat="40.700105" lon="8.5818533"><ele>176.66666666666666</ele><time>2026-04-06T15:13:59.029Z</time></trkpt><trkpt lat="40.7000167" lon="8.5816133"><ele>182.0</ele><time>2026-04-06T15:14:00.029Z</time></trkpt><trkpt lat="40.6999533" lon="8.581375"><ele>188.33333333333331</ele><time>2026-04-06T15:14:01.029Z</time></trkpt><trkpt lat="40.6998833" lon="8.58115"><ele>194.66666666666666</ele><time>2026-04-06T15:14:02.029Z</time></trkpt><trkpt lat="40.6998017" lon="8.5809333"><ele>201.0</ele><time>2026-04-06T15:14:03.029Z</time></trkpt><trkpt lat="40.6997233" lon="8.5807317"><ele>201.0</ele><time>2026-04-06T15:14:04.029Z</time></trkpt><trkpt lat="40.699655" lon="8.5805267"><ele>201.0</ele><time>2026-04-06T15:14:05.029Z</time></trkpt><trkpt lat="40.6995933" lon="8.5803167"><ele>201.0</ele><time>2026-04-06T15:14:06.029Z</time></trkpt><trkpt lat="40.69954" lon="8.5801133"><ele>201.0</ele><time>2026-04-06T15:14:07.029Z</time></trkpt><trkpt lat="40.69947" lon="8.5799033"><ele>201.0</ele><time>2026-04-06T15:14:08.029Z</time></trkpt><trkpt lat="40.6993933" lon="8.579705"><ele>201.0</ele><time>2026-04-06T15:14:09.029Z</time></trkpt><trkpt lat="40.6993267" lon="8.5795133"><ele>201.0</ele><time>2026-04-06T15:14:10.029Z</time></trkpt><trkpt lat="40.6992733" lon="8.5793333"><ele>201.0</ele><time>2026-04-06T15:14:11.029Z</time></trkpt><trkpt lat="40.69922" lon="8.5791483"><ele>201.0</ele><time>2026-04-06T15:14:12.029Z</time></trkpt><trkpt lat="40.6991667" lon="8.5789633"><ele>201.0</ele><time>2026-04-06T15:14:13.029Z</time></trkpt><trkpt lat="40.6991133" lon="8.5787667"><ele>216.66666666666669</ele><time>2026-04-06T15:14:14.029Z</time></trkpt><trkpt lat="40.6990683" lon="8.5785767"><ele>232.33333333333334</ele><time>2026-04-06T15:14:15.029Z</time></trkpt><trkpt lat="40.69903" lon="8.578345"><ele>248.0</ele><time>2026-04-06T15:14:16.029Z</time></trkpt><trkpt lat="40.69898" lon="8.578125"><ele>248.0</ele><time>2026-04-06T15:14:17.029Z</time></trkpt><trkpt lat="40.69893" lon="8.5779"><ele>248.0</ele><time>2026-04-06T15:14:18.029Z</time></trkpt><trkpt lat="40.6988717" lon="8.5776667"><ele>248.0</ele><time>2026-04-06T15:14:19.03Z</time></trkpt><trkpt lat="40.6988167" lon="8.57743"><ele>201.0</ele><time>2026-04-06T15:14:20.029Z</time></trkpt><trkpt lat="40.6992191" lon="8.5791592"><ele>206.0</ele><time>2026-04-06T15:14:45.866Z</time></trkpt><trkpt lat="40.6981" lon="8.56851"><ele>206.0</ele><time>2026-04-06T15:15:03.029Z</time></trkpt><trkpt lat="40.6981183" lon="8.5682917"><ele>206.0</ele><time>2026-04-06T15:15:04.03Z</time></trkpt><trkpt lat="40.6981483" lon="8.568075"><ele>206.0</ele><time>2026-04-06T15:15:05.029Z</time></trkpt><trkpt lat="40.6981567" lon="8.56786"><ele>204.66666666666669</ele><time>2026-04-06T15:15:06.029Z</time></trkpt><trkpt lat="40.6981667" lon="8.567645"><ele>203.33333333333331</ele><time>2026-04-06T15:15:07.029Z</time></trkpt><trkpt lat="40.6981733" lon="8.567415"><ele>202.0</ele><time>2026-04-06T15:15:08.029Z</time></trkpt><trkpt lat="40.698185" lon="8.5671817"><ele>201.0</ele><time>2026-04-06T15:15:09.029Z</time></trkpt><trkpt lat="40.69819" lon="8.5669333"><ele>200.0</ele><time>2026-04-06T15:15:10.029Z</time></trkpt><trkpt lat="40.6981867" lon="8.5667033"><ele>199.0</ele><time>2026-04-06T15:15:11.029Z</time></trkpt><trkpt lat="40.6981783" lon="8.5664617"><ele>199.0</ele><time>2026-04-06T15:15:12.029Z</time></trkpt><trkpt lat="40.6981817" lon="8.5662217"><ele>199.0</ele><time>2026-04-06T15:15:13.029Z</time></trkpt><trkpt lat="40.6981817" lon="8.5659767"><ele>199.0</ele><time>2026-04-06T15:15:14.029Z</time></trkpt><trkpt lat="40.69819" lon="8.5657333"><ele>198.0</ele><time>2026-04-06T15:15:15.029Z</time></trkpt><trkpt lat="40.6982" lon="8.565485"><ele>197.0</ele><time>2026-04-06T15:15:16.029Z</time></trkpt><trkpt lat="40.6982067" lon="8.5652417"><ele>196.0</ele><time>2026-04-06T15:15:17.029Z</time></trkpt><trkpt lat="40.6982167" lon="8.5649867"><ele>194.33333333333331</ele><time>2026-04-06T15:15:18.029Z</time></trkpt><trkpt lat="40.6982267" lon="8.5647233"><ele>192.66666666666666</ele><time>2026-04-06T15:15:19.029Z</time></trkpt><trkpt lat="40.6982367" lon="8.564465"><ele>191.0</ele><time>2026-04-06T15:15:20.029Z</time></trkpt><trkpt lat="40.6982683" lon="8.5642083"><ele>191.0</ele><time>2026-04-06T15:15:21.029Z</time></trkpt><trkpt lat="40.6983117" lon="8.563945"><ele>191.0</ele><time>2026-04-06T15:15:22.029Z</time></trkpt><trkpt lat="40.6983567" lon="8.5636783"><ele>191.0</ele><time>2026-04-06T15:15:23.029Z</time></trkpt><trkpt lat="40.69841" lon="8.5634"><ele>192.5</ele><time>2026-04-06T15:15:24.029Z</time></trkpt><trkpt lat="40.6984733" lon="8.5631183"><ele>194.0</ele><time>2026-04-06T15:15:25.029Z</time></trkpt><trkpt lat="40.698555" lon="8.5628267"><ele>189.0</ele><time>2026-04-06T15:15:26.029Z</time></trkpt><trkpt lat="40.6986483" lon="8.5625317"><ele>184.0</ele><time>2026-04-06T15:15:27.029Z</time></trkpt><trkpt lat="40.6987533" lon="8.5622217"><ele>188.0</ele><time>2026-04-06T15:15:28.029Z</time></trkpt><trkpt lat="40.6988717" lon="8.5619083"><ele>192.0</ele><time>2026-04-06T15:15:29.029Z</time></trkpt><trkpt lat="40.6989883" lon="8.561595"><ele>192.0</ele><time>2026-04-06T15:15:30.029Z</time></trkpt><trkpt lat="40.69912" lon="8.56127"><ele>192.0</ele><time>2026-04-06T15:15:31.029Z</time></trkpt><trkpt lat="40.69924" lon="8.5609467"><ele>194.5</ele><time>2026-04-06T15:15:32.029Z</time></trkpt><trkpt lat="40.6993667" lon="8.56062"><ele>197.0</ele><time>2026-04-06T15:15:33.029Z</time></trkpt><trkpt lat="40.6994967" lon="8.5602933"><ele>197.0</ele><time>2026-04-06T15:15:34.029Z</time></trkpt><trkpt lat="40.69964" lon="8.5599667"><ele>197.0</ele><time>2026-04-06T15:15:35.029Z</time></trkpt><trkpt lat="40.6997933" lon="8.559645"><ele>196.0</ele><time>2026-04-06T15:15:36.029Z</time></trkpt><trkpt lat="40.6999517" lon="8.55933"><ele>195.0</ele><time>2026-04-06T15:15:37.029Z</time></trkpt><trkpt lat="40.7001117" lon="8.5590133"><ele>186.5</ele><time>2026-04-06T15:15:38.029Z</time></trkpt><trkpt lat="40.700285" lon="8.5587067"><ele>178.0</ele><time>2026-04-06T15:15:39.029Z</time></trkpt><trkpt lat="40.7004633" lon="8.5584083"><ele>176.5</ele><time>2026-04-06T15:15:40.029Z</time></trkpt><trkpt lat="40.7006467" lon="8.55811"><ele>175.0</ele><time>2026-04-06T15:15:41.029Z</time></trkpt><trkpt lat="40.7008283" lon="8.5578067"><ele>173.0</ele><time>2026-04-06T15:15:42.029Z</time></trkpt><trkpt lat="40.700995" lon="8.557515"><ele>171.0</ele><time>2026-04-06T15:15:43.029Z</time></trkpt><trkpt lat="40.7011617" lon="8.557225"><ele>168.0</ele><time>2026-04-06T15:15:44.029Z</time></trkpt><trkpt lat="40.701345" lon="8.5569217"><ele>165.0</ele><time>2026-04-06T15:15:45.029Z</time></trkpt><trkpt lat="40.7015183" lon="8.556635"><ele>165.0</ele><time>2026-04-06T15:15:46.029Z</time></trkpt><trkpt lat="40.7016967" lon="8.5563433"><ele>165.0</ele><time>2026-04-06T15:15:47.029Z</time></trkpt><trkpt lat="40.70187" lon="8.5560617"><ele>179.5</ele><time>2026-04-06T15:15:48.029Z</time></trkpt><trkpt lat="40.7020367" lon="8.5557633"><ele>194.0</ele><time>2026-04-06T15:15:49.029Z</time></trkpt><trkpt lat="40.7022117" lon="8.5554783"><ele>193.5</ele><time>2026-04-06T15:15:50.029Z</time></trkpt><trkpt lat="40.702375" lon="8.555195"><ele>193.0</ele><time>2026-04-06T15:15:51.029Z</time></trkpt><trkpt lat="40.70254" lon="8.55492"><ele>193.0</ele><time>2026-04-06T15:15:52.029Z</time></trkpt><trkpt lat="40.7027117" lon="8.55465"><ele>193.0</ele><time>2026-04-06T15:15:53.029Z</time></trkpt><trkpt lat="40.70287" lon="8.5543817"><ele>194.0</ele><time>2026-04-06T15:15:54.029Z</time></trkpt><trkpt lat="40.70303" lon="8.554115"><ele>195.0</ele><time>2026-04-06T15:15:55.029Z</time></trkpt><trkpt lat="40.7032" lon="8.5538583"><ele>194.5</ele><time>2026-04-06T15:15:56.029Z</time></trkpt><trkpt lat="40.703385" lon="8.55359"><ele>194.0</ele><time>2026-04-06T15:15:57.029Z</time></trkpt><trkpt lat="40.703585" lon="8.5533433"><ele>194.0</ele><time>2026-04-06T15:15:58.029Z</time></trkpt><trkpt lat="40.7038" lon="8.5530967"><ele>194.0</ele><time>2026-04-06T15:15:59.029Z</time></trkpt><trkpt lat="40.7039983" lon="8.5528483"><ele>194.0</ele><time>2026-04-06T15:16:00.029Z</time></trkpt><trkpt lat="40.7042167" lon="8.5525983"><ele>194.0</ele><time>2026-04-06T15:16:01.029Z</time></trkpt><trkpt lat="40.7044283" lon="8.5523733"><ele>194.0</ele><time>2026-04-06T15:16:02.029Z</time></trkpt><trkpt lat="40.7046383" lon="8.5521483"><ele>194.0</ele><time>2026-04-06T15:16:03.029Z</time></trkpt><trkpt lat="40.70486" lon="8.5519333"><ele>193.0</ele><time>2026-04-06T15:16:04.029Z</time></trkpt><trkpt lat="40.7050933" lon="8.551725"><ele>192.0</ele><time>2026-04-06T15:16:05.029Z</time></trkpt><trkpt lat="40.7053267" lon="8.5515033"><ele>192.0</ele><time>2026-04-06T15:16:06.029Z</time></trkpt><trkpt lat="40.705555" lon="8.551285"><ele>192.0</ele><time>2026-04-06T15:16:07.029Z</time></trkpt><trkpt lat="40.7057817" lon="8.55106"><ele>192.0</ele><time>2026-04-06T15:16:08.029Z</time></trkpt><trkpt lat="40.706005" lon="8.5508233"><ele>192.0</ele><time>2026-04-06T15:16:09.029Z</time></trkpt><trkpt lat="40.7062317" lon="8.55058"><ele>193.0</ele><time>2026-04-06T15:16:10.029Z</time></trkpt><trkpt lat="40.7064583" lon="8.5503433"><ele>194.0</ele><time>2026-04-06T15:16:11.029Z</time></trkpt><trkpt lat="40.706685" lon="8.550105"><ele>198.0</ele><time>2026-04-06T15:16:12.029Z</time></trkpt><trkpt lat="40.7069167" lon="8.549875"><ele>202.0</ele><time>2026-04-06T15:16:13.029Z</time></trkpt><trkpt lat="40.7071517" lon="8.5496467"><ele>197.5</ele><time>2026-04-06T15:16:14.029Z</time></trkpt><trkpt lat="40.707375" lon="8.54941"><ele>193.0</ele><time>2026-04-06T15:16:15.03Z</time></trkpt><trkpt lat="40.7076083" lon="8.5491767"><ele>191.5</ele><time>2026-04-06T15:16:16.029Z</time></trkpt><trkpt lat="40.7078483" lon="8.5489367"><ele>190.0</ele><time>2026-04-06T15:16:17.029Z</time></trkpt><trkpt lat="40.7080783" lon="8.5487117"><ele>186.5</ele><time>2026-04-06T15:16:18.029Z</time></trkpt><trkpt lat="40.7083117" lon="8.5484933"><ele>183.0</ele><time>2026-04-06T15:16:19.029Z</time></trkpt><trkpt lat="40.708545" lon="8.5482783"><ele>183.5</ele><time>2026-04-06T15:16:20.029Z</time></trkpt><trkpt lat="40.7087817" lon="8.5480633"><ele>184.0</ele><time>2026-04-06T15:16:21.029Z</time></trkpt><trkpt lat="40.709015" lon="8.5478317"><ele>186.0</ele><time>2026-04-06T15:16:22.029Z</time></trkpt><trkpt lat="40.7092433" lon="8.5475967"><ele>188.0</ele><time>2026-04-06T15:16:23.029Z</time></trkpt><trkpt lat="40.7094633" lon="8.5473517"><ele>188.0</ele><time>2026-04-06T15:16:24.029Z</time></trkpt><trkpt lat="40.709685" lon="8.54709"><ele>188.0</ele><time>2026-04-06T15:16:25.029Z</time></trkpt><trkpt lat="40.7099033" lon="8.5468167"><ele>186.0</ele><time>2026-04-06T15:16:26.029Z</time></trkpt><trkpt lat="40.7101083" lon="8.5465483"><ele>184.0</ele><time>2026-04-06T15:16:27.029Z</time></trkpt><trkpt lat="40.7103033" lon="8.5462633"><ele>181.5</ele><time>2026-04-06T15:16:28.029Z</time></trkpt><trkpt lat="40.7104967" lon="8.5459583"><ele>179.0</ele><time>2026-04-06T15:16:29.029Z</time></trkpt><trkpt lat="40.710675" lon="8.5456317"><ele>175.5</ele><time>2026-04-06T15:16:30.029Z</time></trkpt><trkpt lat="40.71086" lon="8.5452967"><ele>172.0</ele><time>2026-04-06T15:16:31.029Z</time></trkpt><trkpt lat="40.7110317" lon="8.5449617"><ele>173.0</ele><time>2026-04-06T15:16:32.029Z</time></trkpt><trkpt lat="40.711205" lon="8.544625"><ele>174.0</ele><time>2026-04-06T15:16:33.029Z</time></trkpt><trkpt lat="40.7113717" lon="8.544275"><ele>171.5</ele><time>2026-04-06T15:16:34.029Z</time></trkpt><trkpt lat="40.7115283" lon="8.5439217"><ele>169.0</ele><time>2026-04-06T15:16:35.029Z</time></trkpt><trkpt lat="40.7116717" lon="8.5435667"><ele>168.5</ele><time>2026-04-06T15:16:36.029Z</time></trkpt><trkpt lat="40.7117967" lon="8.543185"><ele>168.0</ele><time>2026-04-06T15:16:37.029Z</time></trkpt><trkpt lat="40.7119217" lon="8.5428133"><ele>166.5</ele><time>2026-04-06T15:16:38.03Z</time></trkpt><trkpt lat="40.712045" lon="8.5424167"><ele>165.0</ele><time>2026-04-06T15:16:39.029Z</time></trkpt><trkpt lat="40.7121533" lon="8.54203"><ele>164.0</ele><time>2026-04-06T15:16:40.029Z</time></trkpt><trkpt lat="40.7122483" lon="8.54163"><ele>163.0</ele><time>2026-04-06T15:16:41.03Z</time></trkpt><trkpt lat="40.71236" lon="8.5412383"><ele>162.5</ele><time>2026-04-06T15:16:42.029Z</time></trkpt><trkpt lat="40.7124583" lon="8.5408433"><ele>162.0</ele><time>2026-04-06T15:16:43.029Z</time></trkpt><trkpt lat="40.7125517" lon="8.5404433"><ele>162.0</ele><time>2026-04-06T15:16:44.029Z</time></trkpt><trkpt lat="40.7126433" lon="8.54005"><ele>162.0</ele><time>2026-04-06T15:16:45.029Z</time></trkpt><trkpt lat="40.7127383" lon="8.5396567"><ele>165.5</ele><time>2026-04-06T15:16:46.029Z</time></trkpt><trkpt lat="40.712825" lon="8.5392567"><ele>169.0</ele><time>2026-04-06T15:16:47.03Z</time></trkpt><trkpt lat="40.7129017" lon="8.53886"><ele>168.5</ele><time>2026-04-06T15:16:48.03Z</time></trkpt><trkpt lat="40.7129833" lon="8.5384617"><ele>168.0</ele><time>2026-04-06T15:16:49.029Z</time></trkpt><trkpt lat="40.7130683" lon="8.5380633"><ele>168.5</ele><time>2026-04-06T15:16:50.029Z</time></trkpt><trkpt lat="40.7131633" lon="8.5376717"><ele>169.0</ele><time>2026-04-06T15:16:51.029Z</time></trkpt><trkpt lat="40.7132617" lon="8.5372833"><ele>168.5</ele><time>2026-04-06T15:16:52.029Z</time></trkpt><trkpt lat="40.713365" lon="8.5369017"><ele>168.0</ele><time>2026-04-06T15:16:53.029Z</time></trkpt><trkpt lat="40.7134767" lon="8.5365217"><ele>164.5</ele><time>2026-04-06T15:16:54.029Z</time></trkpt><trkpt lat="40.7135783" lon="8.53614"><ele>161.0</ele><time>2026-04-06T15:16:55.029Z</time></trkpt><trkpt lat="40.7138817" lon="8.534965"><ele>155.5</ele><time>2026-04-06T15:16:58.03Z</time></trkpt><trkpt lat="40.71399" lon="8.5345083"><ele>150.0</ele><time>2026-04-06T15:16:59.03Z</time></trkpt><trkpt lat="40.7140817" lon="8.5340683"><ele>147.5</ele><time>2026-04-06T15:17:00.03Z</time></trkpt><trkpt lat="40.7141867" lon="8.53366"><ele>145.0</ele><time>2026-04-06T15:17:01.03Z</time></trkpt><trkpt lat="40.7143017" lon="8.5332633"><ele>141.5</ele><time>2026-04-06T15:17:02.03Z</time></trkpt><trkpt lat="40.714405" lon="8.532865"><ele>138.0</ele><time>2026-04-06T15:17:03.03Z</time></trkpt><trkpt lat="40.714505" lon="8.532475"><ele>138.0</ele><time>2026-04-06T15:17:04.03Z</time></trkpt><trkpt lat="40.7145933" lon="8.532075"><ele>138.0</ele><time>2026-04-06T15:17:05.03Z</time></trkpt><trkpt lat="40.7146717" lon="8.531675"><ele>134.5</ele><time>2026-04-06T15:17:06.03Z</time></trkpt><trkpt lat="40.714735" lon="8.5312867"><ele>131.0</ele><time>2026-04-06T15:17:07.03Z</time></trkpt><trkpt lat="40.7148083" lon="8.5308833"><ele>129.5</ele><time>2026-04-06T15:17:08.03Z</time></trkpt><trkpt lat="40.7148717" lon="8.5304833"><ele>128.0</ele><time>2026-04-06T15:17:09.03Z</time></trkpt><trkpt lat="40.71492" lon="8.530085"><ele>126.0</ele><time>2026-04-06T15:17:10.031Z</time></trkpt><trkpt lat="40.714965" lon="8.5296817"><ele>124.0</ele><time>2026-04-06T15:17:11.03Z</time></trkpt><trkpt lat="40.714975" lon="8.5292767"><ele>124.0</ele><time>2026-04-06T15:17:12.03Z</time></trkpt><trkpt lat="40.7149917" lon="8.52886"><ele>124.0</ele><time>2026-04-06T15:17:13.03Z</time></trkpt><trkpt lat="40.715005" lon="8.5284383"><ele>125.5</ele><time>2026-04-06T15:17:14.03Z</time></trkpt><trkpt lat="40.7150117" lon="8.5280067"><ele>127.0</ele><time>2026-04-06T15:17:15.03Z</time></trkpt><trkpt lat="40.7150233" lon="8.5275833"><ele>123.0</ele><time>2026-04-06T15:17:16.03Z</time></trkpt><trkpt lat="40.7150117" lon="8.5271583"><ele>119.0</ele><time>2026-04-06T15:17:17.03Z</time></trkpt><trkpt lat="40.7150083" lon="8.5267317"><ele>117.5</ele><time>2026-04-06T15:17:18.03Z</time></trkpt><trkpt lat="40.7149983" lon="8.526315"><ele>116.0</ele><time>2026-04-06T15:17:19.03Z</time></trkpt><trkpt lat="40.7149967" lon="8.5258967"><ele>119.0</ele><time>2026-04-06T15:17:20.03Z</time></trkpt><trkpt lat="40.7150083" lon="8.5254783"><ele>122.0</ele><time>2026-04-06T15:17:21.03Z</time></trkpt><trkpt lat="40.7150117" lon="8.5250717"><ele>122.0</ele><time>2026-04-06T15:17:22.03Z</time></trkpt><trkpt lat="40.715015" lon="8.52467"><ele>122.0</ele><time>2026-04-06T15:17:23.03Z</time></trkpt><trkpt lat="40.7150183" lon="8.5242767"><ele>120.5</ele><time>2026-04-06T15:17:24.03Z</time></trkpt><trkpt lat="40.7150217" lon="8.5238933"><ele>119.0</ele><time>2026-04-06T15:17:25.03Z</time></trkpt><trkpt lat="40.7150183" lon="8.52353"><ele>118.5</ele><time>2026-04-06T15:17:26.03Z</time></trkpt><trkpt lat="40.7150083" lon="8.5231733"><ele>118.0</ele><time>2026-04-06T15:17:27.03Z</time></trkpt><trkpt lat="40.7150017" lon="8.5228367"><ele>118.0</ele><time>2026-04-06T15:17:28.03Z</time></trkpt><trkpt lat="40.7149817" lon="8.5224917"><ele>118.0</ele><time>2026-04-06T15:17:29.03Z</time></trkpt><trkpt lat="40.714955" lon="8.5221433"><ele>118.5</ele><time>2026-04-06T15:17:30.029Z</time></trkpt><trkpt lat="40.71492" lon="8.5217883"><ele>119.0</ele><time>2026-04-06T15:17:31.03Z</time></trkpt><trkpt lat="40.7148767" lon="8.5214383"><ele>120.0</ele><time>2026-04-06T15:17:32.03Z</time></trkpt><trkpt lat="40.71482" lon="8.5211"><ele>121.0</ele><time>2026-04-06T15:17:33.03Z</time></trkpt><trkpt lat="40.7147617" lon="8.5207717"><ele>121.0</ele><time>2026-04-06T15:17:34.03Z</time></trkpt><trkpt lat="40.714715" lon="8.520455"><ele>121.0</ele><time>2026-04-06T15:17:35.03Z</time></trkpt><trkpt lat="40.714675" lon="8.520145"><ele>122.33333333333334</ele><time>2026-04-06T15:17:36.03Z</time></trkpt><trkpt lat="40.7146283" lon="8.5198567"><ele>123.66666666666666</ele><time>2026-04-06T15:17:37.03Z</time></trkpt><trkpt lat="40.7145833" lon="8.5195817"><ele>125.0</ele><time>2026-04-06T15:17:38.03Z</time></trkpt><trkpt lat="40.71454" lon="8.5193083"><ele>125.66666666666666</ele><time>2026-04-06T15:17:39.03Z</time></trkpt><trkpt lat="40.7145017" lon="8.51907"><ele>126.33333333333334</ele><time>2026-04-06T15:17:40.03Z</time></trkpt><trkpt lat="40.7144717" lon="8.518855"><ele>127.0</ele><time>2026-04-06T15:17:41.03Z</time></trkpt><trkpt lat="40.7144533" lon="8.5186817"><ele>127.0</ele><time>2026-04-06T15:17:42.03Z</time></trkpt><trkpt lat="40.714465" lon="8.51854"><ele>126.99999999999999</ele><time>2026-04-06T15:17:43.03Z</time></trkpt><trkpt lat="40.7145117" lon="8.5184367"><ele>126.99999999999999</ele><time>2026-04-06T15:17:44.03Z</time></trkpt><trkpt lat="40.714595" lon="8.5183717"><ele>127.0</ele><time>2026-04-06T15:17:45.03Z</time></trkpt><trkpt lat="40.7147" lon="8.518365"><ele>127.0</ele><time>2026-04-06T15:17:46.03Z</time></trkpt><trkpt lat="40.71481" lon="8.51841"><ele>127.0</ele><time>2026-04-06T15:17:47.03Z</time></trkpt><trkpt lat="40.7149083" lon="8.518495"><ele>127.0</ele><time>2026-04-06T15:17:48.03Z</time></trkpt><trkpt lat="40.7149767" lon="8.5186183"><ele>127.0</ele><time>2026-04-06T15:17:49.03Z</time></trkpt><trkpt lat="40.71502" lon="8.5187933"><ele>127.0</ele><time>2026-04-06T15:17:50.03Z</time></trkpt><trkpt lat="40.7150617" lon="8.51899"><ele>127.33333333333334</ele><time>2026-04-06T15:17:51.03Z</time></trkpt><trkpt lat="40.7151067" lon="8.51919"><ele>127.66666666666666</ele><time>2026-04-06T15:17:52.029Z</time></trkpt><trkpt lat="40.715155" lon="8.5193833"><ele>128.0</ele><time>2026-04-06T15:17:53.029Z</time></trkpt><trkpt lat="40.7152083" lon="8.51957"><ele>127.25</ele><time>2026-04-06T15:17:54.029Z</time></trkpt><trkpt lat="40.7152467" lon="8.5197367"><ele>126.5</ele><time>2026-04-06T15:17:55.029Z</time></trkpt><trkpt lat="40.7152667" lon="8.519905"><ele>125.75</ele><time>2026-04-06T15:17:56.029Z</time></trkpt><trkpt lat="40.71525" lon="8.52005"><ele>125.0</ele><time>2026-04-06T15:17:57.029Z</time></trkpt><trkpt lat="40.715215" lon="8.5201633"><ele>125.0</ele><time>2026-04-06T15:17:58.029Z</time></trkpt><trkpt lat="40.715155" lon="8.5202717"><ele>125.0</ele><time>2026-04-06T15:17:59.029Z</time></trkpt><trkpt lat="40.7151117" lon="8.5203583"><ele>125.0</ele><time>2026-04-06T15:18:00.029Z</time></trkpt><trkpt lat="40.71505" lon="8.5204483"><ele>125.0</ele><time>2026-04-06T15:18:02.029Z</time></trkpt><trkpt lat="40.715095" lon="8.5205667"><ele>125.0</ele><time>2026-04-06T15:18:05.029Z</time></trkpt><trkpt lat="40.71516" lon="8.5206633"><ele>124.5</ele><time>2026-04-06T15:18:06.029Z</time></trkpt><trkpt lat="40.7152417" lon="8.52078"><ele>124.0</ele><time>2026-04-06T15:18:07.029Z</time></trkpt><trkpt lat="40.71534" lon="8.5209283"><ele>123.5</ele><time>2026-04-06T15:18:08.029Z</time></trkpt><trkpt lat="40.7154317" lon="8.5211017"><ele>123.0</ele><time>2026-04-06T15:18:09.029Z</time></trkpt><trkpt lat="40.7155217" lon="8.5212833"><ele>122.0</ele><time>2026-04-06T15:18:10.029Z</time></trkpt><trkpt lat="40.71561" lon="8.5214733"><ele>121.0</ele><time>2026-04-06T15:18:11.029Z</time></trkpt><trkpt lat="40.7156883" lon="8.5216617"><ele>120.0</ele><time>2026-04-06T15:18:12.029Z</time></trkpt><trkpt lat="40.7157667" lon="8.5218367"><ele>120.0</ele><time>2026-04-06T15:18:13.029Z</time></trkpt><trkpt lat="40.71584" lon="8.5220083"><ele>120.0</ele><time>2026-04-06T15:18:14.029Z</time></trkpt><trkpt lat="40.715915" lon="8.5221733"><ele>120.0</ele><time>2026-04-06T15:18:15.029Z</time></trkpt><trkpt lat="40.7159767" lon="8.5223383"><ele>120.0</ele><time>2026-04-06T15:18:16.029Z</time></trkpt><trkpt lat="40.716045" lon="8.5224933"><ele>119.25</ele><time>2026-04-06T15:18:17.029Z</time></trkpt><trkpt lat="40.7161117" lon="8.52264"><ele>118.5</ele><time>2026-04-06T15:18:18.03Z</time></trkpt><trkpt lat="40.7161817" lon="8.52279"><ele>117.75</ele><time>2026-04-06T15:18:19.029Z</time></trkpt><trkpt lat="40.7162367" lon="8.52292"><ele>117.0</ele><time>2026-04-06T15:18:20.029Z</time></trkpt><trkpt lat="40.7162917" lon="8.5230683"><ele>116.75</ele><time>2026-04-06T15:18:21.029Z</time></trkpt><trkpt lat="40.7163367" lon="8.5232133"><ele>116.5</ele><time>2026-04-06T15:18:22.029Z</time></trkpt><trkpt lat="40.71638" lon="8.5233517"><ele>116.25</ele><time>2026-04-06T15:18:23.029Z</time></trkpt><trkpt lat="40.716415" lon="8.5234917"><ele>116.0</ele><time>2026-04-06T15:18:24.029Z</time></trkpt><trkpt lat="40.71645" lon="8.523625"><ele>116.0</ele><time>2026-04-06T15:18:25.029Z</time></trkpt><trkpt lat="40.716485" lon="8.5237517"><ele>116.0</ele><time>2026-04-06T15:18:26.029Z</time></trkpt><trkpt lat="40.7165067" lon="8.5238767"><ele>116.0</ele><time>2026-04-06T15:18:27.029Z</time></trkpt><trkpt lat="40.7165317" lon="8.5240183"><ele>116.0</ele><time>2026-04-06T15:18:28.029Z</time></trkpt><trkpt lat="40.7165533" lon="8.5241617"><ele>116.0</ele><time>2026-04-06T15:18:29.029Z</time></trkpt><trkpt lat="40.7165767" lon="8.524305"><ele>116.0</ele><time>2026-04-06T15:18:30.029Z</time></trkpt><trkpt lat="40.716605" lon="8.5244433"><ele>116.0</ele><time>2026-04-06T15:18:31.029Z</time></trkpt><trkpt lat="40.716625" lon="8.5245783"><ele>116.0</ele><time>2026-04-06T15:18:32.029Z</time></trkpt><trkpt lat="40.7166483" lon="8.5246983"><ele>116.0</ele><time>2026-04-06T15:18:33.029Z</time></trkpt><trkpt lat="40.7166583" lon="8.5247983"><ele>116.0</ele><time>2026-04-06T15:18:34.029Z</time></trkpt><trkpt lat="40.7167033" lon="8.5249267"><ele>115.8</ele><time>2026-04-06T15:18:36.029Z</time></trkpt><trkpt lat="40.7167883" lon="8.5249483"><ele>115.6</ele><time>2026-04-06T15:18:38.029Z</time></trkpt><trkpt lat="40.716855" lon="8.5249217"><ele>115.4</ele><time>2026-04-06T15:18:39.029Z</time></trkpt><trkpt lat="40.71694" lon="8.5248517"><ele>115.2</ele><time>2026-04-06T15:18:40.029Z</time></trkpt><trkpt lat="40.7170267" lon="8.5247767"><ele>115.0</ele><time>2026-04-06T15:18:41.029Z</time></trkpt><trkpt lat="40.717115" lon="8.5246783"><ele>115.4</ele><time>2026-04-06T15:18:42.029Z</time></trkpt><trkpt lat="40.7171967" lon="8.5245683"><ele>115.8</ele><time>2026-04-06T15:18:43.029Z</time></trkpt><trkpt lat="40.7172667" lon="8.5244517"><ele>116.19999999999999</ele><time>2026-04-06T15:18:44.029Z</time></trkpt><trkpt lat="40.71734" lon="8.5243367"><ele>116.6</ele><time>2026-04-06T15:18:45.029Z</time></trkpt><trkpt lat="40.71741" lon="8.5242317"><ele>117.0</ele><time>2026-04-06T15:18:46.029Z</time></trkpt><trkpt lat="40.71747" lon="8.5241317"><ele>117.0</ele><time>2026-04-06T15:18:47.029Z</time></trkpt><trkpt lat="40.7175183" lon="8.5240417"><ele>117.0</ele><time>2026-04-06T15:18:48.029Z</time></trkpt><trkpt lat="40.7175567" lon="8.52397"><ele>117.0</ele><time>2026-04-06T15:18:49.029Z</time></trkpt><trkpt lat="40.7176217" lon="8.5238717"><ele>117.0</ele><time>2026-04-06T15:18:52.029Z</time></trkpt><trkpt lat="40.7176317" lon="8.5237883"><ele>117.0</ele><time>2026-04-06T15:18:53.029Z</time></trkpt><trkpt lat="40.7176317" lon="8.5236767"><ele>117.0</ele><time>2026-04-06T15:18:54.029Z</time></trkpt><trkpt lat="40.7176183" lon="8.5235533"><ele>117.0</ele><time>2026-04-06T15:18:55.029Z</time></trkpt><trkpt lat="40.717615" lon="8.5234117"><ele>116.99999999999999</ele><time>2026-04-06T15:18:56.029Z</time></trkpt><trkpt lat="40.7176117" lon="8.523275"><ele>116.99999999999999</ele><time>2026-04-06T15:18:57.029Z</time></trkpt><trkpt lat="40.7176183" lon="8.5231517"><ele>117.0</ele><time>2026-04-06T15:18:58.029Z</time></trkpt><trkpt lat="40.717625" lon="8.5230533"><ele>117.0</ele><time>2026-04-06T15:18:59.029Z</time></trkpt><trkpt lat="40.7176583" lon="8.5229717"><ele>117.0</ele><time>2026-04-06T15:19:00.029Z</time></trkpt><trkpt lat="40.717735" lon="8.522955"><ele>116.99999999999999</ele><time>2026-04-06T15:19:01.029Z</time></trkpt><trkpt lat="40.71782" lon="8.5229283"><ele>116.99999999999999</ele><time>2026-04-06T15:19:02.029Z</time></trkpt><trkpt lat="40.7179233" lon="8.5229217"><ele>117.0</ele><time>2026-04-06T15:19:03.029Z</time></trkpt><trkpt lat="40.7180583" lon="8.52292"><ele>117.0</ele><time>2026-04-06T15:19:04.029Z</time></trkpt><trkpt lat="40.71819" lon="8.5229133"><ele>117.5</ele><time>2026-04-06T15:19:05.029Z</time></trkpt><trkpt lat="40.7183233" lon="8.5229083"><ele>118.0</ele><time>2026-04-06T15:19:06.029Z</time></trkpt><trkpt lat="40.718445" lon="8.5229017"><ele>118.5</ele><time>2026-04-06T15:19:07.029Z</time></trkpt><trkpt lat="40.7185683" lon="8.5228817"><ele>119.0</ele><time>2026-04-06T15:19:08.03Z</time></trkpt><trkpt lat="40.71868" lon="8.522865"><ele>119.2</ele><time>2026-04-06T15:19:09.03Z</time></trkpt><trkpt lat="40.71879" lon="8.522845"><ele>119.4</ele><time>2026-04-06T15:19:10.029Z</time></trkpt><trkpt lat="40.7188933" lon="8.5228117"><ele>119.6</ele><time>2026-04-06T15:19:11.029Z</time></trkpt><trkpt lat="40.7189917" lon="8.5227683"><ele>119.8</ele><time>2026-04-06T15:19:12.029Z</time></trkpt><trkpt lat="40.7190817" lon="8.522705"><ele>120.0</ele><time>2026-04-06T15:19:13.029Z</time></trkpt><trkpt lat="40.7191667" lon="8.522625"><ele>120.0</ele><time>2026-04-06T15:19:14.029Z</time></trkpt><trkpt lat="40.7192583" lon="8.5225333"><ele>120.0</ele><time>2026-04-06T15:19:15.029Z</time></trkpt><trkpt lat="40.719355" lon="8.5224383"><ele>120.0</ele><time>2026-04-06T15:19:16.029Z</time></trkpt><trkpt lat="40.7194517" lon="8.522355"><ele>120.0</ele><time>2026-04-06T15:19:17.029Z</time></trkpt><trkpt lat="40.71955" lon="8.5222717"><ele>120.0</ele><time>2026-04-06T15:19:18.029Z</time></trkpt><trkpt lat="40.719635" lon="8.52219"><ele>120.0</ele><time>2026-04-06T15:19:19.029Z</time></trkpt><trkpt lat="40.7197217" lon="8.522115"><ele>120.0</ele><time>2026-04-06T15:19:20.029Z</time></trkpt><trkpt lat="40.7198067" lon="8.5220367"><ele>120.0</ele><time>2026-04-06T15:19:21.029Z</time></trkpt><trkpt lat="40.7198933" lon="8.52195"><ele>120.0</ele><time>2026-04-06T15:19:22.029Z</time></trkpt><trkpt lat="40.7199783" lon="8.5218783"><ele>120.0</ele><time>2026-04-06T15:19:23.029Z</time></trkpt><trkpt lat="40.7200583" lon="8.5217983"><ele>120.0</ele><time>2026-04-06T15:19:24.029Z</time></trkpt><trkpt lat="40.720145" lon="8.5217233"><ele>120.0</ele><time>2026-04-06T15:19:25.029Z</time></trkpt><trkpt lat="40.7202333" lon="8.52164"><ele>120.0</ele><time>2026-04-06T15:19:26.029Z</time></trkpt><trkpt lat="40.720325" lon="8.5215717"><ele>120.0</ele><time>2026-04-06T15:19:27.029Z</time></trkpt><trkpt lat="40.7204183" lon="8.5215033"><ele>120.2</ele><time>2026-04-06T15:19:28.029Z</time></trkpt><trkpt lat="40.72052" lon="8.521435"><ele>120.4</ele><time>2026-04-06T15:19:29.029Z</time></trkpt><trkpt lat="40.7206183" lon="8.5213683"><ele>120.6</ele><time>2026-04-06T15:19:30.029Z</time></trkpt><trkpt lat="40.72071" lon="8.5213017"><ele>120.8</ele><time>2026-04-06T15:19:31.029Z</time></trkpt><trkpt lat="40.7208017" lon="8.52124"><ele>121.0</ele><time>2026-04-06T15:19:32.029Z</time></trkpt><trkpt lat="40.7208933" lon="8.5211817"><ele>121.19999999999999</ele><time>2026-04-06T15:19:33.029Z</time></trkpt><trkpt lat="40.7209783" lon="8.5211217"><ele>121.39999999999999</ele><time>2026-04-06T15:19:34.029Z</time></trkpt><trkpt lat="40.721075" lon="8.5210517"><ele>121.6</ele><time>2026-04-06T15:19:35.029Z</time></trkpt><trkpt lat="40.7211667" lon="8.5209683"><ele>121.8</ele><time>2026-04-06T15:19:36.029Z</time></trkpt><trkpt lat="40.7212467" lon="8.5208817"><ele>122.0</ele><time>2026-04-06T15:19:37.029Z</time></trkpt><trkpt lat="40.721315" lon="8.520805"><ele>122.39999999999999</ele><time>2026-04-06T15:19:38.029Z</time></trkpt><trkpt lat="40.7213817" lon="8.52073"><ele>122.79999999999998</ele><time>2026-04-06T15:19:39.029Z</time></trkpt><trkpt lat="40.7214467" lon="8.520655"><ele>123.2</ele><time>2026-04-06T15:19:40.029Z</time></trkpt><trkpt lat="40.721525" lon="8.5205683"><ele>123.6</ele><time>2026-04-06T15:19:41.029Z</time></trkpt><trkpt lat="40.7216033" lon="8.5204767"><ele>124.0</ele><time>2026-04-06T15:19:42.029Z</time></trkpt><trkpt lat="40.7216883" lon="8.5203667"><ele>124.75</ele><time>2026-04-06T15:19:43.029Z</time></trkpt><trkpt lat="40.7217883" lon="8.52024"><ele>125.5</ele><time>2026-04-06T15:19:44.029Z</time></trkpt><trkpt lat="40.7218967" lon="8.5201133"><ele>126.25</ele><time>2026-04-06T15:19:45.03Z</time></trkpt><trkpt lat="40.7220117" lon="8.5199767"><ele>127.0</ele><time>2026-04-06T15:19:46.029Z</time></trkpt><trkpt lat="40.7221267" lon="8.5198367"><ele>127.33333333333334</ele><time>2026-04-06T15:19:47.029Z</time></trkpt><trkpt lat="40.7222433" lon="8.5196933"><ele>127.66666666666666</ele><time>2026-04-06T15:19:48.029Z</time></trkpt><trkpt lat="40.7223617" lon="8.5195583"><ele>128.0</ele><time>2026-04-06T15:19:49.029Z</time></trkpt><trkpt lat="40.7224967" lon="8.51944"><ele>128.0</ele><time>2026-04-06T15:19:50.029Z</time></trkpt><trkpt lat="40.72264" lon="8.51933"><ele>128.0</ele><time>2026-04-06T15:19:51.029Z</time></trkpt><trkpt lat="40.7227917" lon="8.519225"><ele>128.0</ele><time>2026-04-06T15:19:52.029Z</time></trkpt><trkpt lat="40.722935" lon="8.5191433"><ele>128.66666666666666</ele><time>2026-04-06T15:19:53.029Z</time></trkpt><trkpt lat="40.7230767" lon="8.5190433"><ele>129.33333333333334</ele><time>2026-04-06T15:19:54.029Z</time></trkpt><trkpt lat="40.7232267" lon="8.51894"><ele>130.0</ele><time>2026-04-06T15:19:55.029Z</time></trkpt><trkpt lat="40.7233733" lon="8.518845"><ele>130.0</ele><time>2026-04-06T15:19:56.029Z</time></trkpt><trkpt lat="40.72351" lon="8.5187783"><ele>130.0</ele><time>2026-04-06T15:19:57.029Z</time></trkpt><trkpt lat="40.7236433" lon="8.5187517"><ele>130.0</ele><time>2026-04-06T15:19:58.029Z</time></trkpt><trkpt lat="40.7237833" lon="8.5187667"><ele>130.0</ele><time>2026-04-06T15:19:59.029Z</time></trkpt><trkpt lat="40.7239133" lon="8.5188483"><ele>131.5</ele><time>2026-04-06T15:20:00.029Z</time></trkpt><trkpt lat="40.7240367" lon="8.5189533"><ele>133.0</ele><time>2026-04-06T15:20:01.029Z</time></trkpt><trkpt lat="40.7241533" lon="8.5190733"><ele>134.5</ele><time>2026-04-06T15:20:02.029Z</time></trkpt><trkpt lat="40.7242583" lon="8.5192083"><ele>136.0</ele><time>2026-04-06T15:20:03.03Z</time></trkpt><trkpt lat="40.7243567" lon="8.51934"><ele>136.5</ele><time>2026-04-06T15:20:04.029Z</time></trkpt><trkpt lat="40.7244467" lon="8.5194633"><ele>137.0</ele><time>2026-04-06T15:20:05.03Z</time></trkpt><trkpt lat="40.72455" lon="8.51956"><ele>137.5</ele><time>2026-04-06T15:20:06.029Z</time></trkpt><trkpt lat="40.72466" lon="8.5196383"><ele>138.0</ele><time>2026-04-06T15:20:07.029Z</time></trkpt><trkpt lat="40.7247683" lon="8.5197167"><ele>138.0</ele><time>2026-04-06T15:20:08.029Z</time></trkpt><trkpt lat="40.7248817" lon="8.5197733"><ele>138.0</ele><time>2026-04-06T15:20:09.029Z</time></trkpt><trkpt lat="40.7249783" lon="8.519845"><ele>138.0</ele><time>2026-04-06T15:20:10.029Z</time></trkpt><trkpt lat="40.725055" lon="8.5199417"><ele>138.0</ele><time>2026-04-06T15:20:11.029Z</time></trkpt><trkpt lat="40.7251217" lon="8.520045"><ele>138.0</ele><time>2026-04-06T15:20:12.029Z</time></trkpt><trkpt lat="40.7251767" lon="8.5201383"><ele>138.0</ele><time>2026-04-06T15:20:13.029Z</time></trkpt><trkpt lat="40.7252217" lon="8.520215"><ele>138.0</ele><time>2026-04-06T15:20:14.029Z</time></trkpt><trkpt lat="40.7252533" lon="8.5202983"><ele>148.0</ele><time>2026-04-06T15:20:15.029Z</time></trkpt><trkpt lat="40.7252683" lon="8.5204417"><ele>144.0</ele><time>2026-04-06T15:20:17.029Z</time></trkpt><trkpt lat="40.725225" lon="8.520545"><ele>138.0</ele><time>2026-04-06T15:20:19.029Z</time></trkpt><trkpt lat="40.7251567" lon="8.5205817"><ele>138.0</ele><time>2026-04-06T15:20:21.029Z</time></trkpt></trkseg></trk></gpx>